<?xml version="1.0" encoding="UTF-8" standalone="no" ?>
<gpx xmlns="http://www.topografix.com/GPX/1/1" xmlns:xsi="http://www.w3.org/2001/XMLSchema-instance" xsi:schemaLocation="http://www.topografix.com/GPX/1/1 http://www.topografix.com/GPX/1/1/gpx.xsd" version="1.1" creator="VisuGPX - https://www.visugpx.com">
  <metadata>
    <name>O-S-Rouans Chéméré St Hilaire de Chaléons St Meme le Tenu Bouaye</name>
    <desc><![CDATA[O-S-Rouans Chéméré St Hilaire de Chaléons St Meme le Tenu Bouaye]]></desc>
  </metadata>
  <trk>
    <name><![CDATA[2020-05-17 11:39]]></name>
    <desc><![CDATA[<p>Heure de départ: 05/17/2020 11:40<br/>Heure d'arrivée: 05/17/2020 14:31<br/>Distance: 71,2 km (02:51)<br/>Temps déplacement: 02:48<br/>Vitesse moyenne: 24,87 km/h<br/>Vitesse moyenne mouv.: 25,39 km/h<br/>Vitesse Max.: 33,35 km/h<br/>Altitude minimale: -15 m<br/>Altitude maximale: 51 m<br/>Vitesse de montée: 714,5 m/h<br/>Vitesse de descente: -756,5 m/h<br/>Gain d'altitude: 848 m<br/>Perte d'altitude: -840 m<br/>Temps de montée: 01:11<br/>Temps de descente: 01:06<br/></p><hr align="center" width="480" style="height: 2px; width: 517px"/>]]></desc>
    <trkseg>
      <trkpt lat="47.16772" lon="-1.62648">
        <ele>18.4</ele>
        <time>2020-05-17T09:40:01Z</time>
      </trkpt>
      <trkpt lat="47.16776" lon="-1.62662">
        <ele>43.96</ele>
        <time>2020-05-17T09:40:15Z</time>
      </trkpt>
      <trkpt lat="47.16775" lon="-1.62649">
        <ele>36.17</ele>
        <time>2020-05-17T09:41:38Z</time>
      </trkpt>
      <trkpt lat="47.16777" lon="-1.62664">
        <ele>33.65</ele>
        <time>2020-05-17T09:42:21Z</time>
      </trkpt>
      <trkpt lat="47.16768" lon="-1.62677">
        <ele>30.21</ele>
        <time>2020-05-17T09:42:24Z</time>
      </trkpt>
      <trkpt lat="47.16755" lon="-1.62671">
        <ele>26.33</ele>
        <time>2020-05-17T09:42:27Z</time>
      </trkpt>
      <trkpt lat="47.16743" lon="-1.62675">
        <ele>24.77</ele>
        <time>2020-05-17T09:42:29Z</time>
      </trkpt>
      <trkpt lat="47.16732" lon="-1.62683">
        <ele>23.15</ele>
        <time>2020-05-17T09:42:31Z</time>
      </trkpt>
      <trkpt lat="47.16721" lon="-1.62691">
        <ele>22.34</ele>
        <time>2020-05-17T09:42:33Z</time>
      </trkpt>
      <trkpt lat="47.16715" lon="-1.62701">
        <ele>21.45</ele>
        <time>2020-05-17T09:42:35Z</time>
      </trkpt>
      <trkpt lat="47.16719" lon="-1.62718">
        <ele>21.69</ele>
        <time>2020-05-17T09:42:37Z</time>
      </trkpt>
      <trkpt lat="47.16728" lon="-1.62733">
        <ele>21.14</ele>
        <time>2020-05-17T09:42:39Z</time>
      </trkpt>
      <trkpt lat="47.16738" lon="-1.62746">
        <ele>21.54</ele>
        <time>2020-05-17T09:42:41Z</time>
      </trkpt>
      <trkpt lat="47.16747" lon="-1.62759">
        <ele>22.43</ele>
        <time>2020-05-17T09:42:43Z</time>
      </trkpt>
      <trkpt lat="47.16757" lon="-1.62769">
        <ele>22.36</ele>
        <time>2020-05-17T09:42:45Z</time>
      </trkpt>
      <trkpt lat="47.16768" lon="-1.62779">
        <ele>23.22</ele>
        <time>2020-05-17T09:42:47Z</time>
      </trkpt>
      <trkpt lat="47.1678" lon="-1.6279">
        <ele>23.95</ele>
        <time>2020-05-17T09:42:49Z</time>
      </trkpt>
      <trkpt lat="47.16791" lon="-1.628">
        <ele>24.36</ele>
        <time>2020-05-17T09:42:51Z</time>
      </trkpt>
      <trkpt lat="47.16802" lon="-1.62809">
        <ele>23.14</ele>
        <time>2020-05-17T09:42:53Z</time>
      </trkpt>
      <trkpt lat="47.16812" lon="-1.62818">
        <ele>21.62</ele>
        <time>2020-05-17T09:42:55Z</time>
      </trkpt>
      <trkpt lat="47.16822" lon="-1.62827">
        <ele>21.38</ele>
        <time>2020-05-17T09:42:57Z</time>
      </trkpt>
      <trkpt lat="47.16833" lon="-1.62837">
        <ele>21.69</ele>
        <time>2020-05-17T09:42:59Z</time>
      </trkpt>
      <trkpt lat="47.16843" lon="-1.62848">
        <ele>20.96</ele>
        <time>2020-05-17T09:43:01Z</time>
      </trkpt>
      <trkpt lat="47.16852" lon="-1.62858">
        <ele>20.38</ele>
        <time>2020-05-17T09:43:03Z</time>
      </trkpt>
      <trkpt lat="47.16861" lon="-1.62865">
        <ele>21.55</ele>
        <time>2020-05-17T09:43:05Z</time>
      </trkpt>
      <trkpt lat="47.16869" lon="-1.62874">
        <ele>23.31</ele>
        <time>2020-05-17T09:43:07Z</time>
      </trkpt>
      <trkpt lat="47.16879" lon="-1.62886">
        <ele>24.26</ele>
        <time>2020-05-17T09:43:09Z</time>
      </trkpt>
      <trkpt lat="47.16886" lon="-1.62902">
        <ele>24.31</ele>
        <time>2020-05-17T09:43:11Z</time>
      </trkpt>
      <trkpt lat="47.16889" lon="-1.62917">
        <ele>23.84</ele>
        <time>2020-05-17T09:43:13Z</time>
      </trkpt>
      <trkpt lat="47.16892" lon="-1.62933">
        <ele>23.24</ele>
        <time>2020-05-17T09:43:15Z</time>
      </trkpt>
      <trkpt lat="47.16894" lon="-1.62951">
        <ele>22.73</ele>
        <time>2020-05-17T09:43:17Z</time>
      </trkpt>
      <trkpt lat="47.16895" lon="-1.62972">
        <ele>22.51</ele>
        <time>2020-05-17T09:43:19Z</time>
      </trkpt>
      <trkpt lat="47.16894" lon="-1.62987">
        <ele>22.74</ele>
        <time>2020-05-17T09:43:21Z</time>
      </trkpt>
      <trkpt lat="47.16892" lon="-1.63002">
        <ele>22.41</ele>
        <time>2020-05-17T09:43:23Z</time>
      </trkpt>
      <trkpt lat="47.1689" lon="-1.6302">
        <ele>23.17</ele>
        <time>2020-05-17T09:43:25Z</time>
      </trkpt>
      <trkpt lat="47.16889" lon="-1.63039">
        <ele>23.48</ele>
        <time>2020-05-17T09:43:27Z</time>
      </trkpt>
      <trkpt lat="47.16888" lon="-1.63057">
        <ele>23.52</ele>
        <time>2020-05-17T09:43:29Z</time>
      </trkpt>
      <trkpt lat="47.16888" lon="-1.63072">
        <ele>24.86</ele>
        <time>2020-05-17T09:43:31Z</time>
      </trkpt>
      <trkpt lat="47.16891" lon="-1.63091">
        <ele>24.57</ele>
        <time>2020-05-17T09:43:33Z</time>
      </trkpt>
      <trkpt lat="47.16893" lon="-1.63109">
        <ele>25.44</ele>
        <time>2020-05-17T09:43:35Z</time>
      </trkpt>
      <trkpt lat="47.16896" lon="-1.63123">
        <ele>25.99</ele>
        <time>2020-05-17T09:43:37Z</time>
      </trkpt>
      <trkpt lat="47.16901" lon="-1.63138">
        <ele>25.38</ele>
        <time>2020-05-17T09:43:39Z</time>
      </trkpt>
      <trkpt lat="47.16906" lon="-1.63153">
        <ele>26.12</ele>
        <time>2020-05-17T09:43:41Z</time>
      </trkpt>
      <trkpt lat="47.16913" lon="-1.6317">
        <ele>27.04</ele>
        <time>2020-05-17T09:43:43Z</time>
      </trkpt>
      <trkpt lat="47.16919" lon="-1.63182">
        <ele>27.2</ele>
        <time>2020-05-17T09:43:45Z</time>
      </trkpt>
      <trkpt lat="47.16926" lon="-1.63195">
        <ele>27.67</ele>
        <time>2020-05-17T09:43:47Z</time>
      </trkpt>
      <trkpt lat="47.16934" lon="-1.63207">
        <ele>28.24</ele>
        <time>2020-05-17T09:43:49Z</time>
      </trkpt>
      <trkpt lat="47.16941" lon="-1.63217">
        <ele>28.47</ele>
        <time>2020-05-17T09:43:51Z</time>
      </trkpt>
      <trkpt lat="47.1695" lon="-1.63229">
        <ele>29.38</ele>
        <time>2020-05-17T09:43:53Z</time>
      </trkpt>
      <trkpt lat="47.1696" lon="-1.63239">
        <ele>28.68</ele>
        <time>2020-05-17T09:43:55Z</time>
      </trkpt>
      <trkpt lat="47.16969" lon="-1.6325">
        <ele>27.38</ele>
        <time>2020-05-17T09:43:58Z</time>
      </trkpt>
      <trkpt lat="47.16967" lon="-1.63264">
        <ele>27.38</ele>
        <time>2020-05-17T09:44:01Z</time>
      </trkpt>
      <trkpt lat="47.16959" lon="-1.63278">
        <ele>27.83</ele>
        <time>2020-05-17T09:44:03Z</time>
      </trkpt>
      <trkpt lat="47.16951" lon="-1.63293">
        <ele>28.34</ele>
        <time>2020-05-17T09:44:05Z</time>
      </trkpt>
      <trkpt lat="47.16942" lon="-1.63306">
        <ele>28.23</ele>
        <time>2020-05-17T09:44:07Z</time>
      </trkpt>
      <trkpt lat="47.16934" lon="-1.63319">
        <ele>28.47</ele>
        <time>2020-05-17T09:44:09Z</time>
      </trkpt>
      <trkpt lat="47.16925" lon="-1.63331">
        <ele>27.72</ele>
        <time>2020-05-17T09:44:11Z</time>
      </trkpt>
      <trkpt lat="47.16917" lon="-1.63342">
        <ele>27.01</ele>
        <time>2020-05-17T09:44:13Z</time>
      </trkpt>
      <trkpt lat="47.16907" lon="-1.63354">
        <ele>26.3</ele>
        <time>2020-05-17T09:44:15Z</time>
      </trkpt>
      <trkpt lat="47.16898" lon="-1.63367">
        <ele>26.93</ele>
        <time>2020-05-17T09:44:17Z</time>
      </trkpt>
      <trkpt lat="47.16888" lon="-1.63381">
        <ele>28.03</ele>
        <time>2020-05-17T09:44:19Z</time>
      </trkpt>
      <trkpt lat="47.1688" lon="-1.63394">
        <ele>27.62</ele>
        <time>2020-05-17T09:44:21Z</time>
      </trkpt>
      <trkpt lat="47.16871" lon="-1.63407">
        <ele>26.77</ele>
        <time>2020-05-17T09:44:23Z</time>
      </trkpt>
      <trkpt lat="47.16864" lon="-1.63418">
        <ele>25.87</ele>
        <time>2020-05-17T09:44:25Z</time>
      </trkpt>
      <trkpt lat="47.16857" lon="-1.63432">
        <ele>26.68</ele>
        <time>2020-05-17T09:44:27Z</time>
      </trkpt>
      <trkpt lat="47.16849" lon="-1.63447">
        <ele>27.83</ele>
        <time>2020-05-17T09:44:29Z</time>
      </trkpt>
      <trkpt lat="47.16841" lon="-1.63462">
        <ele>28.75</ele>
        <time>2020-05-17T09:44:31Z</time>
      </trkpt>
      <trkpt lat="47.16833" lon="-1.63474">
        <ele>30.1</ele>
        <time>2020-05-17T09:44:33Z</time>
      </trkpt>
      <trkpt lat="47.16825" lon="-1.63488">
        <ele>29.58</ele>
        <time>2020-05-17T09:44:35Z</time>
      </trkpt>
      <trkpt lat="47.16817" lon="-1.63502">
        <ele>28.89</ele>
        <time>2020-05-17T09:44:37Z</time>
      </trkpt>
      <trkpt lat="47.16808" lon="-1.63515">
        <ele>28.66</ele>
        <time>2020-05-17T09:44:39Z</time>
      </trkpt>
      <trkpt lat="47.168" lon="-1.63531">
        <ele>29.05</ele>
        <time>2020-05-17T09:44:41Z</time>
      </trkpt>
      <trkpt lat="47.16791" lon="-1.63544">
        <ele>29.58</ele>
        <time>2020-05-17T09:44:43Z</time>
      </trkpt>
      <trkpt lat="47.16782" lon="-1.6356">
        <ele>29.66</ele>
        <time>2020-05-17T09:44:45Z</time>
      </trkpt>
      <trkpt lat="47.16773" lon="-1.63574">
        <ele>29.45</ele>
        <time>2020-05-17T09:44:47Z</time>
      </trkpt>
      <trkpt lat="47.16766" lon="-1.63588">
        <ele>30.06</ele>
        <time>2020-05-17T09:44:49Z</time>
      </trkpt>
      <trkpt lat="47.16759" lon="-1.63601">
        <ele>31.4</ele>
        <time>2020-05-17T09:44:51Z</time>
      </trkpt>
      <trkpt lat="47.1675" lon="-1.63616">
        <ele>31.49</ele>
        <time>2020-05-17T09:44:53Z</time>
      </trkpt>
      <trkpt lat="47.16744" lon="-1.63628">
        <ele>31.43</ele>
        <time>2020-05-17T09:44:55Z</time>
      </trkpt>
      <trkpt lat="47.16741" lon="-1.63642">
        <ele>32.1</ele>
        <time>2020-05-17T09:44:57Z</time>
      </trkpt>
      <trkpt lat="47.16753" lon="-1.63649">
        <ele>32.47</ele>
        <time>2020-05-17T09:44:59Z</time>
      </trkpt>
      <trkpt lat="47.16768" lon="-1.63653">
        <ele>32.34</ele>
        <time>2020-05-17T09:45:01Z</time>
      </trkpt>
      <trkpt lat="47.1678" lon="-1.63657">
        <ele>31.55</ele>
        <time>2020-05-17T09:45:03Z</time>
      </trkpt>
      <trkpt lat="47.16792" lon="-1.63661">
        <ele>30.21</ele>
        <time>2020-05-17T09:45:05Z</time>
      </trkpt>
      <trkpt lat="47.16804" lon="-1.63666">
        <ele>29.71</ele>
        <time>2020-05-17T09:45:07Z</time>
      </trkpt>
      <trkpt lat="47.16817" lon="-1.63671">
        <ele>29.6</ele>
        <time>2020-05-17T09:45:09Z</time>
      </trkpt>
      <trkpt lat="47.1683" lon="-1.63676">
        <ele>29.96</ele>
        <time>2020-05-17T09:45:11Z</time>
      </trkpt>
      <trkpt lat="47.16843" lon="-1.6368">
        <ele>30.13</ele>
        <time>2020-05-17T09:45:13Z</time>
      </trkpt>
      <trkpt lat="47.16854" lon="-1.63684">
        <ele>30.71</ele>
        <time>2020-05-17T09:45:15Z</time>
      </trkpt>
      <trkpt lat="47.16866" lon="-1.63688">
        <ele>29.93</ele>
        <time>2020-05-17T09:45:17Z</time>
      </trkpt>
      <trkpt lat="47.16877" lon="-1.63693">
        <ele>29.01</ele>
        <time>2020-05-17T09:45:19Z</time>
      </trkpt>
      <trkpt lat="47.16889" lon="-1.63697">
        <ele>28.57</ele>
        <time>2020-05-17T09:45:21Z</time>
      </trkpt>
      <trkpt lat="47.16901" lon="-1.637">
        <ele>27.36</ele>
        <time>2020-05-17T09:45:23Z</time>
      </trkpt>
      <trkpt lat="47.16913" lon="-1.63705">
        <ele>27.28</ele>
        <time>2020-05-17T09:45:25Z</time>
      </trkpt>
      <trkpt lat="47.16925" lon="-1.6371">
        <ele>27.29</ele>
        <time>2020-05-17T09:45:27Z</time>
      </trkpt>
      <trkpt lat="47.16937" lon="-1.63714">
        <ele>27.2</ele>
        <time>2020-05-17T09:45:29Z</time>
      </trkpt>
      <trkpt lat="47.16949" lon="-1.63719">
        <ele>27.72</ele>
        <time>2020-05-17T09:45:31Z</time>
      </trkpt>
      <trkpt lat="47.1696" lon="-1.63723">
        <ele>27.86</ele>
        <time>2020-05-17T09:45:33Z</time>
      </trkpt>
      <trkpt lat="47.16973" lon="-1.63728">
        <ele>27.45</ele>
        <time>2020-05-17T09:45:35Z</time>
      </trkpt>
      <trkpt lat="47.16984" lon="-1.63732">
        <ele>26.29</ele>
        <time>2020-05-17T09:45:37Z</time>
      </trkpt>
      <trkpt lat="47.16996" lon="-1.63736">
        <ele>25.45</ele>
        <time>2020-05-17T09:45:39Z</time>
      </trkpt>
      <trkpt lat="47.17009" lon="-1.63741">
        <ele>25.88</ele>
        <time>2020-05-17T09:45:41Z</time>
      </trkpt>
      <trkpt lat="47.17021" lon="-1.63746">
        <ele>26.75</ele>
        <time>2020-05-17T09:45:43Z</time>
      </trkpt>
      <trkpt lat="47.17033" lon="-1.6375">
        <ele>27.89</ele>
        <time>2020-05-17T09:45:45Z</time>
      </trkpt>
      <trkpt lat="47.17046" lon="-1.63755">
        <ele>28.03</ele>
        <time>2020-05-17T09:45:47Z</time>
      </trkpt>
      <trkpt lat="47.17058" lon="-1.63767">
        <ele>27.91</ele>
        <time>2020-05-17T09:45:49Z</time>
      </trkpt>
      <trkpt lat="47.17067" lon="-1.63782">
        <ele>28.73</ele>
        <time>2020-05-17T09:45:51Z</time>
      </trkpt>
      <trkpt lat="47.17073" lon="-1.638">
        <ele>29.12</ele>
        <time>2020-05-17T09:45:53Z</time>
      </trkpt>
      <trkpt lat="47.17078" lon="-1.63819">
        <ele>28.55</ele>
        <time>2020-05-17T09:45:55Z</time>
      </trkpt>
      <trkpt lat="47.17083" lon="-1.63834">
        <ele>27.71</ele>
        <time>2020-05-17T09:45:57Z</time>
      </trkpt>
      <trkpt lat="47.17088" lon="-1.6385">
        <ele>27.64</ele>
        <time>2020-05-17T09:45:59Z</time>
      </trkpt>
      <trkpt lat="47.17094" lon="-1.63866">
        <ele>28.33</ele>
        <time>2020-05-17T09:46:01Z</time>
      </trkpt>
      <trkpt lat="47.17099" lon="-1.6388">
        <ele>28.75</ele>
        <time>2020-05-17T09:46:03Z</time>
      </trkpt>
      <trkpt lat="47.17105" lon="-1.63896">
        <ele>29.05</ele>
        <time>2020-05-17T09:46:05Z</time>
      </trkpt>
      <trkpt lat="47.17111" lon="-1.63915">
        <ele>28.98</ele>
        <time>2020-05-17T09:46:07Z</time>
      </trkpt>
      <trkpt lat="47.17117" lon="-1.6393">
        <ele>28.18</ele>
        <time>2020-05-17T09:46:09Z</time>
      </trkpt>
      <trkpt lat="47.17123" lon="-1.63941">
        <ele>28.05</ele>
        <time>2020-05-17T09:46:11Z</time>
      </trkpt>
      <trkpt lat="47.17132" lon="-1.63948">
        <ele>28.12</ele>
        <time>2020-05-17T09:46:13Z</time>
      </trkpt>
      <trkpt lat="47.17137" lon="-1.6396">
        <ele>28.16</ele>
        <time>2020-05-17T09:46:22Z</time>
      </trkpt>
      <trkpt lat="47.17137" lon="-1.63977">
        <ele>28.39</ele>
        <time>2020-05-17T09:46:24Z</time>
      </trkpt>
      <trkpt lat="47.17137" lon="-1.63992">
        <ele>28.17</ele>
        <time>2020-05-17T09:46:26Z</time>
      </trkpt>
      <trkpt lat="47.17136" lon="-1.64011">
        <ele>28.7</ele>
        <time>2020-05-17T09:46:28Z</time>
      </trkpt>
      <trkpt lat="47.17134" lon="-1.64031">
        <ele>29.54</ele>
        <time>2020-05-17T09:46:30Z</time>
      </trkpt>
      <trkpt lat="47.17132" lon="-1.64051">
        <ele>29.62</ele>
        <time>2020-05-17T09:46:32Z</time>
      </trkpt>
      <trkpt lat="47.17129" lon="-1.64071">
        <ele>29.93</ele>
        <time>2020-05-17T09:46:34Z</time>
      </trkpt>
      <trkpt lat="47.17127" lon="-1.64092">
        <ele>30.22</ele>
        <time>2020-05-17T09:46:36Z</time>
      </trkpt>
      <trkpt lat="47.17125" lon="-1.6411">
        <ele>30.8</ele>
        <time>2020-05-17T09:46:38Z</time>
      </trkpt>
      <trkpt lat="47.17122" lon="-1.64129">
        <ele>31.61</ele>
        <time>2020-05-17T09:46:40Z</time>
      </trkpt>
      <trkpt lat="47.1712" lon="-1.64148">
        <ele>31.28</ele>
        <time>2020-05-17T09:46:42Z</time>
      </trkpt>
      <trkpt lat="47.17118" lon="-1.64169">
        <ele>30.82</ele>
        <time>2020-05-17T09:46:44Z</time>
      </trkpt>
      <trkpt lat="47.17116" lon="-1.64188">
        <ele>30.75</ele>
        <time>2020-05-17T09:46:46Z</time>
      </trkpt>
      <trkpt lat="47.17115" lon="-1.64207">
        <ele>30.93</ele>
        <time>2020-05-17T09:46:48Z</time>
      </trkpt>
      <trkpt lat="47.17112" lon="-1.6423">
        <ele>30.88</ele>
        <time>2020-05-17T09:46:50Z</time>
      </trkpt>
      <trkpt lat="47.1711" lon="-1.64248">
        <ele>31.17</ele>
        <time>2020-05-17T09:46:52Z</time>
      </trkpt>
      <trkpt lat="47.17108" lon="-1.64269">
        <ele>31.3</ele>
        <time>2020-05-17T09:46:54Z</time>
      </trkpt>
      <trkpt lat="47.17106" lon="-1.6429">
        <ele>30.38</ele>
        <time>2020-05-17T09:46:56Z</time>
      </trkpt>
      <trkpt lat="47.17104" lon="-1.64311">
        <ele>29.45</ele>
        <time>2020-05-17T09:46:58Z</time>
      </trkpt>
      <trkpt lat="47.17102" lon="-1.6433">
        <ele>29.37</ele>
        <time>2020-05-17T09:47:00Z</time>
      </trkpt>
      <trkpt lat="47.171" lon="-1.64351">
        <ele>29.99</ele>
        <time>2020-05-17T09:47:02Z</time>
      </trkpt>
      <trkpt lat="47.17098" lon="-1.64372">
        <ele>30.1</ele>
        <time>2020-05-17T09:47:04Z</time>
      </trkpt>
      <trkpt lat="47.17096" lon="-1.64392">
        <ele>30.33</ele>
        <time>2020-05-17T09:47:06Z</time>
      </trkpt>
      <trkpt lat="47.17093" lon="-1.64414">
        <ele>31.17</ele>
        <time>2020-05-17T09:47:08Z</time>
      </trkpt>
      <trkpt lat="47.17091" lon="-1.64436">
        <ele>31.4</ele>
        <time>2020-05-17T09:47:10Z</time>
      </trkpt>
      <trkpt lat="47.1709" lon="-1.64458">
        <ele>31.01</ele>
        <time>2020-05-17T09:47:12Z</time>
      </trkpt>
      <trkpt lat="47.1709" lon="-1.64476">
        <ele>30.98</ele>
        <time>2020-05-17T09:47:14Z</time>
      </trkpt>
      <trkpt lat="47.17089" lon="-1.64496">
        <ele>31.08</ele>
        <time>2020-05-17T09:47:16Z</time>
      </trkpt>
      <trkpt lat="47.17088" lon="-1.64519">
        <ele>30.81</ele>
        <time>2020-05-17T09:47:18Z</time>
      </trkpt>
      <trkpt lat="47.17088" lon="-1.64539">
        <ele>30.15</ele>
        <time>2020-05-17T09:47:20Z</time>
      </trkpt>
      <trkpt lat="47.17088" lon="-1.64559">
        <ele>30.42</ele>
        <time>2020-05-17T09:47:22Z</time>
      </trkpt>
      <trkpt lat="47.17087" lon="-1.64582">
        <ele>30.15</ele>
        <time>2020-05-17T09:47:24Z</time>
      </trkpt>
      <trkpt lat="47.17087" lon="-1.64605">
        <ele>30.01</ele>
        <time>2020-05-17T09:47:26Z</time>
      </trkpt>
      <trkpt lat="47.17087" lon="-1.64628">
        <ele>30.73</ele>
        <time>2020-05-17T09:47:28Z</time>
      </trkpt>
      <trkpt lat="47.17087" lon="-1.64651">
        <ele>31.23</ele>
        <time>2020-05-17T09:47:30Z</time>
      </trkpt>
      <trkpt lat="47.17088" lon="-1.64671">
        <ele>30.04</ele>
        <time>2020-05-17T09:47:32Z</time>
      </trkpt>
      <trkpt lat="47.17088" lon="-1.64692">
        <ele>29.13</ele>
        <time>2020-05-17T09:47:34Z</time>
      </trkpt>
      <trkpt lat="47.17089" lon="-1.64714">
        <ele>28.42</ele>
        <time>2020-05-17T09:47:36Z</time>
      </trkpt>
      <trkpt lat="47.17089" lon="-1.64734">
        <ele>28.86</ele>
        <time>2020-05-17T09:47:38Z</time>
      </trkpt>
      <trkpt lat="47.1709" lon="-1.64757">
        <ele>28.54</ele>
        <time>2020-05-17T09:47:40Z</time>
      </trkpt>
      <trkpt lat="47.17092" lon="-1.64775">
        <ele>28.07</ele>
        <time>2020-05-17T09:47:42Z</time>
      </trkpt>
      <trkpt lat="47.17094" lon="-1.64798">
        <ele>27.45</ele>
        <time>2020-05-17T09:47:44Z</time>
      </trkpt>
      <trkpt lat="47.17095" lon="-1.64819">
        <ele>27.07</ele>
        <time>2020-05-17T09:47:46Z</time>
      </trkpt>
      <trkpt lat="47.17096" lon="-1.64842">
        <ele>27.03</ele>
        <time>2020-05-17T09:47:48Z</time>
      </trkpt>
      <trkpt lat="47.17097" lon="-1.64864">
        <ele>27.23</ele>
        <time>2020-05-17T09:47:51Z</time>
      </trkpt>
      <trkpt lat="47.17098" lon="-1.64884">
        <ele>27.08</ele>
        <time>2020-05-17T09:47:53Z</time>
      </trkpt>
      <trkpt lat="47.171" lon="-1.64904">
        <ele>26.68</ele>
        <time>2020-05-17T09:47:55Z</time>
      </trkpt>
      <trkpt lat="47.17102" lon="-1.64926">
        <ele>26.23</ele>
        <time>2020-05-17T09:47:57Z</time>
      </trkpt>
      <trkpt lat="47.17104" lon="-1.64947">
        <ele>25.84</ele>
        <time>2020-05-17T09:47:59Z</time>
      </trkpt>
      <trkpt lat="47.17105" lon="-1.64971">
        <ele>26.24</ele>
        <time>2020-05-17T09:48:01Z</time>
      </trkpt>
      <trkpt lat="47.17107" lon="-1.64991">
        <ele>26.89</ele>
        <time>2020-05-17T09:48:03Z</time>
      </trkpt>
      <trkpt lat="47.17108" lon="-1.65011">
        <ele>26.72</ele>
        <time>2020-05-17T09:48:05Z</time>
      </trkpt>
      <trkpt lat="47.17109" lon="-1.65032">
        <ele>26.51</ele>
        <time>2020-05-17T09:48:07Z</time>
      </trkpt>
      <trkpt lat="47.17111" lon="-1.65052">
        <ele>25.86</ele>
        <time>2020-05-17T09:48:09Z</time>
      </trkpt>
      <trkpt lat="47.17112" lon="-1.65072">
        <ele>24.92</ele>
        <time>2020-05-17T09:48:11Z</time>
      </trkpt>
      <trkpt lat="47.17114" lon="-1.65093">
        <ele>24.58</ele>
        <time>2020-05-17T09:48:13Z</time>
      </trkpt>
      <trkpt lat="47.17115" lon="-1.65113">
        <ele>25.05</ele>
        <time>2020-05-17T09:48:15Z</time>
      </trkpt>
      <trkpt lat="47.17117" lon="-1.65134">
        <ele>25.52</ele>
        <time>2020-05-17T09:48:17Z</time>
      </trkpt>
      <trkpt lat="47.17119" lon="-1.65154">
        <ele>25.83</ele>
        <time>2020-05-17T09:48:19Z</time>
      </trkpt>
      <trkpt lat="47.1712" lon="-1.65172">
        <ele>26.17</ele>
        <time>2020-05-17T09:48:21Z</time>
      </trkpt>
      <trkpt lat="47.17121" lon="-1.65189">
        <ele>26.12</ele>
        <time>2020-05-17T09:48:23Z</time>
      </trkpt>
      <trkpt lat="47.17123" lon="-1.65209">
        <ele>26.12</ele>
        <time>2020-05-17T09:48:25Z</time>
      </trkpt>
      <trkpt lat="47.17124" lon="-1.65228">
        <ele>26.22</ele>
        <time>2020-05-17T09:48:27Z</time>
      </trkpt>
      <trkpt lat="47.17126" lon="-1.65243">
        <ele>25.86</ele>
        <time>2020-05-17T09:48:29Z</time>
      </trkpt>
      <trkpt lat="47.17128" lon="-1.6526">
        <ele>25.21</ele>
        <time>2020-05-17T09:48:32Z</time>
      </trkpt>
      <trkpt lat="47.1713" lon="-1.65276">
        <ele>24.52</ele>
        <time>2020-05-17T09:48:34Z</time>
      </trkpt>
      <trkpt lat="47.17137" lon="-1.65286">
        <ele>24.34</ele>
        <time>2020-05-17T09:48:36Z</time>
      </trkpt>
      <trkpt lat="47.17141" lon="-1.65306">
        <ele>24.12</ele>
        <time>2020-05-17T09:48:38Z</time>
      </trkpt>
      <trkpt lat="47.17136" lon="-1.65326">
        <ele>24.69</ele>
        <time>2020-05-17T09:48:40Z</time>
      </trkpt>
      <trkpt lat="47.17126" lon="-1.65342">
        <ele>26.89</ele>
        <time>2020-05-17T09:48:42Z</time>
      </trkpt>
      <trkpt lat="47.17119" lon="-1.65358">
        <ele>28.88</ele>
        <time>2020-05-17T09:48:44Z</time>
      </trkpt>
      <trkpt lat="47.17118" lon="-1.65379">
        <ele>29.71</ele>
        <time>2020-05-17T09:48:46Z</time>
      </trkpt>
      <trkpt lat="47.17118" lon="-1.654">
        <ele>30.12</ele>
        <time>2020-05-17T09:48:48Z</time>
      </trkpt>
      <trkpt lat="47.17119" lon="-1.6542">
        <ele>30.12</ele>
        <time>2020-05-17T09:48:50Z</time>
      </trkpt>
      <trkpt lat="47.17119" lon="-1.65441">
        <ele>30.63</ele>
        <time>2020-05-17T09:48:52Z</time>
      </trkpt>
      <trkpt lat="47.17118" lon="-1.65462">
        <ele>31.4</ele>
        <time>2020-05-17T09:48:54Z</time>
      </trkpt>
      <trkpt lat="47.17117" lon="-1.65479">
        <ele>31.73</ele>
        <time>2020-05-17T09:48:56Z</time>
      </trkpt>
      <trkpt lat="47.17115" lon="-1.65496">
        <ele>32.57</ele>
        <time>2020-05-17T09:48:58Z</time>
      </trkpt>
      <trkpt lat="47.17112" lon="-1.65513">
        <ele>33.6</ele>
        <time>2020-05-17T09:49:00Z</time>
      </trkpt>
      <trkpt lat="47.17107" lon="-1.6553">
        <ele>34.25</ele>
        <time>2020-05-17T09:49:02Z</time>
      </trkpt>
      <trkpt lat="47.17101" lon="-1.65542">
        <ele>34.83</ele>
        <time>2020-05-17T09:49:04Z</time>
      </trkpt>
      <trkpt lat="47.17095" lon="-1.65555">
        <ele>34.55</ele>
        <time>2020-05-17T09:49:06Z</time>
      </trkpt>
      <trkpt lat="47.17086" lon="-1.65571">
        <ele>34.67</ele>
        <time>2020-05-17T09:49:08Z</time>
      </trkpt>
      <trkpt lat="47.17078" lon="-1.65584">
        <ele>35.15</ele>
        <time>2020-05-17T09:49:10Z</time>
      </trkpt>
      <trkpt lat="47.1707" lon="-1.65597">
        <ele>36.47</ele>
        <time>2020-05-17T09:49:12Z</time>
      </trkpt>
      <trkpt lat="47.17062" lon="-1.65611">
        <ele>37.38</ele>
        <time>2020-05-17T09:49:14Z</time>
      </trkpt>
      <trkpt lat="47.17053" lon="-1.65625">
        <ele>37.12</ele>
        <time>2020-05-17T09:49:16Z</time>
      </trkpt>
      <trkpt lat="47.17044" lon="-1.65639">
        <ele>36.7</ele>
        <time>2020-05-17T09:49:18Z</time>
      </trkpt>
      <trkpt lat="47.17035" lon="-1.65654">
        <ele>35.23</ele>
        <time>2020-05-17T09:49:20Z</time>
      </trkpt>
      <trkpt lat="47.17026" lon="-1.65672">
        <ele>33.86</ele>
        <time>2020-05-17T09:49:22Z</time>
      </trkpt>
      <trkpt lat="47.17016" lon="-1.65691">
        <ele>32.78</ele>
        <time>2020-05-17T09:49:24Z</time>
      </trkpt>
      <trkpt lat="47.17008" lon="-1.65709">
        <ele>32.65</ele>
        <time>2020-05-17T09:49:26Z</time>
      </trkpt>
      <trkpt lat="47.17004" lon="-1.65731">
        <ele>32.68</ele>
        <time>2020-05-17T09:49:28Z</time>
      </trkpt>
      <trkpt lat="47.17" lon="-1.65752">
        <ele>32.69</ele>
        <time>2020-05-17T09:49:30Z</time>
      </trkpt>
      <trkpt lat="47.16992" lon="-1.65769">
        <ele>32.6</ele>
        <time>2020-05-17T09:49:32Z</time>
      </trkpt>
      <trkpt lat="47.16982" lon="-1.65778">
        <ele>34.04</ele>
        <time>2020-05-17T09:49:34Z</time>
      </trkpt>
      <trkpt lat="47.16968" lon="-1.65788">
        <ele>34.81</ele>
        <time>2020-05-17T09:49:36Z</time>
      </trkpt>
      <trkpt lat="47.16956" lon="-1.65802">
        <ele>34.93</ele>
        <time>2020-05-17T09:49:38Z</time>
      </trkpt>
      <trkpt lat="47.16946" lon="-1.6582">
        <ele>33.99</ele>
        <time>2020-05-17T09:49:40Z</time>
      </trkpt>
      <trkpt lat="47.16937" lon="-1.65838">
        <ele>32.44</ele>
        <time>2020-05-17T09:49:42Z</time>
      </trkpt>
      <trkpt lat="47.16928" lon="-1.65856">
        <ele>31.32</ele>
        <time>2020-05-17T09:49:44Z</time>
      </trkpt>
      <trkpt lat="47.1692" lon="-1.65873">
        <ele>31.02</ele>
        <time>2020-05-17T09:49:46Z</time>
      </trkpt>
      <trkpt lat="47.1691" lon="-1.65893">
        <ele>30.89</ele>
        <time>2020-05-17T09:49:48Z</time>
      </trkpt>
      <trkpt lat="47.16901" lon="-1.65911">
        <ele>30.87</ele>
        <time>2020-05-17T09:49:50Z</time>
      </trkpt>
      <trkpt lat="47.16892" lon="-1.6593">
        <ele>30.23</ele>
        <time>2020-05-17T09:49:52Z</time>
      </trkpt>
      <trkpt lat="47.16884" lon="-1.65948">
        <ele>30.54</ele>
        <time>2020-05-17T09:49:54Z</time>
      </trkpt>
      <trkpt lat="47.16875" lon="-1.65969">
        <ele>29.94</ele>
        <time>2020-05-17T09:49:56Z</time>
      </trkpt>
      <trkpt lat="47.16867" lon="-1.65988">
        <ele>29.46</ele>
        <time>2020-05-17T09:49:58Z</time>
      </trkpt>
      <trkpt lat="47.1686" lon="-1.6601">
        <ele>29.39</ele>
        <time>2020-05-17T09:50:00Z</time>
      </trkpt>
      <trkpt lat="47.16856" lon="-1.66023">
        <ele>29.4</ele>
        <time>2020-05-17T09:50:01Z</time>
      </trkpt>
      <trkpt lat="47.16852" lon="-1.66044">
        <ele>29.54</ele>
        <time>2020-05-17T09:50:03Z</time>
      </trkpt>
      <trkpt lat="47.16848" lon="-1.66065">
        <ele>30.33</ele>
        <time>2020-05-17T09:50:05Z</time>
      </trkpt>
      <trkpt lat="47.16844" lon="-1.66087">
        <ele>31.12</ele>
        <time>2020-05-17T09:50:07Z</time>
      </trkpt>
      <trkpt lat="47.16843" lon="-1.6611">
        <ele>31.21</ele>
        <time>2020-05-17T09:50:09Z</time>
      </trkpt>
      <trkpt lat="47.16842" lon="-1.6613">
        <ele>30.81</ele>
        <time>2020-05-17T09:50:11Z</time>
      </trkpt>
      <trkpt lat="47.16842" lon="-1.66152">
        <ele>30.86</ele>
        <time>2020-05-17T09:50:13Z</time>
      </trkpt>
      <trkpt lat="47.16843" lon="-1.66174">
        <ele>30.9</ele>
        <time>2020-05-17T09:50:15Z</time>
      </trkpt>
      <trkpt lat="47.16844" lon="-1.66193">
        <ele>30.73</ele>
        <time>2020-05-17T09:50:17Z</time>
      </trkpt>
      <trkpt lat="47.16845" lon="-1.66214">
        <ele>29.97</ele>
        <time>2020-05-17T09:50:19Z</time>
      </trkpt>
      <trkpt lat="47.16848" lon="-1.66235">
        <ele>29.92</ele>
        <time>2020-05-17T09:50:21Z</time>
      </trkpt>
      <trkpt lat="47.1685" lon="-1.66256">
        <ele>29.62</ele>
        <time>2020-05-17T09:50:23Z</time>
      </trkpt>
      <trkpt lat="47.16851" lon="-1.66276">
        <ele>30.27</ele>
        <time>2020-05-17T09:50:25Z</time>
      </trkpt>
      <trkpt lat="47.16852" lon="-1.66296">
        <ele>31.03</ele>
        <time>2020-05-17T09:50:27Z</time>
      </trkpt>
      <trkpt lat="47.16853" lon="-1.66315">
        <ele>32.15</ele>
        <time>2020-05-17T09:50:29Z</time>
      </trkpt>
      <trkpt lat="47.16855" lon="-1.66333">
        <ele>31.97</ele>
        <time>2020-05-17T09:50:31Z</time>
      </trkpt>
      <trkpt lat="47.16857" lon="-1.66352">
        <ele>31.3</ele>
        <time>2020-05-17T09:50:33Z</time>
      </trkpt>
      <trkpt lat="47.1686" lon="-1.66376">
        <ele>30.73</ele>
        <time>2020-05-17T09:50:35Z</time>
      </trkpt>
      <trkpt lat="47.16863" lon="-1.66397">
        <ele>30.46</ele>
        <time>2020-05-17T09:50:37Z</time>
      </trkpt>
      <trkpt lat="47.16866" lon="-1.66416">
        <ele>30.43</ele>
        <time>2020-05-17T09:50:39Z</time>
      </trkpt>
      <trkpt lat="47.16868" lon="-1.66436">
        <ele>30.59</ele>
        <time>2020-05-17T09:50:41Z</time>
      </trkpt>
      <trkpt lat="47.16871" lon="-1.66456">
        <ele>30.46</ele>
        <time>2020-05-17T09:50:43Z</time>
      </trkpt>
      <trkpt lat="47.16874" lon="-1.66476">
        <ele>30.1</ele>
        <time>2020-05-17T09:50:45Z</time>
      </trkpt>
      <trkpt lat="47.16876" lon="-1.66494">
        <ele>28.69</ele>
        <time>2020-05-17T09:50:47Z</time>
      </trkpt>
      <trkpt lat="47.16878" lon="-1.66514">
        <ele>26.22</ele>
        <time>2020-05-17T09:50:49Z</time>
      </trkpt>
      <trkpt lat="47.16881" lon="-1.66535">
        <ele>24.32</ele>
        <time>2020-05-17T09:50:51Z</time>
      </trkpt>
      <trkpt lat="47.16883" lon="-1.66556">
        <ele>23.84</ele>
        <time>2020-05-17T09:50:53Z</time>
      </trkpt>
      <trkpt lat="47.16885" lon="-1.66576">
        <ele>24.82</ele>
        <time>2020-05-17T09:50:55Z</time>
      </trkpt>
      <trkpt lat="47.16887" lon="-1.66595">
        <ele>26.56</ele>
        <time>2020-05-17T09:50:57Z</time>
      </trkpt>
      <trkpt lat="47.16889" lon="-1.66614">
        <ele>28.25</ele>
        <time>2020-05-17T09:50:59Z</time>
      </trkpt>
      <trkpt lat="47.1689" lon="-1.66634">
        <ele>29.79</ele>
        <time>2020-05-17T09:51:01Z</time>
      </trkpt>
      <trkpt lat="47.16891" lon="-1.66653">
        <ele>30.39</ele>
        <time>2020-05-17T09:51:03Z</time>
      </trkpt>
      <trkpt lat="47.16892" lon="-1.66673">
        <ele>30.84</ele>
        <time>2020-05-17T09:51:05Z</time>
      </trkpt>
      <trkpt lat="47.16891" lon="-1.66694">
        <ele>30.52</ele>
        <time>2020-05-17T09:51:07Z</time>
      </trkpt>
      <trkpt lat="47.16887" lon="-1.66711">
        <ele>30.56</ele>
        <time>2020-05-17T09:51:09Z</time>
      </trkpt>
      <trkpt lat="47.16881" lon="-1.66731">
        <ele>30.51</ele>
        <time>2020-05-17T09:51:11Z</time>
      </trkpt>
      <trkpt lat="47.16875" lon="-1.66749">
        <ele>30.93</ele>
        <time>2020-05-17T09:51:13Z</time>
      </trkpt>
      <trkpt lat="47.16866" lon="-1.66766">
        <ele>30.49</ele>
        <time>2020-05-17T09:51:15Z</time>
      </trkpt>
      <trkpt lat="47.16857" lon="-1.66782">
        <ele>29.98</ele>
        <time>2020-05-17T09:51:17Z</time>
      </trkpt>
      <trkpt lat="47.16847" lon="-1.66798">
        <ele>29.92</ele>
        <time>2020-05-17T09:51:19Z</time>
      </trkpt>
      <trkpt lat="47.16839" lon="-1.66814">
        <ele>30.17</ele>
        <time>2020-05-17T09:51:21Z</time>
      </trkpt>
      <trkpt lat="47.16829" lon="-1.66832">
        <ele>30.21</ele>
        <time>2020-05-17T09:51:23Z</time>
      </trkpt>
      <trkpt lat="47.1682" lon="-1.66849">
        <ele>30.01</ele>
        <time>2020-05-17T09:51:25Z</time>
      </trkpt>
      <trkpt lat="47.16812" lon="-1.66864">
        <ele>30</ele>
        <time>2020-05-17T09:51:27Z</time>
      </trkpt>
      <trkpt lat="47.16803" lon="-1.6688">
        <ele>30.29</ele>
        <time>2020-05-17T09:51:29Z</time>
      </trkpt>
      <trkpt lat="47.16792" lon="-1.66893">
        <ele>30.74</ele>
        <time>2020-05-17T09:51:31Z</time>
      </trkpt>
      <trkpt lat="47.1678" lon="-1.66906">
        <ele>29.82</ele>
        <time>2020-05-17T09:51:33Z</time>
      </trkpt>
      <trkpt lat="47.16766" lon="-1.66912">
        <ele>28.65</ele>
        <time>2020-05-17T09:51:35Z</time>
      </trkpt>
      <trkpt lat="47.16752" lon="-1.66918">
        <ele>28.43</ele>
        <time>2020-05-17T09:51:37Z</time>
      </trkpt>
      <trkpt lat="47.16736" lon="-1.66923">
        <ele>28.17</ele>
        <time>2020-05-17T09:51:39Z</time>
      </trkpt>
      <trkpt lat="47.16722" lon="-1.66926">
        <ele>28.76</ele>
        <time>2020-05-17T09:51:41Z</time>
      </trkpt>
      <trkpt lat="47.16707" lon="-1.66931">
        <ele>30</ele>
        <time>2020-05-17T09:51:43Z</time>
      </trkpt>
      <trkpt lat="47.16694" lon="-1.66936">
        <ele>31.08</ele>
        <time>2020-05-17T09:51:45Z</time>
      </trkpt>
      <trkpt lat="47.16682" lon="-1.66946">
        <ele>31.38</ele>
        <time>2020-05-17T09:51:47Z</time>
      </trkpt>
      <trkpt lat="47.16675" lon="-1.66954">
        <ele>31.19</ele>
        <time>2020-05-17T09:51:48Z</time>
      </trkpt>
      <trkpt lat="47.16667" lon="-1.66963">
        <ele>31.6</ele>
        <time>2020-05-17T09:51:49Z</time>
      </trkpt>
      <trkpt lat="47.16659" lon="-1.66985">
        <ele>31.47</ele>
        <time>2020-05-17T09:51:51Z</time>
      </trkpt>
      <trkpt lat="47.16654" lon="-1.67008">
        <ele>31.17</ele>
        <time>2020-05-17T09:51:53Z</time>
      </trkpt>
      <trkpt lat="47.16651" lon="-1.67027">
        <ele>31.26</ele>
        <time>2020-05-17T09:51:55Z</time>
      </trkpt>
      <trkpt lat="47.16648" lon="-1.67049">
        <ele>30.59</ele>
        <time>2020-05-17T09:51:57Z</time>
      </trkpt>
      <trkpt lat="47.16644" lon="-1.67069">
        <ele>30.84</ele>
        <time>2020-05-17T09:51:59Z</time>
      </trkpt>
      <trkpt lat="47.1664" lon="-1.6709">
        <ele>30.7</ele>
        <time>2020-05-17T09:52:01Z</time>
      </trkpt>
      <trkpt lat="47.16637" lon="-1.67111">
        <ele>30.24</ele>
        <time>2020-05-17T09:52:03Z</time>
      </trkpt>
      <trkpt lat="47.16633" lon="-1.6713">
        <ele>30.36</ele>
        <time>2020-05-17T09:52:05Z</time>
      </trkpt>
      <trkpt lat="47.1663" lon="-1.6715">
        <ele>30.5</ele>
        <time>2020-05-17T09:52:07Z</time>
      </trkpt>
      <trkpt lat="47.16627" lon="-1.6717">
        <ele>29.88</ele>
        <time>2020-05-17T09:52:09Z</time>
      </trkpt>
      <trkpt lat="47.16623" lon="-1.6719">
        <ele>29.07</ele>
        <time>2020-05-17T09:52:11Z</time>
      </trkpt>
      <trkpt lat="47.1662" lon="-1.67209">
        <ele>27.96</ele>
        <time>2020-05-17T09:52:13Z</time>
      </trkpt>
      <trkpt lat="47.16616" lon="-1.67228">
        <ele>27.4</ele>
        <time>2020-05-17T09:52:15Z</time>
      </trkpt>
      <trkpt lat="47.16611" lon="-1.67247">
        <ele>27.43</ele>
        <time>2020-05-17T09:52:17Z</time>
      </trkpt>
      <trkpt lat="47.16609" lon="-1.67263">
        <ele>27.25</ele>
        <time>2020-05-17T09:52:19Z</time>
      </trkpt>
      <trkpt lat="47.16619" lon="-1.6727">
        <ele>27.09</ele>
        <time>2020-05-17T09:52:21Z</time>
      </trkpt>
      <trkpt lat="47.16634" lon="-1.67273">
        <ele>27.33</ele>
        <time>2020-05-17T09:52:23Z</time>
      </trkpt>
      <trkpt lat="47.16647" lon="-1.67276">
        <ele>26.61</ele>
        <time>2020-05-17T09:52:25Z</time>
      </trkpt>
      <trkpt lat="47.16662" lon="-1.6728">
        <ele>26.77</ele>
        <time>2020-05-17T09:52:27Z</time>
      </trkpt>
      <trkpt lat="47.16674" lon="-1.67283">
        <ele>27.65</ele>
        <time>2020-05-17T09:52:29Z</time>
      </trkpt>
      <trkpt lat="47.16686" lon="-1.67288">
        <ele>28.89</ele>
        <time>2020-05-17T09:52:31Z</time>
      </trkpt>
      <trkpt lat="47.16699" lon="-1.67294">
        <ele>29.4</ele>
        <time>2020-05-17T09:52:33Z</time>
      </trkpt>
      <trkpt lat="47.16712" lon="-1.67301">
        <ele>29.09</ele>
        <time>2020-05-17T09:52:35Z</time>
      </trkpt>
      <trkpt lat="47.16723" lon="-1.67307">
        <ele>29.3</ele>
        <time>2020-05-17T09:52:37Z</time>
      </trkpt>
      <trkpt lat="47.16735" lon="-1.67315">
        <ele>29.78</ele>
        <time>2020-05-17T09:52:39Z</time>
      </trkpt>
      <trkpt lat="47.16746" lon="-1.67323">
        <ele>30.13</ele>
        <time>2020-05-17T09:52:41Z</time>
      </trkpt>
      <trkpt lat="47.16758" lon="-1.67333">
        <ele>29.4</ele>
        <time>2020-05-17T09:52:43Z</time>
      </trkpt>
      <trkpt lat="47.16769" lon="-1.67344">
        <ele>28.45</ele>
        <time>2020-05-17T09:52:45Z</time>
      </trkpt>
      <trkpt lat="47.1678" lon="-1.67355">
        <ele>27.46</ele>
        <time>2020-05-17T09:52:47Z</time>
      </trkpt>
      <trkpt lat="47.16792" lon="-1.67367">
        <ele>27.29</ele>
        <time>2020-05-17T09:52:49Z</time>
      </trkpt>
      <trkpt lat="47.16803" lon="-1.6738">
        <ele>27.68</ele>
        <time>2020-05-17T09:52:51Z</time>
      </trkpt>
      <trkpt lat="47.16812" lon="-1.67393">
        <ele>28.89</ele>
        <time>2020-05-17T09:52:53Z</time>
      </trkpt>
      <trkpt lat="47.16822" lon="-1.67406">
        <ele>29.57</ele>
        <time>2020-05-17T09:52:55Z</time>
      </trkpt>
      <trkpt lat="47.16834" lon="-1.67421">
        <ele>30.09</ele>
        <time>2020-05-17T09:52:57Z</time>
      </trkpt>
      <trkpt lat="47.16846" lon="-1.67433">
        <ele>30.09</ele>
        <time>2020-05-17T09:52:59Z</time>
      </trkpt>
      <trkpt lat="47.16856" lon="-1.67446">
        <ele>29.84</ele>
        <time>2020-05-17T09:53:01Z</time>
      </trkpt>
      <trkpt lat="47.16866" lon="-1.67458">
        <ele>29.49</ele>
        <time>2020-05-17T09:53:03Z</time>
      </trkpt>
      <trkpt lat="47.16876" lon="-1.67471">
        <ele>29.69</ele>
        <time>2020-05-17T09:53:05Z</time>
      </trkpt>
      <trkpt lat="47.16886" lon="-1.67483">
        <ele>29.84</ele>
        <time>2020-05-17T09:53:07Z</time>
      </trkpt>
      <trkpt lat="47.16898" lon="-1.67496">
        <ele>29.73</ele>
        <time>2020-05-17T09:53:09Z</time>
      </trkpt>
      <trkpt lat="47.16909" lon="-1.67508">
        <ele>29.79</ele>
        <time>2020-05-17T09:53:11Z</time>
      </trkpt>
      <trkpt lat="47.16919" lon="-1.67521">
        <ele>29.55</ele>
        <time>2020-05-17T09:53:13Z</time>
      </trkpt>
      <trkpt lat="47.16932" lon="-1.67534">
        <ele>29.77</ele>
        <time>2020-05-17T09:53:15Z</time>
      </trkpt>
      <trkpt lat="47.16943" lon="-1.67547">
        <ele>29.36</ele>
        <time>2020-05-17T09:53:17Z</time>
      </trkpt>
      <trkpt lat="47.16953" lon="-1.6756">
        <ele>28.8</ele>
        <time>2020-05-17T09:53:19Z</time>
      </trkpt>
      <trkpt lat="47.16963" lon="-1.67573">
        <ele>28.51</ele>
        <time>2020-05-17T09:53:21Z</time>
      </trkpt>
      <trkpt lat="47.16972" lon="-1.67585">
        <ele>27.98</ele>
        <time>2020-05-17T09:53:23Z</time>
      </trkpt>
      <trkpt lat="47.16984" lon="-1.67599">
        <ele>28.69</ele>
        <time>2020-05-17T09:53:25Z</time>
      </trkpt>
      <trkpt lat="47.16995" lon="-1.67612">
        <ele>29.76</ele>
        <time>2020-05-17T09:53:27Z</time>
      </trkpt>
      <trkpt lat="47.17006" lon="-1.67623">
        <ele>30.25</ele>
        <time>2020-05-17T09:53:29Z</time>
      </trkpt>
      <trkpt lat="47.17019" lon="-1.67629">
        <ele>30.69</ele>
        <time>2020-05-17T09:53:31Z</time>
      </trkpt>
      <trkpt lat="47.17029" lon="-1.67638">
        <ele>31.23</ele>
        <time>2020-05-17T09:53:33Z</time>
      </trkpt>
      <trkpt lat="47.17038" lon="-1.67656">
        <ele>31.05</ele>
        <time>2020-05-17T09:53:35Z</time>
      </trkpt>
      <trkpt lat="47.17049" lon="-1.67672">
        <ele>31.02</ele>
        <time>2020-05-17T09:53:37Z</time>
      </trkpt>
      <trkpt lat="47.1706" lon="-1.67685">
        <ele>31.15</ele>
        <time>2020-05-17T09:53:39Z</time>
      </trkpt>
      <trkpt lat="47.17071" lon="-1.67697">
        <ele>30.27</ele>
        <time>2020-05-17T09:53:41Z</time>
      </trkpt>
      <trkpt lat="47.17084" lon="-1.67711">
        <ele>29.63</ele>
        <time>2020-05-17T09:53:43Z</time>
      </trkpt>
      <trkpt lat="47.17095" lon="-1.67723">
        <ele>29.52</ele>
        <time>2020-05-17T09:53:45Z</time>
      </trkpt>
      <trkpt lat="47.17105" lon="-1.67735">
        <ele>29.06</ele>
        <time>2020-05-17T09:53:47Z</time>
      </trkpt>
      <trkpt lat="47.17114" lon="-1.67745">
        <ele>29.16</ele>
        <time>2020-05-17T09:53:49Z</time>
      </trkpt>
      <trkpt lat="47.17123" lon="-1.67757">
        <ele>28.54</ele>
        <time>2020-05-17T09:53:51Z</time>
      </trkpt>
      <trkpt lat="47.17134" lon="-1.6777">
        <ele>28.33</ele>
        <time>2020-05-17T09:53:53Z</time>
      </trkpt>
      <trkpt lat="47.17144" lon="-1.67782">
        <ele>28.61</ele>
        <time>2020-05-17T09:53:55Z</time>
      </trkpt>
      <trkpt lat="47.17155" lon="-1.67795">
        <ele>30.02</ele>
        <time>2020-05-17T09:53:57Z</time>
      </trkpt>
      <trkpt lat="47.17165" lon="-1.67807">
        <ele>30.5</ele>
        <time>2020-05-17T09:53:59Z</time>
      </trkpt>
      <trkpt lat="47.17175" lon="-1.6782">
        <ele>31.39</ele>
        <time>2020-05-17T09:54:01Z</time>
      </trkpt>
      <trkpt lat="47.17185" lon="-1.67833">
        <ele>31.54</ele>
        <time>2020-05-17T09:54:03Z</time>
      </trkpt>
      <trkpt lat="47.17196" lon="-1.67846">
        <ele>31.36</ele>
        <time>2020-05-17T09:54:05Z</time>
      </trkpt>
      <trkpt lat="47.17207" lon="-1.67858">
        <ele>31.32</ele>
        <time>2020-05-17T09:54:07Z</time>
      </trkpt>
      <trkpt lat="47.17218" lon="-1.67871">
        <ele>31.53</ele>
        <time>2020-05-17T09:54:09Z</time>
      </trkpt>
      <trkpt lat="47.1723" lon="-1.67884">
        <ele>32.4</ele>
        <time>2020-05-17T09:54:11Z</time>
      </trkpt>
      <trkpt lat="47.17239" lon="-1.67894">
        <ele>32.61</ele>
        <time>2020-05-17T09:54:13Z</time>
      </trkpt>
      <trkpt lat="47.17251" lon="-1.67908">
        <ele>32.33</ele>
        <time>2020-05-17T09:54:15Z</time>
      </trkpt>
      <trkpt lat="47.17262" lon="-1.6792">
        <ele>32.28</ele>
        <time>2020-05-17T09:54:17Z</time>
      </trkpt>
      <trkpt lat="47.17274" lon="-1.67932">
        <ele>32.26</ele>
        <time>2020-05-17T09:54:19Z</time>
      </trkpt>
      <trkpt lat="47.17285" lon="-1.67946">
        <ele>31.78</ele>
        <time>2020-05-17T09:54:21Z</time>
      </trkpt>
      <trkpt lat="47.17295" lon="-1.67959">
        <ele>31.19</ele>
        <time>2020-05-17T09:54:23Z</time>
      </trkpt>
      <trkpt lat="47.17306" lon="-1.67972">
        <ele>30.53</ele>
        <time>2020-05-17T09:54:25Z</time>
      </trkpt>
      <trkpt lat="47.17315" lon="-1.67983">
        <ele>30.39</ele>
        <time>2020-05-17T09:54:27Z</time>
      </trkpt>
      <trkpt lat="47.17325" lon="-1.67998">
        <ele>30.86</ele>
        <time>2020-05-17T09:54:29Z</time>
      </trkpt>
      <trkpt lat="47.17334" lon="-1.68015">
        <ele>31.66</ele>
        <time>2020-05-17T09:54:31Z</time>
      </trkpt>
      <trkpt lat="47.17341" lon="-1.68033">
        <ele>31.71</ele>
        <time>2020-05-17T09:54:33Z</time>
      </trkpt>
      <trkpt lat="47.17344" lon="-1.68054">
        <ele>31.1</ele>
        <time>2020-05-17T09:54:35Z</time>
      </trkpt>
      <trkpt lat="47.17348" lon="-1.68074">
        <ele>30.94</ele>
        <time>2020-05-17T09:54:37Z</time>
      </trkpt>
      <trkpt lat="47.17352" lon="-1.68095">
        <ele>30.23</ele>
        <time>2020-05-17T09:54:39Z</time>
      </trkpt>
      <trkpt lat="47.17356" lon="-1.68116">
        <ele>29.64</ele>
        <time>2020-05-17T09:54:41Z</time>
      </trkpt>
      <trkpt lat="47.17359" lon="-1.68134">
        <ele>29.08</ele>
        <time>2020-05-17T09:54:43Z</time>
      </trkpt>
      <trkpt lat="47.17362" lon="-1.68157">
        <ele>29.17</ele>
        <time>2020-05-17T09:54:45Z</time>
      </trkpt>
      <trkpt lat="47.17363" lon="-1.68178">
        <ele>29.85</ele>
        <time>2020-05-17T09:54:47Z</time>
      </trkpt>
      <trkpt lat="47.17361" lon="-1.68198">
        <ele>30.29</ele>
        <time>2020-05-17T09:54:49Z</time>
      </trkpt>
      <trkpt lat="47.17358" lon="-1.68216">
        <ele>31.08</ele>
        <time>2020-05-17T09:54:51Z</time>
      </trkpt>
      <trkpt lat="47.17354" lon="-1.68235">
        <ele>32.6</ele>
        <time>2020-05-17T09:54:53Z</time>
      </trkpt>
      <trkpt lat="47.1735" lon="-1.68257">
        <ele>33.57</ele>
        <time>2020-05-17T09:54:55Z</time>
      </trkpt>
      <trkpt lat="47.17346" lon="-1.68274">
        <ele>34.04</ele>
        <time>2020-05-17T09:54:57Z</time>
      </trkpt>
      <trkpt lat="47.17342" lon="-1.6829">
        <ele>33.73</ele>
        <time>2020-05-17T09:54:59Z</time>
      </trkpt>
      <trkpt lat="47.17338" lon="-1.68306">
        <ele>33.35</ele>
        <time>2020-05-17T09:55:01Z</time>
      </trkpt>
      <trkpt lat="47.17333" lon="-1.68322">
        <ele>32.66</ele>
        <time>2020-05-17T09:55:03Z</time>
      </trkpt>
      <trkpt lat="47.17329" lon="-1.68339">
        <ele>32.93</ele>
        <time>2020-05-17T09:55:05Z</time>
      </trkpt>
      <trkpt lat="47.17324" lon="-1.68358">
        <ele>33.48</ele>
        <time>2020-05-17T09:55:07Z</time>
      </trkpt>
      <trkpt lat="47.17326" lon="-1.68372">
        <ele>35.33</ele>
        <time>2020-05-17T09:55:09Z</time>
      </trkpt>
      <trkpt lat="47.17337" lon="-1.68381">
        <ele>37.54</ele>
        <time>2020-05-17T09:55:11Z</time>
      </trkpt>
      <trkpt lat="47.17351" lon="-1.68382">
        <ele>38.58</ele>
        <time>2020-05-17T09:55:13Z</time>
      </trkpt>
      <trkpt lat="47.17364" lon="-1.68381">
        <ele>38.76</ele>
        <time>2020-05-17T09:55:15Z</time>
      </trkpt>
      <trkpt lat="47.17377" lon="-1.68385">
        <ele>38.59</ele>
        <time>2020-05-17T09:55:17Z</time>
      </trkpt>
      <trkpt lat="47.17381" lon="-1.68399">
        <ele>38.08</ele>
        <time>2020-05-17T09:55:19Z</time>
      </trkpt>
      <trkpt lat="47.17374" lon="-1.68418">
        <ele>38.03</ele>
        <time>2020-05-17T09:55:21Z</time>
      </trkpt>
      <trkpt lat="47.17364" lon="-1.68428">
        <ele>37.18</ele>
        <time>2020-05-17T09:55:23Z</time>
      </trkpt>
      <trkpt lat="47.17358" lon="-1.68443">
        <ele>36.69</ele>
        <time>2020-05-17T09:55:25Z</time>
      </trkpt>
      <trkpt lat="47.17362" lon="-1.68461">
        <ele>37.04</ele>
        <time>2020-05-17T09:55:27Z</time>
      </trkpt>
      <trkpt lat="47.17371" lon="-1.68476">
        <ele>37.09</ele>
        <time>2020-05-17T09:55:29Z</time>
      </trkpt>
      <trkpt lat="47.17381" lon="-1.68491">
        <ele>36.5</ele>
        <time>2020-05-17T09:55:31Z</time>
      </trkpt>
      <trkpt lat="47.17392" lon="-1.68508">
        <ele>35.51</ele>
        <time>2020-05-17T09:55:33Z</time>
      </trkpt>
      <trkpt lat="47.17402" lon="-1.68523">
        <ele>34.66</ele>
        <time>2020-05-17T09:55:35Z</time>
      </trkpt>
      <trkpt lat="47.17412" lon="-1.68538">
        <ele>33.24</ele>
        <time>2020-05-17T09:55:37Z</time>
      </trkpt>
      <trkpt lat="47.17423" lon="-1.68556">
        <ele>31.54</ele>
        <time>2020-05-17T09:55:39Z</time>
      </trkpt>
      <trkpt lat="47.17433" lon="-1.68575">
        <ele>30.17</ele>
        <time>2020-05-17T09:55:41Z</time>
      </trkpt>
      <trkpt lat="47.17443" lon="-1.68596">
        <ele>30.3</ele>
        <time>2020-05-17T09:55:43Z</time>
      </trkpt>
      <trkpt lat="47.17451" lon="-1.68614">
        <ele>30.46</ele>
        <time>2020-05-17T09:55:45Z</time>
      </trkpt>
      <trkpt lat="47.17459" lon="-1.68635">
        <ele>30.28</ele>
        <time>2020-05-17T09:55:47Z</time>
      </trkpt>
      <trkpt lat="47.17463" lon="-1.68651">
        <ele>30.03</ele>
        <time>2020-05-17T09:55:49Z</time>
      </trkpt>
      <trkpt lat="47.17469" lon="-1.68669">
        <ele>29.96</ele>
        <time>2020-05-17T09:55:51Z</time>
      </trkpt>
      <trkpt lat="47.17475" lon="-1.68689">
        <ele>30.55</ele>
        <time>2020-05-17T09:55:53Z</time>
      </trkpt>
      <trkpt lat="47.1748" lon="-1.68707">
        <ele>30.65</ele>
        <time>2020-05-17T09:55:55Z</time>
      </trkpt>
      <trkpt lat="47.17484" lon="-1.68726">
        <ele>29.61</ele>
        <time>2020-05-17T09:55:57Z</time>
      </trkpt>
      <trkpt lat="47.17488" lon="-1.68744">
        <ele>28.94</ele>
        <time>2020-05-17T09:55:59Z</time>
      </trkpt>
      <trkpt lat="47.17492" lon="-1.68764">
        <ele>29.36</ele>
        <time>2020-05-17T09:56:01Z</time>
      </trkpt>
      <trkpt lat="47.17495" lon="-1.68782">
        <ele>29.84</ele>
        <time>2020-05-17T09:56:03Z</time>
      </trkpt>
      <trkpt lat="47.17498" lon="-1.688">
        <ele>29.15</ele>
        <time>2020-05-17T09:56:05Z</time>
      </trkpt>
      <trkpt lat="47.17503" lon="-1.68822">
        <ele>27.93</ele>
        <time>2020-05-17T09:56:07Z</time>
      </trkpt>
      <trkpt lat="47.17506" lon="-1.6884">
        <ele>28.73</ele>
        <time>2020-05-17T09:56:09Z</time>
      </trkpt>
      <trkpt lat="47.1751" lon="-1.68863">
        <ele>29.95</ele>
        <time>2020-05-17T09:56:11Z</time>
      </trkpt>
      <trkpt lat="47.1751" lon="-1.68885">
        <ele>30.78</ele>
        <time>2020-05-17T09:56:13Z</time>
      </trkpt>
      <trkpt lat="47.17509" lon="-1.68908">
        <ele>30.74</ele>
        <time>2020-05-17T09:56:15Z</time>
      </trkpt>
      <trkpt lat="47.17506" lon="-1.68927">
        <ele>30.67</ele>
        <time>2020-05-17T09:56:17Z</time>
      </trkpt>
      <trkpt lat="47.17504" lon="-1.68947">
        <ele>29.44</ele>
        <time>2020-05-17T09:56:19Z</time>
      </trkpt>
      <trkpt lat="47.17502" lon="-1.68969">
        <ele>28.07</ele>
        <time>2020-05-17T09:56:21Z</time>
      </trkpt>
      <trkpt lat="47.17503" lon="-1.68988">
        <ele>28.04</ele>
        <time>2020-05-17T09:56:23Z</time>
      </trkpt>
      <trkpt lat="47.17504" lon="-1.69008">
        <ele>29.04</ele>
        <time>2020-05-17T09:56:25Z</time>
      </trkpt>
      <trkpt lat="47.17505" lon="-1.6903">
        <ele>30.11</ele>
        <time>2020-05-17T09:56:27Z</time>
      </trkpt>
      <trkpt lat="47.17506" lon="-1.69051">
        <ele>30.2</ele>
        <time>2020-05-17T09:56:29Z</time>
      </trkpt>
      <trkpt lat="47.17507" lon="-1.69071">
        <ele>29.81</ele>
        <time>2020-05-17T09:56:31Z</time>
      </trkpt>
      <trkpt lat="47.17507" lon="-1.69091">
        <ele>30.2</ele>
        <time>2020-05-17T09:56:33Z</time>
      </trkpt>
      <trkpt lat="47.17506" lon="-1.69113">
        <ele>30.42</ele>
        <time>2020-05-17T09:56:35Z</time>
      </trkpt>
      <trkpt lat="47.17506" lon="-1.69131">
        <ele>30.61</ele>
        <time>2020-05-17T09:56:37Z</time>
      </trkpt>
      <trkpt lat="47.17505" lon="-1.6915">
        <ele>31.59</ele>
        <time>2020-05-17T09:56:39Z</time>
      </trkpt>
      <trkpt lat="47.17504" lon="-1.69172">
        <ele>31.04</ele>
        <time>2020-05-17T09:56:41Z</time>
      </trkpt>
      <trkpt lat="47.17503" lon="-1.69194">
        <ele>30.56</ele>
        <time>2020-05-17T09:56:43Z</time>
      </trkpt>
      <trkpt lat="47.17502" lon="-1.69211">
        <ele>30.34</ele>
        <time>2020-05-17T09:56:45Z</time>
      </trkpt>
      <trkpt lat="47.17501" lon="-1.69233">
        <ele>29.91</ele>
        <time>2020-05-17T09:56:47Z</time>
      </trkpt>
      <trkpt lat="47.17499" lon="-1.69252">
        <ele>30.61</ele>
        <time>2020-05-17T09:56:49Z</time>
      </trkpt>
      <trkpt lat="47.17498" lon="-1.69274">
        <ele>30.86</ele>
        <time>2020-05-17T09:56:51Z</time>
      </trkpt>
      <trkpt lat="47.17497" lon="-1.69294">
        <ele>31</ele>
        <time>2020-05-17T09:56:53Z</time>
      </trkpt>
      <trkpt lat="47.17496" lon="-1.69314">
        <ele>32.19</ele>
        <time>2020-05-17T09:56:55Z</time>
      </trkpt>
      <trkpt lat="47.17495" lon="-1.69335">
        <ele>31.66</ele>
        <time>2020-05-17T09:56:57Z</time>
      </trkpt>
      <trkpt lat="47.17495" lon="-1.69354">
        <ele>30.79</ele>
        <time>2020-05-17T09:56:59Z</time>
      </trkpt>
      <trkpt lat="47.17496" lon="-1.69374">
        <ele>29.62</ele>
        <time>2020-05-17T09:57:01Z</time>
      </trkpt>
      <trkpt lat="47.17496" lon="-1.69393">
        <ele>29.7</ele>
        <time>2020-05-17T09:57:03Z</time>
      </trkpt>
      <trkpt lat="47.17496" lon="-1.69413">
        <ele>29.34</ele>
        <time>2020-05-17T09:57:05Z</time>
      </trkpt>
      <trkpt lat="47.17496" lon="-1.69431">
        <ele>29.58</ele>
        <time>2020-05-17T09:57:07Z</time>
      </trkpt>
      <trkpt lat="47.17497" lon="-1.69451">
        <ele>29.68</ele>
        <time>2020-05-17T09:57:09Z</time>
      </trkpt>
      <trkpt lat="47.17497" lon="-1.69472">
        <ele>29.51</ele>
        <time>2020-05-17T09:57:11Z</time>
      </trkpt>
      <trkpt lat="47.17497" lon="-1.69492">
        <ele>29.39</ele>
        <time>2020-05-17T09:57:13Z</time>
      </trkpt>
      <trkpt lat="47.17497" lon="-1.69512">
        <ele>29.61</ele>
        <time>2020-05-17T09:57:15Z</time>
      </trkpt>
      <trkpt lat="47.17498" lon="-1.69531">
        <ele>29.84</ele>
        <time>2020-05-17T09:57:17Z</time>
      </trkpt>
      <trkpt lat="47.17499" lon="-1.6955">
        <ele>30.37</ele>
        <time>2020-05-17T09:57:19Z</time>
      </trkpt>
      <trkpt lat="47.175" lon="-1.6957">
        <ele>30.66</ele>
        <time>2020-05-17T09:57:20Z</time>
      </trkpt>
      <trkpt lat="47.17502" lon="-1.69592">
        <ele>31.41</ele>
        <time>2020-05-17T09:57:22Z</time>
      </trkpt>
      <trkpt lat="47.17504" lon="-1.69609">
        <ele>30.98</ele>
        <time>2020-05-17T09:57:24Z</time>
      </trkpt>
      <trkpt lat="47.17505" lon="-1.69628">
        <ele>30.71</ele>
        <time>2020-05-17T09:57:26Z</time>
      </trkpt>
      <trkpt lat="47.17507" lon="-1.69648">
        <ele>30.7</ele>
        <time>2020-05-17T09:57:28Z</time>
      </trkpt>
      <trkpt lat="47.17508" lon="-1.69666">
        <ele>31.34</ele>
        <time>2020-05-17T09:57:30Z</time>
      </trkpt>
      <trkpt lat="47.1751" lon="-1.69689">
        <ele>30.62</ele>
        <time>2020-05-17T09:57:32Z</time>
      </trkpt>
      <trkpt lat="47.17512" lon="-1.69708">
        <ele>29.9</ele>
        <time>2020-05-17T09:57:34Z</time>
      </trkpt>
      <trkpt lat="47.17514" lon="-1.69728">
        <ele>29.66</ele>
        <time>2020-05-17T09:57:36Z</time>
      </trkpt>
      <trkpt lat="47.17515" lon="-1.69747">
        <ele>29.51</ele>
        <time>2020-05-17T09:57:38Z</time>
      </trkpt>
      <trkpt lat="47.17517" lon="-1.69765">
        <ele>29.88</ele>
        <time>2020-05-17T09:57:40Z</time>
      </trkpt>
      <trkpt lat="47.17518" lon="-1.69784">
        <ele>30.72</ele>
        <time>2020-05-17T09:57:42Z</time>
      </trkpt>
      <trkpt lat="47.1752" lon="-1.69803">
        <ele>30.99</ele>
        <time>2020-05-17T09:57:44Z</time>
      </trkpt>
      <trkpt lat="47.17522" lon="-1.69823">
        <ele>30.8</ele>
        <time>2020-05-17T09:57:46Z</time>
      </trkpt>
      <trkpt lat="47.17524" lon="-1.69844">
        <ele>30.06</ele>
        <time>2020-05-17T09:57:48Z</time>
      </trkpt>
      <trkpt lat="47.17527" lon="-1.69861">
        <ele>28.85</ele>
        <time>2020-05-17T09:57:50Z</time>
      </trkpt>
      <trkpt lat="47.17529" lon="-1.6988">
        <ele>28.33</ele>
        <time>2020-05-17T09:57:52Z</time>
      </trkpt>
      <trkpt lat="47.17533" lon="-1.69901">
        <ele>28.32</ele>
        <time>2020-05-17T09:57:54Z</time>
      </trkpt>
      <trkpt lat="47.17536" lon="-1.6992">
        <ele>27.62</ele>
        <time>2020-05-17T09:57:56Z</time>
      </trkpt>
      <trkpt lat="47.17539" lon="-1.69939">
        <ele>28.41</ele>
        <time>2020-05-17T09:57:58Z</time>
      </trkpt>
      <trkpt lat="47.17543" lon="-1.69958">
        <ele>29.33</ele>
        <time>2020-05-17T09:58:00Z</time>
      </trkpt>
      <trkpt lat="47.17546" lon="-1.69979">
        <ele>29.26</ele>
        <time>2020-05-17T09:58:02Z</time>
      </trkpt>
      <trkpt lat="47.1755" lon="-1.69998">
        <ele>28.92</ele>
        <time>2020-05-17T09:58:04Z</time>
      </trkpt>
      <trkpt lat="47.17555" lon="-1.70017">
        <ele>28.63</ele>
        <time>2020-05-17T09:58:06Z</time>
      </trkpt>
      <trkpt lat="47.17559" lon="-1.70037">
        <ele>28.63</ele>
        <time>2020-05-17T09:58:08Z</time>
      </trkpt>
      <trkpt lat="47.17563" lon="-1.70056">
        <ele>28.88</ele>
        <time>2020-05-17T09:58:10Z</time>
      </trkpt>
      <trkpt lat="47.17568" lon="-1.70076">
        <ele>28.91</ele>
        <time>2020-05-17T09:58:12Z</time>
      </trkpt>
      <trkpt lat="47.17572" lon="-1.70094">
        <ele>28.5</ele>
        <time>2020-05-17T09:58:14Z</time>
      </trkpt>
      <trkpt lat="47.17576" lon="-1.70111">
        <ele>28.99</ele>
        <time>2020-05-17T09:58:16Z</time>
      </trkpt>
      <trkpt lat="47.1758" lon="-1.70131">
        <ele>28.49</ele>
        <time>2020-05-17T09:58:18Z</time>
      </trkpt>
      <trkpt lat="47.17584" lon="-1.7015">
        <ele>28.24</ele>
        <time>2020-05-17T09:58:20Z</time>
      </trkpt>
      <trkpt lat="47.17588" lon="-1.7017">
        <ele>28.37</ele>
        <time>2020-05-17T09:58:22Z</time>
      </trkpt>
      <trkpt lat="47.17591" lon="-1.70187">
        <ele>28.93</ele>
        <time>2020-05-17T09:58:24Z</time>
      </trkpt>
      <trkpt lat="47.17595" lon="-1.70206">
        <ele>29.29</ele>
        <time>2020-05-17T09:58:26Z</time>
      </trkpt>
      <trkpt lat="47.17597" lon="-1.70225">
        <ele>29.46</ele>
        <time>2020-05-17T09:58:28Z</time>
      </trkpt>
      <trkpt lat="47.17598" lon="-1.70246">
        <ele>28.82</ele>
        <time>2020-05-17T09:58:30Z</time>
      </trkpt>
      <trkpt lat="47.17597" lon="-1.70267">
        <ele>29.04</ele>
        <time>2020-05-17T09:58:32Z</time>
      </trkpt>
      <trkpt lat="47.17595" lon="-1.70287">
        <ele>29.1</ele>
        <time>2020-05-17T09:58:34Z</time>
      </trkpt>
      <trkpt lat="47.17589" lon="-1.70304">
        <ele>28.9</ele>
        <time>2020-05-17T09:58:36Z</time>
      </trkpt>
      <trkpt lat="47.17583" lon="-1.70322">
        <ele>29.12</ele>
        <time>2020-05-17T09:58:38Z</time>
      </trkpt>
      <trkpt lat="47.17576" lon="-1.70338">
        <ele>29.08</ele>
        <time>2020-05-17T09:58:40Z</time>
      </trkpt>
      <trkpt lat="47.1757" lon="-1.70353">
        <ele>29.2</ele>
        <time>2020-05-17T09:58:42Z</time>
      </trkpt>
      <trkpt lat="47.17568" lon="-1.70371">
        <ele>29.09</ele>
        <time>2020-05-17T09:58:44Z</time>
      </trkpt>
      <trkpt lat="47.17574" lon="-1.70385">
        <ele>28.77</ele>
        <time>2020-05-17T09:58:46Z</time>
      </trkpt>
      <trkpt lat="47.17587" lon="-1.70386">
        <ele>28.92</ele>
        <time>2020-05-17T09:58:48Z</time>
      </trkpt>
      <trkpt lat="47.17601" lon="-1.70387">
        <ele>28.85</ele>
        <time>2020-05-17T09:58:50Z</time>
      </trkpt>
      <trkpt lat="47.17613" lon="-1.70395">
        <ele>28.76</ele>
        <time>2020-05-17T09:58:52Z</time>
      </trkpt>
      <trkpt lat="47.17618" lon="-1.70413">
        <ele>29.04</ele>
        <time>2020-05-17T09:58:54Z</time>
      </trkpt>
      <trkpt lat="47.17616" lon="-1.70432">
        <ele>29.72</ele>
        <time>2020-05-17T09:58:56Z</time>
      </trkpt>
      <trkpt lat="47.17612" lon="-1.70452">
        <ele>29.82</ele>
        <time>2020-05-17T09:58:58Z</time>
      </trkpt>
      <trkpt lat="47.17614" lon="-1.70473">
        <ele>29.72</ele>
        <time>2020-05-17T09:59:00Z</time>
      </trkpt>
      <trkpt lat="47.17621" lon="-1.70489">
        <ele>29.77</ele>
        <time>2020-05-17T09:59:02Z</time>
      </trkpt>
      <trkpt lat="47.17634" lon="-1.70508">
        <ele>29.85</ele>
        <time>2020-05-17T09:59:04Z</time>
      </trkpt>
      <trkpt lat="47.17646" lon="-1.7052">
        <ele>30.07</ele>
        <time>2020-05-17T09:59:06Z</time>
      </trkpt>
      <trkpt lat="47.17661" lon="-1.70533">
        <ele>30.7</ele>
        <time>2020-05-17T09:59:08Z</time>
      </trkpt>
      <trkpt lat="47.17675" lon="-1.70546">
        <ele>30.1</ele>
        <time>2020-05-17T09:59:10Z</time>
      </trkpt>
      <trkpt lat="47.17688" lon="-1.70558">
        <ele>29.38</ele>
        <time>2020-05-17T09:59:12Z</time>
      </trkpt>
      <trkpt lat="47.17702" lon="-1.70572">
        <ele>29.56</ele>
        <time>2020-05-17T09:59:14Z</time>
      </trkpt>
      <trkpt lat="47.17713" lon="-1.70584">
        <ele>29.62</ele>
        <time>2020-05-17T09:59:16Z</time>
      </trkpt>
      <trkpt lat="47.17723" lon="-1.70598">
        <ele>28.82</ele>
        <time>2020-05-17T09:59:18Z</time>
      </trkpt>
      <trkpt lat="47.17731" lon="-1.70612">
        <ele>27.33</ele>
        <time>2020-05-17T09:59:20Z</time>
      </trkpt>
      <trkpt lat="47.17739" lon="-1.7063">
        <ele>26.04</ele>
        <time>2020-05-17T09:59:22Z</time>
      </trkpt>
      <trkpt lat="47.17746" lon="-1.70649">
        <ele>26.01</ele>
        <time>2020-05-17T09:59:24Z</time>
      </trkpt>
      <trkpt lat="47.17753" lon="-1.70667">
        <ele>25.71</ele>
        <time>2020-05-17T09:59:26Z</time>
      </trkpt>
      <trkpt lat="47.17759" lon="-1.70687">
        <ele>25.23</ele>
        <time>2020-05-17T09:59:28Z</time>
      </trkpt>
      <trkpt lat="47.17765" lon="-1.70705">
        <ele>24.94</ele>
        <time>2020-05-17T09:59:30Z</time>
      </trkpt>
      <trkpt lat="47.1777" lon="-1.70723">
        <ele>25.01</ele>
        <time>2020-05-17T09:59:32Z</time>
      </trkpt>
      <trkpt lat="47.17777" lon="-1.70742">
        <ele>25.67</ele>
        <time>2020-05-17T09:59:34Z</time>
      </trkpt>
      <trkpt lat="47.17782" lon="-1.70761">
        <ele>25.44</ele>
        <time>2020-05-17T09:59:36Z</time>
      </trkpt>
      <trkpt lat="47.17788" lon="-1.7078">
        <ele>25.34</ele>
        <time>2020-05-17T09:59:38Z</time>
      </trkpt>
      <trkpt lat="47.17794" lon="-1.70797">
        <ele>25.21</ele>
        <time>2020-05-17T09:59:40Z</time>
      </trkpt>
      <trkpt lat="47.178" lon="-1.70814">
        <ele>25.56</ele>
        <time>2020-05-17T09:59:42Z</time>
      </trkpt>
      <trkpt lat="47.17805" lon="-1.70833">
        <ele>26.18</ele>
        <time>2020-05-17T09:59:44Z</time>
      </trkpt>
      <trkpt lat="47.17811" lon="-1.70851">
        <ele>26.11</ele>
        <time>2020-05-17T09:59:46Z</time>
      </trkpt>
      <trkpt lat="47.17817" lon="-1.7087">
        <ele>26.03</ele>
        <time>2020-05-17T09:59:48Z</time>
      </trkpt>
      <trkpt lat="47.17823" lon="-1.70888">
        <ele>26.27</ele>
        <time>2020-05-17T09:59:50Z</time>
      </trkpt>
      <trkpt lat="47.1783" lon="-1.70908">
        <ele>26.43</ele>
        <time>2020-05-17T09:59:52Z</time>
      </trkpt>
      <trkpt lat="47.17835" lon="-1.70925">
        <ele>25.94</ele>
        <time>2020-05-17T09:59:54Z</time>
      </trkpt>
      <trkpt lat="47.17841" lon="-1.70943">
        <ele>25.38</ele>
        <time>2020-05-17T09:59:56Z</time>
      </trkpt>
      <trkpt lat="47.17848" lon="-1.7096">
        <ele>24.74</ele>
        <time>2020-05-17T09:59:58Z</time>
      </trkpt>
      <trkpt lat="47.17854" lon="-1.70974">
        <ele>24.44</ele>
        <time>2020-05-17T10:00:00Z</time>
      </trkpt>
      <trkpt lat="47.17862" lon="-1.7099">
        <ele>25.15</ele>
        <time>2020-05-17T10:00:02Z</time>
      </trkpt>
      <trkpt lat="47.17871" lon="-1.71007">
        <ele>25.29</ele>
        <time>2020-05-17T10:00:04Z</time>
      </trkpt>
      <trkpt lat="47.17879" lon="-1.71023">
        <ele>25.81</ele>
        <time>2020-05-17T10:00:06Z</time>
      </trkpt>
      <trkpt lat="47.17886" lon="-1.7104">
        <ele>26.13</ele>
        <time>2020-05-17T10:00:08Z</time>
      </trkpt>
      <trkpt lat="47.17893" lon="-1.71057">
        <ele>27.09</ele>
        <time>2020-05-17T10:00:10Z</time>
      </trkpt>
      <trkpt lat="47.17898" lon="-1.71075">
        <ele>27.6</ele>
        <time>2020-05-17T10:00:12Z</time>
      </trkpt>
      <trkpt lat="47.17904" lon="-1.71094">
        <ele>27.54</ele>
        <time>2020-05-17T10:00:14Z</time>
      </trkpt>
      <trkpt lat="47.17909" lon="-1.7111">
        <ele>27.9</ele>
        <time>2020-05-17T10:00:16Z</time>
      </trkpt>
      <trkpt lat="47.17914" lon="-1.71127">
        <ele>27.5</ele>
        <time>2020-05-17T10:00:18Z</time>
      </trkpt>
      <trkpt lat="47.17919" lon="-1.71146">
        <ele>26.85</ele>
        <time>2020-05-17T10:00:20Z</time>
      </trkpt>
      <trkpt lat="47.17923" lon="-1.71167">
        <ele>26.48</ele>
        <time>2020-05-17T10:00:22Z</time>
      </trkpt>
      <trkpt lat="47.17926" lon="-1.71189">
        <ele>25.78</ele>
        <time>2020-05-17T10:00:24Z</time>
      </trkpt>
      <trkpt lat="47.17929" lon="-1.71207">
        <ele>26.41</ele>
        <time>2020-05-17T10:00:26Z</time>
      </trkpt>
      <trkpt lat="47.17933" lon="-1.71226">
        <ele>27.12</ele>
        <time>2020-05-17T10:00:28Z</time>
      </trkpt>
      <trkpt lat="47.17938" lon="-1.71243">
        <ele>27.36</ele>
        <time>2020-05-17T10:00:30Z</time>
      </trkpt>
      <trkpt lat="47.17944" lon="-1.71261">
        <ele>27.75</ele>
        <time>2020-05-17T10:00:32Z</time>
      </trkpt>
      <trkpt lat="47.17951" lon="-1.71279">
        <ele>28.77</ele>
        <time>2020-05-17T10:00:34Z</time>
      </trkpt>
      <trkpt lat="47.17957" lon="-1.71297">
        <ele>29.11</ele>
        <time>2020-05-17T10:00:36Z</time>
      </trkpt>
      <trkpt lat="47.17963" lon="-1.71316">
        <ele>29.42</ele>
        <time>2020-05-17T10:00:38Z</time>
      </trkpt>
      <trkpt lat="47.17968" lon="-1.71332">
        <ele>29.09</ele>
        <time>2020-05-17T10:00:40Z</time>
      </trkpt>
      <trkpt lat="47.17974" lon="-1.71351">
        <ele>28.32</ele>
        <time>2020-05-17T10:00:42Z</time>
      </trkpt>
      <trkpt lat="47.17981" lon="-1.7137">
        <ele>27.54</ele>
        <time>2020-05-17T10:00:44Z</time>
      </trkpt>
      <trkpt lat="47.17988" lon="-1.71389">
        <ele>27.18</ele>
        <time>2020-05-17T10:00:46Z</time>
      </trkpt>
      <trkpt lat="47.17993" lon="-1.71406">
        <ele>26.32</ele>
        <time>2020-05-17T10:00:48Z</time>
      </trkpt>
      <trkpt lat="47.17999" lon="-1.71423">
        <ele>26.35</ele>
        <time>2020-05-17T10:00:50Z</time>
      </trkpt>
      <trkpt lat="47.18004" lon="-1.7144">
        <ele>26.53</ele>
        <time>2020-05-17T10:00:52Z</time>
      </trkpt>
      <trkpt lat="47.1801" lon="-1.71459">
        <ele>26.32</ele>
        <time>2020-05-17T10:00:54Z</time>
      </trkpt>
      <trkpt lat="47.18015" lon="-1.71477">
        <ele>26</ele>
        <time>2020-05-17T10:00:56Z</time>
      </trkpt>
      <trkpt lat="47.18021" lon="-1.71494">
        <ele>25.95</ele>
        <time>2020-05-17T10:00:58Z</time>
      </trkpt>
      <trkpt lat="47.18026" lon="-1.71512">
        <ele>25.81</ele>
        <time>2020-05-17T10:01:00Z</time>
      </trkpt>
      <trkpt lat="47.18032" lon="-1.71531">
        <ele>25.8</ele>
        <time>2020-05-17T10:01:02Z</time>
      </trkpt>
      <trkpt lat="47.18038" lon="-1.71547">
        <ele>25.08</ele>
        <time>2020-05-17T10:01:04Z</time>
      </trkpt>
      <trkpt lat="47.18044" lon="-1.71566">
        <ele>25.65</ele>
        <time>2020-05-17T10:01:06Z</time>
      </trkpt>
      <trkpt lat="47.1805" lon="-1.71583">
        <ele>26.12</ele>
        <time>2020-05-17T10:01:08Z</time>
      </trkpt>
      <trkpt lat="47.18056" lon="-1.716">
        <ele>26.59</ele>
        <time>2020-05-17T10:01:10Z</time>
      </trkpt>
      <trkpt lat="47.18062" lon="-1.71621">
        <ele>26.76</ele>
        <time>2020-05-17T10:01:12Z</time>
      </trkpt>
      <trkpt lat="47.18069" lon="-1.7164">
        <ele>26.91</ele>
        <time>2020-05-17T10:01:14Z</time>
      </trkpt>
      <trkpt lat="47.18075" lon="-1.71659">
        <ele>27.36</ele>
        <time>2020-05-17T10:01:16Z</time>
      </trkpt>
      <trkpt lat="47.18079" lon="-1.71675">
        <ele>27.76</ele>
        <time>2020-05-17T10:01:18Z</time>
      </trkpt>
      <trkpt lat="47.18085" lon="-1.71694">
        <ele>27.17</ele>
        <time>2020-05-17T10:01:20Z</time>
      </trkpt>
      <trkpt lat="47.1809" lon="-1.71709">
        <ele>26.39</ele>
        <time>2020-05-17T10:01:22Z</time>
      </trkpt>
      <trkpt lat="47.18098" lon="-1.71727">
        <ele>25.73</ele>
        <time>2020-05-17T10:01:24Z</time>
      </trkpt>
      <trkpt lat="47.18104" lon="-1.71743">
        <ele>25.97</ele>
        <time>2020-05-17T10:01:26Z</time>
      </trkpt>
      <trkpt lat="47.1811" lon="-1.71759">
        <ele>26.14</ele>
        <time>2020-05-17T10:01:28Z</time>
      </trkpt>
      <trkpt lat="47.18116" lon="-1.71776">
        <ele>26.06</ele>
        <time>2020-05-17T10:01:30Z</time>
      </trkpt>
      <trkpt lat="47.18123" lon="-1.71792">
        <ele>26.09</ele>
        <time>2020-05-17T10:01:32Z</time>
      </trkpt>
      <trkpt lat="47.1813" lon="-1.71811">
        <ele>25.39</ele>
        <time>2020-05-17T10:01:34Z</time>
      </trkpt>
      <trkpt lat="47.18136" lon="-1.71828">
        <ele>25.07</ele>
        <time>2020-05-17T10:01:36Z</time>
      </trkpt>
      <trkpt lat="47.18141" lon="-1.71843">
        <ele>25.29</ele>
        <time>2020-05-17T10:01:38Z</time>
      </trkpt>
      <trkpt lat="47.18146" lon="-1.7186">
        <ele>25.17</ele>
        <time>2020-05-17T10:01:40Z</time>
      </trkpt>
      <trkpt lat="47.18152" lon="-1.71879">
        <ele>25.51</ele>
        <time>2020-05-17T10:01:42Z</time>
      </trkpt>
      <trkpt lat="47.18158" lon="-1.71897">
        <ele>25.89</ele>
        <time>2020-05-17T10:01:44Z</time>
      </trkpt>
      <trkpt lat="47.18163" lon="-1.71915">
        <ele>26.05</ele>
        <time>2020-05-17T10:01:46Z</time>
      </trkpt>
      <trkpt lat="47.18168" lon="-1.71934">
        <ele>25.65</ele>
        <time>2020-05-17T10:01:48Z</time>
      </trkpt>
      <trkpt lat="47.18174" lon="-1.71953">
        <ele>24.33</ele>
        <time>2020-05-17T10:01:50Z</time>
      </trkpt>
      <trkpt lat="47.1818" lon="-1.71971">
        <ele>23.26</ele>
        <time>2020-05-17T10:01:52Z</time>
      </trkpt>
      <trkpt lat="47.18185" lon="-1.71988">
        <ele>22.74</ele>
        <time>2020-05-17T10:01:54Z</time>
      </trkpt>
      <trkpt lat="47.1819" lon="-1.72004">
        <ele>23.36</ele>
        <time>2020-05-17T10:01:56Z</time>
      </trkpt>
      <trkpt lat="47.18196" lon="-1.72023">
        <ele>23.08</ele>
        <time>2020-05-17T10:01:58Z</time>
      </trkpt>
      <trkpt lat="47.18202" lon="-1.72041">
        <ele>23.37</ele>
        <time>2020-05-17T10:02:00Z</time>
      </trkpt>
      <trkpt lat="47.18206" lon="-1.72057">
        <ele>24.13</ele>
        <time>2020-05-17T10:02:02Z</time>
      </trkpt>
      <trkpt lat="47.18212" lon="-1.72075">
        <ele>25.06</ele>
        <time>2020-05-17T10:02:04Z</time>
      </trkpt>
      <trkpt lat="47.18219" lon="-1.72095">
        <ele>25.62</ele>
        <time>2020-05-17T10:02:06Z</time>
      </trkpt>
      <trkpt lat="47.18225" lon="-1.72112">
        <ele>25.47</ele>
        <time>2020-05-17T10:02:08Z</time>
      </trkpt>
      <trkpt lat="47.18231" lon="-1.72128">
        <ele>25.32</ele>
        <time>2020-05-17T10:02:10Z</time>
      </trkpt>
      <trkpt lat="47.18236" lon="-1.72143">
        <ele>25.63</ele>
        <time>2020-05-17T10:02:12Z</time>
      </trkpt>
      <trkpt lat="47.18243" lon="-1.72162">
        <ele>25.36</ele>
        <time>2020-05-17T10:02:14Z</time>
      </trkpt>
      <trkpt lat="47.18248" lon="-1.72179">
        <ele>25.86</ele>
        <time>2020-05-17T10:02:16Z</time>
      </trkpt>
      <trkpt lat="47.18253" lon="-1.72198">
        <ele>26.13</ele>
        <time>2020-05-17T10:02:18Z</time>
      </trkpt>
      <trkpt lat="47.18258" lon="-1.72216">
        <ele>25.53</ele>
        <time>2020-05-17T10:02:20Z</time>
      </trkpt>
      <trkpt lat="47.1826" lon="-1.72237">
        <ele>25.23</ele>
        <time>2020-05-17T10:02:22Z</time>
      </trkpt>
      <trkpt lat="47.18263" lon="-1.72257">
        <ele>25</ele>
        <time>2020-05-17T10:02:24Z</time>
      </trkpt>
      <trkpt lat="47.18265" lon="-1.72276">
        <ele>24.72</ele>
        <time>2020-05-17T10:02:26Z</time>
      </trkpt>
      <trkpt lat="47.18268" lon="-1.72298">
        <ele>24.96</ele>
        <time>2020-05-17T10:02:28Z</time>
      </trkpt>
      <trkpt lat="47.1827" lon="-1.72319">
        <ele>24.83</ele>
        <time>2020-05-17T10:02:30Z</time>
      </trkpt>
      <trkpt lat="47.18272" lon="-1.72341">
        <ele>24.04</ele>
        <time>2020-05-17T10:02:32Z</time>
      </trkpt>
      <trkpt lat="47.18273" lon="-1.72362">
        <ele>23.98</ele>
        <time>2020-05-17T10:02:34Z</time>
      </trkpt>
      <trkpt lat="47.18275" lon="-1.7238">
        <ele>24.85</ele>
        <time>2020-05-17T10:02:36Z</time>
      </trkpt>
      <trkpt lat="47.18276" lon="-1.724">
        <ele>24.49</ele>
        <time>2020-05-17T10:02:38Z</time>
      </trkpt>
      <trkpt lat="47.18276" lon="-1.72419">
        <ele>23.96</ele>
        <time>2020-05-17T10:02:40Z</time>
      </trkpt>
      <trkpt lat="47.18274" lon="-1.7244">
        <ele>23.82</ele>
        <time>2020-05-17T10:02:42Z</time>
      </trkpt>
      <trkpt lat="47.18271" lon="-1.72461">
        <ele>24.32</ele>
        <time>2020-05-17T10:02:44Z</time>
      </trkpt>
      <trkpt lat="47.18268" lon="-1.72479">
        <ele>25.34</ele>
        <time>2020-05-17T10:02:46Z</time>
      </trkpt>
      <trkpt lat="47.18264" lon="-1.72496">
        <ele>25.95</ele>
        <time>2020-05-17T10:02:48Z</time>
      </trkpt>
      <trkpt lat="47.1826" lon="-1.72512">
        <ele>27.47</ele>
        <time>2020-05-17T10:02:50Z</time>
      </trkpt>
      <trkpt lat="47.1826" lon="-1.72533">
        <ele>29.79</ele>
        <time>2020-05-17T10:02:53Z</time>
      </trkpt>
      <trkpt lat="47.18265" lon="-1.72547">
        <ele>30.11</ele>
        <time>2020-05-17T10:02:55Z</time>
      </trkpt>
      <trkpt lat="47.18277" lon="-1.72557">
        <ele>30.07</ele>
        <time>2020-05-17T10:02:58Z</time>
      </trkpt>
      <trkpt lat="47.18288" lon="-1.72554">
        <ele>30.24</ele>
        <time>2020-05-17T10:03:00Z</time>
      </trkpt>
      <trkpt lat="47.18302" lon="-1.72552">
        <ele>29.88</ele>
        <time>2020-05-17T10:03:02Z</time>
      </trkpt>
      <trkpt lat="47.18311" lon="-1.72564">
        <ele>29.62</ele>
        <time>2020-05-17T10:03:04Z</time>
      </trkpt>
      <trkpt lat="47.18315" lon="-1.72584">
        <ele>30.37</ele>
        <time>2020-05-17T10:03:06Z</time>
      </trkpt>
      <trkpt lat="47.18314" lon="-1.72603">
        <ele>30.69</ele>
        <time>2020-05-17T10:03:08Z</time>
      </trkpt>
      <trkpt lat="47.18312" lon="-1.72623">
        <ele>30.59</ele>
        <time>2020-05-17T10:03:10Z</time>
      </trkpt>
      <trkpt lat="47.18316" lon="-1.72643">
        <ele>30.07</ele>
        <time>2020-05-17T10:03:12Z</time>
      </trkpt>
      <trkpt lat="47.18323" lon="-1.72662">
        <ele>28.78</ele>
        <time>2020-05-17T10:03:14Z</time>
      </trkpt>
      <trkpt lat="47.18329" lon="-1.72681">
        <ele>26.83</ele>
        <time>2020-05-17T10:03:16Z</time>
      </trkpt>
      <trkpt lat="47.18336" lon="-1.72702">
        <ele>25.4</ele>
        <time>2020-05-17T10:03:18Z</time>
      </trkpt>
      <trkpt lat="47.18344" lon="-1.72724">
        <ele>25.09</ele>
        <time>2020-05-17T10:03:20Z</time>
      </trkpt>
      <trkpt lat="47.1835" lon="-1.72741">
        <ele>24.7</ele>
        <time>2020-05-17T10:03:22Z</time>
      </trkpt>
      <trkpt lat="47.18357" lon="-1.72763">
        <ele>25.31</ele>
        <time>2020-05-17T10:03:24Z</time>
      </trkpt>
      <trkpt lat="47.18364" lon="-1.72784">
        <ele>25.95</ele>
        <time>2020-05-17T10:03:26Z</time>
      </trkpt>
      <trkpt lat="47.18372" lon="-1.72805">
        <ele>26.16</ele>
        <time>2020-05-17T10:03:28Z</time>
      </trkpt>
      <trkpt lat="47.1838" lon="-1.72824">
        <ele>25.97</ele>
        <time>2020-05-17T10:03:30Z</time>
      </trkpt>
      <trkpt lat="47.18387" lon="-1.72844">
        <ele>25.23</ele>
        <time>2020-05-17T10:03:32Z</time>
      </trkpt>
      <trkpt lat="47.18393" lon="-1.72864">
        <ele>24.96</ele>
        <time>2020-05-17T10:03:34Z</time>
      </trkpt>
      <trkpt lat="47.18399" lon="-1.72881">
        <ele>25.34</ele>
        <time>2020-05-17T10:03:36Z</time>
      </trkpt>
      <trkpt lat="47.18406" lon="-1.729">
        <ele>25.69</ele>
        <time>2020-05-17T10:03:38Z</time>
      </trkpt>
      <trkpt lat="47.18411" lon="-1.72918">
        <ele>25.39</ele>
        <time>2020-05-17T10:03:40Z</time>
      </trkpt>
      <trkpt lat="47.18416" lon="-1.72937">
        <ele>24.79</ele>
        <time>2020-05-17T10:03:42Z</time>
      </trkpt>
      <trkpt lat="47.1842" lon="-1.72954">
        <ele>24.52</ele>
        <time>2020-05-17T10:03:44Z</time>
      </trkpt>
      <trkpt lat="47.18422" lon="-1.72972">
        <ele>24.66</ele>
        <time>2020-05-17T10:03:46Z</time>
      </trkpt>
      <trkpt lat="47.18425" lon="-1.72992">
        <ele>25.76</ele>
        <time>2020-05-17T10:03:48Z</time>
      </trkpt>
      <trkpt lat="47.18428" lon="-1.73011">
        <ele>26.63</ele>
        <time>2020-05-17T10:03:50Z</time>
      </trkpt>
      <trkpt lat="47.1843" lon="-1.73032">
        <ele>25.81</ele>
        <time>2020-05-17T10:03:52Z</time>
      </trkpt>
      <trkpt lat="47.18431" lon="-1.73051">
        <ele>25.34</ele>
        <time>2020-05-17T10:03:54Z</time>
      </trkpt>
      <trkpt lat="47.18433" lon="-1.7307">
        <ele>25.08</ele>
        <time>2020-05-17T10:03:56Z</time>
      </trkpt>
      <trkpt lat="47.18436" lon="-1.7309">
        <ele>24.32</ele>
        <time>2020-05-17T10:03:58Z</time>
      </trkpt>
      <trkpt lat="47.18438" lon="-1.7311">
        <ele>24.03</ele>
        <time>2020-05-17T10:04:00Z</time>
      </trkpt>
      <trkpt lat="47.18441" lon="-1.73128">
        <ele>24</ele>
        <time>2020-05-17T10:04:02Z</time>
      </trkpt>
      <trkpt lat="47.18443" lon="-1.73146">
        <ele>24.51</ele>
        <time>2020-05-17T10:04:04Z</time>
      </trkpt>
      <trkpt lat="47.18446" lon="-1.73165">
        <ele>24.72</ele>
        <time>2020-05-17T10:04:06Z</time>
      </trkpt>
      <trkpt lat="47.18448" lon="-1.73183">
        <ele>24.77</ele>
        <time>2020-05-17T10:04:08Z</time>
      </trkpt>
      <trkpt lat="47.18449" lon="-1.73198">
        <ele>24.95</ele>
        <time>2020-05-17T10:04:10Z</time>
      </trkpt>
      <trkpt lat="47.18452" lon="-1.73218">
        <ele>25.02</ele>
        <time>2020-05-17T10:04:12Z</time>
      </trkpt>
      <trkpt lat="47.18455" lon="-1.73239">
        <ele>24.78</ele>
        <time>2020-05-17T10:04:14Z</time>
      </trkpt>
      <trkpt lat="47.18457" lon="-1.73258">
        <ele>24.64</ele>
        <time>2020-05-17T10:04:16Z</time>
      </trkpt>
      <trkpt lat="47.18459" lon="-1.73278">
        <ele>24.83</ele>
        <time>2020-05-17T10:04:18Z</time>
      </trkpt>
      <trkpt lat="47.18462" lon="-1.733">
        <ele>24.7</ele>
        <time>2020-05-17T10:04:20Z</time>
      </trkpt>
      <trkpt lat="47.18464" lon="-1.73319">
        <ele>24.73</ele>
        <time>2020-05-17T10:04:22Z</time>
      </trkpt>
      <trkpt lat="47.18467" lon="-1.73337">
        <ele>25.03</ele>
        <time>2020-05-17T10:04:24Z</time>
      </trkpt>
      <trkpt lat="47.18469" lon="-1.73357">
        <ele>24.61</ele>
        <time>2020-05-17T10:04:26Z</time>
      </trkpt>
      <trkpt lat="47.1847" lon="-1.73378">
        <ele>24.09</ele>
        <time>2020-05-17T10:04:28Z</time>
      </trkpt>
      <trkpt lat="47.18472" lon="-1.734">
        <ele>24.15</ele>
        <time>2020-05-17T10:04:30Z</time>
      </trkpt>
      <trkpt lat="47.18474" lon="-1.7342">
        <ele>24.57</ele>
        <time>2020-05-17T10:04:32Z</time>
      </trkpt>
      <trkpt lat="47.18475" lon="-1.73439">
        <ele>24.63</ele>
        <time>2020-05-17T10:04:34Z</time>
      </trkpt>
      <trkpt lat="47.18477" lon="-1.73458">
        <ele>25.18</ele>
        <time>2020-05-17T10:04:36Z</time>
      </trkpt>
      <trkpt lat="47.18478" lon="-1.73477">
        <ele>25.59</ele>
        <time>2020-05-17T10:04:38Z</time>
      </trkpt>
      <trkpt lat="47.1848" lon="-1.73498">
        <ele>25.25</ele>
        <time>2020-05-17T10:04:40Z</time>
      </trkpt>
      <trkpt lat="47.18483" lon="-1.73517">
        <ele>24.46</ele>
        <time>2020-05-17T10:04:42Z</time>
      </trkpt>
      <trkpt lat="47.18485" lon="-1.73537">
        <ele>24.03</ele>
        <time>2020-05-17T10:04:44Z</time>
      </trkpt>
      <trkpt lat="47.18487" lon="-1.73557">
        <ele>24.25</ele>
        <time>2020-05-17T10:04:46Z</time>
      </trkpt>
      <trkpt lat="47.18489" lon="-1.73577">
        <ele>24.94</ele>
        <time>2020-05-17T10:04:48Z</time>
      </trkpt>
      <trkpt lat="47.18491" lon="-1.73596">
        <ele>24.7</ele>
        <time>2020-05-17T10:04:50Z</time>
      </trkpt>
      <trkpt lat="47.18493" lon="-1.73615">
        <ele>24.07</ele>
        <time>2020-05-17T10:04:52Z</time>
      </trkpt>
      <trkpt lat="47.18494" lon="-1.73636">
        <ele>23.31</ele>
        <time>2020-05-17T10:04:54Z</time>
      </trkpt>
      <trkpt lat="47.18496" lon="-1.73657">
        <ele>22.64</ele>
        <time>2020-05-17T10:04:56Z</time>
      </trkpt>
      <trkpt lat="47.18498" lon="-1.73676">
        <ele>22.26</ele>
        <time>2020-05-17T10:04:58Z</time>
      </trkpt>
      <trkpt lat="47.18499" lon="-1.73696">
        <ele>21.56</ele>
        <time>2020-05-17T10:05:00Z</time>
      </trkpt>
      <trkpt lat="47.18502" lon="-1.73715">
        <ele>21.49</ele>
        <time>2020-05-17T10:05:02Z</time>
      </trkpt>
      <trkpt lat="47.18503" lon="-1.73734">
        <ele>21.57</ele>
        <time>2020-05-17T10:05:04Z</time>
      </trkpt>
      <trkpt lat="47.18505" lon="-1.73753">
        <ele>22.29</ele>
        <time>2020-05-17T10:05:06Z</time>
      </trkpt>
      <trkpt lat="47.18507" lon="-1.73772">
        <ele>23.34</ele>
        <time>2020-05-17T10:05:08Z</time>
      </trkpt>
      <trkpt lat="47.18509" lon="-1.73792">
        <ele>23.03</ele>
        <time>2020-05-17T10:05:10Z</time>
      </trkpt>
      <trkpt lat="47.18512" lon="-1.73813">
        <ele>22.82</ele>
        <time>2020-05-17T10:05:12Z</time>
      </trkpt>
      <trkpt lat="47.18514" lon="-1.73836">
        <ele>22.56</ele>
        <time>2020-05-17T10:05:14Z</time>
      </trkpt>
      <trkpt lat="47.18516" lon="-1.73854">
        <ele>22.05</ele>
        <time>2020-05-17T10:05:16Z</time>
      </trkpt>
      <trkpt lat="47.18517" lon="-1.73874">
        <ele>21.57</ele>
        <time>2020-05-17T10:05:18Z</time>
      </trkpt>
      <trkpt lat="47.18519" lon="-1.73891">
        <ele>21.52</ele>
        <time>2020-05-17T10:05:20Z</time>
      </trkpt>
      <trkpt lat="47.1852" lon="-1.73911">
        <ele>21.16</ele>
        <time>2020-05-17T10:05:22Z</time>
      </trkpt>
      <trkpt lat="47.18521" lon="-1.73931">
        <ele>21.68</ele>
        <time>2020-05-17T10:05:24Z</time>
      </trkpt>
      <trkpt lat="47.18522" lon="-1.73949">
        <ele>22.34</ele>
        <time>2020-05-17T10:05:26Z</time>
      </trkpt>
      <trkpt lat="47.18522" lon="-1.73969">
        <ele>23.17</ele>
        <time>2020-05-17T10:05:28Z</time>
      </trkpt>
      <trkpt lat="47.18522" lon="-1.73992">
        <ele>23.11</ele>
        <time>2020-05-17T10:05:30Z</time>
      </trkpt>
      <trkpt lat="47.18523" lon="-1.74013">
        <ele>23</ele>
        <time>2020-05-17T10:05:32Z</time>
      </trkpt>
      <trkpt lat="47.18522" lon="-1.74033">
        <ele>22.87</ele>
        <time>2020-05-17T10:05:34Z</time>
      </trkpt>
      <trkpt lat="47.18521" lon="-1.74052">
        <ele>22.78</ele>
        <time>2020-05-17T10:05:36Z</time>
      </trkpt>
      <trkpt lat="47.18519" lon="-1.74071">
        <ele>22.08</ele>
        <time>2020-05-17T10:05:38Z</time>
      </trkpt>
      <trkpt lat="47.18518" lon="-1.74093">
        <ele>21.48</ele>
        <time>2020-05-17T10:05:40Z</time>
      </trkpt>
      <trkpt lat="47.18517" lon="-1.74115">
        <ele>21.05</ele>
        <time>2020-05-17T10:05:42Z</time>
      </trkpt>
      <trkpt lat="47.18521" lon="-1.74134">
        <ele>20.84</ele>
        <time>2020-05-17T10:05:44Z</time>
      </trkpt>
      <trkpt lat="47.18521" lon="-1.74154">
        <ele>20.72</ele>
        <time>2020-05-17T10:05:46Z</time>
      </trkpt>
      <trkpt lat="47.18517" lon="-1.74175">
        <ele>21.41</ele>
        <time>2020-05-17T10:05:48Z</time>
      </trkpt>
      <trkpt lat="47.18516" lon="-1.74195">
        <ele>21.61</ele>
        <time>2020-05-17T10:05:50Z</time>
      </trkpt>
      <trkpt lat="47.18516" lon="-1.74215">
        <ele>21.2</ele>
        <time>2020-05-17T10:05:52Z</time>
      </trkpt>
      <trkpt lat="47.18517" lon="-1.74233">
        <ele>21.73</ele>
        <time>2020-05-17T10:05:54Z</time>
      </trkpt>
      <trkpt lat="47.18518" lon="-1.74252">
        <ele>21.76</ele>
        <time>2020-05-17T10:05:56Z</time>
      </trkpt>
      <trkpt lat="47.1852" lon="-1.74272">
        <ele>21.24</ele>
        <time>2020-05-17T10:05:58Z</time>
      </trkpt>
      <trkpt lat="47.18522" lon="-1.7429">
        <ele>20.97</ele>
        <time>2020-05-17T10:06:00Z</time>
      </trkpt>
      <trkpt lat="47.18524" lon="-1.74311">
        <ele>20.92</ele>
        <time>2020-05-17T10:06:02Z</time>
      </trkpt>
      <trkpt lat="47.18525" lon="-1.74329">
        <ele>21.37</ele>
        <time>2020-05-17T10:06:04Z</time>
      </trkpt>
      <trkpt lat="47.18526" lon="-1.74348">
        <ele>21.46</ele>
        <time>2020-05-17T10:06:06Z</time>
      </trkpt>
      <trkpt lat="47.18526" lon="-1.74367">
        <ele>20.76</ele>
        <time>2020-05-17T10:06:08Z</time>
      </trkpt>
      <trkpt lat="47.18527" lon="-1.74385">
        <ele>21.55</ele>
        <time>2020-05-17T10:06:10Z</time>
      </trkpt>
      <trkpt lat="47.18527" lon="-1.74405">
        <ele>22.55</ele>
        <time>2020-05-17T10:06:12Z</time>
      </trkpt>
      <trkpt lat="47.18527" lon="-1.74423">
        <ele>22.83</ele>
        <time>2020-05-17T10:06:14Z</time>
      </trkpt>
      <trkpt lat="47.18526" lon="-1.7444">
        <ele>23.69</ele>
        <time>2020-05-17T10:06:16Z</time>
      </trkpt>
      <trkpt lat="47.18525" lon="-1.74461">
        <ele>23.45</ele>
        <time>2020-05-17T10:06:18Z</time>
      </trkpt>
      <trkpt lat="47.18524" lon="-1.74481">
        <ele>22.99</ele>
        <time>2020-05-17T10:06:20Z</time>
      </trkpt>
      <trkpt lat="47.18524" lon="-1.745">
        <ele>23.62</ele>
        <time>2020-05-17T10:06:22Z</time>
      </trkpt>
      <trkpt lat="47.18522" lon="-1.74521">
        <ele>24.21</ele>
        <time>2020-05-17T10:06:24Z</time>
      </trkpt>
      <trkpt lat="47.1852" lon="-1.7454">
        <ele>23.6</ele>
        <time>2020-05-17T10:06:26Z</time>
      </trkpt>
      <trkpt lat="47.18518" lon="-1.74558">
        <ele>23.36</ele>
        <time>2020-05-17T10:06:28Z</time>
      </trkpt>
      <trkpt lat="47.18515" lon="-1.74577">
        <ele>23.81</ele>
        <time>2020-05-17T10:06:31Z</time>
      </trkpt>
      <trkpt lat="47.18513" lon="-1.74596">
        <ele>24.11</ele>
        <time>2020-05-17T10:06:33Z</time>
      </trkpt>
      <trkpt lat="47.18511" lon="-1.74615">
        <ele>24.45</ele>
        <time>2020-05-17T10:06:35Z</time>
      </trkpt>
      <trkpt lat="47.18509" lon="-1.74632">
        <ele>23.5</ele>
        <time>2020-05-17T10:06:37Z</time>
      </trkpt>
      <trkpt lat="47.18507" lon="-1.7465">
        <ele>24.25</ele>
        <time>2020-05-17T10:06:39Z</time>
      </trkpt>
      <trkpt lat="47.18505" lon="-1.74668">
        <ele>24.49</ele>
        <time>2020-05-17T10:06:41Z</time>
      </trkpt>
      <trkpt lat="47.18503" lon="-1.74688">
        <ele>24.23</ele>
        <time>2020-05-17T10:06:43Z</time>
      </trkpt>
      <trkpt lat="47.18501" lon="-1.74706">
        <ele>23.8</ele>
        <time>2020-05-17T10:06:45Z</time>
      </trkpt>
      <trkpt lat="47.18499" lon="-1.74726">
        <ele>24.15</ele>
        <time>2020-05-17T10:06:47Z</time>
      </trkpt>
      <trkpt lat="47.18496" lon="-1.74745">
        <ele>24.59</ele>
        <time>2020-05-17T10:06:49Z</time>
      </trkpt>
      <trkpt lat="47.18494" lon="-1.74765">
        <ele>24.76</ele>
        <time>2020-05-17T10:06:51Z</time>
      </trkpt>
      <trkpt lat="47.18491" lon="-1.74783">
        <ele>25.22</ele>
        <time>2020-05-17T10:06:53Z</time>
      </trkpt>
      <trkpt lat="47.18489" lon="-1.74803">
        <ele>25.98</ele>
        <time>2020-05-17T10:06:55Z</time>
      </trkpt>
      <trkpt lat="47.18486" lon="-1.74822">
        <ele>26.78</ele>
        <time>2020-05-17T10:06:57Z</time>
      </trkpt>
      <trkpt lat="47.18482" lon="-1.74841">
        <ele>26.61</ele>
        <time>2020-05-17T10:06:59Z</time>
      </trkpt>
      <trkpt lat="47.18479" lon="-1.74858">
        <ele>25.53</ele>
        <time>2020-05-17T10:07:01Z</time>
      </trkpt>
      <trkpt lat="47.18474" lon="-1.74879">
        <ele>24.83</ele>
        <time>2020-05-17T10:07:03Z</time>
      </trkpt>
      <trkpt lat="47.1847" lon="-1.74902">
        <ele>24.48</ele>
        <time>2020-05-17T10:07:05Z</time>
      </trkpt>
      <trkpt lat="47.18465" lon="-1.74924">
        <ele>23.96</ele>
        <time>2020-05-17T10:07:07Z</time>
      </trkpt>
      <trkpt lat="47.18461" lon="-1.74947">
        <ele>23.92</ele>
        <time>2020-05-17T10:07:09Z</time>
      </trkpt>
      <trkpt lat="47.18457" lon="-1.74968">
        <ele>23.09</ele>
        <time>2020-05-17T10:07:11Z</time>
      </trkpt>
      <trkpt lat="47.18453" lon="-1.74989">
        <ele>23.32</ele>
        <time>2020-05-17T10:07:13Z</time>
      </trkpt>
      <trkpt lat="47.18448" lon="-1.7501">
        <ele>22.49</ele>
        <time>2020-05-17T10:07:15Z</time>
      </trkpt>
      <trkpt lat="47.18443" lon="-1.75034">
        <ele>20.55</ele>
        <time>2020-05-17T10:07:17Z</time>
      </trkpt>
      <trkpt lat="47.18439" lon="-1.75055">
        <ele>18.93</ele>
        <time>2020-05-17T10:07:19Z</time>
      </trkpt>
      <trkpt lat="47.18435" lon="-1.75077">
        <ele>18.37</ele>
        <time>2020-05-17T10:07:21Z</time>
      </trkpt>
      <trkpt lat="47.1843" lon="-1.751">
        <ele>18.07</ele>
        <time>2020-05-17T10:07:23Z</time>
      </trkpt>
      <trkpt lat="47.18426" lon="-1.75124">
        <ele>17.82</ele>
        <time>2020-05-17T10:07:25Z</time>
      </trkpt>
      <trkpt lat="47.18421" lon="-1.75146">
        <ele>17.73</ele>
        <time>2020-05-17T10:07:27Z</time>
      </trkpt>
      <trkpt lat="47.18417" lon="-1.75167">
        <ele>17.35</ele>
        <time>2020-05-17T10:07:29Z</time>
      </trkpt>
      <trkpt lat="47.18414" lon="-1.75188">
        <ele>17</ele>
        <time>2020-05-17T10:07:31Z</time>
      </trkpt>
      <trkpt lat="47.18411" lon="-1.75208">
        <ele>16.96</ele>
        <time>2020-05-17T10:07:33Z</time>
      </trkpt>
      <trkpt lat="47.18407" lon="-1.75229">
        <ele>17.25</ele>
        <time>2020-05-17T10:07:35Z</time>
      </trkpt>
      <trkpt lat="47.18404" lon="-1.75251">
        <ele>17.24</ele>
        <time>2020-05-17T10:07:37Z</time>
      </trkpt>
      <trkpt lat="47.18401" lon="-1.75272">
        <ele>17.26</ele>
        <time>2020-05-17T10:07:39Z</time>
      </trkpt>
      <trkpt lat="47.184" lon="-1.75291">
        <ele>17.6</ele>
        <time>2020-05-17T10:07:41Z</time>
      </trkpt>
      <trkpt lat="47.18398" lon="-1.75311">
        <ele>17.59</ele>
        <time>2020-05-17T10:07:43Z</time>
      </trkpt>
      <trkpt lat="47.18396" lon="-1.7533">
        <ele>17.56</ele>
        <time>2020-05-17T10:07:45Z</time>
      </trkpt>
      <trkpt lat="47.18395" lon="-1.75352">
        <ele>17.66</ele>
        <time>2020-05-17T10:07:47Z</time>
      </trkpt>
      <trkpt lat="47.18395" lon="-1.75371">
        <ele>17.4</ele>
        <time>2020-05-17T10:07:49Z</time>
      </trkpt>
      <trkpt lat="47.18397" lon="-1.75391">
        <ele>16.59</ele>
        <time>2020-05-17T10:07:51Z</time>
      </trkpt>
      <trkpt lat="47.18401" lon="-1.75412">
        <ele>15.12</ele>
        <time>2020-05-17T10:07:53Z</time>
      </trkpt>
      <trkpt lat="47.18401" lon="-1.75431">
        <ele>14.33</ele>
        <time>2020-05-17T10:07:55Z</time>
      </trkpt>
      <trkpt lat="47.18398" lon="-1.7545">
        <ele>14.74</ele>
        <time>2020-05-17T10:07:57Z</time>
      </trkpt>
      <trkpt lat="47.18395" lon="-1.7547">
        <ele>14.74</ele>
        <time>2020-05-17T10:07:59Z</time>
      </trkpt>
      <trkpt lat="47.18395" lon="-1.7549">
        <ele>14.96</ele>
        <time>2020-05-17T10:08:01Z</time>
      </trkpt>
      <trkpt lat="47.18395" lon="-1.75509">
        <ele>14.79</ele>
        <time>2020-05-17T10:08:03Z</time>
      </trkpt>
      <trkpt lat="47.18397" lon="-1.75527">
        <ele>14.43</ele>
        <time>2020-05-17T10:08:05Z</time>
      </trkpt>
      <trkpt lat="47.18398" lon="-1.75547">
        <ele>14.86</ele>
        <time>2020-05-17T10:08:07Z</time>
      </trkpt>
      <trkpt lat="47.18401" lon="-1.75566">
        <ele>15.52</ele>
        <time>2020-05-17T10:08:09Z</time>
      </trkpt>
      <trkpt lat="47.18403" lon="-1.75583">
        <ele>16.43</ele>
        <time>2020-05-17T10:08:11Z</time>
      </trkpt>
      <trkpt lat="47.18405" lon="-1.75601">
        <ele>17.01</ele>
        <time>2020-05-17T10:08:13Z</time>
      </trkpt>
      <trkpt lat="47.18406" lon="-1.75619">
        <ele>17.63</ele>
        <time>2020-05-17T10:08:15Z</time>
      </trkpt>
      <trkpt lat="47.18406" lon="-1.75639">
        <ele>17.74</ele>
        <time>2020-05-17T10:08:17Z</time>
      </trkpt>
      <trkpt lat="47.18407" lon="-1.75658">
        <ele>18.04</ele>
        <time>2020-05-17T10:08:19Z</time>
      </trkpt>
      <trkpt lat="47.18408" lon="-1.75677">
        <ele>18.55</ele>
        <time>2020-05-17T10:08:21Z</time>
      </trkpt>
      <trkpt lat="47.18408" lon="-1.75696">
        <ele>18.72</ele>
        <time>2020-05-17T10:08:23Z</time>
      </trkpt>
      <trkpt lat="47.18408" lon="-1.75717">
        <ele>18.93</ele>
        <time>2020-05-17T10:08:25Z</time>
      </trkpt>
      <trkpt lat="47.18408" lon="-1.75737">
        <ele>18.62</ele>
        <time>2020-05-17T10:08:27Z</time>
      </trkpt>
      <trkpt lat="47.18407" lon="-1.75756">
        <ele>19.61</ele>
        <time>2020-05-17T10:08:29Z</time>
      </trkpt>
      <trkpt lat="47.18406" lon="-1.75776">
        <ele>19.35</ele>
        <time>2020-05-17T10:08:31Z</time>
      </trkpt>
      <trkpt lat="47.18404" lon="-1.75794">
        <ele>19.3</ele>
        <time>2020-05-17T10:08:33Z</time>
      </trkpt>
      <trkpt lat="47.18401" lon="-1.75813">
        <ele>19.59</ele>
        <time>2020-05-17T10:08:35Z</time>
      </trkpt>
      <trkpt lat="47.18399" lon="-1.75833">
        <ele>18.91</ele>
        <time>2020-05-17T10:08:37Z</time>
      </trkpt>
      <trkpt lat="47.18396" lon="-1.75852">
        <ele>19.06</ele>
        <time>2020-05-17T10:08:39Z</time>
      </trkpt>
      <trkpt lat="47.18394" lon="-1.7587">
        <ele>19.18</ele>
        <time>2020-05-17T10:08:41Z</time>
      </trkpt>
      <trkpt lat="47.18391" lon="-1.7589">
        <ele>19.01</ele>
        <time>2020-05-17T10:08:43Z</time>
      </trkpt>
      <trkpt lat="47.18388" lon="-1.75911">
        <ele>17.92</ele>
        <time>2020-05-17T10:08:45Z</time>
      </trkpt>
      <trkpt lat="47.18385" lon="-1.75932">
        <ele>17.58</ele>
        <time>2020-05-17T10:08:47Z</time>
      </trkpt>
      <trkpt lat="47.18383" lon="-1.75951">
        <ele>17.47</ele>
        <time>2020-05-17T10:08:49Z</time>
      </trkpt>
      <trkpt lat="47.18381" lon="-1.75969">
        <ele>17.53</ele>
        <time>2020-05-17T10:08:51Z</time>
      </trkpt>
      <trkpt lat="47.18379" lon="-1.7599">
        <ele>17.8</ele>
        <time>2020-05-17T10:08:53Z</time>
      </trkpt>
      <trkpt lat="47.18376" lon="-1.7601">
        <ele>18.16</ele>
        <time>2020-05-17T10:08:55Z</time>
      </trkpt>
      <trkpt lat="47.18374" lon="-1.76033">
        <ele>18.37</ele>
        <time>2020-05-17T10:08:57Z</time>
      </trkpt>
      <trkpt lat="47.18372" lon="-1.7605">
        <ele>17.61</ele>
        <time>2020-05-17T10:08:59Z</time>
      </trkpt>
      <trkpt lat="47.18369" lon="-1.76071">
        <ele>17.15</ele>
        <time>2020-05-17T10:09:01Z</time>
      </trkpt>
      <trkpt lat="47.18367" lon="-1.76094">
        <ele>16.31</ele>
        <time>2020-05-17T10:09:03Z</time>
      </trkpt>
      <trkpt lat="47.18364" lon="-1.76114">
        <ele>15.98</ele>
        <time>2020-05-17T10:09:05Z</time>
      </trkpt>
      <trkpt lat="47.18362" lon="-1.76134">
        <ele>15.47</ele>
        <time>2020-05-17T10:09:07Z</time>
      </trkpt>
      <trkpt lat="47.18359" lon="-1.76156">
        <ele>15.09</ele>
        <time>2020-05-17T10:09:09Z</time>
      </trkpt>
      <trkpt lat="47.18357" lon="-1.76176">
        <ele>15.05</ele>
        <time>2020-05-17T10:09:11Z</time>
      </trkpt>
      <trkpt lat="47.18354" lon="-1.76198">
        <ele>14.93</ele>
        <time>2020-05-17T10:09:13Z</time>
      </trkpt>
      <trkpt lat="47.18351" lon="-1.76219">
        <ele>14.48</ele>
        <time>2020-05-17T10:09:15Z</time>
      </trkpt>
      <trkpt lat="47.18349" lon="-1.76241">
        <ele>13.36</ele>
        <time>2020-05-17T10:09:17Z</time>
      </trkpt>
      <trkpt lat="47.18346" lon="-1.76263">
        <ele>12.89</ele>
        <time>2020-05-17T10:09:19Z</time>
      </trkpt>
      <trkpt lat="47.18344" lon="-1.76285">
        <ele>12.62</ele>
        <time>2020-05-17T10:09:21Z</time>
      </trkpt>
      <trkpt lat="47.18343" lon="-1.76303">
        <ele>12.94</ele>
        <time>2020-05-17T10:09:23Z</time>
      </trkpt>
      <trkpt lat="47.18343" lon="-1.76323">
        <ele>12.52</ele>
        <time>2020-05-17T10:09:25Z</time>
      </trkpt>
      <trkpt lat="47.18341" lon="-1.76344">
        <ele>12.08</ele>
        <time>2020-05-17T10:09:27Z</time>
      </trkpt>
      <trkpt lat="47.1834" lon="-1.76364">
        <ele>11.59</ele>
        <time>2020-05-17T10:09:29Z</time>
      </trkpt>
      <trkpt lat="47.1834" lon="-1.76382">
        <ele>11.43</ele>
        <time>2020-05-17T10:09:31Z</time>
      </trkpt>
      <trkpt lat="47.18339" lon="-1.76398">
        <ele>11.45</ele>
        <time>2020-05-17T10:09:33Z</time>
      </trkpt>
      <trkpt lat="47.18338" lon="-1.76418">
        <ele>11.21</ele>
        <time>2020-05-17T10:09:35Z</time>
      </trkpt>
      <trkpt lat="47.18337" lon="-1.76436">
        <ele>10.93</ele>
        <time>2020-05-17T10:09:37Z</time>
      </trkpt>
      <trkpt lat="47.18336" lon="-1.76456">
        <ele>11.48</ele>
        <time>2020-05-17T10:09:39Z</time>
      </trkpt>
      <trkpt lat="47.18335" lon="-1.76473">
        <ele>12.25</ele>
        <time>2020-05-17T10:09:41Z</time>
      </trkpt>
      <trkpt lat="47.18334" lon="-1.76494">
        <ele>12.58</ele>
        <time>2020-05-17T10:09:43Z</time>
      </trkpt>
      <trkpt lat="47.18334" lon="-1.76513">
        <ele>12.55</ele>
        <time>2020-05-17T10:09:45Z</time>
      </trkpt>
      <trkpt lat="47.18333" lon="-1.7653">
        <ele>11.8</ele>
        <time>2020-05-17T10:09:47Z</time>
      </trkpt>
      <trkpt lat="47.18333" lon="-1.76548">
        <ele>11.72</ele>
        <time>2020-05-17T10:09:49Z</time>
      </trkpt>
      <trkpt lat="47.18334" lon="-1.76565">
        <ele>11.63</ele>
        <time>2020-05-17T10:09:51Z</time>
      </trkpt>
      <trkpt lat="47.18334" lon="-1.76585">
        <ele>11.72</ele>
        <time>2020-05-17T10:09:53Z</time>
      </trkpt>
      <trkpt lat="47.18335" lon="-1.76604">
        <ele>11.39</ele>
        <time>2020-05-17T10:09:55Z</time>
      </trkpt>
      <trkpt lat="47.18337" lon="-1.76623">
        <ele>12.17</ele>
        <time>2020-05-17T10:09:57Z</time>
      </trkpt>
      <trkpt lat="47.18338" lon="-1.76641">
        <ele>12.48</ele>
        <time>2020-05-17T10:09:59Z</time>
      </trkpt>
      <trkpt lat="47.1834" lon="-1.76656">
        <ele>13.69</ele>
        <time>2020-05-17T10:10:01Z</time>
      </trkpt>
      <trkpt lat="47.18342" lon="-1.76675">
        <ele>14.82</ele>
        <time>2020-05-17T10:10:03Z</time>
      </trkpt>
      <trkpt lat="47.18343" lon="-1.76692">
        <ele>15.35</ele>
        <time>2020-05-17T10:10:05Z</time>
      </trkpt>
      <trkpt lat="47.18345" lon="-1.7671">
        <ele>15.37</ele>
        <time>2020-05-17T10:10:07Z</time>
      </trkpt>
      <trkpt lat="47.18348" lon="-1.76729">
        <ele>15.77</ele>
        <time>2020-05-17T10:10:09Z</time>
      </trkpt>
      <trkpt lat="47.1835" lon="-1.76746">
        <ele>16.42</ele>
        <time>2020-05-17T10:10:11Z</time>
      </trkpt>
      <trkpt lat="47.18352" lon="-1.76761">
        <ele>16.44</ele>
        <time>2020-05-17T10:10:13Z</time>
      </trkpt>
      <trkpt lat="47.18354" lon="-1.76779">
        <ele>17.04</ele>
        <time>2020-05-17T10:10:15Z</time>
      </trkpt>
      <trkpt lat="47.18356" lon="-1.76797">
        <ele>17.04</ele>
        <time>2020-05-17T10:10:17Z</time>
      </trkpt>
      <trkpt lat="47.18357" lon="-1.76813">
        <ele>17.59</ele>
        <time>2020-05-17T10:10:19Z</time>
      </trkpt>
      <trkpt lat="47.18359" lon="-1.76834">
        <ele>19.08</ele>
        <time>2020-05-17T10:10:22Z</time>
      </trkpt>
      <trkpt lat="47.18361" lon="-1.76853">
        <ele>20.13</ele>
        <time>2020-05-17T10:10:24Z</time>
      </trkpt>
      <trkpt lat="47.18363" lon="-1.76867">
        <ele>19.55</ele>
        <time>2020-05-17T10:10:26Z</time>
      </trkpt>
      <trkpt lat="47.18364" lon="-1.76885">
        <ele>18.75</ele>
        <time>2020-05-17T10:10:28Z</time>
      </trkpt>
      <trkpt lat="47.18366" lon="-1.76901">
        <ele>18.62</ele>
        <time>2020-05-17T10:10:30Z</time>
      </trkpt>
      <trkpt lat="47.18368" lon="-1.76921">
        <ele>18.18</ele>
        <time>2020-05-17T10:10:32Z</time>
      </trkpt>
      <trkpt lat="47.1837" lon="-1.76937">
        <ele>17.99</ele>
        <time>2020-05-17T10:10:34Z</time>
      </trkpt>
      <trkpt lat="47.18372" lon="-1.76954">
        <ele>18.23</ele>
        <time>2020-05-17T10:10:36Z</time>
      </trkpt>
      <trkpt lat="47.18374" lon="-1.76968">
        <ele>17.88</ele>
        <time>2020-05-17T10:10:38Z</time>
      </trkpt>
      <trkpt lat="47.18376" lon="-1.76988">
        <ele>18.67</ele>
        <time>2020-05-17T10:10:40Z</time>
      </trkpt>
      <trkpt lat="47.18377" lon="-1.77004">
        <ele>18.62</ele>
        <time>2020-05-17T10:10:42Z</time>
      </trkpt>
      <trkpt lat="47.18378" lon="-1.77021">
        <ele>17.68</ele>
        <time>2020-05-17T10:10:44Z</time>
      </trkpt>
      <trkpt lat="47.18378" lon="-1.77038">
        <ele>18.76</ele>
        <time>2020-05-17T10:10:46Z</time>
      </trkpt>
      <trkpt lat="47.18378" lon="-1.77057">
        <ele>19.75</ele>
        <time>2020-05-17T10:10:48Z</time>
      </trkpt>
      <trkpt lat="47.18377" lon="-1.77073">
        <ele>20.23</ele>
        <time>2020-05-17T10:10:50Z</time>
      </trkpt>
      <trkpt lat="47.18376" lon="-1.77093">
        <ele>21.34</ele>
        <time>2020-05-17T10:10:52Z</time>
      </trkpt>
      <trkpt lat="47.18374" lon="-1.77113">
        <ele>21.91</ele>
        <time>2020-05-17T10:10:55Z</time>
      </trkpt>
      <trkpt lat="47.18372" lon="-1.7713">
        <ele>22.71</ele>
        <time>2020-05-17T10:10:57Z</time>
      </trkpt>
      <trkpt lat="47.18369" lon="-1.77148">
        <ele>23.25</ele>
        <time>2020-05-17T10:10:59Z</time>
      </trkpt>
      <trkpt lat="47.18366" lon="-1.77167">
        <ele>22.69</ele>
        <time>2020-05-17T10:11:01Z</time>
      </trkpt>
      <trkpt lat="47.18364" lon="-1.77184">
        <ele>22.96</ele>
        <time>2020-05-17T10:11:03Z</time>
      </trkpt>
      <trkpt lat="47.18362" lon="-1.77203">
        <ele>22.72</ele>
        <time>2020-05-17T10:11:05Z</time>
      </trkpt>
      <trkpt lat="47.18361" lon="-1.77223">
        <ele>22.45</ele>
        <time>2020-05-17T10:11:07Z</time>
      </trkpt>
      <trkpt lat="47.1836" lon="-1.7724">
        <ele>22.69</ele>
        <time>2020-05-17T10:11:09Z</time>
      </trkpt>
      <trkpt lat="47.1836" lon="-1.7726">
        <ele>22.47</ele>
        <time>2020-05-17T10:11:11Z</time>
      </trkpt>
      <trkpt lat="47.18361" lon="-1.77276">
        <ele>21.68</ele>
        <time>2020-05-17T10:11:13Z</time>
      </trkpt>
      <trkpt lat="47.18362" lon="-1.77295">
        <ele>20.9</ele>
        <time>2020-05-17T10:11:15Z</time>
      </trkpt>
      <trkpt lat="47.18363" lon="-1.77309">
        <ele>20.91</ele>
        <time>2020-05-17T10:11:17Z</time>
      </trkpt>
      <trkpt lat="47.18364" lon="-1.77328">
        <ele>21.08</ele>
        <time>2020-05-17T10:11:19Z</time>
      </trkpt>
      <trkpt lat="47.18365" lon="-1.77349">
        <ele>21.04</ele>
        <time>2020-05-17T10:11:21Z</time>
      </trkpt>
      <trkpt lat="47.18366" lon="-1.77366">
        <ele>21.5</ele>
        <time>2020-05-17T10:11:23Z</time>
      </trkpt>
      <trkpt lat="47.18367" lon="-1.77387">
        <ele>21.27</ele>
        <time>2020-05-17T10:11:25Z</time>
      </trkpt>
      <trkpt lat="47.18368" lon="-1.77406">
        <ele>20.36</ele>
        <time>2020-05-17T10:11:27Z</time>
      </trkpt>
      <trkpt lat="47.18368" lon="-1.77425">
        <ele>19.96</ele>
        <time>2020-05-17T10:11:29Z</time>
      </trkpt>
      <trkpt lat="47.18369" lon="-1.77442">
        <ele>20.12</ele>
        <time>2020-05-17T10:11:31Z</time>
      </trkpt>
      <trkpt lat="47.1837" lon="-1.77463">
        <ele>20.51</ele>
        <time>2020-05-17T10:11:33Z</time>
      </trkpt>
      <trkpt lat="47.18371" lon="-1.77482">
        <ele>20.96</ele>
        <time>2020-05-17T10:11:35Z</time>
      </trkpt>
      <trkpt lat="47.18371" lon="-1.77501">
        <ele>21.38</ele>
        <time>2020-05-17T10:11:37Z</time>
      </trkpt>
      <trkpt lat="47.18371" lon="-1.77521">
        <ele>21.76</ele>
        <time>2020-05-17T10:11:39Z</time>
      </trkpt>
      <trkpt lat="47.1837" lon="-1.77541">
        <ele>21.63</ele>
        <time>2020-05-17T10:11:41Z</time>
      </trkpt>
      <trkpt lat="47.18368" lon="-1.77562">
        <ele>21.61</ele>
        <time>2020-05-17T10:11:43Z</time>
      </trkpt>
      <trkpt lat="47.18364" lon="-1.77581">
        <ele>21.57</ele>
        <time>2020-05-17T10:11:45Z</time>
      </trkpt>
      <trkpt lat="47.18359" lon="-1.776">
        <ele>21.82</ele>
        <time>2020-05-17T10:11:47Z</time>
      </trkpt>
      <trkpt lat="47.18353" lon="-1.77619">
        <ele>22.02</ele>
        <time>2020-05-17T10:11:49Z</time>
      </trkpt>
      <trkpt lat="47.18348" lon="-1.77636">
        <ele>22.28</ele>
        <time>2020-05-17T10:11:51Z</time>
      </trkpt>
      <trkpt lat="47.18342" lon="-1.77654">
        <ele>22.92</ele>
        <time>2020-05-17T10:11:53Z</time>
      </trkpt>
      <trkpt lat="47.18337" lon="-1.7767">
        <ele>22.81</ele>
        <time>2020-05-17T10:11:55Z</time>
      </trkpt>
      <trkpt lat="47.1833" lon="-1.77688">
        <ele>21.91</ele>
        <time>2020-05-17T10:11:57Z</time>
      </trkpt>
      <trkpt lat="47.18324" lon="-1.77705">
        <ele>21.23</ele>
        <time>2020-05-17T10:11:59Z</time>
      </trkpt>
      <trkpt lat="47.18317" lon="-1.77724">
        <ele>20.24</ele>
        <time>2020-05-17T10:12:01Z</time>
      </trkpt>
      <trkpt lat="47.18311" lon="-1.7774">
        <ele>19.68</ele>
        <time>2020-05-17T10:12:03Z</time>
      </trkpt>
      <trkpt lat="47.18305" lon="-1.77758">
        <ele>18.92</ele>
        <time>2020-05-17T10:12:05Z</time>
      </trkpt>
      <trkpt lat="47.18299" lon="-1.77775">
        <ele>17.97</ele>
        <time>2020-05-17T10:12:07Z</time>
      </trkpt>
      <trkpt lat="47.18293" lon="-1.77795">
        <ele>17.63</ele>
        <time>2020-05-17T10:12:09Z</time>
      </trkpt>
      <trkpt lat="47.18287" lon="-1.77813">
        <ele>18.04</ele>
        <time>2020-05-17T10:12:11Z</time>
      </trkpt>
      <trkpt lat="47.18281" lon="-1.77832">
        <ele>18.29</ele>
        <time>2020-05-17T10:12:13Z</time>
      </trkpt>
      <trkpt lat="47.18275" lon="-1.77849">
        <ele>19.36</ele>
        <time>2020-05-17T10:12:15Z</time>
      </trkpt>
      <trkpt lat="47.18272" lon="-1.77866">
        <ele>20.43</ele>
        <time>2020-05-17T10:12:17Z</time>
      </trkpt>
      <trkpt lat="47.18279" lon="-1.77877">
        <ele>20.78</ele>
        <time>2020-05-17T10:12:19Z</time>
      </trkpt>
      <trkpt lat="47.1829" lon="-1.77886">
        <ele>22.64</ele>
        <time>2020-05-17T10:12:21Z</time>
      </trkpt>
      <trkpt lat="47.18301" lon="-1.77895">
        <ele>24.29</ele>
        <time>2020-05-17T10:12:23Z</time>
      </trkpt>
      <trkpt lat="47.18312" lon="-1.77903">
        <ele>24.64</ele>
        <time>2020-05-17T10:12:25Z</time>
      </trkpt>
      <trkpt lat="47.18325" lon="-1.77905">
        <ele>24.72</ele>
        <time>2020-05-17T10:12:27Z</time>
      </trkpt>
      <trkpt lat="47.18336" lon="-1.77906">
        <ele>24.3</ele>
        <time>2020-05-17T10:12:29Z</time>
      </trkpt>
      <trkpt lat="47.18347" lon="-1.77907">
        <ele>24.95</ele>
        <time>2020-05-17T10:12:31Z</time>
      </trkpt>
      <trkpt lat="47.18358" lon="-1.77907">
        <ele>25.11</ele>
        <time>2020-05-17T10:12:33Z</time>
      </trkpt>
      <trkpt lat="47.18369" lon="-1.77906">
        <ele>24.94</ele>
        <time>2020-05-17T10:12:35Z</time>
      </trkpt>
      <trkpt lat="47.1838" lon="-1.77906">
        <ele>25.54</ele>
        <time>2020-05-17T10:12:37Z</time>
      </trkpt>
      <trkpt lat="47.1839" lon="-1.77906">
        <ele>26.72</ele>
        <time>2020-05-17T10:12:39Z</time>
      </trkpt>
      <trkpt lat="47.18399" lon="-1.77906">
        <ele>27.26</ele>
        <time>2020-05-17T10:12:41Z</time>
      </trkpt>
      <trkpt lat="47.18412" lon="-1.77905">
        <ele>28.01</ele>
        <time>2020-05-17T10:12:44Z</time>
      </trkpt>
      <trkpt lat="47.18423" lon="-1.77903">
        <ele>28.55</ele>
        <time>2020-05-17T10:12:46Z</time>
      </trkpt>
      <trkpt lat="47.18433" lon="-1.77903">
        <ele>27.72</ele>
        <time>2020-05-17T10:12:48Z</time>
      </trkpt>
      <trkpt lat="47.18443" lon="-1.77902">
        <ele>27.78</ele>
        <time>2020-05-17T10:12:50Z</time>
      </trkpt>
      <trkpt lat="47.18453" lon="-1.779">
        <ele>27.97</ele>
        <time>2020-05-17T10:12:52Z</time>
      </trkpt>
      <trkpt lat="47.18464" lon="-1.779">
        <ele>27.86</ele>
        <time>2020-05-17T10:12:54Z</time>
      </trkpt>
      <trkpt lat="47.18473" lon="-1.77899">
        <ele>28.26</ele>
        <time>2020-05-17T10:12:56Z</time>
      </trkpt>
      <trkpt lat="47.18485" lon="-1.77898">
        <ele>28.7</ele>
        <time>2020-05-17T10:12:58Z</time>
      </trkpt>
      <trkpt lat="47.18496" lon="-1.77897">
        <ele>28.07</ele>
        <time>2020-05-17T10:13:00Z</time>
      </trkpt>
      <trkpt lat="47.18508" lon="-1.77893">
        <ele>26.76</ele>
        <time>2020-05-17T10:13:02Z</time>
      </trkpt>
      <trkpt lat="47.18521" lon="-1.77884">
        <ele>25.62</ele>
        <time>2020-05-17T10:13:04Z</time>
      </trkpt>
      <trkpt lat="47.18533" lon="-1.77884">
        <ele>25.08</ele>
        <time>2020-05-17T10:13:06Z</time>
      </trkpt>
      <trkpt lat="47.18544" lon="-1.77898">
        <ele>25.6</ele>
        <time>2020-05-17T10:13:08Z</time>
      </trkpt>
      <trkpt lat="47.1855" lon="-1.77918">
        <ele>27.14</ele>
        <time>2020-05-17T10:13:10Z</time>
      </trkpt>
      <trkpt lat="47.18556" lon="-1.77934">
        <ele>27.54</ele>
        <time>2020-05-17T10:13:12Z</time>
      </trkpt>
      <trkpt lat="47.18561" lon="-1.77954">
        <ele>26.93</ele>
        <time>2020-05-17T10:13:14Z</time>
      </trkpt>
      <trkpt lat="47.18558" lon="-1.77973">
        <ele>26.71</ele>
        <time>2020-05-17T10:13:16Z</time>
      </trkpt>
      <trkpt lat="47.18549" lon="-1.77989">
        <ele>26.4</ele>
        <time>2020-05-17T10:13:18Z</time>
      </trkpt>
      <trkpt lat="47.18538" lon="-1.78007">
        <ele>26.4</ele>
        <time>2020-05-17T10:13:20Z</time>
      </trkpt>
      <trkpt lat="47.18531" lon="-1.78027">
        <ele>27.45</ele>
        <time>2020-05-17T10:13:22Z</time>
      </trkpt>
      <trkpt lat="47.18527" lon="-1.78048">
        <ele>28.06</ele>
        <time>2020-05-17T10:13:24Z</time>
      </trkpt>
      <trkpt lat="47.18523" lon="-1.7807">
        <ele>27.61</ele>
        <time>2020-05-17T10:13:26Z</time>
      </trkpt>
      <trkpt lat="47.1852" lon="-1.78093">
        <ele>27.21</ele>
        <time>2020-05-17T10:13:28Z</time>
      </trkpt>
      <trkpt lat="47.18518" lon="-1.78113">
        <ele>26.74</ele>
        <time>2020-05-17T10:13:30Z</time>
      </trkpt>
      <trkpt lat="47.18516" lon="-1.78126">
        <ele>26.65</ele>
        <time>2020-05-17T10:13:31Z</time>
      </trkpt>
      <trkpt lat="47.18514" lon="-1.78146">
        <ele>26.88</ele>
        <time>2020-05-17T10:13:33Z</time>
      </trkpt>
      <trkpt lat="47.18513" lon="-1.78169">
        <ele>27.27</ele>
        <time>2020-05-17T10:13:35Z</time>
      </trkpt>
      <trkpt lat="47.18513" lon="-1.78188">
        <ele>27.33</ele>
        <time>2020-05-17T10:13:37Z</time>
      </trkpt>
      <trkpt lat="47.18513" lon="-1.78212">
        <ele>26.8</ele>
        <time>2020-05-17T10:13:39Z</time>
      </trkpt>
      <trkpt lat="47.18514" lon="-1.78234">
        <ele>26.56</ele>
        <time>2020-05-17T10:13:41Z</time>
      </trkpt>
      <trkpt lat="47.18516" lon="-1.78256">
        <ele>26.66</ele>
        <time>2020-05-17T10:13:43Z</time>
      </trkpt>
      <trkpt lat="47.18517" lon="-1.78275">
        <ele>26.22</ele>
        <time>2020-05-17T10:13:45Z</time>
      </trkpt>
      <trkpt lat="47.18519" lon="-1.78299">
        <ele>25.82</ele>
        <time>2020-05-17T10:13:47Z</time>
      </trkpt>
      <trkpt lat="47.18521" lon="-1.78319">
        <ele>25.75</ele>
        <time>2020-05-17T10:13:49Z</time>
      </trkpt>
      <trkpt lat="47.18524" lon="-1.78342">
        <ele>24.17</ele>
        <time>2020-05-17T10:13:51Z</time>
      </trkpt>
      <trkpt lat="47.18526" lon="-1.78363">
        <ele>23.82</ele>
        <time>2020-05-17T10:13:53Z</time>
      </trkpt>
      <trkpt lat="47.18529" lon="-1.78385">
        <ele>23.66</ele>
        <time>2020-05-17T10:13:55Z</time>
      </trkpt>
      <trkpt lat="47.18531" lon="-1.78404">
        <ele>22.77</ele>
        <time>2020-05-17T10:13:57Z</time>
      </trkpt>
      <trkpt lat="47.18534" lon="-1.78426">
        <ele>21.5</ele>
        <time>2020-05-17T10:13:59Z</time>
      </trkpt>
      <trkpt lat="47.18536" lon="-1.78446">
        <ele>22.63</ele>
        <time>2020-05-17T10:14:01Z</time>
      </trkpt>
      <trkpt lat="47.18539" lon="-1.78467">
        <ele>21.57</ele>
        <time>2020-05-17T10:14:03Z</time>
      </trkpt>
      <trkpt lat="47.18542" lon="-1.78489">
        <ele>19.67</ele>
        <time>2020-05-17T10:14:05Z</time>
      </trkpt>
      <trkpt lat="47.18545" lon="-1.78509">
        <ele>20.08</ele>
        <time>2020-05-17T10:14:07Z</time>
      </trkpt>
      <trkpt lat="47.18548" lon="-1.7853">
        <ele>21.13</ele>
        <time>2020-05-17T10:14:09Z</time>
      </trkpt>
      <trkpt lat="47.18551" lon="-1.7855">
        <ele>21.55</ele>
        <time>2020-05-17T10:14:11Z</time>
      </trkpt>
      <trkpt lat="47.18556" lon="-1.7857">
        <ele>21.45</ele>
        <time>2020-05-17T10:14:13Z</time>
      </trkpt>
      <trkpt lat="47.18561" lon="-1.78585">
        <ele>20.51</ele>
        <time>2020-05-17T10:14:15Z</time>
      </trkpt>
      <trkpt lat="47.18567" lon="-1.78599">
        <ele>19.71</ele>
        <time>2020-05-17T10:14:17Z</time>
      </trkpt>
      <trkpt lat="47.18575" lon="-1.78616">
        <ele>19.73</ele>
        <time>2020-05-17T10:14:19Z</time>
      </trkpt>
      <trkpt lat="47.18581" lon="-1.78632">
        <ele>19.43</ele>
        <time>2020-05-17T10:14:21Z</time>
      </trkpt>
      <trkpt lat="47.18588" lon="-1.78648">
        <ele>19.33</ele>
        <time>2020-05-17T10:14:23Z</time>
      </trkpt>
      <trkpt lat="47.18594" lon="-1.78667">
        <ele>19.51</ele>
        <time>2020-05-17T10:14:25Z</time>
      </trkpt>
      <trkpt lat="47.18599" lon="-1.78683">
        <ele>20.48</ele>
        <time>2020-05-17T10:14:27Z</time>
      </trkpt>
      <trkpt lat="47.18604" lon="-1.787">
        <ele>20.98</ele>
        <time>2020-05-17T10:14:29Z</time>
      </trkpt>
      <trkpt lat="47.18609" lon="-1.78718">
        <ele>20.93</ele>
        <time>2020-05-17T10:14:31Z</time>
      </trkpt>
      <trkpt lat="47.18613" lon="-1.78734">
        <ele>21.81</ele>
        <time>2020-05-17T10:14:33Z</time>
      </trkpt>
      <trkpt lat="47.18618" lon="-1.78753">
        <ele>22.23</ele>
        <time>2020-05-17T10:14:35Z</time>
      </trkpt>
      <trkpt lat="47.18622" lon="-1.78769">
        <ele>22.09</ele>
        <time>2020-05-17T10:14:37Z</time>
      </trkpt>
      <trkpt lat="47.18626" lon="-1.78786">
        <ele>22.59</ele>
        <time>2020-05-17T10:14:39Z</time>
      </trkpt>
      <trkpt lat="47.1863" lon="-1.78803">
        <ele>22.68</ele>
        <time>2020-05-17T10:14:41Z</time>
      </trkpt>
      <trkpt lat="47.18634" lon="-1.7882">
        <ele>22.32</ele>
        <time>2020-05-17T10:14:43Z</time>
      </trkpt>
      <trkpt lat="47.1864" lon="-1.78834">
        <ele>21.9</ele>
        <time>2020-05-17T10:14:45Z</time>
      </trkpt>
      <trkpt lat="47.1865" lon="-1.78847">
        <ele>22.38</ele>
        <time>2020-05-17T10:14:47Z</time>
      </trkpt>
      <trkpt lat="47.1866" lon="-1.78858">
        <ele>23.03</ele>
        <time>2020-05-17T10:14:49Z</time>
      </trkpt>
      <trkpt lat="47.1867" lon="-1.78867">
        <ele>23.4</ele>
        <time>2020-05-17T10:14:51Z</time>
      </trkpt>
      <trkpt lat="47.18681" lon="-1.78875">
        <ele>23.58</ele>
        <time>2020-05-17T10:14:53Z</time>
      </trkpt>
      <trkpt lat="47.18692" lon="-1.78883">
        <ele>23.43</ele>
        <time>2020-05-17T10:14:55Z</time>
      </trkpt>
      <trkpt lat="47.18704" lon="-1.7889">
        <ele>23.5</ele>
        <time>2020-05-17T10:14:57Z</time>
      </trkpt>
      <trkpt lat="47.18715" lon="-1.78891">
        <ele>23.19</ele>
        <time>2020-05-17T10:14:59Z</time>
      </trkpt>
      <trkpt lat="47.18722" lon="-1.78878">
        <ele>23.08</ele>
        <time>2020-05-17T10:15:01Z</time>
      </trkpt>
      <trkpt lat="47.18728" lon="-1.78861">
        <ele>23.2</ele>
        <time>2020-05-17T10:15:03Z</time>
      </trkpt>
      <trkpt lat="47.18734" lon="-1.78844">
        <ele>23.4</ele>
        <time>2020-05-17T10:15:05Z</time>
      </trkpt>
      <trkpt lat="47.1874" lon="-1.78826">
        <ele>23.93</ele>
        <time>2020-05-17T10:15:07Z</time>
      </trkpt>
      <trkpt lat="47.18746" lon="-1.7881">
        <ele>24.7</ele>
        <time>2020-05-17T10:15:09Z</time>
      </trkpt>
      <trkpt lat="47.18752" lon="-1.78793">
        <ele>25.62</ele>
        <time>2020-05-17T10:15:11Z</time>
      </trkpt>
      <trkpt lat="47.18758" lon="-1.78776">
        <ele>25.84</ele>
        <time>2020-05-17T10:15:13Z</time>
      </trkpt>
      <trkpt lat="47.18765" lon="-1.7876">
        <ele>25.08</ele>
        <time>2020-05-17T10:15:15Z</time>
      </trkpt>
      <trkpt lat="47.18774" lon="-1.78745">
        <ele>24.69</ele>
        <time>2020-05-17T10:15:17Z</time>
      </trkpt>
      <trkpt lat="47.18784" lon="-1.78728">
        <ele>24.1</ele>
        <time>2020-05-17T10:15:19Z</time>
      </trkpt>
      <trkpt lat="47.18795" lon="-1.78715">
        <ele>23.48</ele>
        <time>2020-05-17T10:15:21Z</time>
      </trkpt>
      <trkpt lat="47.18807" lon="-1.78701">
        <ele>22.78</ele>
        <time>2020-05-17T10:15:23Z</time>
      </trkpt>
      <trkpt lat="47.18818" lon="-1.78691">
        <ele>22.96</ele>
        <time>2020-05-17T10:15:24Z</time>
      </trkpt>
      <trkpt lat="47.1883" lon="-1.7868">
        <ele>23.58</ele>
        <time>2020-05-17T10:15:26Z</time>
      </trkpt>
      <trkpt lat="47.18841" lon="-1.78669">
        <ele>24.09</ele>
        <time>2020-05-17T10:15:28Z</time>
      </trkpt>
      <trkpt lat="47.18853" lon="-1.78664">
        <ele>24.4</ele>
        <time>2020-05-17T10:15:30Z</time>
      </trkpt>
      <trkpt lat="47.18863" lon="-1.7867">
        <ele>24.82</ele>
        <time>2020-05-17T10:15:32Z</time>
      </trkpt>
      <trkpt lat="47.18866" lon="-1.78684">
        <ele>24.51</ele>
        <time>2020-05-17T10:15:34Z</time>
      </trkpt>
      <trkpt lat="47.18869" lon="-1.78702">
        <ele>24.39</ele>
        <time>2020-05-17T10:15:36Z</time>
      </trkpt>
      <trkpt lat="47.18872" lon="-1.78722">
        <ele>24.64</ele>
        <time>2020-05-17T10:15:38Z</time>
      </trkpt>
      <trkpt lat="47.18874" lon="-1.78743">
        <ele>24.32</ele>
        <time>2020-05-17T10:15:40Z</time>
      </trkpt>
      <trkpt lat="47.18876" lon="-1.78762">
        <ele>23.5</ele>
        <time>2020-05-17T10:15:42Z</time>
      </trkpt>
      <trkpt lat="47.18877" lon="-1.78783">
        <ele>23.67</ele>
        <time>2020-05-17T10:15:44Z</time>
      </trkpt>
      <trkpt lat="47.18879" lon="-1.78803">
        <ele>23.25</ele>
        <time>2020-05-17T10:15:46Z</time>
      </trkpt>
      <trkpt lat="47.18881" lon="-1.78825">
        <ele>22.72</ele>
        <time>2020-05-17T10:15:48Z</time>
      </trkpt>
      <trkpt lat="47.18882" lon="-1.78842">
        <ele>22.55</ele>
        <time>2020-05-17T10:15:50Z</time>
      </trkpt>
      <trkpt lat="47.18884" lon="-1.78865">
        <ele>22.58</ele>
        <time>2020-05-17T10:15:52Z</time>
      </trkpt>
      <trkpt lat="47.18886" lon="-1.78885">
        <ele>22.47</ele>
        <time>2020-05-17T10:15:54Z</time>
      </trkpt>
      <trkpt lat="47.18888" lon="-1.78905">
        <ele>22.63</ele>
        <time>2020-05-17T10:15:56Z</time>
      </trkpt>
      <trkpt lat="47.18891" lon="-1.78926">
        <ele>23.22</ele>
        <time>2020-05-17T10:15:58Z</time>
      </trkpt>
      <trkpt lat="47.18893" lon="-1.78946">
        <ele>22.96</ele>
        <time>2020-05-17T10:16:00Z</time>
      </trkpt>
      <trkpt lat="47.18895" lon="-1.78964">
        <ele>22.47</ele>
        <time>2020-05-17T10:16:02Z</time>
      </trkpt>
      <trkpt lat="47.18896" lon="-1.78984">
        <ele>21.75</ele>
        <time>2020-05-17T10:16:04Z</time>
      </trkpt>
      <trkpt lat="47.18899" lon="-1.79005">
        <ele>21.35</ele>
        <time>2020-05-17T10:16:06Z</time>
      </trkpt>
      <trkpt lat="47.18901" lon="-1.79025">
        <ele>21.19</ele>
        <time>2020-05-17T10:16:08Z</time>
      </trkpt>
      <trkpt lat="47.18903" lon="-1.79046">
        <ele>20.4</ele>
        <time>2020-05-17T10:16:10Z</time>
      </trkpt>
      <trkpt lat="47.18905" lon="-1.79068">
        <ele>20.54</ele>
        <time>2020-05-17T10:16:12Z</time>
      </trkpt>
      <trkpt lat="47.18907" lon="-1.79086">
        <ele>20.01</ele>
        <time>2020-05-17T10:16:14Z</time>
      </trkpt>
      <trkpt lat="47.18908" lon="-1.79106">
        <ele>19.59</ele>
        <time>2020-05-17T10:16:16Z</time>
      </trkpt>
      <trkpt lat="47.18911" lon="-1.79127">
        <ele>19.69</ele>
        <time>2020-05-17T10:16:18Z</time>
      </trkpt>
      <trkpt lat="47.18913" lon="-1.79146">
        <ele>19.76</ele>
        <time>2020-05-17T10:16:20Z</time>
      </trkpt>
      <trkpt lat="47.18916" lon="-1.79164">
        <ele>20.09</ele>
        <time>2020-05-17T10:16:22Z</time>
      </trkpt>
      <trkpt lat="47.18919" lon="-1.79186">
        <ele>20.34</ele>
        <time>2020-05-17T10:16:24Z</time>
      </trkpt>
      <trkpt lat="47.18923" lon="-1.79207">
        <ele>20.05</ele>
        <time>2020-05-17T10:16:26Z</time>
      </trkpt>
      <trkpt lat="47.18927" lon="-1.79225">
        <ele>20.36</ele>
        <time>2020-05-17T10:16:28Z</time>
      </trkpt>
      <trkpt lat="47.18931" lon="-1.79244">
        <ele>21.59</ele>
        <time>2020-05-17T10:16:30Z</time>
      </trkpt>
      <trkpt lat="47.18936" lon="-1.79264">
        <ele>22.45</ele>
        <time>2020-05-17T10:16:32Z</time>
      </trkpt>
      <trkpt lat="47.18938" lon="-1.79287">
        <ele>22.88</ele>
        <time>2020-05-17T10:16:34Z</time>
      </trkpt>
      <trkpt lat="47.18941" lon="-1.79308">
        <ele>22.17</ele>
        <time>2020-05-17T10:16:36Z</time>
      </trkpt>
      <trkpt lat="47.18944" lon="-1.7933">
        <ele>21.96</ele>
        <time>2020-05-17T10:16:38Z</time>
      </trkpt>
      <trkpt lat="47.18947" lon="-1.79349">
        <ele>21.87</ele>
        <time>2020-05-17T10:16:40Z</time>
      </trkpt>
      <trkpt lat="47.18949" lon="-1.79368">
        <ele>20.55</ele>
        <time>2020-05-17T10:16:42Z</time>
      </trkpt>
      <trkpt lat="47.18952" lon="-1.79388">
        <ele>19.92</ele>
        <time>2020-05-17T10:16:44Z</time>
      </trkpt>
      <trkpt lat="47.18955" lon="-1.79408">
        <ele>19.82</ele>
        <time>2020-05-17T10:16:46Z</time>
      </trkpt>
      <trkpt lat="47.18959" lon="-1.79427">
        <ele>20.54</ele>
        <time>2020-05-17T10:16:48Z</time>
      </trkpt>
      <trkpt lat="47.18963" lon="-1.79446">
        <ele>20.87</ele>
        <time>2020-05-17T10:16:50Z</time>
      </trkpt>
      <trkpt lat="47.18967" lon="-1.79465">
        <ele>21.17</ele>
        <time>2020-05-17T10:16:52Z</time>
      </trkpt>
      <trkpt lat="47.18971" lon="-1.79486">
        <ele>20.58</ele>
        <time>2020-05-17T10:16:54Z</time>
      </trkpt>
      <trkpt lat="47.18975" lon="-1.79507">
        <ele>20.56</ele>
        <time>2020-05-17T10:16:56Z</time>
      </trkpt>
      <trkpt lat="47.18978" lon="-1.79526">
        <ele>20.32</ele>
        <time>2020-05-17T10:16:58Z</time>
      </trkpt>
      <trkpt lat="47.18982" lon="-1.79546">
        <ele>19.7</ele>
        <time>2020-05-17T10:17:00Z</time>
      </trkpt>
      <trkpt lat="47.18986" lon="-1.79565">
        <ele>19.37</ele>
        <time>2020-05-17T10:17:02Z</time>
      </trkpt>
      <trkpt lat="47.18991" lon="-1.79583">
        <ele>18.76</ele>
        <time>2020-05-17T10:17:04Z</time>
      </trkpt>
      <trkpt lat="47.18995" lon="-1.796">
        <ele>17.44</ele>
        <time>2020-05-17T10:17:06Z</time>
      </trkpt>
      <trkpt lat="47.19" lon="-1.7962">
        <ele>16.46</ele>
        <time>2020-05-17T10:17:08Z</time>
      </trkpt>
      <trkpt lat="47.19004" lon="-1.79638">
        <ele>16.95</ele>
        <time>2020-05-17T10:17:10Z</time>
      </trkpt>
      <trkpt lat="47.19008" lon="-1.79654">
        <ele>16.82</ele>
        <time>2020-05-17T10:17:12Z</time>
      </trkpt>
      <trkpt lat="47.19013" lon="-1.7967">
        <ele>16.27</ele>
        <time>2020-05-17T10:17:14Z</time>
      </trkpt>
      <trkpt lat="47.19017" lon="-1.79688">
        <ele>14.82</ele>
        <time>2020-05-17T10:17:16Z</time>
      </trkpt>
      <trkpt lat="47.19023" lon="-1.79707">
        <ele>14.7</ele>
        <time>2020-05-17T10:17:18Z</time>
      </trkpt>
      <trkpt lat="47.19028" lon="-1.79729">
        <ele>15.6</ele>
        <time>2020-05-17T10:17:20Z</time>
      </trkpt>
      <trkpt lat="47.19031" lon="-1.79742">
        <ele>16.9</ele>
        <time>2020-05-17T10:17:22Z</time>
      </trkpt>
      <trkpt lat="47.19036" lon="-1.79758">
        <ele>16.91</ele>
        <time>2020-05-17T10:17:24Z</time>
      </trkpt>
      <trkpt lat="47.19041" lon="-1.79775">
        <ele>16.23</ele>
        <time>2020-05-17T10:17:26Z</time>
      </trkpt>
      <trkpt lat="47.19048" lon="-1.79792">
        <ele>16.84</ele>
        <time>2020-05-17T10:17:28Z</time>
      </trkpt>
      <trkpt lat="47.19056" lon="-1.79809">
        <ele>18.12</ele>
        <time>2020-05-17T10:17:30Z</time>
      </trkpt>
      <trkpt lat="47.19064" lon="-1.79827">
        <ele>19.1</ele>
        <time>2020-05-17T10:17:32Z</time>
      </trkpt>
      <trkpt lat="47.19071" lon="-1.79844">
        <ele>19.91</ele>
        <time>2020-05-17T10:17:34Z</time>
      </trkpt>
      <trkpt lat="47.19079" lon="-1.79861">
        <ele>19.54</ele>
        <time>2020-05-17T10:17:36Z</time>
      </trkpt>
      <trkpt lat="47.19086" lon="-1.79876">
        <ele>18.43</ele>
        <time>2020-05-17T10:17:38Z</time>
      </trkpt>
      <trkpt lat="47.19094" lon="-1.79893">
        <ele>17.21</ele>
        <time>2020-05-17T10:17:40Z</time>
      </trkpt>
      <trkpt lat="47.19101" lon="-1.79907">
        <ele>17.6</ele>
        <time>2020-05-17T10:17:42Z</time>
      </trkpt>
      <trkpt lat="47.19108" lon="-1.79924">
        <ele>18.82</ele>
        <time>2020-05-17T10:17:44Z</time>
      </trkpt>
      <trkpt lat="47.19116" lon="-1.79942">
        <ele>19.08</ele>
        <time>2020-05-17T10:17:46Z</time>
      </trkpt>
      <trkpt lat="47.19123" lon="-1.7996">
        <ele>17.3</ele>
        <time>2020-05-17T10:17:48Z</time>
      </trkpt>
      <trkpt lat="47.1913" lon="-1.79976">
        <ele>16.54</ele>
        <time>2020-05-17T10:17:50Z</time>
      </trkpt>
      <trkpt lat="47.19137" lon="-1.79991">
        <ele>15.44</ele>
        <time>2020-05-17T10:17:52Z</time>
      </trkpt>
      <trkpt lat="47.19143" lon="-1.80004">
        <ele>14.79</ele>
        <time>2020-05-17T10:17:54Z</time>
      </trkpt>
      <trkpt lat="47.1915" lon="-1.80019">
        <ele>14.5</ele>
        <time>2020-05-17T10:17:56Z</time>
      </trkpt>
      <trkpt lat="47.19158" lon="-1.80035">
        <ele>13.89</ele>
        <time>2020-05-17T10:17:58Z</time>
      </trkpt>
      <trkpt lat="47.19165" lon="-1.80051">
        <ele>14.6</ele>
        <time>2020-05-17T10:18:00Z</time>
      </trkpt>
      <trkpt lat="47.19173" lon="-1.80067">
        <ele>15.28</ele>
        <time>2020-05-17T10:18:02Z</time>
      </trkpt>
      <trkpt lat="47.19181" lon="-1.80083">
        <ele>14.94</ele>
        <time>2020-05-17T10:18:04Z</time>
      </trkpt>
      <trkpt lat="47.1919" lon="-1.801">
        <ele>16.11</ele>
        <time>2020-05-17T10:18:06Z</time>
      </trkpt>
      <trkpt lat="47.19197" lon="-1.80115">
        <ele>17.19</ele>
        <time>2020-05-17T10:18:08Z</time>
      </trkpt>
      <trkpt lat="47.19205" lon="-1.80131">
        <ele>17.54</ele>
        <time>2020-05-17T10:18:10Z</time>
      </trkpt>
      <trkpt lat="47.19212" lon="-1.80148">
        <ele>17.04</ele>
        <time>2020-05-17T10:18:12Z</time>
      </trkpt>
      <trkpt lat="47.19219" lon="-1.80165">
        <ele>16.69</ele>
        <time>2020-05-17T10:18:14Z</time>
      </trkpt>
      <trkpt lat="47.19227" lon="-1.80181">
        <ele>16.3</ele>
        <time>2020-05-17T10:18:16Z</time>
      </trkpt>
      <trkpt lat="47.19233" lon="-1.80199">
        <ele>16.17</ele>
        <time>2020-05-17T10:18:18Z</time>
      </trkpt>
      <trkpt lat="47.19238" lon="-1.80219">
        <ele>16.86</ele>
        <time>2020-05-17T10:18:20Z</time>
      </trkpt>
      <trkpt lat="47.19243" lon="-1.80238">
        <ele>16.81</ele>
        <time>2020-05-17T10:18:22Z</time>
      </trkpt>
      <trkpt lat="47.19248" lon="-1.80257">
        <ele>17.43</ele>
        <time>2020-05-17T10:18:24Z</time>
      </trkpt>
      <trkpt lat="47.19254" lon="-1.80277">
        <ele>17.45</ele>
        <time>2020-05-17T10:18:26Z</time>
      </trkpt>
      <trkpt lat="47.19259" lon="-1.80295">
        <ele>17.7</ele>
        <time>2020-05-17T10:18:28Z</time>
      </trkpt>
      <trkpt lat="47.19265" lon="-1.80313">
        <ele>18.15</ele>
        <time>2020-05-17T10:18:30Z</time>
      </trkpt>
      <trkpt lat="47.1927" lon="-1.80332">
        <ele>18.57</ele>
        <time>2020-05-17T10:18:32Z</time>
      </trkpt>
      <trkpt lat="47.19276" lon="-1.80352">
        <ele>18.17</ele>
        <time>2020-05-17T10:18:34Z</time>
      </trkpt>
      <trkpt lat="47.19281" lon="-1.80371">
        <ele>16.6</ele>
        <time>2020-05-17T10:18:36Z</time>
      </trkpt>
      <trkpt lat="47.19286" lon="-1.80387">
        <ele>16.58</ele>
        <time>2020-05-17T10:18:38Z</time>
      </trkpt>
      <trkpt lat="47.19292" lon="-1.80407">
        <ele>17.15</ele>
        <time>2020-05-17T10:18:40Z</time>
      </trkpt>
      <trkpt lat="47.19299" lon="-1.80425">
        <ele>16.39</ele>
        <time>2020-05-17T10:18:42Z</time>
      </trkpt>
      <trkpt lat="47.19303" lon="-1.80438">
        <ele>15.92</ele>
        <time>2020-05-17T10:18:43Z</time>
      </trkpt>
      <trkpt lat="47.19309" lon="-1.80456">
        <ele>14.54</ele>
        <time>2020-05-17T10:18:45Z</time>
      </trkpt>
      <trkpt lat="47.19315" lon="-1.80475">
        <ele>13.51</ele>
        <time>2020-05-17T10:18:47Z</time>
      </trkpt>
      <trkpt lat="47.19321" lon="-1.80496">
        <ele>14.27</ele>
        <time>2020-05-17T10:18:49Z</time>
      </trkpt>
      <trkpt lat="47.19328" lon="-1.80516">
        <ele>14.12</ele>
        <time>2020-05-17T10:18:51Z</time>
      </trkpt>
      <trkpt lat="47.19335" lon="-1.80535">
        <ele>13.15</ele>
        <time>2020-05-17T10:18:53Z</time>
      </trkpt>
      <trkpt lat="47.19341" lon="-1.80556">
        <ele>12.25</ele>
        <time>2020-05-17T10:18:55Z</time>
      </trkpt>
      <trkpt lat="47.19346" lon="-1.80577">
        <ele>10.76</ele>
        <time>2020-05-17T10:18:57Z</time>
      </trkpt>
      <trkpt lat="47.19349" lon="-1.80595">
        <ele>10.2</ele>
        <time>2020-05-17T10:18:59Z</time>
      </trkpt>
      <trkpt lat="47.19351" lon="-1.80616">
        <ele>10.77</ele>
        <time>2020-05-17T10:19:01Z</time>
      </trkpt>
      <trkpt lat="47.19353" lon="-1.80636">
        <ele>10.53</ele>
        <time>2020-05-17T10:19:03Z</time>
      </trkpt>
      <trkpt lat="47.19354" lon="-1.80655">
        <ele>11.29</ele>
        <time>2020-05-17T10:19:05Z</time>
      </trkpt>
      <trkpt lat="47.19355" lon="-1.80675">
        <ele>12.43</ele>
        <time>2020-05-17T10:19:07Z</time>
      </trkpt>
      <trkpt lat="47.19353" lon="-1.80694">
        <ele>12.73</ele>
        <time>2020-05-17T10:19:09Z</time>
      </trkpt>
      <trkpt lat="47.19351" lon="-1.80711">
        <ele>12.86</ele>
        <time>2020-05-17T10:19:11Z</time>
      </trkpt>
      <trkpt lat="47.19348" lon="-1.80725">
        <ele>12.29</ele>
        <time>2020-05-17T10:19:13Z</time>
      </trkpt>
      <trkpt lat="47.19347" lon="-1.80745">
        <ele>12.04</ele>
        <time>2020-05-17T10:19:15Z</time>
      </trkpt>
      <trkpt lat="47.1935" lon="-1.80766">
        <ele>12.49</ele>
        <time>2020-05-17T10:19:17Z</time>
      </trkpt>
      <trkpt lat="47.19356" lon="-1.80789">
        <ele>12.44</ele>
        <time>2020-05-17T10:19:19Z</time>
      </trkpt>
      <trkpt lat="47.19361" lon="-1.80807">
        <ele>11.68</ele>
        <time>2020-05-17T10:19:21Z</time>
      </trkpt>
      <trkpt lat="47.19365" lon="-1.80828">
        <ele>10.89</ele>
        <time>2020-05-17T10:19:23Z</time>
      </trkpt>
      <trkpt lat="47.19368" lon="-1.80847">
        <ele>10.46</ele>
        <time>2020-05-17T10:19:25Z</time>
      </trkpt>
      <trkpt lat="47.19371" lon="-1.80866">
        <ele>10.71</ele>
        <time>2020-05-17T10:19:27Z</time>
      </trkpt>
      <trkpt lat="47.19373" lon="-1.80887">
        <ele>10.97</ele>
        <time>2020-05-17T10:19:29Z</time>
      </trkpt>
      <trkpt lat="47.19374" lon="-1.80909">
        <ele>11.03</ele>
        <time>2020-05-17T10:19:31Z</time>
      </trkpt>
      <trkpt lat="47.19376" lon="-1.80929">
        <ele>11.79</ele>
        <time>2020-05-17T10:19:33Z</time>
      </trkpt>
      <trkpt lat="47.19377" lon="-1.80951">
        <ele>12.38</ele>
        <time>2020-05-17T10:19:35Z</time>
      </trkpt>
      <trkpt lat="47.1938" lon="-1.80972">
        <ele>12.34</ele>
        <time>2020-05-17T10:19:37Z</time>
      </trkpt>
      <trkpt lat="47.19384" lon="-1.80994">
        <ele>12.73</ele>
        <time>2020-05-17T10:19:39Z</time>
      </trkpt>
      <trkpt lat="47.19387" lon="-1.81016">
        <ele>13.26</ele>
        <time>2020-05-17T10:19:41Z</time>
      </trkpt>
      <trkpt lat="47.19389" lon="-1.81037">
        <ele>13.27</ele>
        <time>2020-05-17T10:19:43Z</time>
      </trkpt>
      <trkpt lat="47.19392" lon="-1.81055">
        <ele>13.36</ele>
        <time>2020-05-17T10:19:45Z</time>
      </trkpt>
      <trkpt lat="47.19395" lon="-1.81075">
        <ele>13.37</ele>
        <time>2020-05-17T10:19:47Z</time>
      </trkpt>
      <trkpt lat="47.19397" lon="-1.81094">
        <ele>12.75</ele>
        <time>2020-05-17T10:19:49Z</time>
      </trkpt>
      <trkpt lat="47.194" lon="-1.8111">
        <ele>12.42</ele>
        <time>2020-05-17T10:19:51Z</time>
      </trkpt>
      <trkpt lat="47.19409" lon="-1.81124">
        <ele>10.62</ele>
        <time>2020-05-17T10:19:53Z</time>
      </trkpt>
      <trkpt lat="47.1942" lon="-1.81128">
        <ele>10.24</ele>
        <time>2020-05-17T10:19:55Z</time>
      </trkpt>
      <trkpt lat="47.19434" lon="-1.81129">
        <ele>10.54</ele>
        <time>2020-05-17T10:19:57Z</time>
      </trkpt>
      <trkpt lat="47.19448" lon="-1.81129">
        <ele>10.39</ele>
        <time>2020-05-17T10:19:59Z</time>
      </trkpt>
      <trkpt lat="47.19462" lon="-1.81128">
        <ele>9.81</ele>
        <time>2020-05-17T10:20:01Z</time>
      </trkpt>
      <trkpt lat="47.19476" lon="-1.81127">
        <ele>8.27</ele>
        <time>2020-05-17T10:20:03Z</time>
      </trkpt>
      <trkpt lat="47.19489" lon="-1.81125">
        <ele>6.61</ele>
        <time>2020-05-17T10:20:05Z</time>
      </trkpt>
      <trkpt lat="47.19502" lon="-1.81124">
        <ele>5.57</ele>
        <time>2020-05-17T10:20:07Z</time>
      </trkpt>
      <trkpt lat="47.19515" lon="-1.81123">
        <ele>5.3</ele>
        <time>2020-05-17T10:20:09Z</time>
      </trkpt>
      <trkpt lat="47.19529" lon="-1.81122">
        <ele>4.35</ele>
        <time>2020-05-17T10:20:11Z</time>
      </trkpt>
      <trkpt lat="47.19544" lon="-1.81121">
        <ele>4.21</ele>
        <time>2020-05-17T10:20:13Z</time>
      </trkpt>
      <trkpt lat="47.1956" lon="-1.81121">
        <ele>4.37</ele>
        <time>2020-05-17T10:20:15Z</time>
      </trkpt>
      <trkpt lat="47.19575" lon="-1.81121">
        <ele>4.71</ele>
        <time>2020-05-17T10:20:17Z</time>
      </trkpt>
      <trkpt lat="47.19589" lon="-1.81121">
        <ele>5.22</ele>
        <time>2020-05-17T10:20:19Z</time>
      </trkpt>
      <trkpt lat="47.19602" lon="-1.81122">
        <ele>4.97</ele>
        <time>2020-05-17T10:20:21Z</time>
      </trkpt>
      <trkpt lat="47.19617" lon="-1.81121">
        <ele>3.86</ele>
        <time>2020-05-17T10:20:23Z</time>
      </trkpt>
      <trkpt lat="47.19632" lon="-1.8112">
        <ele>3.36</ele>
        <time>2020-05-17T10:20:25Z</time>
      </trkpt>
      <trkpt lat="47.19647" lon="-1.8112">
        <ele>2.41</ele>
        <time>2020-05-17T10:20:27Z</time>
      </trkpt>
      <trkpt lat="47.19661" lon="-1.81121">
        <ele>2.06</ele>
        <time>2020-05-17T10:20:29Z</time>
      </trkpt>
      <trkpt lat="47.19674" lon="-1.8112">
        <ele>1.9</ele>
        <time>2020-05-17T10:20:31Z</time>
      </trkpt>
      <trkpt lat="47.19686" lon="-1.8112">
        <ele>1.33</ele>
        <time>2020-05-17T10:20:33Z</time>
      </trkpt>
      <trkpt lat="47.19698" lon="-1.81122">
        <ele>0.96</ele>
        <time>2020-05-17T10:20:36Z</time>
      </trkpt>
      <trkpt lat="47.19703" lon="-1.81134">
        <ele>1.19</ele>
        <time>2020-05-17T10:20:38Z</time>
      </trkpt>
      <trkpt lat="47.19708" lon="-1.81155">
        <ele>1.47</ele>
        <time>2020-05-17T10:20:40Z</time>
      </trkpt>
      <trkpt lat="47.19714" lon="-1.81179">
        <ele>1.39</ele>
        <time>2020-05-17T10:20:42Z</time>
      </trkpt>
      <trkpt lat="47.19718" lon="-1.81198">
        <ele>1.88</ele>
        <time>2020-05-17T10:20:44Z</time>
      </trkpt>
      <trkpt lat="47.19723" lon="-1.81216">
        <ele>2.9</ele>
        <time>2020-05-17T10:20:46Z</time>
      </trkpt>
      <trkpt lat="47.19732" lon="-1.81231">
        <ele>3.07</ele>
        <time>2020-05-17T10:20:48Z</time>
      </trkpt>
      <trkpt lat="47.19741" lon="-1.81247">
        <ele>3.84</ele>
        <time>2020-05-17T10:20:50Z</time>
      </trkpt>
      <trkpt lat="47.1975" lon="-1.81261">
        <ele>5.67</ele>
        <time>2020-05-17T10:20:52Z</time>
      </trkpt>
      <trkpt lat="47.19759" lon="-1.81274">
        <ele>6.11</ele>
        <time>2020-05-17T10:20:54Z</time>
      </trkpt>
      <trkpt lat="47.19767" lon="-1.8129">
        <ele>6.3</ele>
        <time>2020-05-17T10:20:56Z</time>
      </trkpt>
      <trkpt lat="47.19774" lon="-1.81305">
        <ele>7.08</ele>
        <time>2020-05-17T10:20:58Z</time>
      </trkpt>
      <trkpt lat="47.1978" lon="-1.8132">
        <ele>6.96</ele>
        <time>2020-05-17T10:21:00Z</time>
      </trkpt>
      <trkpt lat="47.19784" lon="-1.81335">
        <ele>6.41</ele>
        <time>2020-05-17T10:21:02Z</time>
      </trkpt>
      <trkpt lat="47.19787" lon="-1.81349">
        <ele>6.72</ele>
        <time>2020-05-17T10:21:04Z</time>
      </trkpt>
      <trkpt lat="47.19791" lon="-1.81364">
        <ele>6.36</ele>
        <time>2020-05-17T10:21:06Z</time>
      </trkpt>
      <trkpt lat="47.19794" lon="-1.81376">
        <ele>6.16</ele>
        <time>2020-05-17T10:21:08Z</time>
      </trkpt>
      <trkpt lat="47.19797" lon="-1.81389">
        <ele>5.97</ele>
        <time>2020-05-17T10:21:10Z</time>
      </trkpt>
      <trkpt lat="47.19801" lon="-1.81403">
        <ele>5.79</ele>
        <time>2020-05-17T10:21:12Z</time>
      </trkpt>
      <trkpt lat="47.19806" lon="-1.81415">
        <ele>5.87</ele>
        <time>2020-05-17T10:21:14Z</time>
      </trkpt>
      <trkpt lat="47.19811" lon="-1.81433">
        <ele>7.49</ele>
        <time>2020-05-17T10:21:16Z</time>
      </trkpt>
      <trkpt lat="47.19815" lon="-1.81447">
        <ele>8.18</ele>
        <time>2020-05-17T10:21:18Z</time>
      </trkpt>
      <trkpt lat="47.1982" lon="-1.81461">
        <ele>8.95</ele>
        <time>2020-05-17T10:21:20Z</time>
      </trkpt>
      <trkpt lat="47.19825" lon="-1.81474">
        <ele>9.96</ele>
        <time>2020-05-17T10:21:22Z</time>
      </trkpt>
      <trkpt lat="47.1983" lon="-1.81489">
        <ele>10.6</ele>
        <time>2020-05-17T10:21:24Z</time>
      </trkpt>
      <trkpt lat="47.19835" lon="-1.81502">
        <ele>10.06</ele>
        <time>2020-05-17T10:21:26Z</time>
      </trkpt>
      <trkpt lat="47.19839" lon="-1.81515">
        <ele>9.73</ele>
        <time>2020-05-17T10:21:28Z</time>
      </trkpt>
      <trkpt lat="47.19845" lon="-1.81531">
        <ele>10.73</ele>
        <time>2020-05-17T10:21:30Z</time>
      </trkpt>
      <trkpt lat="47.19851" lon="-1.81548">
        <ele>11.38</ele>
        <time>2020-05-17T10:21:32Z</time>
      </trkpt>
      <trkpt lat="47.19856" lon="-1.81561">
        <ele>12.16</ele>
        <time>2020-05-17T10:21:34Z</time>
      </trkpt>
      <trkpt lat="47.1986" lon="-1.81575">
        <ele>11.95</ele>
        <time>2020-05-17T10:21:36Z</time>
      </trkpt>
      <trkpt lat="47.19865" lon="-1.81591">
        <ele>12.71</ele>
        <time>2020-05-17T10:21:38Z</time>
      </trkpt>
      <trkpt lat="47.1987" lon="-1.81606">
        <ele>12.61</ele>
        <time>2020-05-17T10:21:40Z</time>
      </trkpt>
      <trkpt lat="47.19874" lon="-1.81622">
        <ele>12.35</ele>
        <time>2020-05-17T10:21:42Z</time>
      </trkpt>
      <trkpt lat="47.19877" lon="-1.81639">
        <ele>12.18</ele>
        <time>2020-05-17T10:21:44Z</time>
      </trkpt>
      <trkpt lat="47.1988" lon="-1.81653">
        <ele>12.73</ele>
        <time>2020-05-17T10:21:46Z</time>
      </trkpt>
      <trkpt lat="47.19882" lon="-1.8167">
        <ele>14.28</ele>
        <time>2020-05-17T10:21:48Z</time>
      </trkpt>
      <trkpt lat="47.19884" lon="-1.8169">
        <ele>14.94</ele>
        <time>2020-05-17T10:21:50Z</time>
      </trkpt>
      <trkpt lat="47.19886" lon="-1.81706">
        <ele>14.85</ele>
        <time>2020-05-17T10:21:52Z</time>
      </trkpt>
      <trkpt lat="47.19889" lon="-1.81723">
        <ele>14.55</ele>
        <time>2020-05-17T10:21:54Z</time>
      </trkpt>
      <trkpt lat="47.19892" lon="-1.8174">
        <ele>14.19</ele>
        <time>2020-05-17T10:21:56Z</time>
      </trkpt>
      <trkpt lat="47.19895" lon="-1.81759">
        <ele>13.7</ele>
        <time>2020-05-17T10:21:58Z</time>
      </trkpt>
      <trkpt lat="47.19898" lon="-1.81772">
        <ele>12.52</ele>
        <time>2020-05-17T10:22:00Z</time>
      </trkpt>
      <trkpt lat="47.199" lon="-1.81788">
        <ele>12.82</ele>
        <time>2020-05-17T10:22:02Z</time>
      </trkpt>
      <trkpt lat="47.19904" lon="-1.81804">
        <ele>13.04</ele>
        <time>2020-05-17T10:22:04Z</time>
      </trkpt>
      <trkpt lat="47.19907" lon="-1.81821">
        <ele>12.33</ele>
        <time>2020-05-17T10:22:06Z</time>
      </trkpt>
      <trkpt lat="47.1991" lon="-1.81839">
        <ele>12.18</ele>
        <time>2020-05-17T10:22:08Z</time>
      </trkpt>
      <trkpt lat="47.19914" lon="-1.81856">
        <ele>11.9</ele>
        <time>2020-05-17T10:22:10Z</time>
      </trkpt>
      <trkpt lat="47.19917" lon="-1.81872">
        <ele>11.44</ele>
        <time>2020-05-17T10:22:12Z</time>
      </trkpt>
      <trkpt lat="47.19919" lon="-1.81888">
        <ele>11.63</ele>
        <time>2020-05-17T10:22:14Z</time>
      </trkpt>
      <trkpt lat="47.19922" lon="-1.81904">
        <ele>11.82</ele>
        <time>2020-05-17T10:22:16Z</time>
      </trkpt>
      <trkpt lat="47.19924" lon="-1.81918">
        <ele>13.06</ele>
        <time>2020-05-17T10:22:18Z</time>
      </trkpt>
      <trkpt lat="47.19927" lon="-1.81936">
        <ele>13.35</ele>
        <time>2020-05-17T10:22:20Z</time>
      </trkpt>
      <trkpt lat="47.19931" lon="-1.81953">
        <ele>13.57</ele>
        <time>2020-05-17T10:22:22Z</time>
      </trkpt>
      <trkpt lat="47.19935" lon="-1.8197">
        <ele>14.14</ele>
        <time>2020-05-17T10:22:24Z</time>
      </trkpt>
      <trkpt lat="47.19937" lon="-1.81985">
        <ele>15.04</ele>
        <time>2020-05-17T10:22:26Z</time>
      </trkpt>
      <trkpt lat="47.1994" lon="-1.82">
        <ele>16.27</ele>
        <time>2020-05-17T10:22:28Z</time>
      </trkpt>
      <trkpt lat="47.19943" lon="-1.82016">
        <ele>17.08</ele>
        <time>2020-05-17T10:22:30Z</time>
      </trkpt>
      <trkpt lat="47.19946" lon="-1.82033">
        <ele>17.5</ele>
        <time>2020-05-17T10:22:32Z</time>
      </trkpt>
      <trkpt lat="47.19948" lon="-1.8205">
        <ele>17.11</ele>
        <time>2020-05-17T10:22:34Z</time>
      </trkpt>
      <trkpt lat="47.19952" lon="-1.8207">
        <ele>16.71</ele>
        <time>2020-05-17T10:22:36Z</time>
      </trkpt>
      <trkpt lat="47.19954" lon="-1.82085">
        <ele>17.01</ele>
        <time>2020-05-17T10:22:38Z</time>
      </trkpt>
      <trkpt lat="47.19958" lon="-1.82103">
        <ele>16.67</ele>
        <time>2020-05-17T10:22:40Z</time>
      </trkpt>
      <trkpt lat="47.19959" lon="-1.82118">
        <ele>16.76</ele>
        <time>2020-05-17T10:22:42Z</time>
      </trkpt>
      <trkpt lat="47.19958" lon="-1.82134">
        <ele>16.86</ele>
        <time>2020-05-17T10:22:44Z</time>
      </trkpt>
      <trkpt lat="47.19954" lon="-1.82153">
        <ele>16.74</ele>
        <time>2020-05-17T10:22:46Z</time>
      </trkpt>
      <trkpt lat="47.19948" lon="-1.82172">
        <ele>16.76</ele>
        <time>2020-05-17T10:22:48Z</time>
      </trkpt>
      <trkpt lat="47.19941" lon="-1.82187">
        <ele>16.74</ele>
        <time>2020-05-17T10:22:50Z</time>
      </trkpt>
      <trkpt lat="47.19934" lon="-1.82203">
        <ele>16.41</ele>
        <time>2020-05-17T10:22:52Z</time>
      </trkpt>
      <trkpt lat="47.19928" lon="-1.82217">
        <ele>16.05</ele>
        <time>2020-05-17T10:22:54Z</time>
      </trkpt>
      <trkpt lat="47.1992" lon="-1.82233">
        <ele>15.77</ele>
        <time>2020-05-17T10:22:56Z</time>
      </trkpt>
      <trkpt lat="47.19913" lon="-1.82247">
        <ele>15.73</ele>
        <time>2020-05-17T10:22:58Z</time>
      </trkpt>
      <trkpt lat="47.19906" lon="-1.82262">
        <ele>16.14</ele>
        <time>2020-05-17T10:23:00Z</time>
      </trkpt>
      <trkpt lat="47.19898" lon="-1.82278">
        <ele>15.65</ele>
        <time>2020-05-17T10:23:02Z</time>
      </trkpt>
      <trkpt lat="47.19892" lon="-1.82293">
        <ele>15.02</ele>
        <time>2020-05-17T10:23:04Z</time>
      </trkpt>
      <trkpt lat="47.19885" lon="-1.8231">
        <ele>15.08</ele>
        <time>2020-05-17T10:23:06Z</time>
      </trkpt>
      <trkpt lat="47.19879" lon="-1.82325">
        <ele>15</ele>
        <time>2020-05-17T10:23:08Z</time>
      </trkpt>
      <trkpt lat="47.19873" lon="-1.82341">
        <ele>14.83</ele>
        <time>2020-05-17T10:23:10Z</time>
      </trkpt>
      <trkpt lat="47.19867" lon="-1.82357">
        <ele>15.51</ele>
        <time>2020-05-17T10:23:12Z</time>
      </trkpt>
      <trkpt lat="47.19862" lon="-1.8237">
        <ele>17.44</ele>
        <time>2020-05-17T10:23:14Z</time>
      </trkpt>
      <trkpt lat="47.19855" lon="-1.82389">
        <ele>18.81</ele>
        <time>2020-05-17T10:23:16Z</time>
      </trkpt>
      <trkpt lat="47.19849" lon="-1.82408">
        <ele>19.77</ele>
        <time>2020-05-17T10:23:18Z</time>
      </trkpt>
      <trkpt lat="47.19843" lon="-1.82425">
        <ele>19.27</ele>
        <time>2020-05-17T10:23:20Z</time>
      </trkpt>
      <trkpt lat="47.19837" lon="-1.82442">
        <ele>18.97</ele>
        <time>2020-05-17T10:23:22Z</time>
      </trkpt>
      <trkpt lat="47.19831" lon="-1.82455">
        <ele>18.94</ele>
        <time>2020-05-17T10:23:24Z</time>
      </trkpt>
      <trkpt lat="47.19824" lon="-1.82469">
        <ele>18.19</ele>
        <time>2020-05-17T10:23:26Z</time>
      </trkpt>
      <trkpt lat="47.19816" lon="-1.82481">
        <ele>17.51</ele>
        <time>2020-05-17T10:23:28Z</time>
      </trkpt>
      <trkpt lat="47.19808" lon="-1.82497">
        <ele>17.74</ele>
        <time>2020-05-17T10:23:30Z</time>
      </trkpt>
      <trkpt lat="47.198" lon="-1.8251">
        <ele>18.52</ele>
        <time>2020-05-17T10:23:32Z</time>
      </trkpt>
      <trkpt lat="47.19791" lon="-1.82524">
        <ele>19.05</ele>
        <time>2020-05-17T10:23:34Z</time>
      </trkpt>
      <trkpt lat="47.19782" lon="-1.82537">
        <ele>18.73</ele>
        <time>2020-05-17T10:23:36Z</time>
      </trkpt>
      <trkpt lat="47.19771" lon="-1.82553">
        <ele>17.95</ele>
        <time>2020-05-17T10:23:38Z</time>
      </trkpt>
      <trkpt lat="47.19762" lon="-1.82568">
        <ele>18.02</ele>
        <time>2020-05-17T10:23:40Z</time>
      </trkpt>
      <trkpt lat="47.19752" lon="-1.82581">
        <ele>18.18</ele>
        <time>2020-05-17T10:23:42Z</time>
      </trkpt>
      <trkpt lat="47.19744" lon="-1.82594">
        <ele>18.59</ele>
        <time>2020-05-17T10:23:44Z</time>
      </trkpt>
      <trkpt lat="47.19735" lon="-1.8261">
        <ele>19.1</ele>
        <time>2020-05-17T10:23:46Z</time>
      </trkpt>
      <trkpt lat="47.19727" lon="-1.82626">
        <ele>19.4</ele>
        <time>2020-05-17T10:23:48Z</time>
      </trkpt>
      <trkpt lat="47.19719" lon="-1.82647">
        <ele>20.11</ele>
        <time>2020-05-17T10:23:50Z</time>
      </trkpt>
      <trkpt lat="47.19713" lon="-1.82666">
        <ele>20.52</ele>
        <time>2020-05-17T10:23:52Z</time>
      </trkpt>
      <trkpt lat="47.19709" lon="-1.82684">
        <ele>20.55</ele>
        <time>2020-05-17T10:23:54Z</time>
      </trkpt>
      <trkpt lat="47.19705" lon="-1.82702">
        <ele>20.33</ele>
        <time>2020-05-17T10:23:56Z</time>
      </trkpt>
      <trkpt lat="47.19702" lon="-1.82721">
        <ele>20.68</ele>
        <time>2020-05-17T10:23:58Z</time>
      </trkpt>
      <trkpt lat="47.19698" lon="-1.8274">
        <ele>20.11</ele>
        <time>2020-05-17T10:24:00Z</time>
      </trkpt>
      <trkpt lat="47.19693" lon="-1.82762">
        <ele>21.88</ele>
        <time>2020-05-17T10:24:02Z</time>
      </trkpt>
      <trkpt lat="47.19689" lon="-1.82781">
        <ele>23.94</ele>
        <time>2020-05-17T10:24:04Z</time>
      </trkpt>
      <trkpt lat="47.19686" lon="-1.82799">
        <ele>24.83</ele>
        <time>2020-05-17T10:24:06Z</time>
      </trkpt>
      <trkpt lat="47.19683" lon="-1.8282">
        <ele>24.15</ele>
        <time>2020-05-17T10:24:08Z</time>
      </trkpt>
      <trkpt lat="47.1968" lon="-1.82837">
        <ele>23.48</ele>
        <time>2020-05-17T10:24:10Z</time>
      </trkpt>
      <trkpt lat="47.19677" lon="-1.82855">
        <ele>22.49</ele>
        <time>2020-05-17T10:24:12Z</time>
      </trkpt>
      <trkpt lat="47.19674" lon="-1.82873">
        <ele>22.36</ele>
        <time>2020-05-17T10:24:14Z</time>
      </trkpt>
      <trkpt lat="47.19671" lon="-1.82891">
        <ele>21.79</ele>
        <time>2020-05-17T10:24:16Z</time>
      </trkpt>
      <trkpt lat="47.19667" lon="-1.82909">
        <ele>21.43</ele>
        <time>2020-05-17T10:24:18Z</time>
      </trkpt>
      <trkpt lat="47.19663" lon="-1.82928">
        <ele>20.68</ele>
        <time>2020-05-17T10:24:20Z</time>
      </trkpt>
      <trkpt lat="47.19659" lon="-1.82946">
        <ele>19.79</ele>
        <time>2020-05-17T10:24:22Z</time>
      </trkpt>
      <trkpt lat="47.19656" lon="-1.82963">
        <ele>19.2</ele>
        <time>2020-05-17T10:24:24Z</time>
      </trkpt>
      <trkpt lat="47.19653" lon="-1.82983">
        <ele>18.93</ele>
        <time>2020-05-17T10:24:26Z</time>
      </trkpt>
      <trkpt lat="47.19649" lon="-1.83003">
        <ele>19.33</ele>
        <time>2020-05-17T10:24:28Z</time>
      </trkpt>
      <trkpt lat="47.19646" lon="-1.83023">
        <ele>19.7</ele>
        <time>2020-05-17T10:24:30Z</time>
      </trkpt>
      <trkpt lat="47.19642" lon="-1.83041">
        <ele>19.77</ele>
        <time>2020-05-17T10:24:32Z</time>
      </trkpt>
      <trkpt lat="47.19639" lon="-1.8306">
        <ele>20.05</ele>
        <time>2020-05-17T10:24:35Z</time>
      </trkpt>
      <trkpt lat="47.19634" lon="-1.83081">
        <ele>20.94</ele>
        <time>2020-05-17T10:24:36Z</time>
      </trkpt>
      <trkpt lat="47.19631" lon="-1.83099">
        <ele>21.95</ele>
        <time>2020-05-17T10:24:38Z</time>
      </trkpt>
      <trkpt lat="47.19628" lon="-1.83117">
        <ele>22.17</ele>
        <time>2020-05-17T10:24:40Z</time>
      </trkpt>
      <trkpt lat="47.19625" lon="-1.83135">
        <ele>22.17</ele>
        <time>2020-05-17T10:24:43Z</time>
      </trkpt>
      <trkpt lat="47.19621" lon="-1.83156">
        <ele>21.88</ele>
        <time>2020-05-17T10:24:45Z</time>
      </trkpt>
      <trkpt lat="47.19619" lon="-1.83176">
        <ele>21.38</ele>
        <time>2020-05-17T10:24:47Z</time>
      </trkpt>
      <trkpt lat="47.19619" lon="-1.83194">
        <ele>20.96</ele>
        <time>2020-05-17T10:24:49Z</time>
      </trkpt>
      <trkpt lat="47.19619" lon="-1.83214">
        <ele>20.55</ele>
        <time>2020-05-17T10:24:51Z</time>
      </trkpt>
      <trkpt lat="47.19619" lon="-1.83233">
        <ele>20.92</ele>
        <time>2020-05-17T10:24:53Z</time>
      </trkpt>
      <trkpt lat="47.19621" lon="-1.83253">
        <ele>21</ele>
        <time>2020-05-17T10:24:55Z</time>
      </trkpt>
      <trkpt lat="47.19621" lon="-1.8327">
        <ele>21.04</ele>
        <time>2020-05-17T10:24:57Z</time>
      </trkpt>
      <trkpt lat="47.19622" lon="-1.83287">
        <ele>20.97</ele>
        <time>2020-05-17T10:24:59Z</time>
      </trkpt>
      <trkpt lat="47.19623" lon="-1.83307">
        <ele>20.38</ele>
        <time>2020-05-17T10:25:01Z</time>
      </trkpt>
      <trkpt lat="47.19625" lon="-1.83329">
        <ele>19.97</ele>
        <time>2020-05-17T10:25:03Z</time>
      </trkpt>
      <trkpt lat="47.19626" lon="-1.8335">
        <ele>19.91</ele>
        <time>2020-05-17T10:25:05Z</time>
      </trkpt>
      <trkpt lat="47.19628" lon="-1.83368">
        <ele>19.35</ele>
        <time>2020-05-17T10:25:07Z</time>
      </trkpt>
      <trkpt lat="47.19628" lon="-1.83389">
        <ele>18.77</ele>
        <time>2020-05-17T10:25:09Z</time>
      </trkpt>
      <trkpt lat="47.19629" lon="-1.83407">
        <ele>18.12</ele>
        <time>2020-05-17T10:25:11Z</time>
      </trkpt>
      <trkpt lat="47.19629" lon="-1.83425">
        <ele>18.53</ele>
        <time>2020-05-17T10:25:13Z</time>
      </trkpt>
      <trkpt lat="47.1963" lon="-1.83445">
        <ele>19.13</ele>
        <time>2020-05-17T10:25:15Z</time>
      </trkpt>
      <trkpt lat="47.19631" lon="-1.83463">
        <ele>19.53</ele>
        <time>2020-05-17T10:25:17Z</time>
      </trkpt>
      <trkpt lat="47.19632" lon="-1.83483">
        <ele>20.27</ele>
        <time>2020-05-17T10:25:19Z</time>
      </trkpt>
      <trkpt lat="47.19633" lon="-1.83503">
        <ele>20.57</ele>
        <time>2020-05-17T10:25:21Z</time>
      </trkpt>
      <trkpt lat="47.19633" lon="-1.83523">
        <ele>20.27</ele>
        <time>2020-05-17T10:25:23Z</time>
      </trkpt>
      <trkpt lat="47.19634" lon="-1.8354">
        <ele>19.59</ele>
        <time>2020-05-17T10:25:25Z</time>
      </trkpt>
      <trkpt lat="47.19633" lon="-1.83558">
        <ele>19.19</ele>
        <time>2020-05-17T10:25:27Z</time>
      </trkpt>
      <trkpt lat="47.1963" lon="-1.83575">
        <ele>18.42</ele>
        <time>2020-05-17T10:25:29Z</time>
      </trkpt>
      <trkpt lat="47.19626" lon="-1.83596">
        <ele>17.75</ele>
        <time>2020-05-17T10:25:31Z</time>
      </trkpt>
      <trkpt lat="47.19622" lon="-1.83614">
        <ele>17.98</ele>
        <time>2020-05-17T10:25:33Z</time>
      </trkpt>
      <trkpt lat="47.19617" lon="-1.83634">
        <ele>17.69</ele>
        <time>2020-05-17T10:25:35Z</time>
      </trkpt>
      <trkpt lat="47.19613" lon="-1.83652">
        <ele>16.83</ele>
        <time>2020-05-17T10:25:37Z</time>
      </trkpt>
      <trkpt lat="47.19609" lon="-1.8367">
        <ele>16.27</ele>
        <time>2020-05-17T10:25:39Z</time>
      </trkpt>
      <trkpt lat="47.19608" lon="-1.83689">
        <ele>15.35</ele>
        <time>2020-05-17T10:25:41Z</time>
      </trkpt>
      <trkpt lat="47.19608" lon="-1.83709">
        <ele>14.76</ele>
        <time>2020-05-17T10:25:43Z</time>
      </trkpt>
      <trkpt lat="47.19609" lon="-1.83728">
        <ele>14.37</ele>
        <time>2020-05-17T10:25:45Z</time>
      </trkpt>
      <trkpt lat="47.19612" lon="-1.83747">
        <ele>13.91</ele>
        <time>2020-05-17T10:25:47Z</time>
      </trkpt>
      <trkpt lat="47.19615" lon="-1.83764">
        <ele>14.3</ele>
        <time>2020-05-17T10:25:49Z</time>
      </trkpt>
      <trkpt lat="47.19619" lon="-1.83784">
        <ele>15.1</ele>
        <time>2020-05-17T10:25:51Z</time>
      </trkpt>
      <trkpt lat="47.19623" lon="-1.83802">
        <ele>15.84</ele>
        <time>2020-05-17T10:25:53Z</time>
      </trkpt>
      <trkpt lat="47.19627" lon="-1.8382">
        <ele>16.61</ele>
        <time>2020-05-17T10:25:55Z</time>
      </trkpt>
      <trkpt lat="47.19631" lon="-1.83838">
        <ele>16.83</ele>
        <time>2020-05-17T10:25:57Z</time>
      </trkpt>
      <trkpt lat="47.19635" lon="-1.83859">
        <ele>17.02</ele>
        <time>2020-05-17T10:25:59Z</time>
      </trkpt>
      <trkpt lat="47.19638" lon="-1.83877">
        <ele>17.52</ele>
        <time>2020-05-17T10:26:01Z</time>
      </trkpt>
      <trkpt lat="47.19643" lon="-1.839">
        <ele>17.64</ele>
        <time>2020-05-17T10:26:03Z</time>
      </trkpt>
      <trkpt lat="47.19646" lon="-1.83918">
        <ele>16.56</ele>
        <time>2020-05-17T10:26:05Z</time>
      </trkpt>
      <trkpt lat="47.19649" lon="-1.83934">
        <ele>15.29</ele>
        <time>2020-05-17T10:26:07Z</time>
      </trkpt>
      <trkpt lat="47.19653" lon="-1.83955">
        <ele>14.34</ele>
        <time>2020-05-17T10:26:09Z</time>
      </trkpt>
      <trkpt lat="47.19656" lon="-1.83973">
        <ele>13.78</ele>
        <time>2020-05-17T10:26:11Z</time>
      </trkpt>
      <trkpt lat="47.19659" lon="-1.83992">
        <ele>12.93</ele>
        <time>2020-05-17T10:26:13Z</time>
      </trkpt>
      <trkpt lat="47.19662" lon="-1.84013">
        <ele>12.87</ele>
        <time>2020-05-17T10:26:15Z</time>
      </trkpt>
      <trkpt lat="47.19664" lon="-1.84029">
        <ele>14</ele>
        <time>2020-05-17T10:26:17Z</time>
      </trkpt>
      <trkpt lat="47.19665" lon="-1.8405">
        <ele>16.22</ele>
        <time>2020-05-17T10:26:19Z</time>
      </trkpt>
      <trkpt lat="47.19664" lon="-1.84069">
        <ele>18.09</ele>
        <time>2020-05-17T10:26:21Z</time>
      </trkpt>
      <trkpt lat="47.1966" lon="-1.84086">
        <ele>19.38</ele>
        <time>2020-05-17T10:26:23Z</time>
      </trkpt>
      <trkpt lat="47.19655" lon="-1.84103">
        <ele>20.07</ele>
        <time>2020-05-17T10:26:25Z</time>
      </trkpt>
      <trkpt lat="47.19649" lon="-1.84115">
        <ele>19.86</ele>
        <time>2020-05-17T10:26:27Z</time>
      </trkpt>
      <trkpt lat="47.19641" lon="-1.84132">
        <ele>19.31</ele>
        <time>2020-05-17T10:26:29Z</time>
      </trkpt>
      <trkpt lat="47.19632" lon="-1.84148">
        <ele>17.96</ele>
        <time>2020-05-17T10:26:31Z</time>
      </trkpt>
      <trkpt lat="47.19622" lon="-1.84163">
        <ele>16.22</ele>
        <time>2020-05-17T10:26:33Z</time>
      </trkpt>
      <trkpt lat="47.19613" lon="-1.84179">
        <ele>15.44</ele>
        <time>2020-05-17T10:26:35Z</time>
      </trkpt>
      <trkpt lat="47.19604" lon="-1.84193">
        <ele>14.69</ele>
        <time>2020-05-17T10:26:37Z</time>
      </trkpt>
      <trkpt lat="47.19596" lon="-1.84208">
        <ele>14.64</ele>
        <time>2020-05-17T10:26:39Z</time>
      </trkpt>
      <trkpt lat="47.19586" lon="-1.84224">
        <ele>15.98</ele>
        <time>2020-05-17T10:26:41Z</time>
      </trkpt>
      <trkpt lat="47.19577" lon="-1.8424">
        <ele>16.88</ele>
        <time>2020-05-17T10:26:43Z</time>
      </trkpt>
      <trkpt lat="47.19567" lon="-1.84256">
        <ele>16.41</ele>
        <time>2020-05-17T10:26:45Z</time>
      </trkpt>
      <trkpt lat="47.19559" lon="-1.84271">
        <ele>15.62</ele>
        <time>2020-05-17T10:26:47Z</time>
      </trkpt>
      <trkpt lat="47.1955" lon="-1.84286">
        <ele>15.61</ele>
        <time>2020-05-17T10:26:49Z</time>
      </trkpt>
      <trkpt lat="47.19541" lon="-1.84302">
        <ele>15.99</ele>
        <time>2020-05-17T10:26:51Z</time>
      </trkpt>
      <trkpt lat="47.19532" lon="-1.84316">
        <ele>15.42</ele>
        <time>2020-05-17T10:26:53Z</time>
      </trkpt>
      <trkpt lat="47.19523" lon="-1.8433">
        <ele>14.1</ele>
        <time>2020-05-17T10:26:55Z</time>
      </trkpt>
      <trkpt lat="47.19515" lon="-1.84346">
        <ele>13.58</ele>
        <time>2020-05-17T10:26:57Z</time>
      </trkpt>
      <trkpt lat="47.19506" lon="-1.84362">
        <ele>13.42</ele>
        <time>2020-05-17T10:26:59Z</time>
      </trkpt>
      <trkpt lat="47.19498" lon="-1.84377">
        <ele>12.58</ele>
        <time>2020-05-17T10:27:01Z</time>
      </trkpt>
      <trkpt lat="47.19488" lon="-1.84393">
        <ele>12.35</ele>
        <time>2020-05-17T10:27:03Z</time>
      </trkpt>
      <trkpt lat="47.1948" lon="-1.84407">
        <ele>12.85</ele>
        <time>2020-05-17T10:27:05Z</time>
      </trkpt>
      <trkpt lat="47.19473" lon="-1.84421">
        <ele>14.1</ele>
        <time>2020-05-17T10:27:07Z</time>
      </trkpt>
      <trkpt lat="47.19463" lon="-1.84437">
        <ele>15.08</ele>
        <time>2020-05-17T10:27:09Z</time>
      </trkpt>
      <trkpt lat="47.19455" lon="-1.84453">
        <ele>15.38</ele>
        <time>2020-05-17T10:27:11Z</time>
      </trkpt>
      <trkpt lat="47.19446" lon="-1.84468">
        <ele>15.8</ele>
        <time>2020-05-17T10:27:13Z</time>
      </trkpt>
      <trkpt lat="47.19438" lon="-1.84482">
        <ele>14.56</ele>
        <time>2020-05-17T10:27:15Z</time>
      </trkpt>
      <trkpt lat="47.1943" lon="-1.84495">
        <ele>13.59</ele>
        <time>2020-05-17T10:27:17Z</time>
      </trkpt>
      <trkpt lat="47.19427" lon="-1.84511">
        <ele>13.53</ele>
        <time>2020-05-17T10:27:20Z</time>
      </trkpt>
      <trkpt lat="47.19419" lon="-1.84521">
        <ele>12.97</ele>
        <time>2020-05-17T10:27:23Z</time>
      </trkpt>
      <trkpt lat="47.1941" lon="-1.84529">
        <ele>12.04</ele>
        <time>2020-05-17T10:27:25Z</time>
      </trkpt>
      <trkpt lat="47.194" lon="-1.84541">
        <ele>11.78</ele>
        <time>2020-05-17T10:27:27Z</time>
      </trkpt>
      <trkpt lat="47.19391" lon="-1.84551">
        <ele>11.01</ele>
        <time>2020-05-17T10:27:29Z</time>
      </trkpt>
      <trkpt lat="47.19383" lon="-1.84562">
        <ele>11.53</ele>
        <time>2020-05-17T10:27:32Z</time>
      </trkpt>
      <trkpt lat="47.19373" lon="-1.84568">
        <ele>11.58</ele>
        <time>2020-05-17T10:27:35Z</time>
      </trkpt>
      <trkpt lat="47.19361" lon="-1.84571">
        <ele>11.93</ele>
        <time>2020-05-17T10:27:52Z</time>
      </trkpt>
      <trkpt lat="47.19348" lon="-1.84576">
        <ele>11.48</ele>
        <time>2020-05-17T10:27:54Z</time>
      </trkpt>
      <trkpt lat="47.1934" lon="-1.84585">
        <ele>11.69</ele>
        <time>2020-05-17T10:27:56Z</time>
      </trkpt>
      <trkpt lat="47.19333" lon="-1.84602">
        <ele>12.28</ele>
        <time>2020-05-17T10:27:58Z</time>
      </trkpt>
      <trkpt lat="47.19329" lon="-1.84623">
        <ele>11.82</ele>
        <time>2020-05-17T10:28:00Z</time>
      </trkpt>
      <trkpt lat="47.19328" lon="-1.84637">
        <ele>11.24</ele>
        <time>2020-05-17T10:28:01Z</time>
      </trkpt>
      <trkpt lat="47.19327" lon="-1.84658">
        <ele>10.26</ele>
        <time>2020-05-17T10:28:03Z</time>
      </trkpt>
      <trkpt lat="47.19327" lon="-1.8468">
        <ele>10.06</ele>
        <time>2020-05-17T10:28:05Z</time>
      </trkpt>
      <trkpt lat="47.19327" lon="-1.847">
        <ele>9.87</ele>
        <time>2020-05-17T10:28:07Z</time>
      </trkpt>
      <trkpt lat="47.19327" lon="-1.84722">
        <ele>10.94</ele>
        <time>2020-05-17T10:28:09Z</time>
      </trkpt>
      <trkpt lat="47.19326" lon="-1.84742">
        <ele>11.26</ele>
        <time>2020-05-17T10:28:11Z</time>
      </trkpt>
      <trkpt lat="47.19323" lon="-1.84758">
        <ele>11.89</ele>
        <time>2020-05-17T10:28:13Z</time>
      </trkpt>
      <trkpt lat="47.19324" lon="-1.84775">
        <ele>13.31</ele>
        <time>2020-05-17T10:28:16Z</time>
      </trkpt>
      <trkpt lat="47.19326" lon="-1.84791">
        <ele>14</ele>
        <time>2020-05-17T10:28:18Z</time>
      </trkpt>
      <trkpt lat="47.19325" lon="-1.84808">
        <ele>13.49</ele>
        <time>2020-05-17T10:28:20Z</time>
      </trkpt>
      <trkpt lat="47.19323" lon="-1.84826">
        <ele>12.07</ele>
        <time>2020-05-17T10:28:22Z</time>
      </trkpt>
      <trkpt lat="47.1932" lon="-1.84849">
        <ele>10.83</ele>
        <time>2020-05-17T10:28:24Z</time>
      </trkpt>
      <trkpt lat="47.19317" lon="-1.84868">
        <ele>10.59</ele>
        <time>2020-05-17T10:28:26Z</time>
      </trkpt>
      <trkpt lat="47.19312" lon="-1.84887">
        <ele>10.96</ele>
        <time>2020-05-17T10:28:28Z</time>
      </trkpt>
      <trkpt lat="47.19306" lon="-1.84906">
        <ele>10.44</ele>
        <time>2020-05-17T10:28:30Z</time>
      </trkpt>
      <trkpt lat="47.193" lon="-1.84923">
        <ele>9.81</ele>
        <time>2020-05-17T10:28:32Z</time>
      </trkpt>
      <trkpt lat="47.19294" lon="-1.84939">
        <ele>9.63</ele>
        <time>2020-05-17T10:28:34Z</time>
      </trkpt>
      <trkpt lat="47.19287" lon="-1.84957">
        <ele>8.8</ele>
        <time>2020-05-17T10:28:36Z</time>
      </trkpt>
      <trkpt lat="47.19281" lon="-1.84974">
        <ele>8.79</ele>
        <time>2020-05-17T10:28:38Z</time>
      </trkpt>
      <trkpt lat="47.19275" lon="-1.84992">
        <ele>8.55</ele>
        <time>2020-05-17T10:28:40Z</time>
      </trkpt>
      <trkpt lat="47.19269" lon="-1.85011">
        <ele>8.81</ele>
        <time>2020-05-17T10:28:42Z</time>
      </trkpt>
      <trkpt lat="47.19265" lon="-1.85029">
        <ele>9.45</ele>
        <time>2020-05-17T10:28:44Z</time>
      </trkpt>
      <trkpt lat="47.19262" lon="-1.85049">
        <ele>9.33</ele>
        <time>2020-05-17T10:28:46Z</time>
      </trkpt>
      <trkpt lat="47.1926" lon="-1.85069">
        <ele>9.18</ele>
        <time>2020-05-17T10:28:48Z</time>
      </trkpt>
      <trkpt lat="47.19259" lon="-1.85089">
        <ele>9.14</ele>
        <time>2020-05-17T10:28:50Z</time>
      </trkpt>
      <trkpt lat="47.1926" lon="-1.85109">
        <ele>8.95</ele>
        <time>2020-05-17T10:28:52Z</time>
      </trkpt>
      <trkpt lat="47.19264" lon="-1.85129">
        <ele>9.15</ele>
        <time>2020-05-17T10:28:54Z</time>
      </trkpt>
      <trkpt lat="47.19266" lon="-1.8515">
        <ele>9.63</ele>
        <time>2020-05-17T10:28:56Z</time>
      </trkpt>
      <trkpt lat="47.19269" lon="-1.85176">
        <ele>9.53</ele>
        <time>2020-05-17T10:28:58Z</time>
      </trkpt>
      <trkpt lat="47.1927" lon="-1.85198">
        <ele>9.14</ele>
        <time>2020-05-17T10:29:00Z</time>
      </trkpt>
      <trkpt lat="47.19272" lon="-1.85218">
        <ele>8.57</ele>
        <time>2020-05-17T10:29:02Z</time>
      </trkpt>
      <trkpt lat="47.19274" lon="-1.85233">
        <ele>7.26</ele>
        <time>2020-05-17T10:29:04Z</time>
      </trkpt>
      <trkpt lat="47.19277" lon="-1.85252">
        <ele>6.52</ele>
        <time>2020-05-17T10:29:14Z</time>
      </trkpt>
      <trkpt lat="47.19271" lon="-1.85264">
        <ele>6.86</ele>
        <time>2020-05-17T10:29:16Z</time>
      </trkpt>
      <trkpt lat="47.19265" lon="-1.85283">
        <ele>7.14</ele>
        <time>2020-05-17T10:29:18Z</time>
      </trkpt>
      <trkpt lat="47.19259" lon="-1.85303">
        <ele>7.52</ele>
        <time>2020-05-17T10:29:20Z</time>
      </trkpt>
      <trkpt lat="47.19254" lon="-1.85321">
        <ele>7.1</ele>
        <time>2020-05-17T10:29:22Z</time>
      </trkpt>
      <trkpt lat="47.19246" lon="-1.85339">
        <ele>6.88</ele>
        <time>2020-05-17T10:29:24Z</time>
      </trkpt>
      <trkpt lat="47.1924" lon="-1.85355">
        <ele>7.18</ele>
        <time>2020-05-17T10:29:26Z</time>
      </trkpt>
      <trkpt lat="47.19233" lon="-1.85369">
        <ele>7.53</ele>
        <time>2020-05-17T10:29:28Z</time>
      </trkpt>
      <trkpt lat="47.19224" lon="-1.85387">
        <ele>7.22</ele>
        <time>2020-05-17T10:29:30Z</time>
      </trkpt>
      <trkpt lat="47.19214" lon="-1.85401">
        <ele>6.18</ele>
        <time>2020-05-17T10:29:32Z</time>
      </trkpt>
      <trkpt lat="47.19202" lon="-1.85414">
        <ele>5.34</ele>
        <time>2020-05-17T10:29:34Z</time>
      </trkpt>
      <trkpt lat="47.19189" lon="-1.85428">
        <ele>4.53</ele>
        <time>2020-05-17T10:29:36Z</time>
      </trkpt>
      <trkpt lat="47.19179" lon="-1.85439">
        <ele>4.57</ele>
        <time>2020-05-17T10:29:38Z</time>
      </trkpt>
      <trkpt lat="47.1917" lon="-1.85452">
        <ele>4.5</ele>
        <time>2020-05-17T10:29:40Z</time>
      </trkpt>
      <trkpt lat="47.1916" lon="-1.85466">
        <ele>4.49</ele>
        <time>2020-05-17T10:29:42Z</time>
      </trkpt>
      <trkpt lat="47.19151" lon="-1.85479">
        <ele>4.72</ele>
        <time>2020-05-17T10:29:44Z</time>
      </trkpt>
      <trkpt lat="47.19141" lon="-1.85493">
        <ele>5.89</ele>
        <time>2020-05-17T10:29:46Z</time>
      </trkpt>
      <trkpt lat="47.19132" lon="-1.85506">
        <ele>6.4</ele>
        <time>2020-05-17T10:29:48Z</time>
      </trkpt>
      <trkpt lat="47.19123" lon="-1.8552">
        <ele>6.26</ele>
        <time>2020-05-17T10:29:50Z</time>
      </trkpt>
      <trkpt lat="47.19114" lon="-1.85531">
        <ele>6.93</ele>
        <time>2020-05-17T10:29:52Z</time>
      </trkpt>
      <trkpt lat="47.19104" lon="-1.85541">
        <ele>6.78</ele>
        <time>2020-05-17T10:29:54Z</time>
      </trkpt>
      <trkpt lat="47.19094" lon="-1.85552">
        <ele>5.99</ele>
        <time>2020-05-17T10:29:56Z</time>
      </trkpt>
      <trkpt lat="47.19083" lon="-1.85563">
        <ele>6.09</ele>
        <time>2020-05-17T10:29:58Z</time>
      </trkpt>
      <trkpt lat="47.19072" lon="-1.85573">
        <ele>6.43</ele>
        <time>2020-05-17T10:30:00Z</time>
      </trkpt>
      <trkpt lat="47.19061" lon="-1.85582">
        <ele>6.82</ele>
        <time>2020-05-17T10:30:02Z</time>
      </trkpt>
      <trkpt lat="47.19049" lon="-1.85593">
        <ele>7.15</ele>
        <time>2020-05-17T10:30:04Z</time>
      </trkpt>
      <trkpt lat="47.19035" lon="-1.85604">
        <ele>6.19</ele>
        <time>2020-05-17T10:30:06Z</time>
      </trkpt>
      <trkpt lat="47.19022" lon="-1.85615">
        <ele>5.04</ele>
        <time>2020-05-17T10:30:08Z</time>
      </trkpt>
      <trkpt lat="47.1901" lon="-1.85625">
        <ele>4.28</ele>
        <time>2020-05-17T10:30:10Z</time>
      </trkpt>
      <trkpt lat="47.18999" lon="-1.85634">
        <ele>4.24</ele>
        <time>2020-05-17T10:30:12Z</time>
      </trkpt>
      <trkpt lat="47.18987" lon="-1.85644">
        <ele>4.15</ele>
        <time>2020-05-17T10:30:14Z</time>
      </trkpt>
      <trkpt lat="47.18975" lon="-1.85652">
        <ele>3.22</ele>
        <time>2020-05-17T10:30:16Z</time>
      </trkpt>
      <trkpt lat="47.18962" lon="-1.85661">
        <ele>2.58</ele>
        <time>2020-05-17T10:30:18Z</time>
      </trkpt>
      <trkpt lat="47.18949" lon="-1.85669">
        <ele>2.83</ele>
        <time>2020-05-17T10:30:20Z</time>
      </trkpt>
      <trkpt lat="47.18937" lon="-1.8568">
        <ele>2.88</ele>
        <time>2020-05-17T10:30:22Z</time>
      </trkpt>
      <trkpt lat="47.18926" lon="-1.85688">
        <ele>3.76</ele>
        <time>2020-05-17T10:30:24Z</time>
      </trkpt>
      <trkpt lat="47.18913" lon="-1.85697">
        <ele>4</ele>
        <time>2020-05-17T10:30:26Z</time>
      </trkpt>
      <trkpt lat="47.18901" lon="-1.85706">
        <ele>3.57</ele>
        <time>2020-05-17T10:30:28Z</time>
      </trkpt>
      <trkpt lat="47.18888" lon="-1.85715">
        <ele>2.74</ele>
        <time>2020-05-17T10:30:30Z</time>
      </trkpt>
      <trkpt lat="47.18875" lon="-1.85724">
        <ele>2.92</ele>
        <time>2020-05-17T10:30:32Z</time>
      </trkpt>
      <trkpt lat="47.18863" lon="-1.85733">
        <ele>3.05</ele>
        <time>2020-05-17T10:30:34Z</time>
      </trkpt>
      <trkpt lat="47.18851" lon="-1.85743">
        <ele>2.91</ele>
        <time>2020-05-17T10:30:36Z</time>
      </trkpt>
      <trkpt lat="47.18839" lon="-1.85752">
        <ele>2.4</ele>
        <time>2020-05-17T10:30:38Z</time>
      </trkpt>
      <trkpt lat="47.18827" lon="-1.8576">
        <ele>2.74</ele>
        <time>2020-05-17T10:30:40Z</time>
      </trkpt>
      <trkpt lat="47.18815" lon="-1.85769">
        <ele>2.83</ele>
        <time>2020-05-17T10:30:42Z</time>
      </trkpt>
      <trkpt lat="47.18803" lon="-1.85779">
        <ele>3.23</ele>
        <time>2020-05-17T10:30:44Z</time>
      </trkpt>
      <trkpt lat="47.18791" lon="-1.85787">
        <ele>3.66</ele>
        <time>2020-05-17T10:30:46Z</time>
      </trkpt>
      <trkpt lat="47.18779" lon="-1.85796">
        <ele>3.52</ele>
        <time>2020-05-17T10:30:48Z</time>
      </trkpt>
      <trkpt lat="47.18767" lon="-1.85804">
        <ele>2.81</ele>
        <time>2020-05-17T10:30:50Z</time>
      </trkpt>
      <trkpt lat="47.18756" lon="-1.85811">
        <ele>1.76</ele>
        <time>2020-05-17T10:30:52Z</time>
      </trkpt>
      <trkpt lat="47.18747" lon="-1.85818">
        <ele>1.28</ele>
        <time>2020-05-17T10:30:54Z</time>
      </trkpt>
      <trkpt lat="47.18736" lon="-1.85827">
        <ele>2.56</ele>
        <time>2020-05-17T10:30:56Z</time>
      </trkpt>
      <trkpt lat="47.18723" lon="-1.85837">
        <ele>3.12</ele>
        <time>2020-05-17T10:30:58Z</time>
      </trkpt>
      <trkpt lat="47.1871" lon="-1.85846">
        <ele>3.02</ele>
        <time>2020-05-17T10:31:00Z</time>
      </trkpt>
      <trkpt lat="47.18698" lon="-1.85855">
        <ele>3.92</ele>
        <time>2020-05-17T10:31:02Z</time>
      </trkpt>
      <trkpt lat="47.18686" lon="-1.85863">
        <ele>3.82</ele>
        <time>2020-05-17T10:31:04Z</time>
      </trkpt>
      <trkpt lat="47.18674" lon="-1.85872">
        <ele>3.71</ele>
        <time>2020-05-17T10:31:06Z</time>
      </trkpt>
      <trkpt lat="47.18663" lon="-1.85879">
        <ele>3.42</ele>
        <time>2020-05-17T10:31:08Z</time>
      </trkpt>
      <trkpt lat="47.18652" lon="-1.85886">
        <ele>2.67</ele>
        <time>2020-05-17T10:31:10Z</time>
      </trkpt>
      <trkpt lat="47.18642" lon="-1.85894">
        <ele>1.81</ele>
        <time>2020-05-17T10:31:12Z</time>
      </trkpt>
      <trkpt lat="47.18633" lon="-1.85903">
        <ele>2</ele>
        <time>2020-05-17T10:31:14Z</time>
      </trkpt>
      <trkpt lat="47.18621" lon="-1.85915">
        <ele>2.65</ele>
        <time>2020-05-17T10:31:17Z</time>
      </trkpt>
      <trkpt lat="47.18611" lon="-1.85929">
        <ele>3.76</ele>
        <time>2020-05-17T10:31:20Z</time>
      </trkpt>
      <trkpt lat="47.18602" lon="-1.85941">
        <ele>5.98</ele>
        <time>2020-05-17T10:31:23Z</time>
      </trkpt>
      <trkpt lat="47.18594" lon="-1.85952">
        <ele>7.53</ele>
        <time>2020-05-17T10:31:25Z</time>
      </trkpt>
      <trkpt lat="47.18588" lon="-1.85961">
        <ele>7.51</ele>
        <time>2020-05-17T10:31:27Z</time>
      </trkpt>
      <trkpt lat="47.1858" lon="-1.85977">
        <ele>8.85</ele>
        <time>2020-05-17T10:31:30Z</time>
      </trkpt>
      <trkpt lat="47.18575" lon="-1.85991">
        <ele>10.22</ele>
        <time>2020-05-17T10:31:32Z</time>
      </trkpt>
      <trkpt lat="47.18569" lon="-1.86003">
        <ele>12.11</ele>
        <time>2020-05-17T10:31:34Z</time>
      </trkpt>
      <trkpt lat="47.18564" lon="-1.86014">
        <ele>13.51</ele>
        <time>2020-05-17T10:31:36Z</time>
      </trkpt>
      <trkpt lat="47.18558" lon="-1.86029">
        <ele>14.54</ele>
        <time>2020-05-17T10:31:39Z</time>
      </trkpt>
      <trkpt lat="47.18554" lon="-1.86041">
        <ele>15.01</ele>
        <time>2020-05-17T10:31:41Z</time>
      </trkpt>
      <trkpt lat="47.18548" lon="-1.86054">
        <ele>15.82</ele>
        <time>2020-05-17T10:31:43Z</time>
      </trkpt>
      <trkpt lat="47.18541" lon="-1.86069">
        <ele>16.81</ele>
        <time>2020-05-17T10:31:45Z</time>
      </trkpt>
      <trkpt lat="47.18535" lon="-1.86083">
        <ele>17.55</ele>
        <time>2020-05-17T10:31:48Z</time>
      </trkpt>
      <trkpt lat="47.18527" lon="-1.861">
        <ele>17.42</ele>
        <time>2020-05-17T10:31:51Z</time>
      </trkpt>
      <trkpt lat="47.18522" lon="-1.86111">
        <ele>16.19</ele>
        <time>2020-05-17T10:31:53Z</time>
      </trkpt>
      <trkpt lat="47.18514" lon="-1.86122">
        <ele>15.15</ele>
        <time>2020-05-17T10:31:55Z</time>
      </trkpt>
      <trkpt lat="47.18506" lon="-1.86129">
        <ele>14.57</ele>
        <time>2020-05-17T10:31:57Z</time>
      </trkpt>
      <trkpt lat="47.18498" lon="-1.86136">
        <ele>14.36</ele>
        <time>2020-05-17T10:31:59Z</time>
      </trkpt>
      <trkpt lat="47.18489" lon="-1.86141">
        <ele>13.87</ele>
        <time>2020-05-17T10:32:01Z</time>
      </trkpt>
      <trkpt lat="47.1848" lon="-1.86145">
        <ele>14.44</ele>
        <time>2020-05-17T10:32:03Z</time>
      </trkpt>
      <trkpt lat="47.18471" lon="-1.86148">
        <ele>15.53</ele>
        <time>2020-05-17T10:32:05Z</time>
      </trkpt>
      <trkpt lat="47.18462" lon="-1.86152">
        <ele>15.36</ele>
        <time>2020-05-17T10:32:07Z</time>
      </trkpt>
      <trkpt lat="47.18451" lon="-1.86155">
        <ele>14.45</ele>
        <time>2020-05-17T10:32:09Z</time>
      </trkpt>
      <trkpt lat="47.18442" lon="-1.86157">
        <ele>14.64</ele>
        <time>2020-05-17T10:32:11Z</time>
      </trkpt>
      <trkpt lat="47.18432" lon="-1.86159">
        <ele>15.31</ele>
        <time>2020-05-17T10:32:13Z</time>
      </trkpt>
      <trkpt lat="47.18422" lon="-1.86162">
        <ele>16.88</ele>
        <time>2020-05-17T10:32:15Z</time>
      </trkpt>
      <trkpt lat="47.18412" lon="-1.86165">
        <ele>17.8</ele>
        <time>2020-05-17T10:32:17Z</time>
      </trkpt>
      <trkpt lat="47.18399" lon="-1.86169">
        <ele>18.95</ele>
        <time>2020-05-17T10:32:20Z</time>
      </trkpt>
      <trkpt lat="47.18387" lon="-1.86173">
        <ele>19.09</ele>
        <time>2020-05-17T10:32:22Z</time>
      </trkpt>
      <trkpt lat="47.18377" lon="-1.86178">
        <ele>18.58</ele>
        <time>2020-05-17T10:32:24Z</time>
      </trkpt>
      <trkpt lat="47.18364" lon="-1.86186">
        <ele>20.84</ele>
        <time>2020-05-17T10:32:27Z</time>
      </trkpt>
      <trkpt lat="47.18351" lon="-1.86192">
        <ele>20.56</ele>
        <time>2020-05-17T10:32:29Z</time>
      </trkpt>
      <trkpt lat="47.1834" lon="-1.86199">
        <ele>19.82</ele>
        <time>2020-05-17T10:32:31Z</time>
      </trkpt>
      <trkpt lat="47.18329" lon="-1.86205">
        <ele>20</ele>
        <time>2020-05-17T10:32:33Z</time>
      </trkpt>
      <trkpt lat="47.18318" lon="-1.86211">
        <ele>19.71</ele>
        <time>2020-05-17T10:32:35Z</time>
      </trkpt>
      <trkpt lat="47.18307" lon="-1.86218">
        <ele>19.39</ele>
        <time>2020-05-17T10:32:37Z</time>
      </trkpt>
      <trkpt lat="47.18297" lon="-1.86223">
        <ele>19.77</ele>
        <time>2020-05-17T10:32:39Z</time>
      </trkpt>
      <trkpt lat="47.18286" lon="-1.86228">
        <ele>19.08</ele>
        <time>2020-05-17T10:32:41Z</time>
      </trkpt>
      <trkpt lat="47.18274" lon="-1.86234">
        <ele>18.81</ele>
        <time>2020-05-17T10:32:43Z</time>
      </trkpt>
      <trkpt lat="47.18262" lon="-1.86239">
        <ele>19.48</ele>
        <time>2020-05-17T10:32:45Z</time>
      </trkpt>
      <trkpt lat="47.18249" lon="-1.86245">
        <ele>19.99</ele>
        <time>2020-05-17T10:32:47Z</time>
      </trkpt>
      <trkpt lat="47.18235" lon="-1.86251">
        <ele>20.5</ele>
        <time>2020-05-17T10:32:49Z</time>
      </trkpt>
      <trkpt lat="47.18222" lon="-1.86256">
        <ele>21.04</ele>
        <time>2020-05-17T10:32:51Z</time>
      </trkpt>
      <trkpt lat="47.18209" lon="-1.86261">
        <ele>21.26</ele>
        <time>2020-05-17T10:32:53Z</time>
      </trkpt>
      <trkpt lat="47.18198" lon="-1.86265">
        <ele>21.78</ele>
        <time>2020-05-17T10:32:55Z</time>
      </trkpt>
      <trkpt lat="47.18187" lon="-1.86269">
        <ele>22.32</ele>
        <time>2020-05-17T10:32:57Z</time>
      </trkpt>
      <trkpt lat="47.18175" lon="-1.86274">
        <ele>22.73</ele>
        <time>2020-05-17T10:32:59Z</time>
      </trkpt>
      <trkpt lat="47.18163" lon="-1.86279">
        <ele>22.67</ele>
        <time>2020-05-17T10:33:01Z</time>
      </trkpt>
      <trkpt lat="47.1815" lon="-1.86287">
        <ele>22.75</ele>
        <time>2020-05-17T10:33:03Z</time>
      </trkpt>
      <trkpt lat="47.18138" lon="-1.86295">
        <ele>23.2</ele>
        <time>2020-05-17T10:33:05Z</time>
      </trkpt>
      <trkpt lat="47.18128" lon="-1.86301">
        <ele>23.39</ele>
        <time>2020-05-17T10:33:07Z</time>
      </trkpt>
      <trkpt lat="47.18117" lon="-1.86309">
        <ele>22.77</ele>
        <time>2020-05-17T10:33:09Z</time>
      </trkpt>
      <trkpt lat="47.18105" lon="-1.86316">
        <ele>22.77</ele>
        <time>2020-05-17T10:33:11Z</time>
      </trkpt>
      <trkpt lat="47.18094" lon="-1.86321">
        <ele>22.58</ele>
        <time>2020-05-17T10:33:13Z</time>
      </trkpt>
      <trkpt lat="47.18082" lon="-1.86327">
        <ele>23.09</ele>
        <time>2020-05-17T10:33:15Z</time>
      </trkpt>
      <trkpt lat="47.1807" lon="-1.8633">
        <ele>23.12</ele>
        <time>2020-05-17T10:33:17Z</time>
      </trkpt>
      <trkpt lat="47.18057" lon="-1.86331">
        <ele>22.89</ele>
        <time>2020-05-17T10:33:19Z</time>
      </trkpt>
      <trkpt lat="47.18044" lon="-1.86331">
        <ele>22.08</ele>
        <time>2020-05-17T10:33:21Z</time>
      </trkpt>
      <trkpt lat="47.18032" lon="-1.8633">
        <ele>21.95</ele>
        <time>2020-05-17T10:33:23Z</time>
      </trkpt>
      <trkpt lat="47.18018" lon="-1.8633">
        <ele>22</ele>
        <time>2020-05-17T10:33:25Z</time>
      </trkpt>
      <trkpt lat="47.18004" lon="-1.86331">
        <ele>21.96</ele>
        <time>2020-05-17T10:33:27Z</time>
      </trkpt>
      <trkpt lat="47.1799" lon="-1.86334">
        <ele>23.36</ele>
        <time>2020-05-17T10:33:29Z</time>
      </trkpt>
      <trkpt lat="47.17975" lon="-1.8634">
        <ele>24.29</ele>
        <time>2020-05-17T10:33:31Z</time>
      </trkpt>
      <trkpt lat="47.17962" lon="-1.86349">
        <ele>23.86</ele>
        <time>2020-05-17T10:33:33Z</time>
      </trkpt>
      <trkpt lat="47.17948" lon="-1.86362">
        <ele>22.42</ele>
        <time>2020-05-17T10:33:35Z</time>
      </trkpt>
      <trkpt lat="47.17937" lon="-1.86376">
        <ele>21.33</ele>
        <time>2020-05-17T10:33:37Z</time>
      </trkpt>
      <trkpt lat="47.17928" lon="-1.86389">
        <ele>21.19</ele>
        <time>2020-05-17T10:33:39Z</time>
      </trkpt>
      <trkpt lat="47.17919" lon="-1.86401">
        <ele>21.77</ele>
        <time>2020-05-17T10:33:41Z</time>
      </trkpt>
      <trkpt lat="47.1791" lon="-1.86416">
        <ele>22.26</ele>
        <time>2020-05-17T10:33:43Z</time>
      </trkpt>
      <trkpt lat="47.17899" lon="-1.86432">
        <ele>23.2</ele>
        <time>2020-05-17T10:33:45Z</time>
      </trkpt>
      <trkpt lat="47.1789" lon="-1.86445">
        <ele>23.39</ele>
        <time>2020-05-17T10:33:47Z</time>
      </trkpt>
      <trkpt lat="47.17881" lon="-1.86459">
        <ele>23.22</ele>
        <time>2020-05-17T10:33:49Z</time>
      </trkpt>
      <trkpt lat="47.17872" lon="-1.86472">
        <ele>23.6</ele>
        <time>2020-05-17T10:33:51Z</time>
      </trkpt>
      <trkpt lat="47.17863" lon="-1.86485">
        <ele>23.59</ele>
        <time>2020-05-17T10:33:53Z</time>
      </trkpt>
      <trkpt lat="47.17854" lon="-1.86498">
        <ele>23.13</ele>
        <time>2020-05-17T10:33:55Z</time>
      </trkpt>
      <trkpt lat="47.17844" lon="-1.86511">
        <ele>22.29</ele>
        <time>2020-05-17T10:33:57Z</time>
      </trkpt>
      <trkpt lat="47.17833" lon="-1.86521">
        <ele>21.92</ele>
        <time>2020-05-17T10:33:59Z</time>
      </trkpt>
      <trkpt lat="47.17823" lon="-1.86529">
        <ele>21.85</ele>
        <time>2020-05-17T10:34:01Z</time>
      </trkpt>
      <trkpt lat="47.1781" lon="-1.86538">
        <ele>21.98</ele>
        <time>2020-05-17T10:34:03Z</time>
      </trkpt>
      <trkpt lat="47.17798" lon="-1.86547">
        <ele>22.51</ele>
        <time>2020-05-17T10:34:05Z</time>
      </trkpt>
      <trkpt lat="47.17785" lon="-1.86555">
        <ele>22.74</ele>
        <time>2020-05-17T10:34:07Z</time>
      </trkpt>
      <trkpt lat="47.17774" lon="-1.86565">
        <ele>22.93</ele>
        <time>2020-05-17T10:34:09Z</time>
      </trkpt>
      <trkpt lat="47.17763" lon="-1.86575">
        <ele>23.5</ele>
        <time>2020-05-17T10:34:11Z</time>
      </trkpt>
      <trkpt lat="47.17753" lon="-1.86585">
        <ele>23.67</ele>
        <time>2020-05-17T10:34:13Z</time>
      </trkpt>
      <trkpt lat="47.17744" lon="-1.86597">
        <ele>23.14</ele>
        <time>2020-05-17T10:34:15Z</time>
      </trkpt>
      <trkpt lat="47.17736" lon="-1.86608">
        <ele>23.83</ele>
        <time>2020-05-17T10:34:16Z</time>
      </trkpt>
      <trkpt lat="47.17729" lon="-1.86619">
        <ele>24.8</ele>
        <time>2020-05-17T10:34:18Z</time>
      </trkpt>
      <trkpt lat="47.17722" lon="-1.8663">
        <ele>26.26</ele>
        <time>2020-05-17T10:34:20Z</time>
      </trkpt>
      <trkpt lat="47.17715" lon="-1.86642">
        <ele>27.89</ele>
        <time>2020-05-17T10:34:22Z</time>
      </trkpt>
      <trkpt lat="47.17705" lon="-1.86656">
        <ele>28.72</ele>
        <time>2020-05-17T10:34:25Z</time>
      </trkpt>
      <trkpt lat="47.17697" lon="-1.86667">
        <ele>28.51</ele>
        <time>2020-05-17T10:34:27Z</time>
      </trkpt>
      <trkpt lat="47.17687" lon="-1.8668">
        <ele>28.52</ele>
        <time>2020-05-17T10:34:30Z</time>
      </trkpt>
      <trkpt lat="47.17679" lon="-1.86691">
        <ele>28.38</ele>
        <time>2020-05-17T10:34:32Z</time>
      </trkpt>
      <trkpt lat="47.1767" lon="-1.86704">
        <ele>28.78</ele>
        <time>2020-05-17T10:34:35Z</time>
      </trkpt>
      <trkpt lat="47.17663" lon="-1.86714">
        <ele>29.98</ele>
        <time>2020-05-17T10:34:37Z</time>
      </trkpt>
      <trkpt lat="47.17656" lon="-1.86728">
        <ele>30.15</ele>
        <time>2020-05-17T10:34:40Z</time>
      </trkpt>
      <trkpt lat="47.17649" lon="-1.86739">
        <ele>30.01</ele>
        <time>2020-05-17T10:34:42Z</time>
      </trkpt>
      <trkpt lat="47.1764" lon="-1.86752">
        <ele>31.08</ele>
        <time>2020-05-17T10:34:45Z</time>
      </trkpt>
      <trkpt lat="47.17631" lon="-1.86765">
        <ele>32.66</ele>
        <time>2020-05-17T10:34:48Z</time>
      </trkpt>
      <trkpt lat="47.17622" lon="-1.86777">
        <ele>33.62</ele>
        <time>2020-05-17T10:34:51Z</time>
      </trkpt>
      <trkpt lat="47.17615" lon="-1.86787">
        <ele>34.78</ele>
        <time>2020-05-17T10:34:53Z</time>
      </trkpt>
      <trkpt lat="47.17607" lon="-1.86796">
        <ele>35.74</ele>
        <time>2020-05-17T10:34:55Z</time>
      </trkpt>
      <trkpt lat="47.17599" lon="-1.86805">
        <ele>36.96</ele>
        <time>2020-05-17T10:34:58Z</time>
      </trkpt>
      <trkpt lat="47.17587" lon="-1.86819">
        <ele>37.21</ele>
        <time>2020-05-17T10:35:01Z</time>
      </trkpt>
      <trkpt lat="47.17578" lon="-1.86829">
        <ele>37.01</ele>
        <time>2020-05-17T10:35:03Z</time>
      </trkpt>
      <trkpt lat="47.17568" lon="-1.86841">
        <ele>37.7</ele>
        <time>2020-05-17T10:35:06Z</time>
      </trkpt>
      <trkpt lat="47.17558" lon="-1.86852">
        <ele>37.73</ele>
        <time>2020-05-17T10:35:09Z</time>
      </trkpt>
      <trkpt lat="47.17551" lon="-1.86861">
        <ele>38.47</ele>
        <time>2020-05-17T10:35:11Z</time>
      </trkpt>
      <trkpt lat="47.1754" lon="-1.86874">
        <ele>39.75</ele>
        <time>2020-05-17T10:35:14Z</time>
      </trkpt>
      <trkpt lat="47.17531" lon="-1.86885">
        <ele>41.1</ele>
        <time>2020-05-17T10:35:17Z</time>
      </trkpt>
      <trkpt lat="47.17522" lon="-1.86897">
        <ele>40.98</ele>
        <time>2020-05-17T10:35:19Z</time>
      </trkpt>
      <trkpt lat="47.17514" lon="-1.86911">
        <ele>40.85</ele>
        <time>2020-05-17T10:35:22Z</time>
      </trkpt>
      <trkpt lat="47.17507" lon="-1.86922">
        <ele>41.96</ele>
        <time>2020-05-17T10:35:24Z</time>
      </trkpt>
      <trkpt lat="47.17499" lon="-1.86931">
        <ele>42.05</ele>
        <time>2020-05-17T10:35:26Z</time>
      </trkpt>
      <trkpt lat="47.1749" lon="-1.86943">
        <ele>42.47</ele>
        <time>2020-05-17T10:35:29Z</time>
      </trkpt>
      <trkpt lat="47.17482" lon="-1.86952">
        <ele>43.34</ele>
        <time>2020-05-17T10:35:31Z</time>
      </trkpt>
      <trkpt lat="47.17474" lon="-1.86963">
        <ele>44.72</ele>
        <time>2020-05-17T10:35:33Z</time>
      </trkpt>
      <trkpt lat="47.17465" lon="-1.86974">
        <ele>45</ele>
        <time>2020-05-17T10:35:35Z</time>
      </trkpt>
      <trkpt lat="47.17457" lon="-1.86983">
        <ele>45.06</ele>
        <time>2020-05-17T10:35:37Z</time>
      </trkpt>
      <trkpt lat="47.17448" lon="-1.86993">
        <ele>45.16</ele>
        <time>2020-05-17T10:35:39Z</time>
      </trkpt>
      <trkpt lat="47.17438" lon="-1.87005">
        <ele>45.13</ele>
        <time>2020-05-17T10:35:41Z</time>
      </trkpt>
      <trkpt lat="47.17429" lon="-1.87015">
        <ele>44.5</ele>
        <time>2020-05-17T10:35:43Z</time>
      </trkpt>
      <trkpt lat="47.17418" lon="-1.87026">
        <ele>44.18</ele>
        <time>2020-05-17T10:35:45Z</time>
      </trkpt>
      <trkpt lat="47.17408" lon="-1.87036">
        <ele>43.17</ele>
        <time>2020-05-17T10:35:47Z</time>
      </trkpt>
      <trkpt lat="47.17396" lon="-1.87048">
        <ele>42.44</ele>
        <time>2020-05-17T10:35:49Z</time>
      </trkpt>
      <trkpt lat="47.17385" lon="-1.87059">
        <ele>43.23</ele>
        <time>2020-05-17T10:35:51Z</time>
      </trkpt>
      <trkpt lat="47.17373" lon="-1.8707">
        <ele>43.52</ele>
        <time>2020-05-17T10:35:53Z</time>
      </trkpt>
      <trkpt lat="47.17361" lon="-1.87081">
        <ele>43.72</ele>
        <time>2020-05-17T10:35:55Z</time>
      </trkpt>
      <trkpt lat="47.1735" lon="-1.87092">
        <ele>43.5</ele>
        <time>2020-05-17T10:35:57Z</time>
      </trkpt>
      <trkpt lat="47.17338" lon="-1.87103">
        <ele>43.8</ele>
        <time>2020-05-17T10:35:59Z</time>
      </trkpt>
      <trkpt lat="47.17326" lon="-1.87114">
        <ele>44.06</ele>
        <time>2020-05-17T10:36:01Z</time>
      </trkpt>
      <trkpt lat="47.17316" lon="-1.87123">
        <ele>44.73</ele>
        <time>2020-05-17T10:36:03Z</time>
      </trkpt>
      <trkpt lat="47.17305" lon="-1.87134">
        <ele>45.15</ele>
        <time>2020-05-17T10:36:05Z</time>
      </trkpt>
      <trkpt lat="47.17297" lon="-1.87145">
        <ele>44.44</ele>
        <time>2020-05-17T10:36:07Z</time>
      </trkpt>
      <trkpt lat="47.17288" lon="-1.87153">
        <ele>44.5</ele>
        <time>2020-05-17T10:36:09Z</time>
      </trkpt>
      <trkpt lat="47.17275" lon="-1.87159">
        <ele>44.68</ele>
        <time>2020-05-17T10:36:11Z</time>
      </trkpt>
      <trkpt lat="47.17263" lon="-1.87157">
        <ele>45.22</ele>
        <time>2020-05-17T10:36:13Z</time>
      </trkpt>
      <trkpt lat="47.17252" lon="-1.87155">
        <ele>46.21</ele>
        <time>2020-05-17T10:36:15Z</time>
      </trkpt>
      <trkpt lat="47.1724" lon="-1.87155">
        <ele>47.33</ele>
        <time>2020-05-17T10:36:17Z</time>
      </trkpt>
      <trkpt lat="47.17229" lon="-1.8716">
        <ele>49.02</ele>
        <time>2020-05-17T10:36:19Z</time>
      </trkpt>
      <trkpt lat="47.17218" lon="-1.87169">
        <ele>49.92</ele>
        <time>2020-05-17T10:36:21Z</time>
      </trkpt>
      <trkpt lat="47.17208" lon="-1.87175">
        <ele>50.14</ele>
        <time>2020-05-17T10:36:23Z</time>
      </trkpt>
      <trkpt lat="47.17196" lon="-1.87178">
        <ele>50.46</ele>
        <time>2020-05-17T10:36:25Z</time>
      </trkpt>
      <trkpt lat="47.17186" lon="-1.87182">
        <ele>51.08</ele>
        <time>2020-05-17T10:36:27Z</time>
      </trkpt>
      <trkpt lat="47.17174" lon="-1.87193">
        <ele>51.23</ele>
        <time>2020-05-17T10:36:29Z</time>
      </trkpt>
      <trkpt lat="47.17165" lon="-1.87201">
        <ele>50.93</ele>
        <time>2020-05-17T10:36:31Z</time>
      </trkpt>
      <trkpt lat="47.17154" lon="-1.87211">
        <ele>50.46</ele>
        <time>2020-05-17T10:36:33Z</time>
      </trkpt>
      <trkpt lat="47.17142" lon="-1.87222">
        <ele>49.5</ele>
        <time>2020-05-17T10:36:35Z</time>
      </trkpt>
      <trkpt lat="47.17132" lon="-1.87233">
        <ele>49.02</ele>
        <time>2020-05-17T10:36:37Z</time>
      </trkpt>
      <trkpt lat="47.17123" lon="-1.87244">
        <ele>48.87</ele>
        <time>2020-05-17T10:36:39Z</time>
      </trkpt>
      <trkpt lat="47.17112" lon="-1.87255">
        <ele>48.81</ele>
        <time>2020-05-17T10:36:41Z</time>
      </trkpt>
      <trkpt lat="47.17101" lon="-1.87266">
        <ele>48.44</ele>
        <time>2020-05-17T10:36:43Z</time>
      </trkpt>
      <trkpt lat="47.17091" lon="-1.87277">
        <ele>48.59</ele>
        <time>2020-05-17T10:36:45Z</time>
      </trkpt>
      <trkpt lat="47.1708" lon="-1.87288">
        <ele>48.54</ele>
        <time>2020-05-17T10:36:47Z</time>
      </trkpt>
      <trkpt lat="47.17069" lon="-1.87298">
        <ele>47.63</ele>
        <time>2020-05-17T10:36:49Z</time>
      </trkpt>
      <trkpt lat="47.17057" lon="-1.87308">
        <ele>46.74</ele>
        <time>2020-05-17T10:36:51Z</time>
      </trkpt>
      <trkpt lat="47.17044" lon="-1.87316">
        <ele>46.77</ele>
        <time>2020-05-17T10:36:53Z</time>
      </trkpt>
      <trkpt lat="47.17033" lon="-1.87321">
        <ele>47.57</ele>
        <time>2020-05-17T10:36:55Z</time>
      </trkpt>
      <trkpt lat="47.17021" lon="-1.87326">
        <ele>47.93</ele>
        <time>2020-05-17T10:36:57Z</time>
      </trkpt>
      <trkpt lat="47.17009" lon="-1.87328">
        <ele>48.22</ele>
        <time>2020-05-17T10:36:59Z</time>
      </trkpt>
      <trkpt lat="47.16995" lon="-1.8733">
        <ele>48.38</ele>
        <time>2020-05-17T10:37:01Z</time>
      </trkpt>
      <trkpt lat="47.16982" lon="-1.87331">
        <ele>48.54</ele>
        <time>2020-05-17T10:37:03Z</time>
      </trkpt>
      <trkpt lat="47.16967" lon="-1.87332">
        <ele>48.87</ele>
        <time>2020-05-17T10:37:05Z</time>
      </trkpt>
      <trkpt lat="47.16952" lon="-1.87333">
        <ele>48.65</ele>
        <time>2020-05-17T10:37:07Z</time>
      </trkpt>
      <trkpt lat="47.16938" lon="-1.87332">
        <ele>49.1</ele>
        <time>2020-05-17T10:37:09Z</time>
      </trkpt>
      <trkpt lat="47.16924" lon="-1.87333">
        <ele>50.45</ele>
        <time>2020-05-17T10:37:11Z</time>
      </trkpt>
      <trkpt lat="47.16907" lon="-1.87332">
        <ele>50.45</ele>
        <time>2020-05-17T10:37:13Z</time>
      </trkpt>
      <trkpt lat="47.16892" lon="-1.87332">
        <ele>50.06</ele>
        <time>2020-05-17T10:37:15Z</time>
      </trkpt>
      <trkpt lat="47.16878" lon="-1.87334">
        <ele>50.12</ele>
        <time>2020-05-17T10:37:17Z</time>
      </trkpt>
      <trkpt lat="47.16863" lon="-1.87334">
        <ele>49.26</ele>
        <time>2020-05-17T10:37:19Z</time>
      </trkpt>
      <trkpt lat="47.16847" lon="-1.87335">
        <ele>47.92</ele>
        <time>2020-05-17T10:37:21Z</time>
      </trkpt>
      <trkpt lat="47.16832" lon="-1.87335">
        <ele>47.01</ele>
        <time>2020-05-17T10:37:23Z</time>
      </trkpt>
      <trkpt lat="47.16817" lon="-1.87336">
        <ele>46.63</ele>
        <time>2020-05-17T10:37:25Z</time>
      </trkpt>
      <trkpt lat="47.16801" lon="-1.87337">
        <ele>46.03</ele>
        <time>2020-05-17T10:37:27Z</time>
      </trkpt>
      <trkpt lat="47.16786" lon="-1.87337">
        <ele>46.15</ele>
        <time>2020-05-17T10:37:29Z</time>
      </trkpt>
      <trkpt lat="47.16771" lon="-1.87337">
        <ele>46.58</ele>
        <time>2020-05-17T10:37:31Z</time>
      </trkpt>
      <trkpt lat="47.16757" lon="-1.87338">
        <ele>46.62</ele>
        <time>2020-05-17T10:37:33Z</time>
      </trkpt>
      <trkpt lat="47.16743" lon="-1.87339">
        <ele>47.02</ele>
        <time>2020-05-17T10:37:35Z</time>
      </trkpt>
      <trkpt lat="47.1673" lon="-1.87339">
        <ele>46.94</ele>
        <time>2020-05-17T10:37:37Z</time>
      </trkpt>
      <trkpt lat="47.16714" lon="-1.8734">
        <ele>46.84</ele>
        <time>2020-05-17T10:37:39Z</time>
      </trkpt>
      <trkpt lat="47.16699" lon="-1.87341">
        <ele>46.21</ele>
        <time>2020-05-17T10:37:41Z</time>
      </trkpt>
      <trkpt lat="47.16685" lon="-1.87341">
        <ele>45.49</ele>
        <time>2020-05-17T10:37:43Z</time>
      </trkpt>
      <trkpt lat="47.16668" lon="-1.87341">
        <ele>45.04</ele>
        <time>2020-05-17T10:37:45Z</time>
      </trkpt>
      <trkpt lat="47.16653" lon="-1.87342">
        <ele>44.99</ele>
        <time>2020-05-17T10:37:47Z</time>
      </trkpt>
      <trkpt lat="47.16636" lon="-1.87342">
        <ele>44.66</ele>
        <time>2020-05-17T10:37:49Z</time>
      </trkpt>
      <trkpt lat="47.16621" lon="-1.87343">
        <ele>43.86</ele>
        <time>2020-05-17T10:37:51Z</time>
      </trkpt>
      <trkpt lat="47.16605" lon="-1.87344">
        <ele>42.44</ele>
        <time>2020-05-17T10:37:53Z</time>
      </trkpt>
      <trkpt lat="47.1659" lon="-1.87346">
        <ele>41.7</ele>
        <time>2020-05-17T10:37:55Z</time>
      </trkpt>
      <trkpt lat="47.16575" lon="-1.87356">
        <ele>41.35</ele>
        <time>2020-05-17T10:37:57Z</time>
      </trkpt>
      <trkpt lat="47.16567" lon="-1.87363">
        <ele>41.54</ele>
        <time>2020-05-17T10:37:58Z</time>
      </trkpt>
      <trkpt lat="47.16554" lon="-1.87374">
        <ele>41.65</ele>
        <time>2020-05-17T10:38:00Z</time>
      </trkpt>
      <trkpt lat="47.1654" lon="-1.87386">
        <ele>41.02</ele>
        <time>2020-05-17T10:38:02Z</time>
      </trkpt>
      <trkpt lat="47.16529" lon="-1.87398">
        <ele>40.78</ele>
        <time>2020-05-17T10:38:04Z</time>
      </trkpt>
      <trkpt lat="47.16516" lon="-1.8741">
        <ele>40.2</ele>
        <time>2020-05-17T10:38:06Z</time>
      </trkpt>
      <trkpt lat="47.16504" lon="-1.87422">
        <ele>40.42</ele>
        <time>2020-05-17T10:38:08Z</time>
      </trkpt>
      <trkpt lat="47.16494" lon="-1.87433">
        <ele>40.87</ele>
        <time>2020-05-17T10:38:10Z</time>
      </trkpt>
      <trkpt lat="47.16483" lon="-1.87444">
        <ele>40.36</ele>
        <time>2020-05-17T10:38:12Z</time>
      </trkpt>
      <trkpt lat="47.16472" lon="-1.87456">
        <ele>39.88</ele>
        <time>2020-05-17T10:38:14Z</time>
      </trkpt>
      <trkpt lat="47.16462" lon="-1.87466">
        <ele>40.05</ele>
        <time>2020-05-17T10:38:16Z</time>
      </trkpt>
      <trkpt lat="47.16453" lon="-1.87475">
        <ele>40.67</ele>
        <time>2020-05-17T10:38:18Z</time>
      </trkpt>
      <trkpt lat="47.16442" lon="-1.87486">
        <ele>40.98</ele>
        <time>2020-05-17T10:38:20Z</time>
      </trkpt>
      <trkpt lat="47.16434" lon="-1.87496">
        <ele>40.77</ele>
        <time>2020-05-17T10:38:22Z</time>
      </trkpt>
      <trkpt lat="47.16423" lon="-1.87504">
        <ele>41.72</ele>
        <time>2020-05-17T10:38:24Z</time>
      </trkpt>
      <trkpt lat="47.16413" lon="-1.87513">
        <ele>41.93</ele>
        <time>2020-05-17T10:38:26Z</time>
      </trkpt>
      <trkpt lat="47.16403" lon="-1.87524">
        <ele>42.11</ele>
        <time>2020-05-17T10:38:28Z</time>
      </trkpt>
      <trkpt lat="47.16392" lon="-1.87533">
        <ele>41.69</ele>
        <time>2020-05-17T10:38:30Z</time>
      </trkpt>
      <trkpt lat="47.16384" lon="-1.8754">
        <ele>40.92</ele>
        <time>2020-05-17T10:38:32Z</time>
      </trkpt>
      <trkpt lat="47.16373" lon="-1.87546">
        <ele>41.22</ele>
        <time>2020-05-17T10:38:34Z</time>
      </trkpt>
      <trkpt lat="47.16362" lon="-1.87551">
        <ele>42.06</ele>
        <time>2020-05-17T10:38:36Z</time>
      </trkpt>
      <trkpt lat="47.16349" lon="-1.87553">
        <ele>43.04</ele>
        <time>2020-05-17T10:38:38Z</time>
      </trkpt>
      <trkpt lat="47.16337" lon="-1.87555">
        <ele>43.83</ele>
        <time>2020-05-17T10:38:40Z</time>
      </trkpt>
      <trkpt lat="47.16324" lon="-1.87555">
        <ele>43.9</ele>
        <time>2020-05-17T10:38:42Z</time>
      </trkpt>
      <trkpt lat="47.1631" lon="-1.87556">
        <ele>43.08</ele>
        <time>2020-05-17T10:38:44Z</time>
      </trkpt>
      <trkpt lat="47.16295" lon="-1.87557">
        <ele>42.2</ele>
        <time>2020-05-17T10:38:46Z</time>
      </trkpt>
      <trkpt lat="47.16283" lon="-1.87557">
        <ele>42.01</ele>
        <time>2020-05-17T10:38:48Z</time>
      </trkpt>
      <trkpt lat="47.16269" lon="-1.87557">
        <ele>41.93</ele>
        <time>2020-05-17T10:38:50Z</time>
      </trkpt>
      <trkpt lat="47.16257" lon="-1.87558">
        <ele>42.31</ele>
        <time>2020-05-17T10:38:52Z</time>
      </trkpt>
      <trkpt lat="47.16244" lon="-1.8756">
        <ele>42.46</ele>
        <time>2020-05-17T10:38:54Z</time>
      </trkpt>
      <trkpt lat="47.1623" lon="-1.87561">
        <ele>41.82</ele>
        <time>2020-05-17T10:38:56Z</time>
      </trkpt>
      <trkpt lat="47.16215" lon="-1.87562">
        <ele>41.42</ele>
        <time>2020-05-17T10:38:58Z</time>
      </trkpt>
      <trkpt lat="47.16202" lon="-1.87563">
        <ele>41.7</ele>
        <time>2020-05-17T10:39:00Z</time>
      </trkpt>
      <trkpt lat="47.16187" lon="-1.87564">
        <ele>42.87</ele>
        <time>2020-05-17T10:39:02Z</time>
      </trkpt>
      <trkpt lat="47.16174" lon="-1.87565">
        <ele>43.61</ele>
        <time>2020-05-17T10:39:04Z</time>
      </trkpt>
      <trkpt lat="47.16159" lon="-1.87566">
        <ele>43.11</ele>
        <time>2020-05-17T10:39:06Z</time>
      </trkpt>
      <trkpt lat="47.16146" lon="-1.87568">
        <ele>42.64</ele>
        <time>2020-05-17T10:39:08Z</time>
      </trkpt>
      <trkpt lat="47.16132" lon="-1.87569">
        <ele>41.97</ele>
        <time>2020-05-17T10:39:10Z</time>
      </trkpt>
      <trkpt lat="47.16119" lon="-1.87571">
        <ele>41.26</ele>
        <time>2020-05-17T10:39:12Z</time>
      </trkpt>
      <trkpt lat="47.16107" lon="-1.87573">
        <ele>41.62</ele>
        <time>2020-05-17T10:39:14Z</time>
      </trkpt>
      <trkpt lat="47.16093" lon="-1.87575">
        <ele>42.17</ele>
        <time>2020-05-17T10:39:16Z</time>
      </trkpt>
      <trkpt lat="47.1608" lon="-1.87577">
        <ele>42.04</ele>
        <time>2020-05-17T10:39:18Z</time>
      </trkpt>
      <trkpt lat="47.16066" lon="-1.87578">
        <ele>41.53</ele>
        <time>2020-05-17T10:39:20Z</time>
      </trkpt>
      <trkpt lat="47.16053" lon="-1.87579">
        <ele>41.12</ele>
        <time>2020-05-17T10:39:22Z</time>
      </trkpt>
      <trkpt lat="47.1604" lon="-1.87582">
        <ele>41.38</ele>
        <time>2020-05-17T10:39:24Z</time>
      </trkpt>
      <trkpt lat="47.16026" lon="-1.87585">
        <ele>41.93</ele>
        <time>2020-05-17T10:39:26Z</time>
      </trkpt>
      <trkpt lat="47.16013" lon="-1.87588">
        <ele>42.46</ele>
        <time>2020-05-17T10:39:28Z</time>
      </trkpt>
      <trkpt lat="47.15997" lon="-1.87593">
        <ele>42</ele>
        <time>2020-05-17T10:39:30Z</time>
      </trkpt>
      <trkpt lat="47.15982" lon="-1.87599">
        <ele>41.16</ele>
        <time>2020-05-17T10:39:32Z</time>
      </trkpt>
      <trkpt lat="47.15971" lon="-1.87606">
        <ele>41.04</ele>
        <time>2020-05-17T10:39:34Z</time>
      </trkpt>
      <trkpt lat="47.15958" lon="-1.87615">
        <ele>42.09</ele>
        <time>2020-05-17T10:39:36Z</time>
      </trkpt>
      <trkpt lat="47.15946" lon="-1.87623">
        <ele>42.65</ele>
        <time>2020-05-17T10:39:38Z</time>
      </trkpt>
      <trkpt lat="47.15935" lon="-1.87631">
        <ele>42.62</ele>
        <time>2020-05-17T10:39:40Z</time>
      </trkpt>
      <trkpt lat="47.15922" lon="-1.8764">
        <ele>41.85</ele>
        <time>2020-05-17T10:39:42Z</time>
      </trkpt>
      <trkpt lat="47.15909" lon="-1.87648">
        <ele>40.86</ele>
        <time>2020-05-17T10:39:44Z</time>
      </trkpt>
      <trkpt lat="47.15896" lon="-1.87655">
        <ele>40.21</ele>
        <time>2020-05-17T10:39:46Z</time>
      </trkpt>
      <trkpt lat="47.15884" lon="-1.8766">
        <ele>40.42</ele>
        <time>2020-05-17T10:39:48Z</time>
      </trkpt>
      <trkpt lat="47.15869" lon="-1.87667">
        <ele>40.45</ele>
        <time>2020-05-17T10:39:50Z</time>
      </trkpt>
      <trkpt lat="47.15856" lon="-1.87672">
        <ele>40.55</ele>
        <time>2020-05-17T10:39:52Z</time>
      </trkpt>
      <trkpt lat="47.15843" lon="-1.87676">
        <ele>41.16</ele>
        <time>2020-05-17T10:39:54Z</time>
      </trkpt>
      <trkpt lat="47.1583" lon="-1.87681">
        <ele>41.34</ele>
        <time>2020-05-17T10:39:56Z</time>
      </trkpt>
      <trkpt lat="47.15815" lon="-1.87686">
        <ele>41.61</ele>
        <time>2020-05-17T10:39:58Z</time>
      </trkpt>
      <trkpt lat="47.15801" lon="-1.87691">
        <ele>41.72</ele>
        <time>2020-05-17T10:40:00Z</time>
      </trkpt>
      <trkpt lat="47.15787" lon="-1.87695">
        <ele>41.1</ele>
        <time>2020-05-17T10:40:02Z</time>
      </trkpt>
      <trkpt lat="47.15773" lon="-1.877">
        <ele>40.59</ele>
        <time>2020-05-17T10:40:04Z</time>
      </trkpt>
      <trkpt lat="47.15759" lon="-1.87706">
        <ele>40.87</ele>
        <time>2020-05-17T10:40:06Z</time>
      </trkpt>
      <trkpt lat="47.15745" lon="-1.87711">
        <ele>41.12</ele>
        <time>2020-05-17T10:40:08Z</time>
      </trkpt>
      <trkpt lat="47.15731" lon="-1.87715">
        <ele>40.92</ele>
        <time>2020-05-17T10:40:10Z</time>
      </trkpt>
      <trkpt lat="47.15717" lon="-1.87721">
        <ele>40.14</ele>
        <time>2020-05-17T10:40:12Z</time>
      </trkpt>
      <trkpt lat="47.15703" lon="-1.87726">
        <ele>39.92</ele>
        <time>2020-05-17T10:40:14Z</time>
      </trkpt>
      <trkpt lat="47.15691" lon="-1.8773">
        <ele>39.64</ele>
        <time>2020-05-17T10:40:16Z</time>
      </trkpt>
      <trkpt lat="47.15677" lon="-1.87735">
        <ele>39.29</ele>
        <time>2020-05-17T10:40:18Z</time>
      </trkpt>
      <trkpt lat="47.15663" lon="-1.87741">
        <ele>38.81</ele>
        <time>2020-05-17T10:40:20Z</time>
      </trkpt>
      <trkpt lat="47.15649" lon="-1.87746">
        <ele>38.9</ele>
        <time>2020-05-17T10:40:22Z</time>
      </trkpt>
      <trkpt lat="47.15634" lon="-1.87751">
        <ele>38.72</ele>
        <time>2020-05-17T10:40:24Z</time>
      </trkpt>
      <trkpt lat="47.1562" lon="-1.87755">
        <ele>37.96</ele>
        <time>2020-05-17T10:40:26Z</time>
      </trkpt>
      <trkpt lat="47.15607" lon="-1.8776">
        <ele>36.94</ele>
        <time>2020-05-17T10:40:28Z</time>
      </trkpt>
      <trkpt lat="47.15594" lon="-1.87765">
        <ele>36.31</ele>
        <time>2020-05-17T10:40:30Z</time>
      </trkpt>
      <trkpt lat="47.15581" lon="-1.8777">
        <ele>36.51</ele>
        <time>2020-05-17T10:40:32Z</time>
      </trkpt>
      <trkpt lat="47.15568" lon="-1.87775">
        <ele>36.9</ele>
        <time>2020-05-17T10:40:34Z</time>
      </trkpt>
      <trkpt lat="47.15554" lon="-1.87781">
        <ele>36.9</ele>
        <time>2020-05-17T10:40:36Z</time>
      </trkpt>
      <trkpt lat="47.15541" lon="-1.87787">
        <ele>36.81</ele>
        <time>2020-05-17T10:40:38Z</time>
      </trkpt>
      <trkpt lat="47.15528" lon="-1.87793">
        <ele>36.26</ele>
        <time>2020-05-17T10:40:40Z</time>
      </trkpt>
      <trkpt lat="47.15515" lon="-1.87799">
        <ele>35.84</ele>
        <time>2020-05-17T10:40:42Z</time>
      </trkpt>
      <trkpt lat="47.15504" lon="-1.87808">
        <ele>36.19</ele>
        <time>2020-05-17T10:40:44Z</time>
      </trkpt>
      <trkpt lat="47.15491" lon="-1.87819">
        <ele>36.27</ele>
        <time>2020-05-17T10:40:46Z</time>
      </trkpt>
      <trkpt lat="47.15479" lon="-1.87833">
        <ele>36.1</ele>
        <time>2020-05-17T10:40:48Z</time>
      </trkpt>
      <trkpt lat="47.15468" lon="-1.87847">
        <ele>35.92</ele>
        <time>2020-05-17T10:40:50Z</time>
      </trkpt>
      <trkpt lat="47.15456" lon="-1.87862">
        <ele>35.15</ele>
        <time>2020-05-17T10:40:52Z</time>
      </trkpt>
      <trkpt lat="47.15445" lon="-1.87875">
        <ele>34.84</ele>
        <time>2020-05-17T10:40:54Z</time>
      </trkpt>
      <trkpt lat="47.15435" lon="-1.87889">
        <ele>35.23</ele>
        <time>2020-05-17T10:40:56Z</time>
      </trkpt>
      <trkpt lat="47.15424" lon="-1.87903">
        <ele>35.41</ele>
        <time>2020-05-17T10:40:58Z</time>
      </trkpt>
      <trkpt lat="47.15413" lon="-1.87916">
        <ele>35.37</ele>
        <time>2020-05-17T10:41:00Z</time>
      </trkpt>
      <trkpt lat="47.15402" lon="-1.8793">
        <ele>35.27</ele>
        <time>2020-05-17T10:41:02Z</time>
      </trkpt>
      <trkpt lat="47.15391" lon="-1.87942">
        <ele>35.01</ele>
        <time>2020-05-17T10:41:04Z</time>
      </trkpt>
      <trkpt lat="47.15381" lon="-1.87954">
        <ele>34.03</ele>
        <time>2020-05-17T10:41:06Z</time>
      </trkpt>
      <trkpt lat="47.15372" lon="-1.87967">
        <ele>32.49</ele>
        <time>2020-05-17T10:41:08Z</time>
      </trkpt>
      <trkpt lat="47.1536" lon="-1.87982">
        <ele>31.26</ele>
        <time>2020-05-17T10:41:10Z</time>
      </trkpt>
      <trkpt lat="47.15348" lon="-1.87996">
        <ele>30.65</ele>
        <time>2020-05-17T10:41:12Z</time>
      </trkpt>
      <trkpt lat="47.15338" lon="-1.88009">
        <ele>30.37</ele>
        <time>2020-05-17T10:41:14Z</time>
      </trkpt>
      <trkpt lat="47.15327" lon="-1.88021">
        <ele>30.51</ele>
        <time>2020-05-17T10:41:16Z</time>
      </trkpt>
      <trkpt lat="47.15317" lon="-1.88034">
        <ele>30.95</ele>
        <time>2020-05-17T10:41:18Z</time>
      </trkpt>
      <trkpt lat="47.15306" lon="-1.8805">
        <ele>32.12</ele>
        <time>2020-05-17T10:41:20Z</time>
      </trkpt>
      <trkpt lat="47.15296" lon="-1.88065">
        <ele>32.07</ele>
        <time>2020-05-17T10:41:22Z</time>
      </trkpt>
      <trkpt lat="47.15287" lon="-1.8808">
        <ele>32.23</ele>
        <time>2020-05-17T10:41:24Z</time>
      </trkpt>
      <trkpt lat="47.15278" lon="-1.88098">
        <ele>32.8</ele>
        <time>2020-05-17T10:41:26Z</time>
      </trkpt>
      <trkpt lat="47.1527" lon="-1.88115">
        <ele>34.16</ele>
        <time>2020-05-17T10:41:28Z</time>
      </trkpt>
      <trkpt lat="47.15262" lon="-1.88134">
        <ele>35.69</ele>
        <time>2020-05-17T10:41:30Z</time>
      </trkpt>
      <trkpt lat="47.15254" lon="-1.8815">
        <ele>36.28</ele>
        <time>2020-05-17T10:41:32Z</time>
      </trkpt>
      <trkpt lat="47.15245" lon="-1.8817">
        <ele>35.55</ele>
        <time>2020-05-17T10:41:34Z</time>
      </trkpt>
      <trkpt lat="47.15236" lon="-1.88188">
        <ele>34.46</ele>
        <time>2020-05-17T10:41:36Z</time>
      </trkpt>
      <trkpt lat="47.15228" lon="-1.88207">
        <ele>33.65</ele>
        <time>2020-05-17T10:41:38Z</time>
      </trkpt>
      <trkpt lat="47.1522" lon="-1.88226">
        <ele>33.43</ele>
        <time>2020-05-17T10:41:40Z</time>
      </trkpt>
      <trkpt lat="47.15212" lon="-1.88244">
        <ele>32.75</ele>
        <time>2020-05-17T10:41:42Z</time>
      </trkpt>
      <trkpt lat="47.15203" lon="-1.88262">
        <ele>32.18</ele>
        <time>2020-05-17T10:41:44Z</time>
      </trkpt>
      <trkpt lat="47.15195" lon="-1.88279">
        <ele>32.39</ele>
        <time>2020-05-17T10:41:46Z</time>
      </trkpt>
      <trkpt lat="47.15185" lon="-1.88299">
        <ele>32.72</ele>
        <time>2020-05-17T10:41:48Z</time>
      </trkpt>
      <trkpt lat="47.15177" lon="-1.88316">
        <ele>32.29</ele>
        <time>2020-05-17T10:41:50Z</time>
      </trkpt>
      <trkpt lat="47.15169" lon="-1.88334">
        <ele>31</ele>
        <time>2020-05-17T10:41:52Z</time>
      </trkpt>
      <trkpt lat="47.1516" lon="-1.88352">
        <ele>30.31</ele>
        <time>2020-05-17T10:41:54Z</time>
      </trkpt>
      <trkpt lat="47.15152" lon="-1.8837">
        <ele>30.14</ele>
        <time>2020-05-17T10:41:56Z</time>
      </trkpt>
      <trkpt lat="47.15145" lon="-1.88387">
        <ele>29.99</ele>
        <time>2020-05-17T10:41:58Z</time>
      </trkpt>
      <trkpt lat="47.15136" lon="-1.88405">
        <ele>29.84</ele>
        <time>2020-05-17T10:42:00Z</time>
      </trkpt>
      <trkpt lat="47.15129" lon="-1.88423">
        <ele>30</ele>
        <time>2020-05-17T10:42:02Z</time>
      </trkpt>
      <trkpt lat="47.15121" lon="-1.8844">
        <ele>29.74</ele>
        <time>2020-05-17T10:42:04Z</time>
      </trkpt>
      <trkpt lat="47.15113" lon="-1.88456">
        <ele>30.24</ele>
        <time>2020-05-17T10:42:06Z</time>
      </trkpt>
      <trkpt lat="47.15103" lon="-1.88477">
        <ele>30.43</ele>
        <time>2020-05-17T10:42:08Z</time>
      </trkpt>
      <trkpt lat="47.15096" lon="-1.88494">
        <ele>30.08</ele>
        <time>2020-05-17T10:42:10Z</time>
      </trkpt>
      <trkpt lat="47.15088" lon="-1.88512">
        <ele>29.98</ele>
        <time>2020-05-17T10:42:12Z</time>
      </trkpt>
      <trkpt lat="47.1508" lon="-1.88527">
        <ele>30</ele>
        <time>2020-05-17T10:42:14Z</time>
      </trkpt>
      <trkpt lat="47.15072" lon="-1.88545">
        <ele>29.72</ele>
        <time>2020-05-17T10:42:16Z</time>
      </trkpt>
      <trkpt lat="47.15064" lon="-1.88562">
        <ele>29.21</ele>
        <time>2020-05-17T10:42:18Z</time>
      </trkpt>
      <trkpt lat="47.15056" lon="-1.88578">
        <ele>29.12</ele>
        <time>2020-05-17T10:42:20Z</time>
      </trkpt>
      <trkpt lat="47.15047" lon="-1.88597">
        <ele>28.39</ele>
        <time>2020-05-17T10:42:22Z</time>
      </trkpt>
      <trkpt lat="47.15039" lon="-1.88615">
        <ele>27.95</ele>
        <time>2020-05-17T10:42:24Z</time>
      </trkpt>
      <trkpt lat="47.15032" lon="-1.88631">
        <ele>27.61</ele>
        <time>2020-05-17T10:42:26Z</time>
      </trkpt>
      <trkpt lat="47.15025" lon="-1.88647">
        <ele>27.41</ele>
        <time>2020-05-17T10:42:28Z</time>
      </trkpt>
      <trkpt lat="47.15017" lon="-1.88664">
        <ele>27.63</ele>
        <time>2020-05-17T10:42:30Z</time>
      </trkpt>
      <trkpt lat="47.1501" lon="-1.88679">
        <ele>27.89</ele>
        <time>2020-05-17T10:42:32Z</time>
      </trkpt>
      <trkpt lat="47.15002" lon="-1.88697">
        <ele>28.22</ele>
        <time>2020-05-17T10:42:34Z</time>
      </trkpt>
      <trkpt lat="47.14995" lon="-1.8871">
        <ele>28.64</ele>
        <time>2020-05-17T10:42:36Z</time>
      </trkpt>
      <trkpt lat="47.14987" lon="-1.88728">
        <ele>29.81</ele>
        <time>2020-05-17T10:42:38Z</time>
      </trkpt>
      <trkpt lat="47.14978" lon="-1.88747">
        <ele>30.49</ele>
        <time>2020-05-17T10:42:40Z</time>
      </trkpt>
      <trkpt lat="47.1497" lon="-1.88763">
        <ele>30.82</ele>
        <time>2020-05-17T10:42:42Z</time>
      </trkpt>
      <trkpt lat="47.14963" lon="-1.88778">
        <ele>31.6</ele>
        <time>2020-05-17T10:42:44Z</time>
      </trkpt>
      <trkpt lat="47.14955" lon="-1.88795">
        <ele>32.29</ele>
        <time>2020-05-17T10:42:46Z</time>
      </trkpt>
      <trkpt lat="47.14947" lon="-1.8881">
        <ele>33.01</ele>
        <time>2020-05-17T10:42:48Z</time>
      </trkpt>
      <trkpt lat="47.14939" lon="-1.88828">
        <ele>33.3</ele>
        <time>2020-05-17T10:42:50Z</time>
      </trkpt>
      <trkpt lat="47.14931" lon="-1.88845">
        <ele>32.52</ele>
        <time>2020-05-17T10:42:52Z</time>
      </trkpt>
      <trkpt lat="47.14923" lon="-1.88861">
        <ele>32.07</ele>
        <time>2020-05-17T10:42:54Z</time>
      </trkpt>
      <trkpt lat="47.14916" lon="-1.88876">
        <ele>31.69</ele>
        <time>2020-05-17T10:42:56Z</time>
      </trkpt>
      <trkpt lat="47.14908" lon="-1.88894">
        <ele>31.29</ele>
        <time>2020-05-17T10:42:58Z</time>
      </trkpt>
      <trkpt lat="47.149" lon="-1.88911">
        <ele>32.23</ele>
        <time>2020-05-17T10:43:00Z</time>
      </trkpt>
      <trkpt lat="47.14891" lon="-1.88929">
        <ele>32.55</ele>
        <time>2020-05-17T10:43:02Z</time>
      </trkpt>
      <trkpt lat="47.14882" lon="-1.88946">
        <ele>32.14</ele>
        <time>2020-05-17T10:43:04Z</time>
      </trkpt>
      <trkpt lat="47.14873" lon="-1.88965">
        <ele>31.87</ele>
        <time>2020-05-17T10:43:06Z</time>
      </trkpt>
      <trkpt lat="47.14864" lon="-1.88984">
        <ele>31.41</ele>
        <time>2020-05-17T10:43:08Z</time>
      </trkpt>
      <trkpt lat="47.14855" lon="-1.89003">
        <ele>29.73</ele>
        <time>2020-05-17T10:43:10Z</time>
      </trkpt>
      <trkpt lat="47.14845" lon="-1.89023">
        <ele>29.04</ele>
        <time>2020-05-17T10:43:12Z</time>
      </trkpt>
      <trkpt lat="47.14838" lon="-1.89037">
        <ele>28.46</ele>
        <time>2020-05-17T10:43:14Z</time>
      </trkpt>
      <trkpt lat="47.14832" lon="-1.89048">
        <ele>28.23</ele>
        <time>2020-05-17T10:43:15Z</time>
      </trkpt>
      <trkpt lat="47.14823" lon="-1.89068">
        <ele>27.8</ele>
        <time>2020-05-17T10:43:17Z</time>
      </trkpt>
      <trkpt lat="47.14813" lon="-1.89087">
        <ele>27.53</ele>
        <time>2020-05-17T10:43:19Z</time>
      </trkpt>
      <trkpt lat="47.14804" lon="-1.89106">
        <ele>26.67</ele>
        <time>2020-05-17T10:43:21Z</time>
      </trkpt>
      <trkpt lat="47.14794" lon="-1.89125">
        <ele>25.65</ele>
        <time>2020-05-17T10:43:23Z</time>
      </trkpt>
      <trkpt lat="47.14786" lon="-1.89141">
        <ele>25.92</ele>
        <time>2020-05-17T10:43:25Z</time>
      </trkpt>
      <trkpt lat="47.14777" lon="-1.8916">
        <ele>25.95</ele>
        <time>2020-05-17T10:43:27Z</time>
      </trkpt>
      <trkpt lat="47.14768" lon="-1.8918">
        <ele>26.31</ele>
        <time>2020-05-17T10:43:29Z</time>
      </trkpt>
      <trkpt lat="47.1476" lon="-1.89198">
        <ele>26.76</ele>
        <time>2020-05-17T10:43:31Z</time>
      </trkpt>
      <trkpt lat="47.14751" lon="-1.89219">
        <ele>26.95</ele>
        <time>2020-05-17T10:43:33Z</time>
      </trkpt>
      <trkpt lat="47.14742" lon="-1.89237">
        <ele>26.38</ele>
        <time>2020-05-17T10:43:35Z</time>
      </trkpt>
      <trkpt lat="47.14733" lon="-1.89257">
        <ele>25.76</ele>
        <time>2020-05-17T10:43:37Z</time>
      </trkpt>
      <trkpt lat="47.14724" lon="-1.89278">
        <ele>25.23</ele>
        <time>2020-05-17T10:43:39Z</time>
      </trkpt>
      <trkpt lat="47.14714" lon="-1.89298">
        <ele>25.47</ele>
        <time>2020-05-17T10:43:41Z</time>
      </trkpt>
      <trkpt lat="47.14705" lon="-1.89318">
        <ele>24.36</ele>
        <time>2020-05-17T10:43:43Z</time>
      </trkpt>
      <trkpt lat="47.14696" lon="-1.89337">
        <ele>23.07</ele>
        <time>2020-05-17T10:43:45Z</time>
      </trkpt>
      <trkpt lat="47.14687" lon="-1.89359">
        <ele>22.13</ele>
        <time>2020-05-17T10:43:47Z</time>
      </trkpt>
      <trkpt lat="47.14679" lon="-1.89378">
        <ele>22.03</ele>
        <time>2020-05-17T10:43:49Z</time>
      </trkpt>
      <trkpt lat="47.1467" lon="-1.89398">
        <ele>21.66</ele>
        <time>2020-05-17T10:43:51Z</time>
      </trkpt>
      <trkpt lat="47.14663" lon="-1.89416">
        <ele>22.13</ele>
        <time>2020-05-17T10:43:53Z</time>
      </trkpt>
      <trkpt lat="47.14655" lon="-1.89435">
        <ele>22.54</ele>
        <time>2020-05-17T10:43:55Z</time>
      </trkpt>
      <trkpt lat="47.14647" lon="-1.89456">
        <ele>23.22</ele>
        <time>2020-05-17T10:43:57Z</time>
      </trkpt>
      <trkpt lat="47.14639" lon="-1.89476">
        <ele>23.66</ele>
        <time>2020-05-17T10:43:59Z</time>
      </trkpt>
      <trkpt lat="47.14631" lon="-1.89495">
        <ele>23.95</ele>
        <time>2020-05-17T10:44:01Z</time>
      </trkpt>
      <trkpt lat="47.14624" lon="-1.89513">
        <ele>22.88</ele>
        <time>2020-05-17T10:44:03Z</time>
      </trkpt>
      <trkpt lat="47.14616" lon="-1.89531">
        <ele>22.15</ele>
        <time>2020-05-17T10:44:05Z</time>
      </trkpt>
      <trkpt lat="47.14609" lon="-1.8955">
        <ele>21.77</ele>
        <time>2020-05-17T10:44:08Z</time>
      </trkpt>
      <trkpt lat="47.14602" lon="-1.89568">
        <ele>21.31</ele>
        <time>2020-05-17T10:44:10Z</time>
      </trkpt>
      <trkpt lat="47.14594" lon="-1.89587">
        <ele>20.88</ele>
        <time>2020-05-17T10:44:12Z</time>
      </trkpt>
      <trkpt lat="47.14586" lon="-1.89605">
        <ele>20.6</ele>
        <time>2020-05-17T10:44:14Z</time>
      </trkpt>
      <trkpt lat="47.14579" lon="-1.89622">
        <ele>20.67</ele>
        <time>2020-05-17T10:44:16Z</time>
      </trkpt>
      <trkpt lat="47.14572" lon="-1.89639">
        <ele>21.06</ele>
        <time>2020-05-17T10:44:18Z</time>
      </trkpt>
      <trkpt lat="47.14568" lon="-1.89651">
        <ele>20.93</ele>
        <time>2020-05-17T10:44:19Z</time>
      </trkpt>
      <trkpt lat="47.14561" lon="-1.89667">
        <ele>21.61</ele>
        <time>2020-05-17T10:44:21Z</time>
      </trkpt>
      <trkpt lat="47.14554" lon="-1.89684">
        <ele>22.11</ele>
        <time>2020-05-17T10:44:23Z</time>
      </trkpt>
      <trkpt lat="47.14547" lon="-1.897">
        <ele>22.37</ele>
        <time>2020-05-17T10:44:25Z</time>
      </trkpt>
      <trkpt lat="47.1454" lon="-1.89715">
        <ele>22.61</ele>
        <time>2020-05-17T10:44:27Z</time>
      </trkpt>
      <trkpt lat="47.14533" lon="-1.89734">
        <ele>24.13</ele>
        <time>2020-05-17T10:44:29Z</time>
      </trkpt>
      <trkpt lat="47.14526" lon="-1.89752">
        <ele>24.73</ele>
        <time>2020-05-17T10:44:31Z</time>
      </trkpt>
      <trkpt lat="47.1452" lon="-1.89768">
        <ele>25.07</ele>
        <time>2020-05-17T10:44:33Z</time>
      </trkpt>
      <trkpt lat="47.14513" lon="-1.89786">
        <ele>24.41</ele>
        <time>2020-05-17T10:44:35Z</time>
      </trkpt>
      <trkpt lat="47.14506" lon="-1.89803">
        <ele>23.4</ele>
        <time>2020-05-17T10:44:37Z</time>
      </trkpt>
      <trkpt lat="47.145" lon="-1.89819">
        <ele>22.7</ele>
        <time>2020-05-17T10:44:39Z</time>
      </trkpt>
      <trkpt lat="47.14494" lon="-1.89835">
        <ele>23.22</ele>
        <time>2020-05-17T10:44:41Z</time>
      </trkpt>
      <trkpt lat="47.14486" lon="-1.89855">
        <ele>23.84</ele>
        <time>2020-05-17T10:44:43Z</time>
      </trkpt>
      <trkpt lat="47.14478" lon="-1.89874">
        <ele>24.16</ele>
        <time>2020-05-17T10:44:45Z</time>
      </trkpt>
      <trkpt lat="47.14469" lon="-1.89894">
        <ele>24.13</ele>
        <time>2020-05-17T10:44:47Z</time>
      </trkpt>
      <trkpt lat="47.14461" lon="-1.89912">
        <ele>24.43</ele>
        <time>2020-05-17T10:44:49Z</time>
      </trkpt>
      <trkpt lat="47.14454" lon="-1.8993">
        <ele>24.46</ele>
        <time>2020-05-17T10:44:51Z</time>
      </trkpt>
      <trkpt lat="47.14447" lon="-1.89949">
        <ele>24.56</ele>
        <time>2020-05-17T10:44:53Z</time>
      </trkpt>
      <trkpt lat="47.14439" lon="-1.89966">
        <ele>24.62</ele>
        <time>2020-05-17T10:44:55Z</time>
      </trkpt>
      <trkpt lat="47.14433" lon="-1.89983">
        <ele>24.68</ele>
        <time>2020-05-17T10:44:57Z</time>
      </trkpt>
      <trkpt lat="47.14425" lon="-1.90001">
        <ele>24.59</ele>
        <time>2020-05-17T10:44:59Z</time>
      </trkpt>
      <trkpt lat="47.14417" lon="-1.90018">
        <ele>24.47</ele>
        <time>2020-05-17T10:45:01Z</time>
      </trkpt>
      <trkpt lat="47.14409" lon="-1.90037">
        <ele>25.01</ele>
        <time>2020-05-17T10:45:03Z</time>
      </trkpt>
      <trkpt lat="47.14402" lon="-1.90054">
        <ele>25.62</ele>
        <time>2020-05-17T10:45:05Z</time>
      </trkpt>
      <trkpt lat="47.14395" lon="-1.90071">
        <ele>26.38</ele>
        <time>2020-05-17T10:45:07Z</time>
      </trkpt>
      <trkpt lat="47.14388" lon="-1.90087">
        <ele>26.7</ele>
        <time>2020-05-17T10:45:09Z</time>
      </trkpt>
      <trkpt lat="47.14381" lon="-1.90104">
        <ele>27.08</ele>
        <time>2020-05-17T10:45:11Z</time>
      </trkpt>
      <trkpt lat="47.14374" lon="-1.90123">
        <ele>27.91</ele>
        <time>2020-05-17T10:45:13Z</time>
      </trkpt>
      <trkpt lat="47.14368" lon="-1.9014">
        <ele>28.73</ele>
        <time>2020-05-17T10:45:15Z</time>
      </trkpt>
      <trkpt lat="47.14361" lon="-1.90156">
        <ele>28.09</ele>
        <time>2020-05-17T10:45:17Z</time>
      </trkpt>
      <trkpt lat="47.14355" lon="-1.9017">
        <ele>26.8</ele>
        <time>2020-05-17T10:45:19Z</time>
      </trkpt>
      <trkpt lat="47.14349" lon="-1.90185">
        <ele>25.84</ele>
        <time>2020-05-17T10:45:21Z</time>
      </trkpt>
      <trkpt lat="47.14342" lon="-1.90203">
        <ele>24.56</ele>
        <time>2020-05-17T10:45:23Z</time>
      </trkpt>
      <trkpt lat="47.14335" lon="-1.90219">
        <ele>23.73</ele>
        <time>2020-05-17T10:45:25Z</time>
      </trkpt>
      <trkpt lat="47.14328" lon="-1.90237">
        <ele>23.01</ele>
        <time>2020-05-17T10:45:27Z</time>
      </trkpt>
      <trkpt lat="47.14321" lon="-1.90255">
        <ele>22.83</ele>
        <time>2020-05-17T10:45:29Z</time>
      </trkpt>
      <trkpt lat="47.14314" lon="-1.90273">
        <ele>22.95</ele>
        <time>2020-05-17T10:45:31Z</time>
      </trkpt>
      <trkpt lat="47.14307" lon="-1.90291">
        <ele>23.09</ele>
        <time>2020-05-17T10:45:33Z</time>
      </trkpt>
      <trkpt lat="47.143" lon="-1.90308">
        <ele>23.08</ele>
        <time>2020-05-17T10:45:35Z</time>
      </trkpt>
      <trkpt lat="47.14293" lon="-1.90323">
        <ele>22.65</ele>
        <time>2020-05-17T10:45:37Z</time>
      </trkpt>
      <trkpt lat="47.14285" lon="-1.90342">
        <ele>22.33</ele>
        <time>2020-05-17T10:45:39Z</time>
      </trkpt>
      <trkpt lat="47.14278" lon="-1.9036">
        <ele>22.24</ele>
        <time>2020-05-17T10:45:41Z</time>
      </trkpt>
      <trkpt lat="47.14269" lon="-1.90378">
        <ele>21.58</ele>
        <time>2020-05-17T10:45:43Z</time>
      </trkpt>
      <trkpt lat="47.14263" lon="-1.90394">
        <ele>21.43</ele>
        <time>2020-05-17T10:45:45Z</time>
      </trkpt>
      <trkpt lat="47.14255" lon="-1.90412">
        <ele>21.63</ele>
        <time>2020-05-17T10:45:47Z</time>
      </trkpt>
      <trkpt lat="47.14248" lon="-1.90428">
        <ele>21.82</ele>
        <time>2020-05-17T10:45:49Z</time>
      </trkpt>
      <trkpt lat="47.1424" lon="-1.90445">
        <ele>22.49</ele>
        <time>2020-05-17T10:45:51Z</time>
      </trkpt>
      <trkpt lat="47.14233" lon="-1.90462">
        <ele>23.45</ele>
        <time>2020-05-17T10:45:53Z</time>
      </trkpt>
      <trkpt lat="47.14226" lon="-1.90479">
        <ele>24.02</ele>
        <time>2020-05-17T10:45:55Z</time>
      </trkpt>
      <trkpt lat="47.14219" lon="-1.90495">
        <ele>24.1</ele>
        <time>2020-05-17T10:45:57Z</time>
      </trkpt>
      <trkpt lat="47.14211" lon="-1.90513">
        <ele>23.42</ele>
        <time>2020-05-17T10:45:59Z</time>
      </trkpt>
      <trkpt lat="47.14203" lon="-1.90532">
        <ele>22.72</ele>
        <time>2020-05-17T10:46:01Z</time>
      </trkpt>
      <trkpt lat="47.14197" lon="-1.90548">
        <ele>22.14</ele>
        <time>2020-05-17T10:46:03Z</time>
      </trkpt>
      <trkpt lat="47.14189" lon="-1.90566">
        <ele>21.66</ele>
        <time>2020-05-17T10:46:05Z</time>
      </trkpt>
      <trkpt lat="47.14182" lon="-1.90584">
        <ele>22.61</ele>
        <time>2020-05-17T10:46:07Z</time>
      </trkpt>
      <trkpt lat="47.14175" lon="-1.906">
        <ele>22.59</ele>
        <time>2020-05-17T10:46:09Z</time>
      </trkpt>
      <trkpt lat="47.14166" lon="-1.90613">
        <ele>22.01</ele>
        <time>2020-05-17T10:46:11Z</time>
      </trkpt>
      <trkpt lat="47.14153" lon="-1.90622">
        <ele>22.06</ele>
        <time>2020-05-17T10:46:13Z</time>
      </trkpt>
      <trkpt lat="47.1414" lon="-1.90625">
        <ele>21.88</ele>
        <time>2020-05-17T10:46:15Z</time>
      </trkpt>
      <trkpt lat="47.14125" lon="-1.90628">
        <ele>21.78</ele>
        <time>2020-05-17T10:46:17Z</time>
      </trkpt>
      <trkpt lat="47.1411" lon="-1.90628">
        <ele>21.29</ele>
        <time>2020-05-17T10:46:19Z</time>
      </trkpt>
      <trkpt lat="47.14094" lon="-1.90628">
        <ele>20.93</ele>
        <time>2020-05-17T10:46:21Z</time>
      </trkpt>
      <trkpt lat="47.14078" lon="-1.90628">
        <ele>21.28</ele>
        <time>2020-05-17T10:46:23Z</time>
      </trkpt>
      <trkpt lat="47.14066" lon="-1.90628">
        <ele>21.96</ele>
        <time>2020-05-17T10:46:25Z</time>
      </trkpt>
      <trkpt lat="47.14051" lon="-1.90628">
        <ele>22.55</ele>
        <time>2020-05-17T10:46:27Z</time>
      </trkpt>
      <trkpt lat="47.14036" lon="-1.9063">
        <ele>22.83</ele>
        <time>2020-05-17T10:46:29Z</time>
      </trkpt>
      <trkpt lat="47.14023" lon="-1.90632">
        <ele>23.44</ele>
        <time>2020-05-17T10:46:31Z</time>
      </trkpt>
      <trkpt lat="47.14009" lon="-1.90635">
        <ele>23.71</ele>
        <time>2020-05-17T10:46:33Z</time>
      </trkpt>
      <trkpt lat="47.13995" lon="-1.90638">
        <ele>23.38</ele>
        <time>2020-05-17T10:46:35Z</time>
      </trkpt>
      <trkpt lat="47.13979" lon="-1.90641">
        <ele>22.57</ele>
        <time>2020-05-17T10:46:37Z</time>
      </trkpt>
      <trkpt lat="47.13963" lon="-1.90644">
        <ele>21.44</ele>
        <time>2020-05-17T10:46:39Z</time>
      </trkpt>
      <trkpt lat="47.13949" lon="-1.90648">
        <ele>20.15</ele>
        <time>2020-05-17T10:46:41Z</time>
      </trkpt>
      <trkpt lat="47.13934" lon="-1.90651">
        <ele>19.67</ele>
        <time>2020-05-17T10:46:43Z</time>
      </trkpt>
      <trkpt lat="47.1392" lon="-1.90654">
        <ele>20.33</ele>
        <time>2020-05-17T10:46:45Z</time>
      </trkpt>
      <trkpt lat="47.13906" lon="-1.90656">
        <ele>21.04</ele>
        <time>2020-05-17T10:46:47Z</time>
      </trkpt>
      <trkpt lat="47.13891" lon="-1.90658">
        <ele>21.53</ele>
        <time>2020-05-17T10:46:49Z</time>
      </trkpt>
      <trkpt lat="47.13876" lon="-1.90663">
        <ele>21.74</ele>
        <time>2020-05-17T10:46:51Z</time>
      </trkpt>
      <trkpt lat="47.13862" lon="-1.90667">
        <ele>21.61</ele>
        <time>2020-05-17T10:46:53Z</time>
      </trkpt>
      <trkpt lat="47.13847" lon="-1.90672">
        <ele>21.28</ele>
        <time>2020-05-17T10:46:55Z</time>
      </trkpt>
      <trkpt lat="47.13834" lon="-1.90677">
        <ele>20.55</ele>
        <time>2020-05-17T10:46:57Z</time>
      </trkpt>
      <trkpt lat="47.13819" lon="-1.90679">
        <ele>19.92</ele>
        <time>2020-05-17T10:46:59Z</time>
      </trkpt>
      <trkpt lat="47.13804" lon="-1.90683">
        <ele>19.24</ele>
        <time>2020-05-17T10:47:01Z</time>
      </trkpt>
      <trkpt lat="47.13788" lon="-1.90687">
        <ele>19.26</ele>
        <time>2020-05-17T10:47:03Z</time>
      </trkpt>
      <trkpt lat="47.13771" lon="-1.90693">
        <ele>18.41</ele>
        <time>2020-05-17T10:47:05Z</time>
      </trkpt>
      <trkpt lat="47.13755" lon="-1.90702">
        <ele>17.64</ele>
        <time>2020-05-17T10:47:07Z</time>
      </trkpt>
      <trkpt lat="47.13743" lon="-1.90718">
        <ele>17.15</ele>
        <time>2020-05-17T10:47:09Z</time>
      </trkpt>
      <trkpt lat="47.13736" lon="-1.90728">
        <ele>16.8</ele>
        <time>2020-05-17T10:47:10Z</time>
      </trkpt>
      <trkpt lat="47.13731" lon="-1.9074">
        <ele>16.41</ele>
        <time>2020-05-17T10:47:11Z</time>
      </trkpt>
      <trkpt lat="47.13722" lon="-1.9076">
        <ele>14.97</ele>
        <time>2020-05-17T10:47:13Z</time>
      </trkpt>
      <trkpt lat="47.13714" lon="-1.90779">
        <ele>14.02</ele>
        <time>2020-05-17T10:47:15Z</time>
      </trkpt>
      <trkpt lat="47.13706" lon="-1.90799">
        <ele>14.05</ele>
        <time>2020-05-17T10:47:17Z</time>
      </trkpt>
      <trkpt lat="47.13697" lon="-1.9082">
        <ele>13.57</ele>
        <time>2020-05-17T10:47:19Z</time>
      </trkpt>
      <trkpt lat="47.13691" lon="-1.90836">
        <ele>13.32</ele>
        <time>2020-05-17T10:47:21Z</time>
      </trkpt>
      <trkpt lat="47.13683" lon="-1.90856">
        <ele>12.98</ele>
        <time>2020-05-17T10:47:23Z</time>
      </trkpt>
      <trkpt lat="47.13676" lon="-1.90874">
        <ele>12.9</ele>
        <time>2020-05-17T10:47:25Z</time>
      </trkpt>
      <trkpt lat="47.13668" lon="-1.90894">
        <ele>13.4</ele>
        <time>2020-05-17T10:47:27Z</time>
      </trkpt>
      <trkpt lat="47.13661" lon="-1.90912">
        <ele>13.63</ele>
        <time>2020-05-17T10:47:29Z</time>
      </trkpt>
      <trkpt lat="47.13652" lon="-1.90933">
        <ele>13.3</ele>
        <time>2020-05-17T10:47:31Z</time>
      </trkpt>
      <trkpt lat="47.13644" lon="-1.90952">
        <ele>13.33</ele>
        <time>2020-05-17T10:47:33Z</time>
      </trkpt>
      <trkpt lat="47.13636" lon="-1.90973">
        <ele>13.9</ele>
        <time>2020-05-17T10:47:35Z</time>
      </trkpt>
      <trkpt lat="47.13628" lon="-1.9099">
        <ele>14.37</ele>
        <time>2020-05-17T10:47:37Z</time>
      </trkpt>
      <trkpt lat="47.13622" lon="-1.91005">
        <ele>14.46</ele>
        <time>2020-05-17T10:47:39Z</time>
      </trkpt>
      <trkpt lat="47.13614" lon="-1.9102">
        <ele>14.15</ele>
        <time>2020-05-17T10:47:41Z</time>
      </trkpt>
      <trkpt lat="47.13606" lon="-1.91037">
        <ele>13.75</ele>
        <time>2020-05-17T10:47:43Z</time>
      </trkpt>
      <trkpt lat="47.13594" lon="-1.91045">
        <ele>13.4</ele>
        <time>2020-05-17T10:47:45Z</time>
      </trkpt>
      <trkpt lat="47.13581" lon="-1.91052">
        <ele>13.14</ele>
        <time>2020-05-17T10:47:47Z</time>
      </trkpt>
      <trkpt lat="47.13566" lon="-1.91058">
        <ele>12.52</ele>
        <time>2020-05-17T10:47:49Z</time>
      </trkpt>
      <trkpt lat="47.13552" lon="-1.91059">
        <ele>11.95</ele>
        <time>2020-05-17T10:47:51Z</time>
      </trkpt>
      <trkpt lat="47.13537" lon="-1.9106">
        <ele>11.72</ele>
        <time>2020-05-17T10:47:53Z</time>
      </trkpt>
      <trkpt lat="47.13522" lon="-1.91059">
        <ele>11.43</ele>
        <time>2020-05-17T10:47:55Z</time>
      </trkpt>
      <trkpt lat="47.13507" lon="-1.9106">
        <ele>10.75</ele>
        <time>2020-05-17T10:47:57Z</time>
      </trkpt>
      <trkpt lat="47.13493" lon="-1.9106">
        <ele>11.47</ele>
        <time>2020-05-17T10:47:59Z</time>
      </trkpt>
      <trkpt lat="47.13477" lon="-1.91062">
        <ele>11.88</ele>
        <time>2020-05-17T10:48:01Z</time>
      </trkpt>
      <trkpt lat="47.13461" lon="-1.91063">
        <ele>11.95</ele>
        <time>2020-05-17T10:48:03Z</time>
      </trkpt>
      <trkpt lat="47.13446" lon="-1.91063">
        <ele>12.05</ele>
        <time>2020-05-17T10:48:05Z</time>
      </trkpt>
      <trkpt lat="47.13432" lon="-1.91063">
        <ele>12.32</ele>
        <time>2020-05-17T10:48:07Z</time>
      </trkpt>
      <trkpt lat="47.13419" lon="-1.91062">
        <ele>12.25</ele>
        <time>2020-05-17T10:48:09Z</time>
      </trkpt>
      <trkpt lat="47.13406" lon="-1.91057">
        <ele>11.33</ele>
        <time>2020-05-17T10:48:11Z</time>
      </trkpt>
      <trkpt lat="47.13394" lon="-1.91048">
        <ele>11.13</ele>
        <time>2020-05-17T10:48:13Z</time>
      </trkpt>
      <trkpt lat="47.13381" lon="-1.91037">
        <ele>10.96</ele>
        <time>2020-05-17T10:48:15Z</time>
      </trkpt>
      <trkpt lat="47.13369" lon="-1.91026">
        <ele>10.98</ele>
        <time>2020-05-17T10:48:17Z</time>
      </trkpt>
      <trkpt lat="47.13358" lon="-1.91013">
        <ele>10.37</ele>
        <time>2020-05-17T10:48:19Z</time>
      </trkpt>
      <trkpt lat="47.13347" lon="-1.91003">
        <ele>11.07</ele>
        <time>2020-05-17T10:48:21Z</time>
      </trkpt>
      <trkpt lat="47.13335" lon="-1.90999">
        <ele>11.93</ele>
        <time>2020-05-17T10:48:23Z</time>
      </trkpt>
      <trkpt lat="47.1332" lon="-1.90998">
        <ele>11.56</ele>
        <time>2020-05-17T10:48:25Z</time>
      </trkpt>
      <trkpt lat="47.13306" lon="-1.91">
        <ele>10.39</ele>
        <time>2020-05-17T10:48:27Z</time>
      </trkpt>
      <trkpt lat="47.13293" lon="-1.91003">
        <ele>9.84</ele>
        <time>2020-05-17T10:48:29Z</time>
      </trkpt>
      <trkpt lat="47.1328" lon="-1.91008">
        <ele>9.6</ele>
        <time>2020-05-17T10:48:31Z</time>
      </trkpt>
      <trkpt lat="47.13268" lon="-1.91013">
        <ele>9.82</ele>
        <time>2020-05-17T10:48:33Z</time>
      </trkpt>
      <trkpt lat="47.13254" lon="-1.91018">
        <ele>10.42</ele>
        <time>2020-05-17T10:48:35Z</time>
      </trkpt>
      <trkpt lat="47.1324" lon="-1.91022">
        <ele>10.81</ele>
        <time>2020-05-17T10:48:37Z</time>
      </trkpt>
      <trkpt lat="47.13227" lon="-1.91026">
        <ele>11.01</ele>
        <time>2020-05-17T10:48:39Z</time>
      </trkpt>
      <trkpt lat="47.13214" lon="-1.9103">
        <ele>10.74</ele>
        <time>2020-05-17T10:48:41Z</time>
      </trkpt>
      <trkpt lat="47.13201" lon="-1.91034">
        <ele>10.32</ele>
        <time>2020-05-17T10:48:43Z</time>
      </trkpt>
      <trkpt lat="47.13187" lon="-1.91037">
        <ele>10</ele>
        <time>2020-05-17T10:48:45Z</time>
      </trkpt>
      <trkpt lat="47.13173" lon="-1.91042">
        <ele>9.51</ele>
        <time>2020-05-17T10:48:47Z</time>
      </trkpt>
      <trkpt lat="47.13158" lon="-1.91046">
        <ele>9.39</ele>
        <time>2020-05-17T10:48:49Z</time>
      </trkpt>
      <trkpt lat="47.13146" lon="-1.91049">
        <ele>8.97</ele>
        <time>2020-05-17T10:48:51Z</time>
      </trkpt>
      <trkpt lat="47.13135" lon="-1.91052">
        <ele>8.79</ele>
        <time>2020-05-17T10:48:53Z</time>
      </trkpt>
      <trkpt lat="47.13122" lon="-1.91056">
        <ele>9.08</ele>
        <time>2020-05-17T10:48:55Z</time>
      </trkpt>
      <trkpt lat="47.13108" lon="-1.91058">
        <ele>9.07</ele>
        <time>2020-05-17T10:48:57Z</time>
      </trkpt>
      <trkpt lat="47.13094" lon="-1.91061">
        <ele>8.9</ele>
        <time>2020-05-17T10:48:59Z</time>
      </trkpt>
      <trkpt lat="47.13081" lon="-1.91062">
        <ele>8.67</ele>
        <time>2020-05-17T10:49:01Z</time>
      </trkpt>
      <trkpt lat="47.13067" lon="-1.91063">
        <ele>8.63</ele>
        <time>2020-05-17T10:49:03Z</time>
      </trkpt>
      <trkpt lat="47.13054" lon="-1.91063">
        <ele>8.93</ele>
        <time>2020-05-17T10:49:05Z</time>
      </trkpt>
      <trkpt lat="47.13042" lon="-1.91063">
        <ele>9.29</ele>
        <time>2020-05-17T10:49:07Z</time>
      </trkpt>
      <trkpt lat="47.13029" lon="-1.91063">
        <ele>9.66</ele>
        <time>2020-05-17T10:49:09Z</time>
      </trkpt>
      <trkpt lat="47.13014" lon="-1.91062">
        <ele>9.95</ele>
        <time>2020-05-17T10:49:11Z</time>
      </trkpt>
      <trkpt lat="47.12999" lon="-1.9106">
        <ele>10.22</ele>
        <time>2020-05-17T10:49:13Z</time>
      </trkpt>
      <trkpt lat="47.12986" lon="-1.91059">
        <ele>10.75</ele>
        <time>2020-05-17T10:49:15Z</time>
      </trkpt>
      <trkpt lat="47.12972" lon="-1.91059">
        <ele>10.9</ele>
        <time>2020-05-17T10:49:17Z</time>
      </trkpt>
      <trkpt lat="47.12958" lon="-1.9106">
        <ele>11.11</ele>
        <time>2020-05-17T10:49:19Z</time>
      </trkpt>
      <trkpt lat="47.12945" lon="-1.91059">
        <ele>12.19</ele>
        <time>2020-05-17T10:49:21Z</time>
      </trkpt>
      <trkpt lat="47.12931" lon="-1.91059">
        <ele>12.59</ele>
        <time>2020-05-17T10:49:23Z</time>
      </trkpt>
      <trkpt lat="47.12916" lon="-1.91058">
        <ele>13.14</ele>
        <time>2020-05-17T10:49:25Z</time>
      </trkpt>
      <trkpt lat="47.12903" lon="-1.91058">
        <ele>13.58</ele>
        <time>2020-05-17T10:49:27Z</time>
      </trkpt>
      <trkpt lat="47.12888" lon="-1.91058">
        <ele>13.72</ele>
        <time>2020-05-17T10:49:29Z</time>
      </trkpt>
      <trkpt lat="47.12873" lon="-1.91059">
        <ele>13</ele>
        <time>2020-05-17T10:49:31Z</time>
      </trkpt>
      <trkpt lat="47.1286" lon="-1.91058">
        <ele>12.44</ele>
        <time>2020-05-17T10:49:33Z</time>
      </trkpt>
      <trkpt lat="47.12846" lon="-1.91059">
        <ele>12.09</ele>
        <time>2020-05-17T10:49:35Z</time>
      </trkpt>
      <trkpt lat="47.12831" lon="-1.9106">
        <ele>11.2</ele>
        <time>2020-05-17T10:49:37Z</time>
      </trkpt>
      <trkpt lat="47.12819" lon="-1.9107">
        <ele>10.78</ele>
        <time>2020-05-17T10:49:39Z</time>
      </trkpt>
      <trkpt lat="47.12807" lon="-1.9108">
        <ele>10.71</ele>
        <time>2020-05-17T10:49:41Z</time>
      </trkpt>
      <trkpt lat="47.12795" lon="-1.91092">
        <ele>10.99</ele>
        <time>2020-05-17T10:49:43Z</time>
      </trkpt>
      <trkpt lat="47.12784" lon="-1.91092">
        <ele>10.85</ele>
        <time>2020-05-17T10:49:45Z</time>
      </trkpt>
      <trkpt lat="47.12775" lon="-1.91081">
        <ele>9.82</ele>
        <time>2020-05-17T10:49:47Z</time>
      </trkpt>
      <trkpt lat="47.12763" lon="-1.91073">
        <ele>9.32</ele>
        <time>2020-05-17T10:49:49Z</time>
      </trkpt>
      <trkpt lat="47.12752" lon="-1.91063">
        <ele>9.22</ele>
        <time>2020-05-17T10:49:51Z</time>
      </trkpt>
      <trkpt lat="47.12738" lon="-1.9106">
        <ele>10.11</ele>
        <time>2020-05-17T10:49:53Z</time>
      </trkpt>
      <trkpt lat="47.12723" lon="-1.91059">
        <ele>11.3</ele>
        <time>2020-05-17T10:49:55Z</time>
      </trkpt>
      <trkpt lat="47.12709" lon="-1.91058">
        <ele>11.78</ele>
        <time>2020-05-17T10:49:57Z</time>
      </trkpt>
      <trkpt lat="47.12694" lon="-1.91058">
        <ele>11.92</ele>
        <time>2020-05-17T10:49:59Z</time>
      </trkpt>
      <trkpt lat="47.12679" lon="-1.91064">
        <ele>12.42</ele>
        <time>2020-05-17T10:50:01Z</time>
      </trkpt>
      <trkpt lat="47.12663" lon="-1.91066">
        <ele>11.91</ele>
        <time>2020-05-17T10:50:03Z</time>
      </trkpt>
      <trkpt lat="47.12648" lon="-1.91066">
        <ele>11.02</ele>
        <time>2020-05-17T10:50:05Z</time>
      </trkpt>
      <trkpt lat="47.12634" lon="-1.91067">
        <ele>10.18</ele>
        <time>2020-05-17T10:50:07Z</time>
      </trkpt>
      <trkpt lat="47.1262" lon="-1.91067">
        <ele>9.5</ele>
        <time>2020-05-17T10:50:09Z</time>
      </trkpt>
      <trkpt lat="47.12606" lon="-1.91066">
        <ele>9.38</ele>
        <time>2020-05-17T10:50:11Z</time>
      </trkpt>
      <trkpt lat="47.12592" lon="-1.91066">
        <ele>9.44</ele>
        <time>2020-05-17T10:50:13Z</time>
      </trkpt>
      <trkpt lat="47.12578" lon="-1.91065">
        <ele>9.41</ele>
        <time>2020-05-17T10:50:15Z</time>
      </trkpt>
      <trkpt lat="47.12565" lon="-1.91066">
        <ele>9.74</ele>
        <time>2020-05-17T10:50:17Z</time>
      </trkpt>
      <trkpt lat="47.12552" lon="-1.91066">
        <ele>10.29</ele>
        <time>2020-05-17T10:50:19Z</time>
      </trkpt>
      <trkpt lat="47.12537" lon="-1.91067">
        <ele>11.68</ele>
        <time>2020-05-17T10:50:21Z</time>
      </trkpt>
      <trkpt lat="47.12524" lon="-1.91067">
        <ele>12.07</ele>
        <time>2020-05-17T10:50:23Z</time>
      </trkpt>
      <trkpt lat="47.12509" lon="-1.91068">
        <ele>11.5</ele>
        <time>2020-05-17T10:50:25Z</time>
      </trkpt>
      <trkpt lat="47.12493" lon="-1.91072">
        <ele>10.75</ele>
        <time>2020-05-17T10:50:27Z</time>
      </trkpt>
      <trkpt lat="47.12478" lon="-1.91076">
        <ele>9.7</ele>
        <time>2020-05-17T10:50:29Z</time>
      </trkpt>
      <trkpt lat="47.12466" lon="-1.91081">
        <ele>9.05</ele>
        <time>2020-05-17T10:50:31Z</time>
      </trkpt>
      <trkpt lat="47.12455" lon="-1.91082">
        <ele>8.64</ele>
        <time>2020-05-17T10:50:33Z</time>
      </trkpt>
      <trkpt lat="47.12445" lon="-1.91086">
        <ele>8.39</ele>
        <time>2020-05-17T10:50:35Z</time>
      </trkpt>
      <trkpt lat="47.12432" lon="-1.91091">
        <ele>9.34</ele>
        <time>2020-05-17T10:50:37Z</time>
      </trkpt>
      <trkpt lat="47.12417" lon="-1.91098">
        <ele>9.78</ele>
        <time>2020-05-17T10:50:39Z</time>
      </trkpt>
      <trkpt lat="47.12404" lon="-1.91106">
        <ele>9.7</ele>
        <time>2020-05-17T10:50:41Z</time>
      </trkpt>
      <trkpt lat="47.12391" lon="-1.91117">
        <ele>9.85</ele>
        <time>2020-05-17T10:50:43Z</time>
      </trkpt>
      <trkpt lat="47.12381" lon="-1.91135">
        <ele>9.75</ele>
        <time>2020-05-17T10:50:45Z</time>
      </trkpt>
      <trkpt lat="47.12373" lon="-1.9115">
        <ele>9.3</ele>
        <time>2020-05-17T10:50:47Z</time>
      </trkpt>
      <trkpt lat="47.12365" lon="-1.91164">
        <ele>9.36</ele>
        <time>2020-05-17T10:50:49Z</time>
      </trkpt>
      <trkpt lat="47.12356" lon="-1.91181">
        <ele>9.44</ele>
        <time>2020-05-17T10:50:51Z</time>
      </trkpt>
      <trkpt lat="47.12348" lon="-1.912">
        <ele>8.93</ele>
        <time>2020-05-17T10:50:53Z</time>
      </trkpt>
      <trkpt lat="47.12341" lon="-1.91218">
        <ele>9.07</ele>
        <time>2020-05-17T10:50:55Z</time>
      </trkpt>
      <trkpt lat="47.12333" lon="-1.91234">
        <ele>10.22</ele>
        <time>2020-05-17T10:50:57Z</time>
      </trkpt>
      <trkpt lat="47.12326" lon="-1.91248">
        <ele>10.51</ele>
        <time>2020-05-17T10:50:59Z</time>
      </trkpt>
      <trkpt lat="47.12317" lon="-1.91266">
        <ele>10.49</ele>
        <time>2020-05-17T10:51:01Z</time>
      </trkpt>
      <trkpt lat="47.12309" lon="-1.91283">
        <ele>10.24</ele>
        <time>2020-05-17T10:51:03Z</time>
      </trkpt>
      <trkpt lat="47.12301" lon="-1.91298">
        <ele>10.29</ele>
        <time>2020-05-17T10:51:05Z</time>
      </trkpt>
      <trkpt lat="47.12292" lon="-1.91315">
        <ele>9.66</ele>
        <time>2020-05-17T10:51:07Z</time>
      </trkpt>
      <trkpt lat="47.12285" lon="-1.9133">
        <ele>8.54</ele>
        <time>2020-05-17T10:51:09Z</time>
      </trkpt>
      <trkpt lat="47.12277" lon="-1.91346">
        <ele>7.73</ele>
        <time>2020-05-17T10:51:11Z</time>
      </trkpt>
      <trkpt lat="47.12269" lon="-1.91361">
        <ele>7.73</ele>
        <time>2020-05-17T10:51:13Z</time>
      </trkpt>
      <trkpt lat="47.1226" lon="-1.91375">
        <ele>7.64</ele>
        <time>2020-05-17T10:51:15Z</time>
      </trkpt>
      <trkpt lat="47.12253" lon="-1.91388">
        <ele>7.09</ele>
        <time>2020-05-17T10:51:17Z</time>
      </trkpt>
      <trkpt lat="47.12243" lon="-1.91404">
        <ele>6.73</ele>
        <time>2020-05-17T10:51:19Z</time>
      </trkpt>
      <trkpt lat="47.12236" lon="-1.91419">
        <ele>6.97</ele>
        <time>2020-05-17T10:51:21Z</time>
      </trkpt>
      <trkpt lat="47.12226" lon="-1.91424">
        <ele>7.6</ele>
        <time>2020-05-17T10:51:23Z</time>
      </trkpt>
      <trkpt lat="47.12215" lon="-1.9141">
        <ele>7.59</ele>
        <time>2020-05-17T10:51:25Z</time>
      </trkpt>
      <trkpt lat="47.12204" lon="-1.91399">
        <ele>7.58</ele>
        <time>2020-05-17T10:51:27Z</time>
      </trkpt>
      <trkpt lat="47.12192" lon="-1.91386">
        <ele>7.02</ele>
        <time>2020-05-17T10:51:29Z</time>
      </trkpt>
      <trkpt lat="47.12182" lon="-1.91371">
        <ele>7.74</ele>
        <time>2020-05-17T10:51:31Z</time>
      </trkpt>
      <trkpt lat="47.12173" lon="-1.91358">
        <ele>9</ele>
        <time>2020-05-17T10:51:33Z</time>
      </trkpt>
      <trkpt lat="47.12164" lon="-1.91346">
        <ele>9.88</ele>
        <time>2020-05-17T10:51:35Z</time>
      </trkpt>
      <trkpt lat="47.12155" lon="-1.91333">
        <ele>10.59</ele>
        <time>2020-05-17T10:51:37Z</time>
      </trkpt>
      <trkpt lat="47.12146" lon="-1.91319">
        <ele>11.35</ele>
        <time>2020-05-17T10:51:39Z</time>
      </trkpt>
      <trkpt lat="47.12138" lon="-1.91307">
        <ele>12.47</ele>
        <time>2020-05-17T10:51:41Z</time>
      </trkpt>
      <trkpt lat="47.1213" lon="-1.91296">
        <ele>12.77</ele>
        <time>2020-05-17T10:51:43Z</time>
      </trkpt>
      <trkpt lat="47.12119" lon="-1.91282">
        <ele>12.32</ele>
        <time>2020-05-17T10:51:45Z</time>
      </trkpt>
      <trkpt lat="47.12109" lon="-1.91269">
        <ele>12</ele>
        <time>2020-05-17T10:51:47Z</time>
      </trkpt>
      <trkpt lat="47.12098" lon="-1.91256">
        <ele>11.48</ele>
        <time>2020-05-17T10:51:49Z</time>
      </trkpt>
      <trkpt lat="47.12087" lon="-1.91244">
        <ele>10.77</ele>
        <time>2020-05-17T10:51:51Z</time>
      </trkpt>
      <trkpt lat="47.12076" lon="-1.91233">
        <ele>10.41</ele>
        <time>2020-05-17T10:51:53Z</time>
      </trkpt>
      <trkpt lat="47.12065" lon="-1.91222">
        <ele>10.36</ele>
        <time>2020-05-17T10:51:55Z</time>
      </trkpt>
      <trkpt lat="47.12052" lon="-1.91211">
        <ele>10.59</ele>
        <time>2020-05-17T10:51:57Z</time>
      </trkpt>
      <trkpt lat="47.12039" lon="-1.91199">
        <ele>9.72</ele>
        <time>2020-05-17T10:51:59Z</time>
      </trkpt>
      <trkpt lat="47.12028" lon="-1.91188">
        <ele>9.45</ele>
        <time>2020-05-17T10:52:01Z</time>
      </trkpt>
      <trkpt lat="47.12018" lon="-1.91176">
        <ele>9.91</ele>
        <time>2020-05-17T10:52:03Z</time>
      </trkpt>
      <trkpt lat="47.12006" lon="-1.91159">
        <ele>9.83</ele>
        <time>2020-05-17T10:52:05Z</time>
      </trkpt>
      <trkpt lat="47.11997" lon="-1.91142">
        <ele>9.8</ele>
        <time>2020-05-17T10:52:07Z</time>
      </trkpt>
      <trkpt lat="47.11989" lon="-1.91126">
        <ele>9.54</ele>
        <time>2020-05-17T10:52:09Z</time>
      </trkpt>
      <trkpt lat="47.1198" lon="-1.91109">
        <ele>9.37</ele>
        <time>2020-05-17T10:52:11Z</time>
      </trkpt>
      <trkpt lat="47.11973" lon="-1.91093">
        <ele>9.48</ele>
        <time>2020-05-17T10:52:13Z</time>
      </trkpt>
      <trkpt lat="47.11965" lon="-1.91078">
        <ele>9.79</ele>
        <time>2020-05-17T10:52:15Z</time>
      </trkpt>
      <trkpt lat="47.11956" lon="-1.91062">
        <ele>9.92</ele>
        <time>2020-05-17T10:52:17Z</time>
      </trkpt>
      <trkpt lat="47.11949" lon="-1.91046">
        <ele>9.72</ele>
        <time>2020-05-17T10:52:19Z</time>
      </trkpt>
      <trkpt lat="47.11942" lon="-1.91032">
        <ele>9.55</ele>
        <time>2020-05-17T10:52:21Z</time>
      </trkpt>
      <trkpt lat="47.11935" lon="-1.91017">
        <ele>9.24</ele>
        <time>2020-05-17T10:52:23Z</time>
      </trkpt>
      <trkpt lat="47.11927" lon="-1.91002">
        <ele>8.7</ele>
        <time>2020-05-17T10:52:25Z</time>
      </trkpt>
      <trkpt lat="47.11919" lon="-1.90986">
        <ele>8.18</ele>
        <time>2020-05-17T10:52:27Z</time>
      </trkpt>
      <trkpt lat="47.11911" lon="-1.90971">
        <ele>8.15</ele>
        <time>2020-05-17T10:52:29Z</time>
      </trkpt>
      <trkpt lat="47.11904" lon="-1.90956">
        <ele>8.15</ele>
        <time>2020-05-17T10:52:31Z</time>
      </trkpt>
      <trkpt lat="47.11894" lon="-1.90939">
        <ele>7.59</ele>
        <time>2020-05-17T10:52:33Z</time>
      </trkpt>
      <trkpt lat="47.11885" lon="-1.90922">
        <ele>7.24</ele>
        <time>2020-05-17T10:52:35Z</time>
      </trkpt>
      <trkpt lat="47.11876" lon="-1.90903">
        <ele>7.3</ele>
        <time>2020-05-17T10:52:37Z</time>
      </trkpt>
      <trkpt lat="47.11868" lon="-1.90888">
        <ele>7.48</ele>
        <time>2020-05-17T10:52:39Z</time>
      </trkpt>
      <trkpt lat="47.1186" lon="-1.90873">
        <ele>7.01</ele>
        <time>2020-05-17T10:52:41Z</time>
      </trkpt>
      <trkpt lat="47.11851" lon="-1.90856">
        <ele>7.11</ele>
        <time>2020-05-17T10:52:43Z</time>
      </trkpt>
      <trkpt lat="47.11843" lon="-1.90839">
        <ele>7.69</ele>
        <time>2020-05-17T10:52:45Z</time>
      </trkpt>
      <trkpt lat="47.11834" lon="-1.90824">
        <ele>7.61</ele>
        <time>2020-05-17T10:52:47Z</time>
      </trkpt>
      <trkpt lat="47.11826" lon="-1.90809">
        <ele>6.35</ele>
        <time>2020-05-17T10:52:49Z</time>
      </trkpt>
      <trkpt lat="47.11817" lon="-1.90793">
        <ele>5.89</ele>
        <time>2020-05-17T10:52:51Z</time>
      </trkpt>
      <trkpt lat="47.11809" lon="-1.90776">
        <ele>6.06</ele>
        <time>2020-05-17T10:52:53Z</time>
      </trkpt>
      <trkpt lat="47.11801" lon="-1.90761">
        <ele>5.78</ele>
        <time>2020-05-17T10:52:55Z</time>
      </trkpt>
      <trkpt lat="47.11792" lon="-1.90743">
        <ele>5.31</ele>
        <time>2020-05-17T10:52:57Z</time>
      </trkpt>
      <trkpt lat="47.11783" lon="-1.90726">
        <ele>5.77</ele>
        <time>2020-05-17T10:52:59Z</time>
      </trkpt>
      <trkpt lat="47.11773" lon="-1.90708">
        <ele>5.86</ele>
        <time>2020-05-17T10:53:01Z</time>
      </trkpt>
      <trkpt lat="47.11764" lon="-1.90693">
        <ele>5.87</ele>
        <time>2020-05-17T10:53:03Z</time>
      </trkpt>
      <trkpt lat="47.11755" lon="-1.90677">
        <ele>6.22</ele>
        <time>2020-05-17T10:53:05Z</time>
      </trkpt>
      <trkpt lat="47.11747" lon="-1.90662">
        <ele>6.13</ele>
        <time>2020-05-17T10:53:07Z</time>
      </trkpt>
      <trkpt lat="47.1174" lon="-1.90649">
        <ele>7.28</ele>
        <time>2020-05-17T10:53:09Z</time>
      </trkpt>
      <trkpt lat="47.11732" lon="-1.90633">
        <ele>8.94</ele>
        <time>2020-05-17T10:53:11Z</time>
      </trkpt>
      <trkpt lat="47.11725" lon="-1.90617">
        <ele>10.03</ele>
        <time>2020-05-17T10:53:13Z</time>
      </trkpt>
      <trkpt lat="47.11717" lon="-1.906">
        <ele>10.94</ele>
        <time>2020-05-17T10:53:15Z</time>
      </trkpt>
      <trkpt lat="47.1171" lon="-1.90584">
        <ele>11.29</ele>
        <time>2020-05-17T10:53:17Z</time>
      </trkpt>
      <trkpt lat="47.11703" lon="-1.90569">
        <ele>10.83</ele>
        <time>2020-05-17T10:53:19Z</time>
      </trkpt>
      <trkpt lat="47.11696" lon="-1.9055">
        <ele>9.99</ele>
        <time>2020-05-17T10:53:21Z</time>
      </trkpt>
      <trkpt lat="47.11688" lon="-1.90529">
        <ele>8.73</ele>
        <time>2020-05-17T10:53:23Z</time>
      </trkpt>
      <trkpt lat="47.11682" lon="-1.90511">
        <ele>7.55</ele>
        <time>2020-05-17T10:53:25Z</time>
      </trkpt>
      <trkpt lat="47.11676" lon="-1.90493">
        <ele>7.3</ele>
        <time>2020-05-17T10:53:27Z</time>
      </trkpt>
      <trkpt lat="47.1167" lon="-1.90474">
        <ele>6.95</ele>
        <time>2020-05-17T10:53:29Z</time>
      </trkpt>
      <trkpt lat="47.11664" lon="-1.90455">
        <ele>7.12</ele>
        <time>2020-05-17T10:53:31Z</time>
      </trkpt>
      <trkpt lat="47.11658" lon="-1.90435">
        <ele>7.19</ele>
        <time>2020-05-17T10:53:33Z</time>
      </trkpt>
      <trkpt lat="47.11652" lon="-1.90414">
        <ele>7.1</ele>
        <time>2020-05-17T10:53:35Z</time>
      </trkpt>
      <trkpt lat="47.11646" lon="-1.90394">
        <ele>6.08</ele>
        <time>2020-05-17T10:53:37Z</time>
      </trkpt>
      <trkpt lat="47.1164" lon="-1.90375">
        <ele>4.58</ele>
        <time>2020-05-17T10:53:39Z</time>
      </trkpt>
      <trkpt lat="47.11635" lon="-1.9036">
        <ele>4.25</ele>
        <time>2020-05-17T10:53:41Z</time>
      </trkpt>
      <trkpt lat="47.1163" lon="-1.90344">
        <ele>5.58</ele>
        <time>2020-05-17T10:53:43Z</time>
      </trkpt>
      <trkpt lat="47.11626" lon="-1.90328">
        <ele>7.61</ele>
        <time>2020-05-17T10:53:45Z</time>
      </trkpt>
      <trkpt lat="47.11619" lon="-1.90309">
        <ele>8.4</ele>
        <time>2020-05-17T10:53:47Z</time>
      </trkpt>
      <trkpt lat="47.11613" lon="-1.90289">
        <ele>9.01</ele>
        <time>2020-05-17T10:53:49Z</time>
      </trkpt>
      <trkpt lat="47.11607" lon="-1.90271">
        <ele>8.54</ele>
        <time>2020-05-17T10:53:51Z</time>
      </trkpt>
      <trkpt lat="47.11602" lon="-1.90254">
        <ele>6.87</ele>
        <time>2020-05-17T10:53:53Z</time>
      </trkpt>
      <trkpt lat="47.11598" lon="-1.90233">
        <ele>6.2</ele>
        <time>2020-05-17T10:53:55Z</time>
      </trkpt>
      <trkpt lat="47.11592" lon="-1.90215">
        <ele>6.03</ele>
        <time>2020-05-17T10:53:57Z</time>
      </trkpt>
      <trkpt lat="47.11587" lon="-1.90197">
        <ele>5.33</ele>
        <time>2020-05-17T10:53:59Z</time>
      </trkpt>
      <trkpt lat="47.11581" lon="-1.90179">
        <ele>5.36</ele>
        <time>2020-05-17T10:54:01Z</time>
      </trkpt>
      <trkpt lat="47.11575" lon="-1.9016">
        <ele>5.64</ele>
        <time>2020-05-17T10:54:03Z</time>
      </trkpt>
      <trkpt lat="47.11568" lon="-1.90141">
        <ele>6.13</ele>
        <time>2020-05-17T10:54:05Z</time>
      </trkpt>
      <trkpt lat="47.11563" lon="-1.90124">
        <ele>6.55</ele>
        <time>2020-05-17T10:54:07Z</time>
      </trkpt>
      <trkpt lat="47.11557" lon="-1.90107">
        <ele>7.07</ele>
        <time>2020-05-17T10:54:08Z</time>
      </trkpt>
      <trkpt lat="47.11551" lon="-1.90088">
        <ele>6.98</ele>
        <time>2020-05-17T10:54:10Z</time>
      </trkpt>
      <trkpt lat="47.11545" lon="-1.90071">
        <ele>6.47</ele>
        <time>2020-05-17T10:54:12Z</time>
      </trkpt>
      <trkpt lat="47.1154" lon="-1.90053">
        <ele>6.5</ele>
        <time>2020-05-17T10:54:14Z</time>
      </trkpt>
      <trkpt lat="47.11535" lon="-1.90037">
        <ele>7.44</ele>
        <time>2020-05-17T10:54:16Z</time>
      </trkpt>
      <trkpt lat="47.11529" lon="-1.90018">
        <ele>8.3</ele>
        <time>2020-05-17T10:54:18Z</time>
      </trkpt>
      <trkpt lat="47.11523" lon="-1.9">
        <ele>9.14</ele>
        <time>2020-05-17T10:54:20Z</time>
      </trkpt>
      <trkpt lat="47.11517" lon="-1.89982">
        <ele>9.49</ele>
        <time>2020-05-17T10:54:22Z</time>
      </trkpt>
      <trkpt lat="47.11511" lon="-1.89965">
        <ele>9.09</ele>
        <time>2020-05-17T10:54:24Z</time>
      </trkpt>
      <trkpt lat="47.11504" lon="-1.89949">
        <ele>8.88</ele>
        <time>2020-05-17T10:54:26Z</time>
      </trkpt>
      <trkpt lat="47.11496" lon="-1.89932">
        <ele>8.3</ele>
        <time>2020-05-17T10:54:28Z</time>
      </trkpt>
      <trkpt lat="47.11487" lon="-1.89916">
        <ele>8.15</ele>
        <time>2020-05-17T10:54:30Z</time>
      </trkpt>
      <trkpt lat="47.11477" lon="-1.899">
        <ele>9.18</ele>
        <time>2020-05-17T10:54:32Z</time>
      </trkpt>
      <trkpt lat="47.11467" lon="-1.89887">
        <ele>9.18</ele>
        <time>2020-05-17T10:54:34Z</time>
      </trkpt>
      <trkpt lat="47.11458" lon="-1.89874">
        <ele>9.11</ele>
        <time>2020-05-17T10:54:36Z</time>
      </trkpt>
      <trkpt lat="47.11449" lon="-1.89863">
        <ele>9.2</ele>
        <time>2020-05-17T10:54:38Z</time>
      </trkpt>
      <trkpt lat="47.11441" lon="-1.89852">
        <ele>10.31</ele>
        <time>2020-05-17T10:54:40Z</time>
      </trkpt>
      <trkpt lat="47.1143" lon="-1.8984">
        <ele>10.52</ele>
        <time>2020-05-17T10:54:42Z</time>
      </trkpt>
      <trkpt lat="47.1142" lon="-1.89829">
        <ele>10.02</ele>
        <time>2020-05-17T10:54:44Z</time>
      </trkpt>
      <trkpt lat="47.1141" lon="-1.89817">
        <ele>9.78</ele>
        <time>2020-05-17T10:54:46Z</time>
      </trkpt>
      <trkpt lat="47.11401" lon="-1.89806">
        <ele>9.91</ele>
        <time>2020-05-17T10:54:48Z</time>
      </trkpt>
      <trkpt lat="47.11392" lon="-1.89796">
        <ele>9.7</ele>
        <time>2020-05-17T10:54:50Z</time>
      </trkpt>
      <trkpt lat="47.11383" lon="-1.89784">
        <ele>8.35</ele>
        <time>2020-05-17T10:54:52Z</time>
      </trkpt>
      <trkpt lat="47.11373" lon="-1.89771">
        <ele>8.15</ele>
        <time>2020-05-17T10:54:54Z</time>
      </trkpt>
      <trkpt lat="47.11362" lon="-1.89758">
        <ele>8.29</ele>
        <time>2020-05-17T10:54:56Z</time>
      </trkpt>
      <trkpt lat="47.11352" lon="-1.89745">
        <ele>8.4</ele>
        <time>2020-05-17T10:54:58Z</time>
      </trkpt>
      <trkpt lat="47.11343" lon="-1.89732">
        <ele>7.81</ele>
        <time>2020-05-17T10:55:00Z</time>
      </trkpt>
      <trkpt lat="47.11334" lon="-1.89722">
        <ele>8.45</ele>
        <time>2020-05-17T10:55:02Z</time>
      </trkpt>
      <trkpt lat="47.11325" lon="-1.8971">
        <ele>9.13</ele>
        <time>2020-05-17T10:55:04Z</time>
      </trkpt>
      <trkpt lat="47.11317" lon="-1.89698">
        <ele>9.64</ele>
        <time>2020-05-17T10:55:06Z</time>
      </trkpt>
      <trkpt lat="47.11309" lon="-1.89687">
        <ele>10.55</ele>
        <time>2020-05-17T10:55:08Z</time>
      </trkpt>
      <trkpt lat="47.113" lon="-1.89676">
        <ele>11</ele>
        <time>2020-05-17T10:55:10Z</time>
      </trkpt>
      <trkpt lat="47.1129" lon="-1.89663">
        <ele>11.7</ele>
        <time>2020-05-17T10:55:12Z</time>
      </trkpt>
      <trkpt lat="47.11283" lon="-1.89653">
        <ele>12.56</ele>
        <time>2020-05-17T10:55:14Z</time>
      </trkpt>
      <trkpt lat="47.11274" lon="-1.89642">
        <ele>12.96</ele>
        <time>2020-05-17T10:55:16Z</time>
      </trkpt>
      <trkpt lat="47.11265" lon="-1.89631">
        <ele>13.71</ele>
        <time>2020-05-17T10:55:18Z</time>
      </trkpt>
      <trkpt lat="47.11256" lon="-1.89618">
        <ele>12.88</ele>
        <time>2020-05-17T10:55:20Z</time>
      </trkpt>
      <trkpt lat="47.11245" lon="-1.89603">
        <ele>12.15</ele>
        <time>2020-05-17T10:55:22Z</time>
      </trkpt>
      <trkpt lat="47.11236" lon="-1.89592">
        <ele>11.9</ele>
        <time>2020-05-17T10:55:24Z</time>
      </trkpt>
      <trkpt lat="47.11228" lon="-1.89582">
        <ele>11.43</ele>
        <time>2020-05-17T10:55:26Z</time>
      </trkpt>
      <trkpt lat="47.11219" lon="-1.89569">
        <ele>10.86</ele>
        <time>2020-05-17T10:55:28Z</time>
      </trkpt>
      <trkpt lat="47.1121" lon="-1.89558">
        <ele>10.59</ele>
        <time>2020-05-17T10:55:30Z</time>
      </trkpt>
      <trkpt lat="47.112" lon="-1.89547">
        <ele>10.71</ele>
        <time>2020-05-17T10:55:32Z</time>
      </trkpt>
      <trkpt lat="47.1119" lon="-1.89533">
        <ele>10.98</ele>
        <time>2020-05-17T10:55:34Z</time>
      </trkpt>
      <trkpt lat="47.1118" lon="-1.8952">
        <ele>11.45</ele>
        <time>2020-05-17T10:55:36Z</time>
      </trkpt>
      <trkpt lat="47.11172" lon="-1.89509">
        <ele>11.48</ele>
        <time>2020-05-17T10:55:38Z</time>
      </trkpt>
      <trkpt lat="47.11164" lon="-1.89498">
        <ele>11.48</ele>
        <time>2020-05-17T10:55:40Z</time>
      </trkpt>
      <trkpt lat="47.11155" lon="-1.89488">
        <ele>11.47</ele>
        <time>2020-05-17T10:55:42Z</time>
      </trkpt>
      <trkpt lat="47.11145" lon="-1.89475">
        <ele>11.11</ele>
        <time>2020-05-17T10:55:44Z</time>
      </trkpt>
      <trkpt lat="47.11135" lon="-1.89463">
        <ele>10.69</ele>
        <time>2020-05-17T10:55:46Z</time>
      </trkpt>
      <trkpt lat="47.11126" lon="-1.8945">
        <ele>10.97</ele>
        <time>2020-05-17T10:55:48Z</time>
      </trkpt>
      <trkpt lat="47.11116" lon="-1.89439">
        <ele>10.56</ele>
        <time>2020-05-17T10:55:50Z</time>
      </trkpt>
      <trkpt lat="47.11107" lon="-1.89426">
        <ele>10.19</ele>
        <time>2020-05-17T10:55:52Z</time>
      </trkpt>
      <trkpt lat="47.11098" lon="-1.89415">
        <ele>11.67</ele>
        <time>2020-05-17T10:55:54Z</time>
      </trkpt>
      <trkpt lat="47.11091" lon="-1.89403">
        <ele>12.8</ele>
        <time>2020-05-17T10:55:56Z</time>
      </trkpt>
      <trkpt lat="47.11084" lon="-1.8939">
        <ele>12.93</ele>
        <time>2020-05-17T10:55:58Z</time>
      </trkpt>
      <trkpt lat="47.11075" lon="-1.89376">
        <ele>12.87</ele>
        <time>2020-05-17T10:56:00Z</time>
      </trkpt>
      <trkpt lat="47.11068" lon="-1.89362">
        <ele>12.76</ele>
        <time>2020-05-17T10:56:02Z</time>
      </trkpt>
      <trkpt lat="47.11062" lon="-1.8935">
        <ele>13.23</ele>
        <time>2020-05-17T10:56:04Z</time>
      </trkpt>
      <trkpt lat="47.11056" lon="-1.89335">
        <ele>13.46</ele>
        <time>2020-05-17T10:56:06Z</time>
      </trkpt>
      <trkpt lat="47.11051" lon="-1.8932">
        <ele>14.26</ele>
        <time>2020-05-17T10:56:08Z</time>
      </trkpt>
      <trkpt lat="47.11046" lon="-1.89302">
        <ele>13.62</ele>
        <time>2020-05-17T10:56:10Z</time>
      </trkpt>
      <trkpt lat="47.11043" lon="-1.89289">
        <ele>12.67</ele>
        <time>2020-05-17T10:56:12Z</time>
      </trkpt>
      <trkpt lat="47.11038" lon="-1.89272">
        <ele>12.88</ele>
        <time>2020-05-17T10:56:14Z</time>
      </trkpt>
      <trkpt lat="47.11034" lon="-1.89255">
        <ele>13.17</ele>
        <time>2020-05-17T10:56:16Z</time>
      </trkpt>
      <trkpt lat="47.1103" lon="-1.8924">
        <ele>13.82</ele>
        <time>2020-05-17T10:56:18Z</time>
      </trkpt>
      <trkpt lat="47.11026" lon="-1.89227">
        <ele>14.67</ele>
        <time>2020-05-17T10:56:20Z</time>
      </trkpt>
      <trkpt lat="47.11022" lon="-1.89211">
        <ele>14.96</ele>
        <time>2020-05-17T10:56:22Z</time>
      </trkpt>
      <trkpt lat="47.11018" lon="-1.89195">
        <ele>15.18</ele>
        <time>2020-05-17T10:56:24Z</time>
      </trkpt>
      <trkpt lat="47.11014" lon="-1.89181">
        <ele>15.26</ele>
        <time>2020-05-17T10:56:26Z</time>
      </trkpt>
      <trkpt lat="47.11009" lon="-1.89162">
        <ele>14.6</ele>
        <time>2020-05-17T10:56:28Z</time>
      </trkpt>
      <trkpt lat="47.11003" lon="-1.89148">
        <ele>14.45</ele>
        <time>2020-05-17T10:56:30Z</time>
      </trkpt>
      <trkpt lat="47.10998" lon="-1.8913">
        <ele>13.9</ele>
        <time>2020-05-17T10:56:32Z</time>
      </trkpt>
      <trkpt lat="47.10993" lon="-1.89114">
        <ele>14.04</ele>
        <time>2020-05-17T10:56:34Z</time>
      </trkpt>
      <trkpt lat="47.10988" lon="-1.89096">
        <ele>14.67</ele>
        <time>2020-05-17T10:56:36Z</time>
      </trkpt>
      <trkpt lat="47.10983" lon="-1.89079">
        <ele>14.77</ele>
        <time>2020-05-17T10:56:38Z</time>
      </trkpt>
      <trkpt lat="47.10977" lon="-1.89061">
        <ele>14.87</ele>
        <time>2020-05-17T10:56:40Z</time>
      </trkpt>
      <trkpt lat="47.10973" lon="-1.89045">
        <ele>14.37</ele>
        <time>2020-05-17T10:56:42Z</time>
      </trkpt>
      <trkpt lat="47.10967" lon="-1.89026">
        <ele>14.25</ele>
        <time>2020-05-17T10:56:44Z</time>
      </trkpt>
      <trkpt lat="47.10963" lon="-1.89011">
        <ele>14.16</ele>
        <time>2020-05-17T10:56:46Z</time>
      </trkpt>
      <trkpt lat="47.10958" lon="-1.88993">
        <ele>13.95</ele>
        <time>2020-05-17T10:56:48Z</time>
      </trkpt>
      <trkpt lat="47.10952" lon="-1.88975">
        <ele>14.43</ele>
        <time>2020-05-17T10:56:50Z</time>
      </trkpt>
      <trkpt lat="47.10946" lon="-1.88956">
        <ele>14.69</ele>
        <time>2020-05-17T10:56:52Z</time>
      </trkpt>
      <trkpt lat="47.10942" lon="-1.88938">
        <ele>13.58</ele>
        <time>2020-05-17T10:56:54Z</time>
      </trkpt>
      <trkpt lat="47.10938" lon="-1.8892">
        <ele>13.11</ele>
        <time>2020-05-17T10:56:56Z</time>
      </trkpt>
      <trkpt lat="47.10932" lon="-1.88902">
        <ele>13.42</ele>
        <time>2020-05-17T10:56:58Z</time>
      </trkpt>
      <trkpt lat="47.10926" lon="-1.88883">
        <ele>13.65</ele>
        <time>2020-05-17T10:57:00Z</time>
      </trkpt>
      <trkpt lat="47.1092" lon="-1.88863">
        <ele>13.77</ele>
        <time>2020-05-17T10:57:02Z</time>
      </trkpt>
      <trkpt lat="47.10914" lon="-1.88848">
        <ele>13.68</ele>
        <time>2020-05-17T10:57:04Z</time>
      </trkpt>
      <trkpt lat="47.10909" lon="-1.88831">
        <ele>13.75</ele>
        <time>2020-05-17T10:57:06Z</time>
      </trkpt>
      <trkpt lat="47.10902" lon="-1.88813">
        <ele>13.51</ele>
        <time>2020-05-17T10:57:08Z</time>
      </trkpt>
      <trkpt lat="47.10894" lon="-1.88794">
        <ele>12.68</ele>
        <time>2020-05-17T10:57:10Z</time>
      </trkpt>
      <trkpt lat="47.10886" lon="-1.88775">
        <ele>12.12</ele>
        <time>2020-05-17T10:57:12Z</time>
      </trkpt>
      <trkpt lat="47.10878" lon="-1.88756">
        <ele>12.25</ele>
        <time>2020-05-17T10:57:14Z</time>
      </trkpt>
      <trkpt lat="47.10869" lon="-1.88736">
        <ele>11.82</ele>
        <time>2020-05-17T10:57:16Z</time>
      </trkpt>
      <trkpt lat="47.10861" lon="-1.88718">
        <ele>11.4</ele>
        <time>2020-05-17T10:57:18Z</time>
      </trkpt>
      <trkpt lat="47.10855" lon="-1.88703">
        <ele>10.98</ele>
        <time>2020-05-17T10:57:20Z</time>
      </trkpt>
      <trkpt lat="47.10847" lon="-1.88685">
        <ele>10.92</ele>
        <time>2020-05-17T10:57:22Z</time>
      </trkpt>
      <trkpt lat="47.10839" lon="-1.88668">
        <ele>10.15</ele>
        <time>2020-05-17T10:57:24Z</time>
      </trkpt>
      <trkpt lat="47.10831" lon="-1.8865">
        <ele>9.77</ele>
        <time>2020-05-17T10:57:26Z</time>
      </trkpt>
      <trkpt lat="47.10824" lon="-1.88631">
        <ele>8.97</ele>
        <time>2020-05-17T10:57:28Z</time>
      </trkpt>
      <trkpt lat="47.10818" lon="-1.88616">
        <ele>8.49</ele>
        <time>2020-05-17T10:57:30Z</time>
      </trkpt>
      <trkpt lat="47.10811" lon="-1.88599">
        <ele>8.49</ele>
        <time>2020-05-17T10:57:32Z</time>
      </trkpt>
      <trkpt lat="47.10804" lon="-1.88582">
        <ele>9.07</ele>
        <time>2020-05-17T10:57:34Z</time>
      </trkpt>
      <trkpt lat="47.10797" lon="-1.88567">
        <ele>9.99</ele>
        <time>2020-05-17T10:57:36Z</time>
      </trkpt>
      <trkpt lat="47.1079" lon="-1.88551">
        <ele>11</ele>
        <time>2020-05-17T10:57:38Z</time>
      </trkpt>
      <trkpt lat="47.10782" lon="-1.88534">
        <ele>10.95</ele>
        <time>2020-05-17T10:57:40Z</time>
      </trkpt>
      <trkpt lat="47.10774" lon="-1.88515">
        <ele>10.94</ele>
        <time>2020-05-17T10:57:42Z</time>
      </trkpt>
      <trkpt lat="47.10767" lon="-1.88496">
        <ele>10.79</ele>
        <time>2020-05-17T10:57:44Z</time>
      </trkpt>
      <trkpt lat="47.10761" lon="-1.8848">
        <ele>9.92</ele>
        <time>2020-05-17T10:57:46Z</time>
      </trkpt>
      <trkpt lat="47.10756" lon="-1.88464">
        <ele>9.48</ele>
        <time>2020-05-17T10:57:48Z</time>
      </trkpt>
      <trkpt lat="47.10752" lon="-1.88448">
        <ele>9.61</ele>
        <time>2020-05-17T10:57:50Z</time>
      </trkpt>
      <trkpt lat="47.10747" lon="-1.8843">
        <ele>9.72</ele>
        <time>2020-05-17T10:57:52Z</time>
      </trkpt>
      <trkpt lat="47.10742" lon="-1.8841">
        <ele>10.16</ele>
        <time>2020-05-17T10:57:54Z</time>
      </trkpt>
      <trkpt lat="47.10738" lon="-1.88391">
        <ele>10.24</ele>
        <time>2020-05-17T10:57:56Z</time>
      </trkpt>
      <trkpt lat="47.10734" lon="-1.88371">
        <ele>10.19</ele>
        <time>2020-05-17T10:57:58Z</time>
      </trkpt>
      <trkpt lat="47.10731" lon="-1.88355">
        <ele>9.75</ele>
        <time>2020-05-17T10:58:00Z</time>
      </trkpt>
      <trkpt lat="47.10728" lon="-1.88336">
        <ele>9.07</ele>
        <time>2020-05-17T10:58:02Z</time>
      </trkpt>
      <trkpt lat="47.10726" lon="-1.88317">
        <ele>8.71</ele>
        <time>2020-05-17T10:58:04Z</time>
      </trkpt>
      <trkpt lat="47.10724" lon="-1.88299">
        <ele>8.8</ele>
        <time>2020-05-17T10:58:06Z</time>
      </trkpt>
      <trkpt lat="47.10722" lon="-1.88281">
        <ele>9.07</ele>
        <time>2020-05-17T10:58:08Z</time>
      </trkpt>
      <trkpt lat="47.1072" lon="-1.88264">
        <ele>8.92</ele>
        <time>2020-05-17T10:58:10Z</time>
      </trkpt>
      <trkpt lat="47.10719" lon="-1.88246">
        <ele>8.26</ele>
        <time>2020-05-17T10:58:12Z</time>
      </trkpt>
      <trkpt lat="47.10717" lon="-1.88225">
        <ele>8.66</ele>
        <time>2020-05-17T10:58:14Z</time>
      </trkpt>
      <trkpt lat="47.10715" lon="-1.88207">
        <ele>9.64</ele>
        <time>2020-05-17T10:58:16Z</time>
      </trkpt>
      <trkpt lat="47.10713" lon="-1.88188">
        <ele>9.91</ele>
        <time>2020-05-17T10:58:18Z</time>
      </trkpt>
      <trkpt lat="47.10712" lon="-1.88169">
        <ele>10.19</ele>
        <time>2020-05-17T10:58:20Z</time>
      </trkpt>
      <trkpt lat="47.1071" lon="-1.88149">
        <ele>10.46</ele>
        <time>2020-05-17T10:58:22Z</time>
      </trkpt>
      <trkpt lat="47.10709" lon="-1.8813">
        <ele>10.45</ele>
        <time>2020-05-17T10:58:24Z</time>
      </trkpt>
      <trkpt lat="47.10707" lon="-1.88111">
        <ele>10.01</ele>
        <time>2020-05-17T10:58:26Z</time>
      </trkpt>
      <trkpt lat="47.10705" lon="-1.88093">
        <ele>10.04</ele>
        <time>2020-05-17T10:58:28Z</time>
      </trkpt>
      <trkpt lat="47.10703" lon="-1.88074">
        <ele>9.96</ele>
        <time>2020-05-17T10:58:30Z</time>
      </trkpt>
      <trkpt lat="47.10701" lon="-1.88052">
        <ele>10.13</ele>
        <time>2020-05-17T10:58:32Z</time>
      </trkpt>
      <trkpt lat="47.107" lon="-1.88035">
        <ele>10.22</ele>
        <time>2020-05-17T10:58:34Z</time>
      </trkpt>
      <trkpt lat="47.10698" lon="-1.88015">
        <ele>10.36</ele>
        <time>2020-05-17T10:58:36Z</time>
      </trkpt>
      <trkpt lat="47.10696" lon="-1.87996">
        <ele>10.2</ele>
        <time>2020-05-17T10:58:38Z</time>
      </trkpt>
      <trkpt lat="47.10693" lon="-1.87978">
        <ele>10.58</ele>
        <time>2020-05-17T10:58:40Z</time>
      </trkpt>
      <trkpt lat="47.1069" lon="-1.87958">
        <ele>10.03</ele>
        <time>2020-05-17T10:58:42Z</time>
      </trkpt>
      <trkpt lat="47.10686" lon="-1.8794">
        <ele>8.93</ele>
        <time>2020-05-17T10:58:44Z</time>
      </trkpt>
      <trkpt lat="47.10682" lon="-1.87923">
        <ele>8.89</ele>
        <time>2020-05-17T10:58:46Z</time>
      </trkpt>
      <trkpt lat="47.10676" lon="-1.87907">
        <ele>10.2</ele>
        <time>2020-05-17T10:58:48Z</time>
      </trkpt>
      <trkpt lat="47.1067" lon="-1.87892">
        <ele>11.01</ele>
        <time>2020-05-17T10:58:50Z</time>
      </trkpt>
      <trkpt lat="47.10662" lon="-1.87873">
        <ele>11.4</ele>
        <time>2020-05-17T10:58:52Z</time>
      </trkpt>
      <trkpt lat="47.10656" lon="-1.87858">
        <ele>11.27</ele>
        <time>2020-05-17T10:58:54Z</time>
      </trkpt>
      <trkpt lat="47.10651" lon="-1.87844">
        <ele>11.51</ele>
        <time>2020-05-17T10:58:56Z</time>
      </trkpt>
      <trkpt lat="47.10645" lon="-1.87827">
        <ele>11.56</ele>
        <time>2020-05-17T10:58:58Z</time>
      </trkpt>
      <trkpt lat="47.1064" lon="-1.87812">
        <ele>10.89</ele>
        <time>2020-05-17T10:59:00Z</time>
      </trkpt>
      <trkpt lat="47.10634" lon="-1.87796">
        <ele>11.39</ele>
        <time>2020-05-17T10:59:02Z</time>
      </trkpt>
      <trkpt lat="47.10628" lon="-1.87779">
        <ele>11.18</ele>
        <time>2020-05-17T10:59:04Z</time>
      </trkpt>
      <trkpt lat="47.10623" lon="-1.87765">
        <ele>11.39</ele>
        <time>2020-05-17T10:59:06Z</time>
      </trkpt>
      <trkpt lat="47.10617" lon="-1.87747">
        <ele>11.71</ele>
        <time>2020-05-17T10:59:08Z</time>
      </trkpt>
      <trkpt lat="47.10612" lon="-1.87733">
        <ele>12.04</ele>
        <time>2020-05-17T10:59:10Z</time>
      </trkpt>
      <trkpt lat="47.10606" lon="-1.87717">
        <ele>12.96</ele>
        <time>2020-05-17T10:59:12Z</time>
      </trkpt>
      <trkpt lat="47.106" lon="-1.87701">
        <ele>12.64</ele>
        <time>2020-05-17T10:59:14Z</time>
      </trkpt>
      <trkpt lat="47.10595" lon="-1.87683">
        <ele>11.91</ele>
        <time>2020-05-17T10:59:16Z</time>
      </trkpt>
      <trkpt lat="47.10589" lon="-1.87667">
        <ele>11.16</ele>
        <time>2020-05-17T10:59:18Z</time>
      </trkpt>
      <trkpt lat="47.10583" lon="-1.87652">
        <ele>11.09</ele>
        <time>2020-05-17T10:59:20Z</time>
      </trkpt>
      <trkpt lat="47.10577" lon="-1.87633">
        <ele>10.86</ele>
        <time>2020-05-17T10:59:22Z</time>
      </trkpt>
      <trkpt lat="47.10573" lon="-1.87618">
        <ele>10.78</ele>
        <time>2020-05-17T10:59:24Z</time>
      </trkpt>
      <trkpt lat="47.1057" lon="-1.87603">
        <ele>12.11</ele>
        <time>2020-05-17T10:59:26Z</time>
      </trkpt>
      <trkpt lat="47.10566" lon="-1.87583">
        <ele>12.48</ele>
        <time>2020-05-17T10:59:28Z</time>
      </trkpt>
      <trkpt lat="47.10563" lon="-1.87565">
        <ele>13.31</ele>
        <time>2020-05-17T10:59:30Z</time>
      </trkpt>
      <trkpt lat="47.10559" lon="-1.87548">
        <ele>14.27</ele>
        <time>2020-05-17T10:59:32Z</time>
      </trkpt>
      <trkpt lat="47.10555" lon="-1.87531">
        <ele>14.54</ele>
        <time>2020-05-17T10:59:34Z</time>
      </trkpt>
      <trkpt lat="47.10552" lon="-1.87512">
        <ele>14.11</ele>
        <time>2020-05-17T10:59:36Z</time>
      </trkpt>
      <trkpt lat="47.10548" lon="-1.87493">
        <ele>14.05</ele>
        <time>2020-05-17T10:59:38Z</time>
      </trkpt>
      <trkpt lat="47.10545" lon="-1.87475">
        <ele>14.49</ele>
        <time>2020-05-17T10:59:40Z</time>
      </trkpt>
      <trkpt lat="47.10542" lon="-1.87456">
        <ele>14.66</ele>
        <time>2020-05-17T10:59:42Z</time>
      </trkpt>
      <trkpt lat="47.10538" lon="-1.87438">
        <ele>14.77</ele>
        <time>2020-05-17T10:59:44Z</time>
      </trkpt>
      <trkpt lat="47.10536" lon="-1.87421">
        <ele>13.73</ele>
        <time>2020-05-17T10:59:46Z</time>
      </trkpt>
      <trkpt lat="47.10532" lon="-1.87401">
        <ele>13.16</ele>
        <time>2020-05-17T10:59:48Z</time>
      </trkpt>
      <trkpt lat="47.10528" lon="-1.87384">
        <ele>13</ele>
        <time>2020-05-17T10:59:50Z</time>
      </trkpt>
      <trkpt lat="47.10524" lon="-1.87367">
        <ele>12.9</ele>
        <time>2020-05-17T10:59:52Z</time>
      </trkpt>
      <trkpt lat="47.1052" lon="-1.87346">
        <ele>13.54</ele>
        <time>2020-05-17T10:59:54Z</time>
      </trkpt>
      <trkpt lat="47.10517" lon="-1.87327">
        <ele>13.79</ele>
        <time>2020-05-17T10:59:56Z</time>
      </trkpt>
      <trkpt lat="47.10513" lon="-1.87311">
        <ele>13.89</ele>
        <time>2020-05-17T10:59:58Z</time>
      </trkpt>
      <trkpt lat="47.10509" lon="-1.87293">
        <ele>14.2</ele>
        <time>2020-05-17T11:00:00Z</time>
      </trkpt>
      <trkpt lat="47.10504" lon="-1.87279">
        <ele>15.02</ele>
        <time>2020-05-17T11:00:02Z</time>
      </trkpt>
      <trkpt lat="47.10499" lon="-1.87261">
        <ele>16.07</ele>
        <time>2020-05-17T11:00:04Z</time>
      </trkpt>
      <trkpt lat="47.10495" lon="-1.87247">
        <ele>15.68</ele>
        <time>2020-05-17T11:00:06Z</time>
      </trkpt>
      <trkpt lat="47.10488" lon="-1.87232">
        <ele>15.01</ele>
        <time>2020-05-17T11:00:08Z</time>
      </trkpt>
      <trkpt lat="47.10481" lon="-1.87218">
        <ele>14.72</ele>
        <time>2020-05-17T11:00:10Z</time>
      </trkpt>
      <trkpt lat="47.10478" lon="-1.87204">
        <ele>14.53</ele>
        <time>2020-05-17T11:00:12Z</time>
      </trkpt>
      <trkpt lat="47.10476" lon="-1.87186">
        <ele>14.44</ele>
        <time>2020-05-17T11:00:14Z</time>
      </trkpt>
      <trkpt lat="47.10473" lon="-1.87169">
        <ele>14.35</ele>
        <time>2020-05-17T11:00:16Z</time>
      </trkpt>
      <trkpt lat="47.1047" lon="-1.87154">
        <ele>14.9</ele>
        <time>2020-05-17T11:00:18Z</time>
      </trkpt>
      <trkpt lat="47.10466" lon="-1.87137">
        <ele>15.94</ele>
        <time>2020-05-17T11:00:20Z</time>
      </trkpt>
      <trkpt lat="47.10461" lon="-1.87121">
        <ele>16.65</ele>
        <time>2020-05-17T11:00:22Z</time>
      </trkpt>
      <trkpt lat="47.10457" lon="-1.87103">
        <ele>16.44</ele>
        <time>2020-05-17T11:00:24Z</time>
      </trkpt>
      <trkpt lat="47.10454" lon="-1.87089">
        <ele>16.12</ele>
        <time>2020-05-17T11:00:26Z</time>
      </trkpt>
      <trkpt lat="47.1045" lon="-1.8707">
        <ele>16.38</ele>
        <time>2020-05-17T11:00:28Z</time>
      </trkpt>
      <trkpt lat="47.10447" lon="-1.87055">
        <ele>16.89</ele>
        <time>2020-05-17T11:00:30Z</time>
      </trkpt>
      <trkpt lat="47.10443" lon="-1.87037">
        <ele>16.68</ele>
        <time>2020-05-17T11:00:32Z</time>
      </trkpt>
      <trkpt lat="47.1044" lon="-1.87024">
        <ele>15.83</ele>
        <time>2020-05-17T11:00:34Z</time>
      </trkpt>
      <trkpt lat="47.10436" lon="-1.87007">
        <ele>14.77</ele>
        <time>2020-05-17T11:00:36Z</time>
      </trkpt>
      <trkpt lat="47.10432" lon="-1.8699">
        <ele>14.62</ele>
        <time>2020-05-17T11:00:38Z</time>
      </trkpt>
      <trkpt lat="47.10428" lon="-1.86972">
        <ele>14.37</ele>
        <time>2020-05-17T11:00:40Z</time>
      </trkpt>
      <trkpt lat="47.10426" lon="-1.86958">
        <ele>14.46</ele>
        <time>2020-05-17T11:00:42Z</time>
      </trkpt>
      <trkpt lat="47.10424" lon="-1.86941">
        <ele>15.2</ele>
        <time>2020-05-17T11:00:44Z</time>
      </trkpt>
      <trkpt lat="47.10421" lon="-1.86924">
        <ele>16.08</ele>
        <time>2020-05-17T11:00:46Z</time>
      </trkpt>
      <trkpt lat="47.10418" lon="-1.86905">
        <ele>17.08</ele>
        <time>2020-05-17T11:00:48Z</time>
      </trkpt>
      <trkpt lat="47.10415" lon="-1.86887">
        <ele>17.45</ele>
        <time>2020-05-17T11:00:50Z</time>
      </trkpt>
      <trkpt lat="47.10411" lon="-1.8687">
        <ele>17.51</ele>
        <time>2020-05-17T11:00:52Z</time>
      </trkpt>
      <trkpt lat="47.10408" lon="-1.86854">
        <ele>17.74</ele>
        <time>2020-05-17T11:00:54Z</time>
      </trkpt>
      <trkpt lat="47.10404" lon="-1.86835">
        <ele>17.16</ele>
        <time>2020-05-17T11:00:56Z</time>
      </trkpt>
      <trkpt lat="47.10401" lon="-1.86817">
        <ele>16.54</ele>
        <time>2020-05-17T11:00:58Z</time>
      </trkpt>
      <trkpt lat="47.10398" lon="-1.868">
        <ele>16.14</ele>
        <time>2020-05-17T11:01:00Z</time>
      </trkpt>
      <trkpt lat="47.10394" lon="-1.86781">
        <ele>15.27</ele>
        <time>2020-05-17T11:01:02Z</time>
      </trkpt>
      <trkpt lat="47.10391" lon="-1.86768">
        <ele>13.75</ele>
        <time>2020-05-17T11:01:04Z</time>
      </trkpt>
      <trkpt lat="47.10388" lon="-1.86751">
        <ele>12.25</ele>
        <time>2020-05-17T11:01:06Z</time>
      </trkpt>
      <trkpt lat="47.10385" lon="-1.86735">
        <ele>12.28</ele>
        <time>2020-05-17T11:01:08Z</time>
      </trkpt>
      <trkpt lat="47.10382" lon="-1.86718">
        <ele>14.04</ele>
        <time>2020-05-17T11:01:10Z</time>
      </trkpt>
      <trkpt lat="47.1038" lon="-1.867">
        <ele>14.25</ele>
        <time>2020-05-17T11:01:12Z</time>
      </trkpt>
      <trkpt lat="47.10376" lon="-1.86681">
        <ele>14.6</ele>
        <time>2020-05-17T11:01:14Z</time>
      </trkpt>
      <trkpt lat="47.10373" lon="-1.86665">
        <ele>15.63</ele>
        <time>2020-05-17T11:01:16Z</time>
      </trkpt>
      <trkpt lat="47.1037" lon="-1.86645">
        <ele>16.4</ele>
        <time>2020-05-17T11:01:18Z</time>
      </trkpt>
      <trkpt lat="47.10368" lon="-1.86626">
        <ele>16.46</ele>
        <time>2020-05-17T11:01:20Z</time>
      </trkpt>
      <trkpt lat="47.10368" lon="-1.86612">
        <ele>16.45</ele>
        <time>2020-05-17T11:01:22Z</time>
      </trkpt>
      <trkpt lat="47.10368" lon="-1.86591">
        <ele>16</ele>
        <time>2020-05-17T11:01:24Z</time>
      </trkpt>
      <trkpt lat="47.10367" lon="-1.86575">
        <ele>16.27</ele>
        <time>2020-05-17T11:01:26Z</time>
      </trkpt>
      <trkpt lat="47.10363" lon="-1.86558">
        <ele>16.05</ele>
        <time>2020-05-17T11:01:28Z</time>
      </trkpt>
      <trkpt lat="47.10357" lon="-1.86543">
        <ele>16.52</ele>
        <time>2020-05-17T11:01:30Z</time>
      </trkpt>
      <trkpt lat="47.10351" lon="-1.86524">
        <ele>17.2</ele>
        <time>2020-05-17T11:01:32Z</time>
      </trkpt>
      <trkpt lat="47.10345" lon="-1.86506">
        <ele>16.11</ele>
        <time>2020-05-17T11:01:34Z</time>
      </trkpt>
      <trkpt lat="47.10335" lon="-1.86504">
        <ele>15.26</ele>
        <time>2020-05-17T11:01:36Z</time>
      </trkpt>
      <trkpt lat="47.1032" lon="-1.86508">
        <ele>13.49</ele>
        <time>2020-05-17T11:01:39Z</time>
      </trkpt>
      <trkpt lat="47.10309" lon="-1.8651">
        <ele>12.35</ele>
        <time>2020-05-17T11:01:41Z</time>
      </trkpt>
      <trkpt lat="47.10298" lon="-1.86511">
        <ele>11.44</ele>
        <time>2020-05-17T11:01:43Z</time>
      </trkpt>
      <trkpt lat="47.10288" lon="-1.86514">
        <ele>11.44</ele>
        <time>2020-05-17T11:01:45Z</time>
      </trkpt>
      <trkpt lat="47.10278" lon="-1.86513">
        <ele>12.59</ele>
        <time>2020-05-17T11:01:47Z</time>
      </trkpt>
      <trkpt lat="47.10271" lon="-1.86501">
        <ele>13.69</ele>
        <time>2020-05-17T11:01:49Z</time>
      </trkpt>
      <trkpt lat="47.10264" lon="-1.86488">
        <ele>14.25</ele>
        <time>2020-05-17T11:01:51Z</time>
      </trkpt>
      <trkpt lat="47.10257" lon="-1.86473">
        <ele>14.79</ele>
        <time>2020-05-17T11:01:53Z</time>
      </trkpt>
      <trkpt lat="47.10244" lon="-1.86471">
        <ele>15.11</ele>
        <time>2020-05-17T11:01:55Z</time>
      </trkpt>
      <trkpt lat="47.10231" lon="-1.86477">
        <ele>15.56</ele>
        <time>2020-05-17T11:01:57Z</time>
      </trkpt>
      <trkpt lat="47.10217" lon="-1.86485">
        <ele>15.43</ele>
        <time>2020-05-17T11:01:59Z</time>
      </trkpt>
      <trkpt lat="47.10204" lon="-1.86492">
        <ele>14.82</ele>
        <time>2020-05-17T11:02:01Z</time>
      </trkpt>
      <trkpt lat="47.10192" lon="-1.86498">
        <ele>14.44</ele>
        <time>2020-05-17T11:02:03Z</time>
      </trkpt>
      <trkpt lat="47.10181" lon="-1.86505">
        <ele>14.22</ele>
        <time>2020-05-17T11:02:05Z</time>
      </trkpt>
      <trkpt lat="47.10168" lon="-1.86513">
        <ele>13.91</ele>
        <time>2020-05-17T11:02:07Z</time>
      </trkpt>
      <trkpt lat="47.10156" lon="-1.8652">
        <ele>13.27</ele>
        <time>2020-05-17T11:02:09Z</time>
      </trkpt>
      <trkpt lat="47.10145" lon="-1.86525">
        <ele>13.4</ele>
        <time>2020-05-17T11:02:11Z</time>
      </trkpt>
      <trkpt lat="47.10133" lon="-1.86529">
        <ele>13.23</ele>
        <time>2020-05-17T11:02:13Z</time>
      </trkpt>
      <trkpt lat="47.10122" lon="-1.86534">
        <ele>13.32</ele>
        <time>2020-05-17T11:02:15Z</time>
      </trkpt>
      <trkpt lat="47.10109" lon="-1.86538">
        <ele>13.35</ele>
        <time>2020-05-17T11:02:17Z</time>
      </trkpt>
      <trkpt lat="47.10098" lon="-1.86541">
        <ele>14.04</ele>
        <time>2020-05-17T11:02:19Z</time>
      </trkpt>
      <trkpt lat="47.10087" lon="-1.86544">
        <ele>13.64</ele>
        <time>2020-05-17T11:02:21Z</time>
      </trkpt>
      <trkpt lat="47.10075" lon="-1.86547">
        <ele>13.53</ele>
        <time>2020-05-17T11:02:23Z</time>
      </trkpt>
      <trkpt lat="47.10064" lon="-1.86553">
        <ele>14.06</ele>
        <time>2020-05-17T11:02:25Z</time>
      </trkpt>
      <trkpt lat="47.10053" lon="-1.8656">
        <ele>13.88</ele>
        <time>2020-05-17T11:02:27Z</time>
      </trkpt>
      <trkpt lat="47.10041" lon="-1.86568">
        <ele>13.65</ele>
        <time>2020-05-17T11:02:29Z</time>
      </trkpt>
      <trkpt lat="47.10031" lon="-1.86575">
        <ele>13.79</ele>
        <time>2020-05-17T11:02:31Z</time>
      </trkpt>
      <trkpt lat="47.1002" lon="-1.86585">
        <ele>13.59</ele>
        <time>2020-05-17T11:02:33Z</time>
      </trkpt>
      <trkpt lat="47.10008" lon="-1.86596">
        <ele>13.64</ele>
        <time>2020-05-17T11:02:35Z</time>
      </trkpt>
      <trkpt lat="47.09998" lon="-1.86605">
        <ele>13.52</ele>
        <time>2020-05-17T11:02:37Z</time>
      </trkpt>
      <trkpt lat="47.09989" lon="-1.86614">
        <ele>13.71</ele>
        <time>2020-05-17T11:02:39Z</time>
      </trkpt>
      <trkpt lat="47.09982" lon="-1.86628">
        <ele>13.14</ele>
        <time>2020-05-17T11:02:41Z</time>
      </trkpt>
      <trkpt lat="47.09975" lon="-1.86644">
        <ele>12.91</ele>
        <time>2020-05-17T11:02:43Z</time>
      </trkpt>
      <trkpt lat="47.09966" lon="-1.86652">
        <ele>12.34</ele>
        <time>2020-05-17T11:02:45Z</time>
      </trkpt>
      <trkpt lat="47.09956" lon="-1.86656">
        <ele>12.14</ele>
        <time>2020-05-17T11:02:47Z</time>
      </trkpt>
      <trkpt lat="47.09944" lon="-1.8666">
        <ele>12.51</ele>
        <time>2020-05-17T11:02:49Z</time>
      </trkpt>
      <trkpt lat="47.09932" lon="-1.86668">
        <ele>12.84</ele>
        <time>2020-05-17T11:02:51Z</time>
      </trkpt>
      <trkpt lat="47.09921" lon="-1.86676">
        <ele>12.95</ele>
        <time>2020-05-17T11:02:53Z</time>
      </trkpt>
      <trkpt lat="47.09911" lon="-1.86686">
        <ele>13.64</ele>
        <time>2020-05-17T11:02:55Z</time>
      </trkpt>
      <trkpt lat="47.09901" lon="-1.86697">
        <ele>13.3</ele>
        <time>2020-05-17T11:02:57Z</time>
      </trkpt>
      <trkpt lat="47.09891" lon="-1.86708">
        <ele>12.97</ele>
        <time>2020-05-17T11:02:59Z</time>
      </trkpt>
      <trkpt lat="47.09883" lon="-1.86716">
        <ele>13.58</ele>
        <time>2020-05-17T11:03:01Z</time>
      </trkpt>
      <trkpt lat="47.09873" lon="-1.86724">
        <ele>14.28</ele>
        <time>2020-05-17T11:03:03Z</time>
      </trkpt>
      <trkpt lat="47.09861" lon="-1.86731">
        <ele>14.87</ele>
        <time>2020-05-17T11:03:05Z</time>
      </trkpt>
      <trkpt lat="47.09848" lon="-1.8674">
        <ele>14.56</ele>
        <time>2020-05-17T11:03:07Z</time>
      </trkpt>
      <trkpt lat="47.09837" lon="-1.86746">
        <ele>14.46</ele>
        <time>2020-05-17T11:03:09Z</time>
      </trkpt>
      <trkpt lat="47.09824" lon="-1.86752">
        <ele>15.1</ele>
        <time>2020-05-17T11:03:11Z</time>
      </trkpt>
      <trkpt lat="47.09813" lon="-1.86758">
        <ele>16.6</ele>
        <time>2020-05-17T11:03:13Z</time>
      </trkpt>
      <trkpt lat="47.09802" lon="-1.86763">
        <ele>16.89</ele>
        <time>2020-05-17T11:03:15Z</time>
      </trkpt>
      <trkpt lat="47.09789" lon="-1.86769">
        <ele>17.37</ele>
        <time>2020-05-17T11:03:17Z</time>
      </trkpt>
      <trkpt lat="47.09778" lon="-1.86774">
        <ele>17.66</ele>
        <time>2020-05-17T11:03:19Z</time>
      </trkpt>
      <trkpt lat="47.09764" lon="-1.86782">
        <ele>17.84</ele>
        <time>2020-05-17T11:03:21Z</time>
      </trkpt>
      <trkpt lat="47.09753" lon="-1.86787">
        <ele>18.09</ele>
        <time>2020-05-17T11:03:23Z</time>
      </trkpt>
      <trkpt lat="47.09741" lon="-1.86794">
        <ele>18.34</ele>
        <time>2020-05-17T11:03:25Z</time>
      </trkpt>
      <trkpt lat="47.0973" lon="-1.86798">
        <ele>18.26</ele>
        <time>2020-05-17T11:03:27Z</time>
      </trkpt>
      <trkpt lat="47.09718" lon="-1.86805">
        <ele>17.99</ele>
        <time>2020-05-17T11:03:29Z</time>
      </trkpt>
      <trkpt lat="47.09706" lon="-1.86812">
        <ele>17.81</ele>
        <time>2020-05-17T11:03:31Z</time>
      </trkpt>
      <trkpt lat="47.09697" lon="-1.86819">
        <ele>17.29</ele>
        <time>2020-05-17T11:03:34Z</time>
      </trkpt>
      <trkpt lat="47.09687" lon="-1.86806">
        <ele>15.63</ele>
        <time>2020-05-17T11:03:37Z</time>
      </trkpt>
      <trkpt lat="47.09675" lon="-1.868">
        <ele>15.65</ele>
        <time>2020-05-17T11:03:40Z</time>
      </trkpt>
      <trkpt lat="47.09664" lon="-1.86794">
        <ele>16.67</ele>
        <time>2020-05-17T11:03:42Z</time>
      </trkpt>
      <trkpt lat="47.09652" lon="-1.86786">
        <ele>17.4</ele>
        <time>2020-05-17T11:03:44Z</time>
      </trkpt>
      <trkpt lat="47.09641" lon="-1.86778">
        <ele>17.3</ele>
        <time>2020-05-17T11:03:46Z</time>
      </trkpt>
      <trkpt lat="47.09631" lon="-1.86772">
        <ele>16.96</ele>
        <time>2020-05-17T11:03:48Z</time>
      </trkpt>
      <trkpt lat="47.09621" lon="-1.86765">
        <ele>16.77</ele>
        <time>2020-05-17T11:03:50Z</time>
      </trkpt>
      <trkpt lat="47.0961" lon="-1.86756">
        <ele>17.54</ele>
        <time>2020-05-17T11:03:52Z</time>
      </trkpt>
      <trkpt lat="47.096" lon="-1.86745">
        <ele>17.57</ele>
        <time>2020-05-17T11:03:54Z</time>
      </trkpt>
      <trkpt lat="47.0959" lon="-1.86732">
        <ele>17.49</ele>
        <time>2020-05-17T11:03:56Z</time>
      </trkpt>
      <trkpt lat="47.0958" lon="-1.86716">
        <ele>17.43</ele>
        <time>2020-05-17T11:03:58Z</time>
      </trkpt>
      <trkpt lat="47.09572" lon="-1.86698">
        <ele>18.47</ele>
        <time>2020-05-17T11:04:00Z</time>
      </trkpt>
      <trkpt lat="47.09565" lon="-1.86682">
        <ele>17.95</ele>
        <time>2020-05-17T11:04:02Z</time>
      </trkpt>
      <trkpt lat="47.09558" lon="-1.86666">
        <ele>17.49</ele>
        <time>2020-05-17T11:04:04Z</time>
      </trkpt>
      <trkpt lat="47.09552" lon="-1.86652">
        <ele>17.43</ele>
        <time>2020-05-17T11:04:06Z</time>
      </trkpt>
      <trkpt lat="47.09546" lon="-1.86636">
        <ele>18.52</ele>
        <time>2020-05-17T11:04:08Z</time>
      </trkpt>
      <trkpt lat="47.09541" lon="-1.8662">
        <ele>19.75</ele>
        <time>2020-05-17T11:04:10Z</time>
      </trkpt>
      <trkpt lat="47.09535" lon="-1.86606">
        <ele>19.45</ele>
        <time>2020-05-17T11:04:12Z</time>
      </trkpt>
      <trkpt lat="47.09529" lon="-1.86591">
        <ele>19.06</ele>
        <time>2020-05-17T11:04:14Z</time>
      </trkpt>
      <trkpt lat="47.09523" lon="-1.86575">
        <ele>18.83</ele>
        <time>2020-05-17T11:04:16Z</time>
      </trkpt>
      <trkpt lat="47.09517" lon="-1.86558">
        <ele>19.74</ele>
        <time>2020-05-17T11:04:18Z</time>
      </trkpt>
      <trkpt lat="47.0951" lon="-1.86544">
        <ele>19.55</ele>
        <time>2020-05-17T11:04:20Z</time>
      </trkpt>
      <trkpt lat="47.09504" lon="-1.86529">
        <ele>19.11</ele>
        <time>2020-05-17T11:04:22Z</time>
      </trkpt>
      <trkpt lat="47.09498" lon="-1.86514">
        <ele>18.92</ele>
        <time>2020-05-17T11:04:24Z</time>
      </trkpt>
      <trkpt lat="47.09491" lon="-1.86496">
        <ele>19.73</ele>
        <time>2020-05-17T11:04:26Z</time>
      </trkpt>
      <trkpt lat="47.09486" lon="-1.86479">
        <ele>20.57</ele>
        <time>2020-05-17T11:04:28Z</time>
      </trkpt>
      <trkpt lat="47.09481" lon="-1.86464">
        <ele>20.34</ele>
        <time>2020-05-17T11:04:30Z</time>
      </trkpt>
      <trkpt lat="47.09475" lon="-1.86448">
        <ele>20.59</ele>
        <time>2020-05-17T11:04:32Z</time>
      </trkpt>
      <trkpt lat="47.0947" lon="-1.86432">
        <ele>19.54</ele>
        <time>2020-05-17T11:04:34Z</time>
      </trkpt>
      <trkpt lat="47.09464" lon="-1.86417">
        <ele>19.12</ele>
        <time>2020-05-17T11:04:36Z</time>
      </trkpt>
      <trkpt lat="47.09458" lon="-1.86401">
        <ele>19.44</ele>
        <time>2020-05-17T11:04:38Z</time>
      </trkpt>
      <trkpt lat="47.09451" lon="-1.86387">
        <ele>20.02</ele>
        <time>2020-05-17T11:04:40Z</time>
      </trkpt>
      <trkpt lat="47.09443" lon="-1.86371">
        <ele>20.34</ele>
        <time>2020-05-17T11:04:42Z</time>
      </trkpt>
      <trkpt lat="47.09433" lon="-1.86354">
        <ele>19.72</ele>
        <time>2020-05-17T11:04:44Z</time>
      </trkpt>
      <trkpt lat="47.09425" lon="-1.86341">
        <ele>19.41</ele>
        <time>2020-05-17T11:04:46Z</time>
      </trkpt>
      <trkpt lat="47.09416" lon="-1.86332">
        <ele>19.25</ele>
        <time>2020-05-17T11:04:48Z</time>
      </trkpt>
      <trkpt lat="47.09401" lon="-1.8633">
        <ele>18.35</ele>
        <time>2020-05-17T11:04:50Z</time>
      </trkpt>
      <trkpt lat="47.09386" lon="-1.86328">
        <ele>17.47</ele>
        <time>2020-05-17T11:04:52Z</time>
      </trkpt>
      <trkpt lat="47.0937" lon="-1.86327">
        <ele>16.17</ele>
        <time>2020-05-17T11:04:54Z</time>
      </trkpt>
      <trkpt lat="47.09356" lon="-1.86327">
        <ele>14.68</ele>
        <time>2020-05-17T11:04:56Z</time>
      </trkpt>
      <trkpt lat="47.09341" lon="-1.86329">
        <ele>13.71</ele>
        <time>2020-05-17T11:04:58Z</time>
      </trkpt>
      <trkpt lat="47.09327" lon="-1.86333">
        <ele>13.91</ele>
        <time>2020-05-17T11:05:00Z</time>
      </trkpt>
      <trkpt lat="47.09311" lon="-1.86337">
        <ele>13.77</ele>
        <time>2020-05-17T11:05:02Z</time>
      </trkpt>
      <trkpt lat="47.09295" lon="-1.86343">
        <ele>12.74</ele>
        <time>2020-05-17T11:05:04Z</time>
      </trkpt>
      <trkpt lat="47.0928" lon="-1.86354">
        <ele>11.56</ele>
        <time>2020-05-17T11:05:06Z</time>
      </trkpt>
      <trkpt lat="47.09269" lon="-1.86366">
        <ele>10.97</ele>
        <time>2020-05-17T11:05:08Z</time>
      </trkpt>
      <trkpt lat="47.09259" lon="-1.86376">
        <ele>11.61</ele>
        <time>2020-05-17T11:05:10Z</time>
      </trkpt>
      <trkpt lat="47.09248" lon="-1.86384">
        <ele>12.28</ele>
        <time>2020-05-17T11:05:12Z</time>
      </trkpt>
      <trkpt lat="47.09237" lon="-1.86392">
        <ele>12.45</ele>
        <time>2020-05-17T11:05:14Z</time>
      </trkpt>
      <trkpt lat="47.09224" lon="-1.86401">
        <ele>13.27</ele>
        <time>2020-05-17T11:05:16Z</time>
      </trkpt>
      <trkpt lat="47.09212" lon="-1.86409">
        <ele>13.67</ele>
        <time>2020-05-17T11:05:18Z</time>
      </trkpt>
      <trkpt lat="47.09202" lon="-1.86415">
        <ele>13.83</ele>
        <time>2020-05-17T11:05:20Z</time>
      </trkpt>
      <trkpt lat="47.09191" lon="-1.86421">
        <ele>14.14</ele>
        <time>2020-05-17T11:05:22Z</time>
      </trkpt>
      <trkpt lat="47.09182" lon="-1.86426">
        <ele>14.06</ele>
        <time>2020-05-17T11:05:24Z</time>
      </trkpt>
      <trkpt lat="47.0917" lon="-1.86431">
        <ele>13.46</ele>
        <time>2020-05-17T11:05:26Z</time>
      </trkpt>
      <trkpt lat="47.09155" lon="-1.86436">
        <ele>13</ele>
        <time>2020-05-17T11:05:28Z</time>
      </trkpt>
      <trkpt lat="47.09139" lon="-1.8644">
        <ele>12.87</ele>
        <time>2020-05-17T11:05:30Z</time>
      </trkpt>
      <trkpt lat="47.09125" lon="-1.8644">
        <ele>12.4</ele>
        <time>2020-05-17T11:05:32Z</time>
      </trkpt>
      <trkpt lat="47.09113" lon="-1.86438">
        <ele>12.6</ele>
        <time>2020-05-17T11:05:34Z</time>
      </trkpt>
      <trkpt lat="47.09101" lon="-1.86437">
        <ele>12.1</ele>
        <time>2020-05-17T11:05:36Z</time>
      </trkpt>
      <trkpt lat="47.09088" lon="-1.86436">
        <ele>12.05</ele>
        <time>2020-05-17T11:05:38Z</time>
      </trkpt>
      <trkpt lat="47.09075" lon="-1.86433">
        <ele>12.22</ele>
        <time>2020-05-17T11:05:40Z</time>
      </trkpt>
      <trkpt lat="47.09063" lon="-1.86432">
        <ele>12.44</ele>
        <time>2020-05-17T11:05:42Z</time>
      </trkpt>
      <trkpt lat="47.09052" lon="-1.8643">
        <ele>13.21</ele>
        <time>2020-05-17T11:05:44Z</time>
      </trkpt>
      <trkpt lat="47.09041" lon="-1.86431">
        <ele>13.17</ele>
        <time>2020-05-17T11:05:46Z</time>
      </trkpt>
      <trkpt lat="47.09031" lon="-1.86423">
        <ele>12.81</ele>
        <time>2020-05-17T11:05:49Z</time>
      </trkpt>
      <trkpt lat="47.09028" lon="-1.86411">
        <ele>12.92</ele>
        <time>2020-05-17T11:05:51Z</time>
      </trkpt>
      <trkpt lat="47.09027" lon="-1.86396">
        <ele>13.43</ele>
        <time>2020-05-17T11:05:53Z</time>
      </trkpt>
      <trkpt lat="47.09025" lon="-1.8638">
        <ele>14.52</ele>
        <time>2020-05-17T11:05:55Z</time>
      </trkpt>
      <trkpt lat="47.09025" lon="-1.86364">
        <ele>15.19</ele>
        <time>2020-05-17T11:05:57Z</time>
      </trkpt>
      <trkpt lat="47.09024" lon="-1.86342">
        <ele>15.46</ele>
        <time>2020-05-17T11:05:59Z</time>
      </trkpt>
      <trkpt lat="47.09023" lon="-1.8632">
        <ele>15.43</ele>
        <time>2020-05-17T11:06:01Z</time>
      </trkpt>
      <trkpt lat="47.09022" lon="-1.86302">
        <ele>15.34</ele>
        <time>2020-05-17T11:06:03Z</time>
      </trkpt>
      <trkpt lat="47.0902" lon="-1.86282">
        <ele>15.68</ele>
        <time>2020-05-17T11:06:05Z</time>
      </trkpt>
      <trkpt lat="47.09019" lon="-1.86259">
        <ele>15.64</ele>
        <time>2020-05-17T11:06:07Z</time>
      </trkpt>
      <trkpt lat="47.09018" lon="-1.86242">
        <ele>15.43</ele>
        <time>2020-05-17T11:06:09Z</time>
      </trkpt>
      <trkpt lat="47.09018" lon="-1.86225">
        <ele>14.8</ele>
        <time>2020-05-17T11:06:11Z</time>
      </trkpt>
      <trkpt lat="47.09018" lon="-1.86209">
        <ele>15.08</ele>
        <time>2020-05-17T11:06:13Z</time>
      </trkpt>
      <trkpt lat="47.09016" lon="-1.86191">
        <ele>15.58</ele>
        <time>2020-05-17T11:06:15Z</time>
      </trkpt>
      <trkpt lat="47.09012" lon="-1.86177">
        <ele>15.29</ele>
        <time>2020-05-17T11:06:17Z</time>
      </trkpt>
      <trkpt lat="47.09001" lon="-1.8617">
        <ele>15.42</ele>
        <time>2020-05-17T11:06:20Z</time>
      </trkpt>
      <trkpt lat="47.08989" lon="-1.86171">
        <ele>15.37</ele>
        <time>2020-05-17T11:06:22Z</time>
      </trkpt>
      <trkpt lat="47.08978" lon="-1.86172">
        <ele>15.42</ele>
        <time>2020-05-17T11:06:24Z</time>
      </trkpt>
      <trkpt lat="47.08965" lon="-1.86171">
        <ele>15.07</ele>
        <time>2020-05-17T11:06:26Z</time>
      </trkpt>
      <trkpt lat="47.08951" lon="-1.86169">
        <ele>14.6</ele>
        <time>2020-05-17T11:06:28Z</time>
      </trkpt>
      <trkpt lat="47.08939" lon="-1.86166">
        <ele>14.79</ele>
        <time>2020-05-17T11:06:30Z</time>
      </trkpt>
      <trkpt lat="47.08926" lon="-1.86162">
        <ele>14.37</ele>
        <time>2020-05-17T11:06:32Z</time>
      </trkpt>
      <trkpt lat="47.08916" lon="-1.86157">
        <ele>14.02</ele>
        <time>2020-05-17T11:06:34Z</time>
      </trkpt>
      <trkpt lat="47.08905" lon="-1.86152">
        <ele>13.58</ele>
        <time>2020-05-17T11:06:36Z</time>
      </trkpt>
      <trkpt lat="47.08895" lon="-1.86147">
        <ele>14.71</ele>
        <time>2020-05-17T11:06:38Z</time>
      </trkpt>
      <trkpt lat="47.08884" lon="-1.86142">
        <ele>15.9</ele>
        <time>2020-05-17T11:06:40Z</time>
      </trkpt>
      <trkpt lat="47.08871" lon="-1.86137">
        <ele>16.68</ele>
        <time>2020-05-17T11:06:42Z</time>
      </trkpt>
      <trkpt lat="47.08857" lon="-1.86133">
        <ele>17.39</ele>
        <time>2020-05-17T11:06:44Z</time>
      </trkpt>
      <trkpt lat="47.08847" lon="-1.8613">
        <ele>16.82</ele>
        <time>2020-05-17T11:06:46Z</time>
      </trkpt>
      <trkpt lat="47.08835" lon="-1.86129">
        <ele>17.02</ele>
        <time>2020-05-17T11:06:48Z</time>
      </trkpt>
      <trkpt lat="47.08823" lon="-1.86132">
        <ele>17.22</ele>
        <time>2020-05-17T11:06:50Z</time>
      </trkpt>
      <trkpt lat="47.08814" lon="-1.86138">
        <ele>17.18</ele>
        <time>2020-05-17T11:06:52Z</time>
      </trkpt>
      <trkpt lat="47.08804" lon="-1.86144">
        <ele>17</ele>
        <time>2020-05-17T11:06:54Z</time>
      </trkpt>
      <trkpt lat="47.08792" lon="-1.86153">
        <ele>17.36</ele>
        <time>2020-05-17T11:06:56Z</time>
      </trkpt>
      <trkpt lat="47.08781" lon="-1.86162">
        <ele>17.75</ele>
        <time>2020-05-17T11:06:58Z</time>
      </trkpt>
      <trkpt lat="47.0877" lon="-1.8617">
        <ele>17.85</ele>
        <time>2020-05-17T11:07:00Z</time>
      </trkpt>
      <trkpt lat="47.0876" lon="-1.86177">
        <ele>18.14</ele>
        <time>2020-05-17T11:07:02Z</time>
      </trkpt>
      <trkpt lat="47.08748" lon="-1.86183">
        <ele>18.54</ele>
        <time>2020-05-17T11:07:04Z</time>
      </trkpt>
      <trkpt lat="47.08737" lon="-1.86187">
        <ele>19.23</ele>
        <time>2020-05-17T11:07:06Z</time>
      </trkpt>
      <trkpt lat="47.08724" lon="-1.86189">
        <ele>19.62</ele>
        <time>2020-05-17T11:07:08Z</time>
      </trkpt>
      <trkpt lat="47.08713" lon="-1.86189">
        <ele>18.72</ele>
        <time>2020-05-17T11:07:10Z</time>
      </trkpt>
      <trkpt lat="47.08701" lon="-1.86189">
        <ele>19.29</ele>
        <time>2020-05-17T11:07:12Z</time>
      </trkpt>
      <trkpt lat="47.08689" lon="-1.86189">
        <ele>19.96</ele>
        <time>2020-05-17T11:07:14Z</time>
      </trkpt>
      <trkpt lat="47.08677" lon="-1.86189">
        <ele>19.66</ele>
        <time>2020-05-17T11:07:16Z</time>
      </trkpt>
      <trkpt lat="47.08665" lon="-1.86189">
        <ele>19.05</ele>
        <time>2020-05-17T11:07:18Z</time>
      </trkpt>
      <trkpt lat="47.08653" lon="-1.86189">
        <ele>18.68</ele>
        <time>2020-05-17T11:07:20Z</time>
      </trkpt>
      <trkpt lat="47.08642" lon="-1.8619">
        <ele>18.77</ele>
        <time>2020-05-17T11:07:22Z</time>
      </trkpt>
      <trkpt lat="47.08629" lon="-1.86189">
        <ele>19.07</ele>
        <time>2020-05-17T11:07:24Z</time>
      </trkpt>
      <trkpt lat="47.08616" lon="-1.86187">
        <ele>18.96</ele>
        <time>2020-05-17T11:07:26Z</time>
      </trkpt>
      <trkpt lat="47.08604" lon="-1.86185">
        <ele>18.11</ele>
        <time>2020-05-17T11:07:28Z</time>
      </trkpt>
      <trkpt lat="47.0859" lon="-1.86181">
        <ele>17.24</ele>
        <time>2020-05-17T11:07:30Z</time>
      </trkpt>
      <trkpt lat="47.08577" lon="-1.86178">
        <ele>16.99</ele>
        <time>2020-05-17T11:07:32Z</time>
      </trkpt>
      <trkpt lat="47.08565" lon="-1.86174">
        <ele>17.35</ele>
        <time>2020-05-17T11:07:34Z</time>
      </trkpt>
      <trkpt lat="47.08553" lon="-1.8617">
        <ele>17.36</ele>
        <time>2020-05-17T11:07:36Z</time>
      </trkpt>
      <trkpt lat="47.08543" lon="-1.86167">
        <ele>17.75</ele>
        <time>2020-05-17T11:07:38Z</time>
      </trkpt>
      <trkpt lat="47.0853" lon="-1.86162">
        <ele>17.78</ele>
        <time>2020-05-17T11:07:40Z</time>
      </trkpt>
      <trkpt lat="47.08518" lon="-1.86159">
        <ele>17.86</ele>
        <time>2020-05-17T11:07:42Z</time>
      </trkpt>
      <trkpt lat="47.08507" lon="-1.86155">
        <ele>18.77</ele>
        <time>2020-05-17T11:07:44Z</time>
      </trkpt>
      <trkpt lat="47.08495" lon="-1.8615">
        <ele>18.33</ele>
        <time>2020-05-17T11:07:46Z</time>
      </trkpt>
      <trkpt lat="47.08482" lon="-1.86145">
        <ele>17.74</ele>
        <time>2020-05-17T11:07:48Z</time>
      </trkpt>
      <trkpt lat="47.08472" lon="-1.86141">
        <ele>18.12</ele>
        <time>2020-05-17T11:07:50Z</time>
      </trkpt>
      <trkpt lat="47.08461" lon="-1.86138">
        <ele>19.55</ele>
        <time>2020-05-17T11:07:52Z</time>
      </trkpt>
      <trkpt lat="47.0845" lon="-1.86135">
        <ele>20.35</ele>
        <time>2020-05-17T11:07:54Z</time>
      </trkpt>
      <trkpt lat="47.08437" lon="-1.86133">
        <ele>20.65</ele>
        <time>2020-05-17T11:07:56Z</time>
      </trkpt>
      <trkpt lat="47.08425" lon="-1.8613">
        <ele>20.1</ele>
        <time>2020-05-17T11:07:58Z</time>
      </trkpt>
      <trkpt lat="47.08414" lon="-1.86129">
        <ele>19.1</ele>
        <time>2020-05-17T11:08:00Z</time>
      </trkpt>
      <trkpt lat="47.08404" lon="-1.86128">
        <ele>18.87</ele>
        <time>2020-05-17T11:08:02Z</time>
      </trkpt>
      <trkpt lat="47.08392" lon="-1.86126">
        <ele>18.96</ele>
        <time>2020-05-17T11:08:04Z</time>
      </trkpt>
      <trkpt lat="47.08381" lon="-1.86125">
        <ele>19.34</ele>
        <time>2020-05-17T11:08:06Z</time>
      </trkpt>
      <trkpt lat="47.08371" lon="-1.86123">
        <ele>19.85</ele>
        <time>2020-05-17T11:08:08Z</time>
      </trkpt>
      <trkpt lat="47.0836" lon="-1.86121">
        <ele>20.59</ele>
        <time>2020-05-17T11:08:10Z</time>
      </trkpt>
      <trkpt lat="47.08349" lon="-1.86118">
        <ele>20.94</ele>
        <time>2020-05-17T11:08:12Z</time>
      </trkpt>
      <trkpt lat="47.08338" lon="-1.86116">
        <ele>21.93</ele>
        <time>2020-05-17T11:08:14Z</time>
      </trkpt>
      <trkpt lat="47.08326" lon="-1.86113">
        <ele>22.35</ele>
        <time>2020-05-17T11:08:17Z</time>
      </trkpt>
      <trkpt lat="47.08316" lon="-1.86112">
        <ele>22.17</ele>
        <time>2020-05-17T11:08:21Z</time>
      </trkpt>
      <trkpt lat="47.08305" lon="-1.86105">
        <ele>22.19</ele>
        <time>2020-05-17T11:08:34Z</time>
      </trkpt>
      <trkpt lat="47.08295" lon="-1.86099">
        <ele>21.84</ele>
        <time>2020-05-17T11:08:36Z</time>
      </trkpt>
      <trkpt lat="47.08285" lon="-1.86095">
        <ele>21.71</ele>
        <time>2020-05-17T11:08:38Z</time>
      </trkpt>
      <trkpt lat="47.08273" lon="-1.86093">
        <ele>22.13</ele>
        <time>2020-05-17T11:08:40Z</time>
      </trkpt>
      <trkpt lat="47.08262" lon="-1.8609">
        <ele>23.18</ele>
        <time>2020-05-17T11:08:42Z</time>
      </trkpt>
      <trkpt lat="47.08249" lon="-1.86088">
        <ele>23.69</ele>
        <time>2020-05-17T11:08:44Z</time>
      </trkpt>
      <trkpt lat="47.08237" lon="-1.86087">
        <ele>23.46</ele>
        <time>2020-05-17T11:08:46Z</time>
      </trkpt>
      <trkpt lat="47.08226" lon="-1.86085">
        <ele>23.19</ele>
        <time>2020-05-17T11:08:48Z</time>
      </trkpt>
      <trkpt lat="47.08213" lon="-1.86082">
        <ele>23.01</ele>
        <time>2020-05-17T11:08:50Z</time>
      </trkpt>
      <trkpt lat="47.08201" lon="-1.8608">
        <ele>23.28</ele>
        <time>2020-05-17T11:08:52Z</time>
      </trkpt>
      <trkpt lat="47.08189" lon="-1.86078">
        <ele>23.74</ele>
        <time>2020-05-17T11:08:54Z</time>
      </trkpt>
      <trkpt lat="47.08176" lon="-1.86075">
        <ele>24.9</ele>
        <time>2020-05-17T11:08:56Z</time>
      </trkpt>
      <trkpt lat="47.08165" lon="-1.86072">
        <ele>24.91</ele>
        <time>2020-05-17T11:08:58Z</time>
      </trkpt>
      <trkpt lat="47.08153" lon="-1.8607">
        <ele>24.9</ele>
        <time>2020-05-17T11:09:00Z</time>
      </trkpt>
      <trkpt lat="47.08141" lon="-1.86068">
        <ele>24.79</ele>
        <time>2020-05-17T11:09:02Z</time>
      </trkpt>
      <trkpt lat="47.08129" lon="-1.86065">
        <ele>25.21</ele>
        <time>2020-05-17T11:09:04Z</time>
      </trkpt>
      <trkpt lat="47.08117" lon="-1.86063">
        <ele>25.75</ele>
        <time>2020-05-17T11:09:06Z</time>
      </trkpt>
      <trkpt lat="47.08106" lon="-1.86061">
        <ele>26.33</ele>
        <time>2020-05-17T11:09:08Z</time>
      </trkpt>
      <trkpt lat="47.08094" lon="-1.86058">
        <ele>26.56</ele>
        <time>2020-05-17T11:09:10Z</time>
      </trkpt>
      <trkpt lat="47.08082" lon="-1.86055">
        <ele>27.15</ele>
        <time>2020-05-17T11:09:12Z</time>
      </trkpt>
      <trkpt lat="47.08072" lon="-1.86054">
        <ele>27.53</ele>
        <time>2020-05-17T11:09:14Z</time>
      </trkpt>
      <trkpt lat="47.08061" lon="-1.86052">
        <ele>28.01</ele>
        <time>2020-05-17T11:09:16Z</time>
      </trkpt>
      <trkpt lat="47.08049" lon="-1.86049">
        <ele>27.02</ele>
        <time>2020-05-17T11:09:18Z</time>
      </trkpt>
      <trkpt lat="47.08037" lon="-1.86046">
        <ele>27.02</ele>
        <time>2020-05-17T11:09:20Z</time>
      </trkpt>
      <trkpt lat="47.08027" lon="-1.86044">
        <ele>27.22</ele>
        <time>2020-05-17T11:09:22Z</time>
      </trkpt>
      <trkpt lat="47.08014" lon="-1.86042">
        <ele>27.76</ele>
        <time>2020-05-17T11:09:24Z</time>
      </trkpt>
      <trkpt lat="47.08002" lon="-1.86041">
        <ele>27.3</ele>
        <time>2020-05-17T11:09:26Z</time>
      </trkpt>
      <trkpt lat="47.07991" lon="-1.86039">
        <ele>27</ele>
        <time>2020-05-17T11:09:28Z</time>
      </trkpt>
      <trkpt lat="47.07979" lon="-1.86037">
        <ele>26.46</ele>
        <time>2020-05-17T11:09:30Z</time>
      </trkpt>
      <trkpt lat="47.07968" lon="-1.86036">
        <ele>26.54</ele>
        <time>2020-05-17T11:09:32Z</time>
      </trkpt>
      <trkpt lat="47.07957" lon="-1.86034">
        <ele>26.78</ele>
        <time>2020-05-17T11:09:34Z</time>
      </trkpt>
      <trkpt lat="47.07944" lon="-1.86032">
        <ele>26.54</ele>
        <time>2020-05-17T11:09:36Z</time>
      </trkpt>
      <trkpt lat="47.07932" lon="-1.86029">
        <ele>26.74</ele>
        <time>2020-05-17T11:09:38Z</time>
      </trkpt>
      <trkpt lat="47.0792" lon="-1.86027">
        <ele>26.72</ele>
        <time>2020-05-17T11:09:40Z</time>
      </trkpt>
      <trkpt lat="47.07907" lon="-1.86024">
        <ele>25.89</ele>
        <time>2020-05-17T11:09:42Z</time>
      </trkpt>
      <trkpt lat="47.07896" lon="-1.86021">
        <ele>26.19</ele>
        <time>2020-05-17T11:09:44Z</time>
      </trkpt>
      <trkpt lat="47.07887" lon="-1.86019">
        <ele>26.5</ele>
        <time>2020-05-17T11:09:46Z</time>
      </trkpt>
      <trkpt lat="47.07876" lon="-1.86015">
        <ele>27.87</ele>
        <time>2020-05-17T11:09:48Z</time>
      </trkpt>
      <trkpt lat="47.07864" lon="-1.86013">
        <ele>27.79</ele>
        <time>2020-05-17T11:09:50Z</time>
      </trkpt>
      <trkpt lat="47.07854" lon="-1.86011">
        <ele>27.95</ele>
        <time>2020-05-17T11:09:52Z</time>
      </trkpt>
      <trkpt lat="47.07842" lon="-1.86007">
        <ele>27.7</ele>
        <time>2020-05-17T11:09:54Z</time>
      </trkpt>
      <trkpt lat="47.0783" lon="-1.86003">
        <ele>27.94</ele>
        <time>2020-05-17T11:09:56Z</time>
      </trkpt>
      <trkpt lat="47.07817" lon="-1.85998">
        <ele>28.56</ele>
        <time>2020-05-17T11:09:58Z</time>
      </trkpt>
      <trkpt lat="47.07806" lon="-1.85995">
        <ele>28.66</ele>
        <time>2020-05-17T11:10:00Z</time>
      </trkpt>
      <trkpt lat="47.07791" lon="-1.85992">
        <ele>28.32</ele>
        <time>2020-05-17T11:10:02Z</time>
      </trkpt>
      <trkpt lat="47.0778" lon="-1.85989">
        <ele>27.41</ele>
        <time>2020-05-17T11:10:04Z</time>
      </trkpt>
      <trkpt lat="47.07771" lon="-1.85986">
        <ele>27.73</ele>
        <time>2020-05-17T11:10:06Z</time>
      </trkpt>
      <trkpt lat="47.0776" lon="-1.85983">
        <ele>28.85</ele>
        <time>2020-05-17T11:10:08Z</time>
      </trkpt>
      <trkpt lat="47.07749" lon="-1.85979">
        <ele>29.69</ele>
        <time>2020-05-17T11:10:10Z</time>
      </trkpt>
      <trkpt lat="47.07738" lon="-1.85976">
        <ele>29.7</ele>
        <time>2020-05-17T11:10:12Z</time>
      </trkpt>
      <trkpt lat="47.07726" lon="-1.85972">
        <ele>30.15</ele>
        <time>2020-05-17T11:10:14Z</time>
      </trkpt>
      <trkpt lat="47.07714" lon="-1.85968">
        <ele>30.04</ele>
        <time>2020-05-17T11:10:16Z</time>
      </trkpt>
      <trkpt lat="47.07702" lon="-1.85966">
        <ele>30.03</ele>
        <time>2020-05-17T11:10:18Z</time>
      </trkpt>
      <trkpt lat="47.07688" lon="-1.85962">
        <ele>29.19</ele>
        <time>2020-05-17T11:10:20Z</time>
      </trkpt>
      <trkpt lat="47.07676" lon="-1.85958">
        <ele>29.28</ele>
        <time>2020-05-17T11:10:22Z</time>
      </trkpt>
      <trkpt lat="47.07664" lon="-1.85954">
        <ele>30</ele>
        <time>2020-05-17T11:10:24Z</time>
      </trkpt>
      <trkpt lat="47.07654" lon="-1.85951">
        <ele>30.43</ele>
        <time>2020-05-17T11:10:26Z</time>
      </trkpt>
      <trkpt lat="47.07643" lon="-1.85947">
        <ele>30.58</ele>
        <time>2020-05-17T11:10:28Z</time>
      </trkpt>
      <trkpt lat="47.07631" lon="-1.85942">
        <ele>31.3</ele>
        <time>2020-05-17T11:10:30Z</time>
      </trkpt>
      <trkpt lat="47.07619" lon="-1.85936">
        <ele>31.19</ele>
        <time>2020-05-17T11:10:32Z</time>
      </trkpt>
      <trkpt lat="47.07607" lon="-1.8593">
        <ele>30.56</ele>
        <time>2020-05-17T11:10:34Z</time>
      </trkpt>
      <trkpt lat="47.07595" lon="-1.85923">
        <ele>29.37</ele>
        <time>2020-05-17T11:10:36Z</time>
      </trkpt>
      <trkpt lat="47.07585" lon="-1.85917">
        <ele>29.66</ele>
        <time>2020-05-17T11:10:38Z</time>
      </trkpt>
      <trkpt lat="47.07572" lon="-1.8591">
        <ele>30.12</ele>
        <time>2020-05-17T11:10:40Z</time>
      </trkpt>
      <trkpt lat="47.07561" lon="-1.85904">
        <ele>30.18</ele>
        <time>2020-05-17T11:10:42Z</time>
      </trkpt>
      <trkpt lat="47.0755" lon="-1.85896">
        <ele>30.75</ele>
        <time>2020-05-17T11:10:44Z</time>
      </trkpt>
      <trkpt lat="47.07539" lon="-1.8589">
        <ele>30.96</ele>
        <time>2020-05-17T11:10:46Z</time>
      </trkpt>
      <trkpt lat="47.07528" lon="-1.85885">
        <ele>29.91</ele>
        <time>2020-05-17T11:10:48Z</time>
      </trkpt>
      <trkpt lat="47.07515" lon="-1.85877">
        <ele>29.14</ele>
        <time>2020-05-17T11:10:50Z</time>
      </trkpt>
      <trkpt lat="47.07502" lon="-1.8587">
        <ele>29.23</ele>
        <time>2020-05-17T11:10:52Z</time>
      </trkpt>
      <trkpt lat="47.0749" lon="-1.85863">
        <ele>29.68</ele>
        <time>2020-05-17T11:10:54Z</time>
      </trkpt>
      <trkpt lat="47.07479" lon="-1.85854">
        <ele>29.95</ele>
        <time>2020-05-17T11:10:56Z</time>
      </trkpt>
      <trkpt lat="47.07469" lon="-1.85846">
        <ele>29.64</ele>
        <time>2020-05-17T11:10:58Z</time>
      </trkpt>
      <trkpt lat="47.07458" lon="-1.85836">
        <ele>29.36</ele>
        <time>2020-05-17T11:11:00Z</time>
      </trkpt>
      <trkpt lat="47.07445" lon="-1.85825">
        <ele>28.59</ele>
        <time>2020-05-17T11:11:02Z</time>
      </trkpt>
      <trkpt lat="47.07434" lon="-1.85817">
        <ele>27.12</ele>
        <time>2020-05-17T11:11:04Z</time>
      </trkpt>
      <trkpt lat="47.07421" lon="-1.85809">
        <ele>27.52</ele>
        <time>2020-05-17T11:11:06Z</time>
      </trkpt>
      <trkpt lat="47.07408" lon="-1.85802">
        <ele>27.74</ele>
        <time>2020-05-17T11:11:08Z</time>
      </trkpt>
      <trkpt lat="47.07393" lon="-1.85793">
        <ele>27.59</ele>
        <time>2020-05-17T11:11:10Z</time>
      </trkpt>
      <trkpt lat="47.0738" lon="-1.85786">
        <ele>27.03</ele>
        <time>2020-05-17T11:11:12Z</time>
      </trkpt>
      <trkpt lat="47.07365" lon="-1.8578">
        <ele>26.21</ele>
        <time>2020-05-17T11:11:14Z</time>
      </trkpt>
      <trkpt lat="47.07352" lon="-1.85775">
        <ele>25.43</ele>
        <time>2020-05-17T11:11:16Z</time>
      </trkpt>
      <trkpt lat="47.0734" lon="-1.85771">
        <ele>26.17</ele>
        <time>2020-05-17T11:11:18Z</time>
      </trkpt>
      <trkpt lat="47.07326" lon="-1.85766">
        <ele>27.05</ele>
        <time>2020-05-17T11:11:20Z</time>
      </trkpt>
      <trkpt lat="47.0731" lon="-1.85761">
        <ele>27.46</ele>
        <time>2020-05-17T11:11:22Z</time>
      </trkpt>
      <trkpt lat="47.07296" lon="-1.85757">
        <ele>26.91</ele>
        <time>2020-05-17T11:11:24Z</time>
      </trkpt>
      <trkpt lat="47.07282" lon="-1.85755">
        <ele>26.99</ele>
        <time>2020-05-17T11:11:26Z</time>
      </trkpt>
      <trkpt lat="47.07269" lon="-1.85753">
        <ele>27.45</ele>
        <time>2020-05-17T11:11:28Z</time>
      </trkpt>
      <trkpt lat="47.07254" lon="-1.8575">
        <ele>27.53</ele>
        <time>2020-05-17T11:11:30Z</time>
      </trkpt>
      <trkpt lat="47.07239" lon="-1.85746">
        <ele>26.93</ele>
        <time>2020-05-17T11:11:32Z</time>
      </trkpt>
      <trkpt lat="47.07225" lon="-1.85743">
        <ele>26.44</ele>
        <time>2020-05-17T11:11:34Z</time>
      </trkpt>
      <trkpt lat="47.0721" lon="-1.85739">
        <ele>26.12</ele>
        <time>2020-05-17T11:11:36Z</time>
      </trkpt>
      <trkpt lat="47.07196" lon="-1.85736">
        <ele>25.73</ele>
        <time>2020-05-17T11:11:38Z</time>
      </trkpt>
      <trkpt lat="47.07182" lon="-1.85732">
        <ele>25.2</ele>
        <time>2020-05-17T11:11:40Z</time>
      </trkpt>
      <trkpt lat="47.0717" lon="-1.85727">
        <ele>24.4</ele>
        <time>2020-05-17T11:11:42Z</time>
      </trkpt>
      <trkpt lat="47.07157" lon="-1.85722">
        <ele>23.99</ele>
        <time>2020-05-17T11:11:44Z</time>
      </trkpt>
      <trkpt lat="47.07142" lon="-1.85716">
        <ele>24.22</ele>
        <time>2020-05-17T11:11:46Z</time>
      </trkpt>
      <trkpt lat="47.0713" lon="-1.85711">
        <ele>24.36</ele>
        <time>2020-05-17T11:11:48Z</time>
      </trkpt>
      <trkpt lat="47.07116" lon="-1.85704">
        <ele>24.44</ele>
        <time>2020-05-17T11:11:50Z</time>
      </trkpt>
      <trkpt lat="47.07101" lon="-1.85698">
        <ele>24.58</ele>
        <time>2020-05-17T11:11:52Z</time>
      </trkpt>
      <trkpt lat="47.07088" lon="-1.85691">
        <ele>24.37</ele>
        <time>2020-05-17T11:11:54Z</time>
      </trkpt>
      <trkpt lat="47.07077" lon="-1.85685">
        <ele>23.95</ele>
        <time>2020-05-17T11:11:56Z</time>
      </trkpt>
      <trkpt lat="47.07065" lon="-1.85679">
        <ele>24.01</ele>
        <time>2020-05-17T11:11:58Z</time>
      </trkpt>
      <trkpt lat="47.07052" lon="-1.85672">
        <ele>24.36</ele>
        <time>2020-05-17T11:12:00Z</time>
      </trkpt>
      <trkpt lat="47.07039" lon="-1.85666">
        <ele>24.16</ele>
        <time>2020-05-17T11:12:02Z</time>
      </trkpt>
      <trkpt lat="47.07026" lon="-1.85658">
        <ele>23.93</ele>
        <time>2020-05-17T11:12:04Z</time>
      </trkpt>
      <trkpt lat="47.07014" lon="-1.85652">
        <ele>23.67</ele>
        <time>2020-05-17T11:12:06Z</time>
      </trkpt>
      <trkpt lat="47.07001" lon="-1.85644">
        <ele>23.39</ele>
        <time>2020-05-17T11:12:08Z</time>
      </trkpt>
      <trkpt lat="47.06989" lon="-1.85637">
        <ele>23.94</ele>
        <time>2020-05-17T11:12:10Z</time>
      </trkpt>
      <trkpt lat="47.06978" lon="-1.85631">
        <ele>24.54</ele>
        <time>2020-05-17T11:12:12Z</time>
      </trkpt>
      <trkpt lat="47.06965" lon="-1.85623">
        <ele>24.26</ele>
        <time>2020-05-17T11:12:14Z</time>
      </trkpt>
      <trkpt lat="47.06953" lon="-1.85616">
        <ele>24.18</ele>
        <time>2020-05-17T11:12:16Z</time>
      </trkpt>
      <trkpt lat="47.06941" lon="-1.85609">
        <ele>25.07</ele>
        <time>2020-05-17T11:12:18Z</time>
      </trkpt>
      <trkpt lat="47.06928" lon="-1.85602">
        <ele>25.47</ele>
        <time>2020-05-17T11:12:20Z</time>
      </trkpt>
      <trkpt lat="47.06914" lon="-1.85596">
        <ele>25.8</ele>
        <time>2020-05-17T11:12:22Z</time>
      </trkpt>
      <trkpt lat="47.06901" lon="-1.8559">
        <ele>26.28</ele>
        <time>2020-05-17T11:12:24Z</time>
      </trkpt>
      <trkpt lat="47.06888" lon="-1.85586">
        <ele>26.75</ele>
        <time>2020-05-17T11:12:26Z</time>
      </trkpt>
      <trkpt lat="47.06877" lon="-1.85581">
        <ele>27</ele>
        <time>2020-05-17T11:12:28Z</time>
      </trkpt>
      <trkpt lat="47.06865" lon="-1.85578">
        <ele>26.88</ele>
        <time>2020-05-17T11:12:30Z</time>
      </trkpt>
      <trkpt lat="47.06851" lon="-1.85573">
        <ele>26.66</ele>
        <time>2020-05-17T11:12:32Z</time>
      </trkpt>
      <trkpt lat="47.06838" lon="-1.85567">
        <ele>26.14</ele>
        <time>2020-05-17T11:12:34Z</time>
      </trkpt>
      <trkpt lat="47.06828" lon="-1.85561">
        <ele>26.3</ele>
        <time>2020-05-17T11:12:36Z</time>
      </trkpt>
      <trkpt lat="47.06815" lon="-1.85553">
        <ele>26.3</ele>
        <time>2020-05-17T11:12:38Z</time>
      </trkpt>
      <trkpt lat="47.06802" lon="-1.85544">
        <ele>26.08</ele>
        <time>2020-05-17T11:12:40Z</time>
      </trkpt>
      <trkpt lat="47.06791" lon="-1.85534">
        <ele>26.23</ele>
        <time>2020-05-17T11:12:42Z</time>
      </trkpt>
      <trkpt lat="47.06779" lon="-1.85526">
        <ele>25.89</ele>
        <time>2020-05-17T11:12:44Z</time>
      </trkpt>
      <trkpt lat="47.06767" lon="-1.85518">
        <ele>26.07</ele>
        <time>2020-05-17T11:12:46Z</time>
      </trkpt>
      <trkpt lat="47.06755" lon="-1.85511">
        <ele>25.86</ele>
        <time>2020-05-17T11:12:48Z</time>
      </trkpt>
      <trkpt lat="47.06745" lon="-1.85505">
        <ele>24.07</ele>
        <time>2020-05-17T11:12:50Z</time>
      </trkpt>
      <trkpt lat="47.06737" lon="-1.85499">
        <ele>23.25</ele>
        <time>2020-05-17T11:12:52Z</time>
      </trkpt>
      <trkpt lat="47.0673" lon="-1.85489">
        <ele>23.23</ele>
        <time>2020-05-17T11:12:55Z</time>
      </trkpt>
      <trkpt lat="47.06729" lon="-1.85503">
        <ele>23.62</ele>
        <time>2020-05-17T11:13:04Z</time>
      </trkpt>
      <trkpt lat="47.06721" lon="-1.85513">
        <ele>23.79</ele>
        <time>2020-05-17T11:13:07Z</time>
      </trkpt>
      <trkpt lat="47.06712" lon="-1.85524">
        <ele>25.31</ele>
        <time>2020-05-17T11:13:09Z</time>
      </trkpt>
      <trkpt lat="47.06703" lon="-1.85531">
        <ele>25.03</ele>
        <time>2020-05-17T11:13:11Z</time>
      </trkpt>
      <trkpt lat="47.06691" lon="-1.85537">
        <ele>24.99</ele>
        <time>2020-05-17T11:13:13Z</time>
      </trkpt>
      <trkpt lat="47.06681" lon="-1.85542">
        <ele>24.59</ele>
        <time>2020-05-17T11:13:15Z</time>
      </trkpt>
      <trkpt lat="47.06669" lon="-1.85546">
        <ele>23.91</ele>
        <time>2020-05-17T11:13:17Z</time>
      </trkpt>
      <trkpt lat="47.06656" lon="-1.85549">
        <ele>24.46</ele>
        <time>2020-05-17T11:13:19Z</time>
      </trkpt>
      <trkpt lat="47.0664" lon="-1.85551">
        <ele>24.05</ele>
        <time>2020-05-17T11:13:21Z</time>
      </trkpt>
      <trkpt lat="47.06626" lon="-1.85552">
        <ele>23.21</ele>
        <time>2020-05-17T11:13:23Z</time>
      </trkpt>
      <trkpt lat="47.06609" lon="-1.8555">
        <ele>22.78</ele>
        <time>2020-05-17T11:13:25Z</time>
      </trkpt>
      <trkpt lat="47.066" lon="-1.85549">
        <ele>22.5</ele>
        <time>2020-05-17T11:13:26Z</time>
      </trkpt>
      <trkpt lat="47.06583" lon="-1.85546">
        <ele>21.93</ele>
        <time>2020-05-17T11:13:28Z</time>
      </trkpt>
      <trkpt lat="47.06568" lon="-1.85543">
        <ele>21.27</ele>
        <time>2020-05-17T11:13:30Z</time>
      </trkpt>
      <trkpt lat="47.06556" lon="-1.85539">
        <ele>20.58</ele>
        <time>2020-05-17T11:13:32Z</time>
      </trkpt>
      <trkpt lat="47.06544" lon="-1.85535">
        <ele>20.07</ele>
        <time>2020-05-17T11:13:34Z</time>
      </trkpt>
      <trkpt lat="47.06533" lon="-1.85532">
        <ele>20.96</ele>
        <time>2020-05-17T11:13:36Z</time>
      </trkpt>
      <trkpt lat="47.06521" lon="-1.85529">
        <ele>21.37</ele>
        <time>2020-05-17T11:13:38Z</time>
      </trkpt>
      <trkpt lat="47.06509" lon="-1.85526">
        <ele>21.33</ele>
        <time>2020-05-17T11:13:39Z</time>
      </trkpt>
      <trkpt lat="47.06499" lon="-1.85522">
        <ele>21.31</ele>
        <time>2020-05-17T11:13:41Z</time>
      </trkpt>
      <trkpt lat="47.06486" lon="-1.85518">
        <ele>21.06</ele>
        <time>2020-05-17T11:13:43Z</time>
      </trkpt>
      <trkpt lat="47.06474" lon="-1.85515">
        <ele>20.93</ele>
        <time>2020-05-17T11:13:45Z</time>
      </trkpt>
      <trkpt lat="47.06465" lon="-1.85512">
        <ele>20.33</ele>
        <time>2020-05-17T11:13:47Z</time>
      </trkpt>
      <trkpt lat="47.06454" lon="-1.85509">
        <ele>20.97</ele>
        <time>2020-05-17T11:13:49Z</time>
      </trkpt>
      <trkpt lat="47.06442" lon="-1.85506">
        <ele>22.68</ele>
        <time>2020-05-17T11:13:51Z</time>
      </trkpt>
      <trkpt lat="47.06432" lon="-1.85504">
        <ele>23.94</ele>
        <time>2020-05-17T11:13:53Z</time>
      </trkpt>
      <trkpt lat="47.06421" lon="-1.85503">
        <ele>23.86</ele>
        <time>2020-05-17T11:13:55Z</time>
      </trkpt>
      <trkpt lat="47.06411" lon="-1.85504">
        <ele>23.55</ele>
        <time>2020-05-17T11:13:57Z</time>
      </trkpt>
      <trkpt lat="47.06401" lon="-1.85506">
        <ele>23.99</ele>
        <time>2020-05-17T11:13:59Z</time>
      </trkpt>
      <trkpt lat="47.06388" lon="-1.85506">
        <ele>24.73</ele>
        <time>2020-05-17T11:14:01Z</time>
      </trkpt>
      <trkpt lat="47.06377" lon="-1.85507">
        <ele>24.6</ele>
        <time>2020-05-17T11:14:03Z</time>
      </trkpt>
      <trkpt lat="47.06364" lon="-1.85509">
        <ele>24.96</ele>
        <time>2020-05-17T11:14:05Z</time>
      </trkpt>
      <trkpt lat="47.06353" lon="-1.85509">
        <ele>25.88</ele>
        <time>2020-05-17T11:14:07Z</time>
      </trkpt>
      <trkpt lat="47.06341" lon="-1.8551">
        <ele>26.09</ele>
        <time>2020-05-17T11:14:09Z</time>
      </trkpt>
      <trkpt lat="47.0633" lon="-1.8551">
        <ele>25.77</ele>
        <time>2020-05-17T11:14:11Z</time>
      </trkpt>
      <trkpt lat="47.06318" lon="-1.85511">
        <ele>26.13</ele>
        <time>2020-05-17T11:14:13Z</time>
      </trkpt>
      <trkpt lat="47.06305" lon="-1.85512">
        <ele>26.44</ele>
        <time>2020-05-17T11:14:15Z</time>
      </trkpt>
      <trkpt lat="47.06294" lon="-1.85513">
        <ele>26.97</ele>
        <time>2020-05-17T11:14:17Z</time>
      </trkpt>
      <trkpt lat="47.06282" lon="-1.85516">
        <ele>26.29</ele>
        <time>2020-05-17T11:14:19Z</time>
      </trkpt>
      <trkpt lat="47.0627" lon="-1.85518">
        <ele>25.55</ele>
        <time>2020-05-17T11:14:21Z</time>
      </trkpt>
      <trkpt lat="47.06257" lon="-1.85521">
        <ele>25.06</ele>
        <time>2020-05-17T11:14:23Z</time>
      </trkpt>
      <trkpt lat="47.06245" lon="-1.85523">
        <ele>24.56</ele>
        <time>2020-05-17T11:14:25Z</time>
      </trkpt>
      <trkpt lat="47.06233" lon="-1.85526">
        <ele>24.91</ele>
        <time>2020-05-17T11:14:27Z</time>
      </trkpt>
      <trkpt lat="47.06221" lon="-1.8553">
        <ele>25</ele>
        <time>2020-05-17T11:14:29Z</time>
      </trkpt>
      <trkpt lat="47.0621" lon="-1.85533">
        <ele>24.75</ele>
        <time>2020-05-17T11:14:31Z</time>
      </trkpt>
      <trkpt lat="47.06198" lon="-1.85538">
        <ele>25.94</ele>
        <time>2020-05-17T11:14:33Z</time>
      </trkpt>
      <trkpt lat="47.06189" lon="-1.85541">
        <ele>26.86</ele>
        <time>2020-05-17T11:14:35Z</time>
      </trkpt>
      <trkpt lat="47.06178" lon="-1.85545">
        <ele>27.1</ele>
        <time>2020-05-17T11:14:37Z</time>
      </trkpt>
      <trkpt lat="47.06166" lon="-1.85551">
        <ele>26.65</ele>
        <time>2020-05-17T11:14:39Z</time>
      </trkpt>
      <trkpt lat="47.06154" lon="-1.85558">
        <ele>26.98</ele>
        <time>2020-05-17T11:14:41Z</time>
      </trkpt>
      <trkpt lat="47.06142" lon="-1.85566">
        <ele>26.53</ele>
        <time>2020-05-17T11:14:43Z</time>
      </trkpt>
      <trkpt lat="47.06132" lon="-1.85571">
        <ele>25.8</ele>
        <time>2020-05-17T11:14:45Z</time>
      </trkpt>
      <trkpt lat="47.06122" lon="-1.85571">
        <ele>25.7</ele>
        <time>2020-05-17T11:14:47Z</time>
      </trkpt>
      <trkpt lat="47.0611" lon="-1.85567">
        <ele>25.72</ele>
        <time>2020-05-17T11:14:49Z</time>
      </trkpt>
      <trkpt lat="47.06098" lon="-1.85559">
        <ele>26.43</ele>
        <time>2020-05-17T11:14:51Z</time>
      </trkpt>
      <trkpt lat="47.0609" lon="-1.85552">
        <ele>27.39</ele>
        <time>2020-05-17T11:14:53Z</time>
      </trkpt>
      <trkpt lat="47.0608" lon="-1.85546">
        <ele>28.86</ele>
        <time>2020-05-17T11:14:55Z</time>
      </trkpt>
      <trkpt lat="47.06069" lon="-1.8554">
        <ele>29.55</ele>
        <time>2020-05-17T11:14:57Z</time>
      </trkpt>
      <trkpt lat="47.06057" lon="-1.85536">
        <ele>29.84</ele>
        <time>2020-05-17T11:14:59Z</time>
      </trkpt>
      <trkpt lat="47.06046" lon="-1.85533">
        <ele>30.37</ele>
        <time>2020-05-17T11:15:01Z</time>
      </trkpt>
      <trkpt lat="47.06036" lon="-1.8553">
        <ele>31.1</ele>
        <time>2020-05-17T11:15:03Z</time>
      </trkpt>
      <trkpt lat="47.06025" lon="-1.85527">
        <ele>31.76</ele>
        <time>2020-05-17T11:15:05Z</time>
      </trkpt>
      <trkpt lat="47.06013" lon="-1.8552">
        <ele>32.53</ele>
        <time>2020-05-17T11:15:07Z</time>
      </trkpt>
      <trkpt lat="47.06002" lon="-1.85511">
        <ele>33.02</ele>
        <time>2020-05-17T11:15:09Z</time>
      </trkpt>
      <trkpt lat="47.05993" lon="-1.85499">
        <ele>33.93</ele>
        <time>2020-05-17T11:15:11Z</time>
      </trkpt>
      <trkpt lat="47.05983" lon="-1.85485">
        <ele>34.55</ele>
        <time>2020-05-17T11:15:13Z</time>
      </trkpt>
      <trkpt lat="47.05976" lon="-1.85474">
        <ele>35.11</ele>
        <time>2020-05-17T11:15:15Z</time>
      </trkpt>
      <trkpt lat="47.05967" lon="-1.85462">
        <ele>35.37</ele>
        <time>2020-05-17T11:15:17Z</time>
      </trkpt>
      <trkpt lat="47.05957" lon="-1.85448">
        <ele>35.93</ele>
        <time>2020-05-17T11:15:19Z</time>
      </trkpt>
      <trkpt lat="47.05948" lon="-1.85435">
        <ele>35.68</ele>
        <time>2020-05-17T11:15:21Z</time>
      </trkpt>
      <trkpt lat="47.05941" lon="-1.85424">
        <ele>35.25</ele>
        <time>2020-05-17T11:15:23Z</time>
      </trkpt>
      <trkpt lat="47.05933" lon="-1.85411">
        <ele>34.41</ele>
        <time>2020-05-17T11:15:25Z</time>
      </trkpt>
      <trkpt lat="47.05924" lon="-1.85396">
        <ele>33.81</ele>
        <time>2020-05-17T11:15:27Z</time>
      </trkpt>
      <trkpt lat="47.05915" lon="-1.85382">
        <ele>33.73</ele>
        <time>2020-05-17T11:15:29Z</time>
      </trkpt>
      <trkpt lat="47.05906" lon="-1.85367">
        <ele>34.19</ele>
        <time>2020-05-17T11:15:31Z</time>
      </trkpt>
      <trkpt lat="47.05898" lon="-1.85355">
        <ele>34.42</ele>
        <time>2020-05-17T11:15:33Z</time>
      </trkpt>
      <trkpt lat="47.0589" lon="-1.85343">
        <ele>34.36</ele>
        <time>2020-05-17T11:15:35Z</time>
      </trkpt>
      <trkpt lat="47.05881" lon="-1.8533">
        <ele>34.63</ele>
        <time>2020-05-17T11:15:37Z</time>
      </trkpt>
      <trkpt lat="47.05872" lon="-1.85317">
        <ele>34.93</ele>
        <time>2020-05-17T11:15:39Z</time>
      </trkpt>
      <trkpt lat="47.05862" lon="-1.85304">
        <ele>35.14</ele>
        <time>2020-05-17T11:15:41Z</time>
      </trkpt>
      <trkpt lat="47.05854" lon="-1.85291">
        <ele>35.22</ele>
        <time>2020-05-17T11:15:43Z</time>
      </trkpt>
      <trkpt lat="47.05845" lon="-1.85278">
        <ele>34.7</ele>
        <time>2020-05-17T11:15:45Z</time>
      </trkpt>
      <trkpt lat="47.05836" lon="-1.85264">
        <ele>34.37</ele>
        <time>2020-05-17T11:15:47Z</time>
      </trkpt>
      <trkpt lat="47.05826" lon="-1.8525">
        <ele>33.61</ele>
        <time>2020-05-17T11:15:49Z</time>
      </trkpt>
      <trkpt lat="47.05817" lon="-1.85237">
        <ele>33.5</ele>
        <time>2020-05-17T11:15:51Z</time>
      </trkpt>
      <trkpt lat="47.05808" lon="-1.85223">
        <ele>34.13</ele>
        <time>2020-05-17T11:15:53Z</time>
      </trkpt>
      <trkpt lat="47.058" lon="-1.85212">
        <ele>35.37</ele>
        <time>2020-05-17T11:15:55Z</time>
      </trkpt>
      <trkpt lat="47.05791" lon="-1.852">
        <ele>36</ele>
        <time>2020-05-17T11:15:57Z</time>
      </trkpt>
      <trkpt lat="47.05781" lon="-1.85187">
        <ele>35.53</ele>
        <time>2020-05-17T11:15:59Z</time>
      </trkpt>
      <trkpt lat="47.05771" lon="-1.85173">
        <ele>35.79</ele>
        <time>2020-05-17T11:16:01Z</time>
      </trkpt>
      <trkpt lat="47.05761" lon="-1.8516">
        <ele>36.15</ele>
        <time>2020-05-17T11:16:03Z</time>
      </trkpt>
      <trkpt lat="47.05752" lon="-1.85148">
        <ele>36.56</ele>
        <time>2020-05-17T11:16:05Z</time>
      </trkpt>
      <trkpt lat="47.05742" lon="-1.85134">
        <ele>36.35</ele>
        <time>2020-05-17T11:16:07Z</time>
      </trkpt>
      <trkpt lat="47.05732" lon="-1.85123">
        <ele>35.6</ele>
        <time>2020-05-17T11:16:09Z</time>
      </trkpt>
      <trkpt lat="47.05724" lon="-1.85113">
        <ele>35.43</ele>
        <time>2020-05-17T11:16:11Z</time>
      </trkpt>
      <trkpt lat="47.05715" lon="-1.851">
        <ele>35.76</ele>
        <time>2020-05-17T11:16:13Z</time>
      </trkpt>
      <trkpt lat="47.05704" lon="-1.85085">
        <ele>34.97</ele>
        <time>2020-05-17T11:16:15Z</time>
      </trkpt>
      <trkpt lat="47.05694" lon="-1.85073">
        <ele>34.97</ele>
        <time>2020-05-17T11:16:17Z</time>
      </trkpt>
      <trkpt lat="47.05685" lon="-1.85061">
        <ele>35.1</ele>
        <time>2020-05-17T11:16:19Z</time>
      </trkpt>
      <trkpt lat="47.05676" lon="-1.85049">
        <ele>35.46</ele>
        <time>2020-05-17T11:16:21Z</time>
      </trkpt>
      <trkpt lat="47.05668" lon="-1.85038">
        <ele>36.08</ele>
        <time>2020-05-17T11:16:23Z</time>
      </trkpt>
      <trkpt lat="47.0566" lon="-1.85028">
        <ele>36.41</ele>
        <time>2020-05-17T11:16:25Z</time>
      </trkpt>
      <trkpt lat="47.05653" lon="-1.85018">
        <ele>36.37</ele>
        <time>2020-05-17T11:16:27Z</time>
      </trkpt>
      <trkpt lat="47.05645" lon="-1.85009">
        <ele>36.75</ele>
        <time>2020-05-17T11:16:30Z</time>
      </trkpt>
      <trkpt lat="47.05631" lon="-1.84996">
        <ele>37.05</ele>
        <time>2020-05-17T11:16:33Z</time>
      </trkpt>
      <trkpt lat="47.0562" lon="-1.84983">
        <ele>36.8</ele>
        <time>2020-05-17T11:16:35Z</time>
      </trkpt>
      <trkpt lat="47.05608" lon="-1.84969">
        <ele>36.83</ele>
        <time>2020-05-17T11:16:37Z</time>
      </trkpt>
      <trkpt lat="47.05599" lon="-1.84956">
        <ele>37.2</ele>
        <time>2020-05-17T11:16:39Z</time>
      </trkpt>
      <trkpt lat="47.05588" lon="-1.8494">
        <ele>37.14</ele>
        <time>2020-05-17T11:16:41Z</time>
      </trkpt>
      <trkpt lat="47.05577" lon="-1.84927">
        <ele>36.93</ele>
        <time>2020-05-17T11:16:43Z</time>
      </trkpt>
      <trkpt lat="47.05566" lon="-1.84915">
        <ele>37.09</ele>
        <time>2020-05-17T11:16:45Z</time>
      </trkpt>
      <trkpt lat="47.05556" lon="-1.84904">
        <ele>36.35</ele>
        <time>2020-05-17T11:16:47Z</time>
      </trkpt>
      <trkpt lat="47.05545" lon="-1.84894">
        <ele>36.28</ele>
        <time>2020-05-17T11:16:49Z</time>
      </trkpt>
      <trkpt lat="47.05535" lon="-1.84884">
        <ele>36.24</ele>
        <time>2020-05-17T11:16:51Z</time>
      </trkpt>
      <trkpt lat="47.05523" lon="-1.84873">
        <ele>35.76</ele>
        <time>2020-05-17T11:16:53Z</time>
      </trkpt>
      <trkpt lat="47.05511" lon="-1.84862">
        <ele>34.96</ele>
        <time>2020-05-17T11:16:55Z</time>
      </trkpt>
      <trkpt lat="47.055" lon="-1.84852">
        <ele>35.14</ele>
        <time>2020-05-17T11:16:57Z</time>
      </trkpt>
      <trkpt lat="47.05488" lon="-1.84841">
        <ele>35.03</ele>
        <time>2020-05-17T11:16:59Z</time>
      </trkpt>
      <trkpt lat="47.05478" lon="-1.8483">
        <ele>34.87</ele>
        <time>2020-05-17T11:17:01Z</time>
      </trkpt>
      <trkpt lat="47.05469" lon="-1.8482">
        <ele>35.12</ele>
        <time>2020-05-17T11:17:03Z</time>
      </trkpt>
      <trkpt lat="47.05458" lon="-1.8481">
        <ele>35.68</ele>
        <time>2020-05-17T11:17:05Z</time>
      </trkpt>
      <trkpt lat="47.05447" lon="-1.84798">
        <ele>36.18</ele>
        <time>2020-05-17T11:17:07Z</time>
      </trkpt>
      <trkpt lat="47.05436" lon="-1.84789">
        <ele>37.28</ele>
        <time>2020-05-17T11:17:09Z</time>
      </trkpt>
      <trkpt lat="47.05425" lon="-1.84778">
        <ele>37.5</ele>
        <time>2020-05-17T11:17:11Z</time>
      </trkpt>
      <trkpt lat="47.05414" lon="-1.84769">
        <ele>37.79</ele>
        <time>2020-05-17T11:17:13Z</time>
      </trkpt>
      <trkpt lat="47.05403" lon="-1.8476">
        <ele>37.38</ele>
        <time>2020-05-17T11:17:15Z</time>
      </trkpt>
      <trkpt lat="47.0539" lon="-1.84749">
        <ele>36.71</ele>
        <time>2020-05-17T11:17:17Z</time>
      </trkpt>
      <trkpt lat="47.05379" lon="-1.84739">
        <ele>36.75</ele>
        <time>2020-05-17T11:17:19Z</time>
      </trkpt>
      <trkpt lat="47.05367" lon="-1.84729">
        <ele>36.94</ele>
        <time>2020-05-17T11:17:21Z</time>
      </trkpt>
      <trkpt lat="47.05355" lon="-1.84718">
        <ele>36.79</ele>
        <time>2020-05-17T11:17:23Z</time>
      </trkpt>
      <trkpt lat="47.05343" lon="-1.84708">
        <ele>36.71</ele>
        <time>2020-05-17T11:17:25Z</time>
      </trkpt>
      <trkpt lat="47.05332" lon="-1.84697">
        <ele>36.79</ele>
        <time>2020-05-17T11:17:27Z</time>
      </trkpt>
      <trkpt lat="47.05321" lon="-1.84686">
        <ele>37.35</ele>
        <time>2020-05-17T11:17:29Z</time>
      </trkpt>
      <trkpt lat="47.05311" lon="-1.84674">
        <ele>37.78</ele>
        <time>2020-05-17T11:17:31Z</time>
      </trkpt>
      <trkpt lat="47.05301" lon="-1.84662">
        <ele>37.65</ele>
        <time>2020-05-17T11:17:33Z</time>
      </trkpt>
      <trkpt lat="47.05291" lon="-1.84652">
        <ele>38.85</ele>
        <time>2020-05-17T11:17:35Z</time>
      </trkpt>
      <trkpt lat="47.05281" lon="-1.84641">
        <ele>38.53</ele>
        <time>2020-05-17T11:17:37Z</time>
      </trkpt>
      <trkpt lat="47.05273" lon="-1.84631">
        <ele>39.44</ele>
        <time>2020-05-17T11:17:39Z</time>
      </trkpt>
      <trkpt lat="47.05265" lon="-1.84621">
        <ele>39.35</ele>
        <time>2020-05-17T11:17:41Z</time>
      </trkpt>
      <trkpt lat="47.05255" lon="-1.84609">
        <ele>38.99</ele>
        <time>2020-05-17T11:17:43Z</time>
      </trkpt>
      <trkpt lat="47.05244" lon="-1.84597">
        <ele>38.75</ele>
        <time>2020-05-17T11:17:45Z</time>
      </trkpt>
      <trkpt lat="47.05234" lon="-1.84586">
        <ele>38.49</ele>
        <time>2020-05-17T11:17:47Z</time>
      </trkpt>
      <trkpt lat="47.05223" lon="-1.84573">
        <ele>38.71</ele>
        <time>2020-05-17T11:17:49Z</time>
      </trkpt>
      <trkpt lat="47.05212" lon="-1.8456">
        <ele>39.24</ele>
        <time>2020-05-17T11:17:51Z</time>
      </trkpt>
      <trkpt lat="47.05203" lon="-1.84547">
        <ele>39.49</ele>
        <time>2020-05-17T11:17:53Z</time>
      </trkpt>
      <trkpt lat="47.05194" lon="-1.84536">
        <ele>39.96</ele>
        <time>2020-05-17T11:17:55Z</time>
      </trkpt>
      <trkpt lat="47.05184" lon="-1.84523">
        <ele>40.24</ele>
        <time>2020-05-17T11:17:57Z</time>
      </trkpt>
      <trkpt lat="47.05176" lon="-1.84512">
        <ele>39.98</ele>
        <time>2020-05-17T11:17:59Z</time>
      </trkpt>
      <trkpt lat="47.05166" lon="-1.84498">
        <ele>39.54</ele>
        <time>2020-05-17T11:18:01Z</time>
      </trkpt>
      <trkpt lat="47.05156" lon="-1.84484">
        <ele>39.15</ele>
        <time>2020-05-17T11:18:03Z</time>
      </trkpt>
      <trkpt lat="47.05147" lon="-1.8447">
        <ele>39.28</ele>
        <time>2020-05-17T11:18:05Z</time>
      </trkpt>
      <trkpt lat="47.05138" lon="-1.84456">
        <ele>39.96</ele>
        <time>2020-05-17T11:18:07Z</time>
      </trkpt>
      <trkpt lat="47.05129" lon="-1.84441">
        <ele>40.51</ele>
        <time>2020-05-17T11:18:09Z</time>
      </trkpt>
      <trkpt lat="47.0512" lon="-1.84428">
        <ele>40.95</ele>
        <time>2020-05-17T11:18:11Z</time>
      </trkpt>
      <trkpt lat="47.05111" lon="-1.84415">
        <ele>41.6</ele>
        <time>2020-05-17T11:18:13Z</time>
      </trkpt>
      <trkpt lat="47.05101" lon="-1.84403">
        <ele>40.67</ele>
        <time>2020-05-17T11:18:15Z</time>
      </trkpt>
      <trkpt lat="47.05091" lon="-1.84389">
        <ele>39.84</ele>
        <time>2020-05-17T11:18:17Z</time>
      </trkpt>
      <trkpt lat="47.0508" lon="-1.84376">
        <ele>39.81</ele>
        <time>2020-05-17T11:18:19Z</time>
      </trkpt>
      <trkpt lat="47.0507" lon="-1.84365">
        <ele>39.99</ele>
        <time>2020-05-17T11:18:21Z</time>
      </trkpt>
      <trkpt lat="47.05058" lon="-1.84352">
        <ele>40.34</ele>
        <time>2020-05-17T11:18:23Z</time>
      </trkpt>
      <trkpt lat="47.05048" lon="-1.8434">
        <ele>40</ele>
        <time>2020-05-17T11:18:25Z</time>
      </trkpt>
      <trkpt lat="47.05039" lon="-1.84331">
        <ele>39.49</ele>
        <time>2020-05-17T11:18:27Z</time>
      </trkpt>
      <trkpt lat="47.05028" lon="-1.8432">
        <ele>38.9</ele>
        <time>2020-05-17T11:18:29Z</time>
      </trkpt>
      <trkpt lat="47.05018" lon="-1.84311">
        <ele>37.95</ele>
        <time>2020-05-17T11:18:31Z</time>
      </trkpt>
      <trkpt lat="47.05008" lon="-1.84303">
        <ele>37.69</ele>
        <time>2020-05-17T11:18:33Z</time>
      </trkpt>
      <trkpt lat="47.04997" lon="-1.84296">
        <ele>37.32</ele>
        <time>2020-05-17T11:18:35Z</time>
      </trkpt>
      <trkpt lat="47.04984" lon="-1.84287">
        <ele>37.62</ele>
        <time>2020-05-17T11:18:37Z</time>
      </trkpt>
      <trkpt lat="47.04971" lon="-1.84277">
        <ele>37.77</ele>
        <time>2020-05-17T11:18:39Z</time>
      </trkpt>
      <trkpt lat="47.04959" lon="-1.84267">
        <ele>37.97</ele>
        <time>2020-05-17T11:18:41Z</time>
      </trkpt>
      <trkpt lat="47.04947" lon="-1.84257">
        <ele>37.87</ele>
        <time>2020-05-17T11:18:43Z</time>
      </trkpt>
      <trkpt lat="47.04937" lon="-1.84246">
        <ele>38.42</ele>
        <time>2020-05-17T11:18:45Z</time>
      </trkpt>
      <trkpt lat="47.04926" lon="-1.84236">
        <ele>38.47</ele>
        <time>2020-05-17T11:18:47Z</time>
      </trkpt>
      <trkpt lat="47.04915" lon="-1.84226">
        <ele>38.63</ele>
        <time>2020-05-17T11:18:49Z</time>
      </trkpt>
      <trkpt lat="47.04904" lon="-1.84215">
        <ele>39.02</ele>
        <time>2020-05-17T11:18:51Z</time>
      </trkpt>
      <trkpt lat="47.04893" lon="-1.84203">
        <ele>38.82</ele>
        <time>2020-05-17T11:18:53Z</time>
      </trkpt>
      <trkpt lat="47.04882" lon="-1.8419">
        <ele>38.91</ele>
        <time>2020-05-17T11:18:55Z</time>
      </trkpt>
      <trkpt lat="47.04872" lon="-1.8418">
        <ele>38.83</ele>
        <time>2020-05-17T11:18:57Z</time>
      </trkpt>
      <trkpt lat="47.04862" lon="-1.84169">
        <ele>38.73</ele>
        <time>2020-05-17T11:18:59Z</time>
      </trkpt>
      <trkpt lat="47.04851" lon="-1.84158">
        <ele>38.47</ele>
        <time>2020-05-17T11:19:01Z</time>
      </trkpt>
      <trkpt lat="47.04839" lon="-1.84145">
        <ele>38.91</ele>
        <time>2020-05-17T11:19:03Z</time>
      </trkpt>
      <trkpt lat="47.04829" lon="-1.84133">
        <ele>39.25</ele>
        <time>2020-05-17T11:19:05Z</time>
      </trkpt>
      <trkpt lat="47.04819" lon="-1.84121">
        <ele>39.35</ele>
        <time>2020-05-17T11:19:07Z</time>
      </trkpt>
      <trkpt lat="47.04809" lon="-1.84108">
        <ele>39.35</ele>
        <time>2020-05-17T11:19:09Z</time>
      </trkpt>
      <trkpt lat="47.04798" lon="-1.84095">
        <ele>38.94</ele>
        <time>2020-05-17T11:19:11Z</time>
      </trkpt>
      <trkpt lat="47.04788" lon="-1.84081">
        <ele>38.97</ele>
        <time>2020-05-17T11:19:13Z</time>
      </trkpt>
      <trkpt lat="47.04779" lon="-1.84069">
        <ele>39.06</ele>
        <time>2020-05-17T11:19:15Z</time>
      </trkpt>
      <trkpt lat="47.0477" lon="-1.84057">
        <ele>39.28</ele>
        <time>2020-05-17T11:19:17Z</time>
      </trkpt>
      <trkpt lat="47.0476" lon="-1.84044">
        <ele>39.31</ele>
        <time>2020-05-17T11:19:19Z</time>
      </trkpt>
      <trkpt lat="47.04751" lon="-1.84031">
        <ele>39.31</ele>
        <time>2020-05-17T11:19:21Z</time>
      </trkpt>
      <trkpt lat="47.0474" lon="-1.84017">
        <ele>39.42</ele>
        <time>2020-05-17T11:19:23Z</time>
      </trkpt>
      <trkpt lat="47.0473" lon="-1.84005">
        <ele>39.7</ele>
        <time>2020-05-17T11:19:25Z</time>
      </trkpt>
      <trkpt lat="47.04721" lon="-1.83992">
        <ele>40.25</ele>
        <time>2020-05-17T11:19:27Z</time>
      </trkpt>
      <trkpt lat="47.0471" lon="-1.83978">
        <ele>40</ele>
        <time>2020-05-17T11:19:29Z</time>
      </trkpt>
      <trkpt lat="47.04697" lon="-1.83963">
        <ele>39.45</ele>
        <time>2020-05-17T11:19:31Z</time>
      </trkpt>
      <trkpt lat="47.04686" lon="-1.8395">
        <ele>38.52</ele>
        <time>2020-05-17T11:19:33Z</time>
      </trkpt>
      <trkpt lat="47.04675" lon="-1.83938">
        <ele>38.35</ele>
        <time>2020-05-17T11:19:35Z</time>
      </trkpt>
      <trkpt lat="47.04665" lon="-1.83927">
        <ele>38.53</ele>
        <time>2020-05-17T11:19:37Z</time>
      </trkpt>
      <trkpt lat="47.04655" lon="-1.83913">
        <ele>37.51</ele>
        <time>2020-05-17T11:19:39Z</time>
      </trkpt>
      <trkpt lat="47.04645" lon="-1.839">
        <ele>37.05</ele>
        <time>2020-05-17T11:19:41Z</time>
      </trkpt>
      <trkpt lat="47.04635" lon="-1.83885">
        <ele>37.53</ele>
        <time>2020-05-17T11:19:43Z</time>
      </trkpt>
      <trkpt lat="47.04626" lon="-1.83872">
        <ele>37.63</ele>
        <time>2020-05-17T11:19:45Z</time>
      </trkpt>
      <trkpt lat="47.04617" lon="-1.83858">
        <ele>37.79</ele>
        <time>2020-05-17T11:19:47Z</time>
      </trkpt>
      <trkpt lat="47.04607" lon="-1.83845">
        <ele>37.95</ele>
        <time>2020-05-17T11:19:49Z</time>
      </trkpt>
      <trkpt lat="47.04597" lon="-1.83834">
        <ele>38.49</ele>
        <time>2020-05-17T11:19:51Z</time>
      </trkpt>
      <trkpt lat="47.04584" lon="-1.83822">
        <ele>37.59</ele>
        <time>2020-05-17T11:19:53Z</time>
      </trkpt>
      <trkpt lat="47.04572" lon="-1.83813">
        <ele>36.72</ele>
        <time>2020-05-17T11:19:55Z</time>
      </trkpt>
      <trkpt lat="47.04559" lon="-1.83805">
        <ele>36.05</ele>
        <time>2020-05-17T11:19:57Z</time>
      </trkpt>
      <trkpt lat="47.04547" lon="-1.83799">
        <ele>35.18</ele>
        <time>2020-05-17T11:19:59Z</time>
      </trkpt>
      <trkpt lat="47.04536" lon="-1.83791">
        <ele>34.8</ele>
        <time>2020-05-17T11:20:01Z</time>
      </trkpt>
      <trkpt lat="47.04525" lon="-1.83784">
        <ele>34.48</ele>
        <time>2020-05-17T11:20:03Z</time>
      </trkpt>
      <trkpt lat="47.04512" lon="-1.83776">
        <ele>34.8</ele>
        <time>2020-05-17T11:20:05Z</time>
      </trkpt>
      <trkpt lat="47.04501" lon="-1.83769">
        <ele>35.12</ele>
        <time>2020-05-17T11:20:07Z</time>
      </trkpt>
      <trkpt lat="47.04489" lon="-1.8376">
        <ele>33.91</ele>
        <time>2020-05-17T11:20:09Z</time>
      </trkpt>
      <trkpt lat="47.04477" lon="-1.8375">
        <ele>34.4</ele>
        <time>2020-05-17T11:20:11Z</time>
      </trkpt>
      <trkpt lat="47.04467" lon="-1.83741">
        <ele>34.84</ele>
        <time>2020-05-17T11:20:13Z</time>
      </trkpt>
      <trkpt lat="47.04455" lon="-1.83732">
        <ele>35.73</ele>
        <time>2020-05-17T11:20:15Z</time>
      </trkpt>
      <trkpt lat="47.04442" lon="-1.83722">
        <ele>36.48</ele>
        <time>2020-05-17T11:20:17Z</time>
      </trkpt>
      <trkpt lat="47.04432" lon="-1.83713">
        <ele>36.54</ele>
        <time>2020-05-17T11:20:19Z</time>
      </trkpt>
      <trkpt lat="47.04422" lon="-1.83705">
        <ele>35.95</ele>
        <time>2020-05-17T11:20:21Z</time>
      </trkpt>
      <trkpt lat="47.0441" lon="-1.83696">
        <ele>34.97</ele>
        <time>2020-05-17T11:20:23Z</time>
      </trkpt>
      <trkpt lat="47.04399" lon="-1.83688">
        <ele>33.8</ele>
        <time>2020-05-17T11:20:25Z</time>
      </trkpt>
      <trkpt lat="47.04385" lon="-1.8368">
        <ele>34.4</ele>
        <time>2020-05-17T11:20:27Z</time>
      </trkpt>
      <trkpt lat="47.04371" lon="-1.83674">
        <ele>34.17</ele>
        <time>2020-05-17T11:20:29Z</time>
      </trkpt>
      <trkpt lat="47.04357" lon="-1.83668">
        <ele>34.16</ele>
        <time>2020-05-17T11:20:31Z</time>
      </trkpt>
      <trkpt lat="47.04343" lon="-1.83664">
        <ele>34.16</ele>
        <time>2020-05-17T11:20:33Z</time>
      </trkpt>
      <trkpt lat="47.04329" lon="-1.83661">
        <ele>33.96</ele>
        <time>2020-05-17T11:20:35Z</time>
      </trkpt>
      <trkpt lat="47.04315" lon="-1.83658">
        <ele>34.55</ele>
        <time>2020-05-17T11:20:37Z</time>
      </trkpt>
      <trkpt lat="47.04303" lon="-1.83656">
        <ele>34.05</ele>
        <time>2020-05-17T11:20:39Z</time>
      </trkpt>
      <trkpt lat="47.04289" lon="-1.83653">
        <ele>33.96</ele>
        <time>2020-05-17T11:20:41Z</time>
      </trkpt>
      <trkpt lat="47.04276" lon="-1.83649">
        <ele>34.04</ele>
        <time>2020-05-17T11:20:43Z</time>
      </trkpt>
      <trkpt lat="47.04262" lon="-1.83645">
        <ele>32.76</ele>
        <time>2020-05-17T11:20:45Z</time>
      </trkpt>
      <trkpt lat="47.04247" lon="-1.83642">
        <ele>32.14</ele>
        <time>2020-05-17T11:20:47Z</time>
      </trkpt>
      <trkpt lat="47.04233" lon="-1.83637">
        <ele>31.31</ele>
        <time>2020-05-17T11:20:49Z</time>
      </trkpt>
      <trkpt lat="47.04219" lon="-1.83629">
        <ele>31.16</ele>
        <time>2020-05-17T11:20:51Z</time>
      </trkpt>
      <trkpt lat="47.04206" lon="-1.8362">
        <ele>30.77</ele>
        <time>2020-05-17T11:20:53Z</time>
      </trkpt>
      <trkpt lat="47.04194" lon="-1.83618">
        <ele>30.94</ele>
        <time>2020-05-17T11:20:55Z</time>
      </trkpt>
      <trkpt lat="47.0418" lon="-1.83618">
        <ele>31.84</ele>
        <time>2020-05-17T11:20:57Z</time>
      </trkpt>
      <trkpt lat="47.04167" lon="-1.83616">
        <ele>33.1</ele>
        <time>2020-05-17T11:20:59Z</time>
      </trkpt>
      <trkpt lat="47.04153" lon="-1.83611">
        <ele>33.92</ele>
        <time>2020-05-17T11:21:01Z</time>
      </trkpt>
      <trkpt lat="47.04142" lon="-1.83605">
        <ele>34.04</ele>
        <time>2020-05-17T11:21:03Z</time>
      </trkpt>
      <trkpt lat="47.0413" lon="-1.83598">
        <ele>34.83</ele>
        <time>2020-05-17T11:21:05Z</time>
      </trkpt>
      <trkpt lat="47.04118" lon="-1.83591">
        <ele>35.03</ele>
        <time>2020-05-17T11:21:07Z</time>
      </trkpt>
      <trkpt lat="47.04105" lon="-1.83585">
        <ele>34.51</ele>
        <time>2020-05-17T11:21:09Z</time>
      </trkpt>
      <trkpt lat="47.04093" lon="-1.8358">
        <ele>34.04</ele>
        <time>2020-05-17T11:21:11Z</time>
      </trkpt>
      <trkpt lat="47.04079" lon="-1.83576">
        <ele>33.44</ele>
        <time>2020-05-17T11:21:13Z</time>
      </trkpt>
      <trkpt lat="47.04067" lon="-1.83574">
        <ele>33.59</ele>
        <time>2020-05-17T11:21:15Z</time>
      </trkpt>
      <trkpt lat="47.04055" lon="-1.8357">
        <ele>34.68</ele>
        <time>2020-05-17T11:21:17Z</time>
      </trkpt>
      <trkpt lat="47.04043" lon="-1.83569">
        <ele>34.88</ele>
        <time>2020-05-17T11:21:19Z</time>
      </trkpt>
      <trkpt lat="47.04028" lon="-1.83568">
        <ele>34.4</ele>
        <time>2020-05-17T11:21:21Z</time>
      </trkpt>
      <trkpt lat="47.04013" lon="-1.83567">
        <ele>33.33</ele>
        <time>2020-05-17T11:21:23Z</time>
      </trkpt>
      <trkpt lat="47.04" lon="-1.83565">
        <ele>33.01</ele>
        <time>2020-05-17T11:21:25Z</time>
      </trkpt>
      <trkpt lat="47.03987" lon="-1.83564">
        <ele>32.27</ele>
        <time>2020-05-17T11:21:27Z</time>
      </trkpt>
      <trkpt lat="47.03974" lon="-1.83562">
        <ele>32.32</ele>
        <time>2020-05-17T11:21:29Z</time>
      </trkpt>
      <trkpt lat="47.03962" lon="-1.8356">
        <ele>32.44</ele>
        <time>2020-05-17T11:21:31Z</time>
      </trkpt>
      <trkpt lat="47.0395" lon="-1.83559">
        <ele>33.47</ele>
        <time>2020-05-17T11:21:33Z</time>
      </trkpt>
      <trkpt lat="47.03937" lon="-1.83557">
        <ele>32.82</ele>
        <time>2020-05-17T11:21:35Z</time>
      </trkpt>
      <trkpt lat="47.03924" lon="-1.83555">
        <ele>32.25</ele>
        <time>2020-05-17T11:21:37Z</time>
      </trkpt>
      <trkpt lat="47.03911" lon="-1.83554">
        <ele>32.66</ele>
        <time>2020-05-17T11:21:39Z</time>
      </trkpt>
      <trkpt lat="47.03897" lon="-1.83551">
        <ele>32.4</ele>
        <time>2020-05-17T11:21:41Z</time>
      </trkpt>
      <trkpt lat="47.03885" lon="-1.83549">
        <ele>31.45</ele>
        <time>2020-05-17T11:21:43Z</time>
      </trkpt>
      <trkpt lat="47.03873" lon="-1.83548">
        <ele>31.53</ele>
        <time>2020-05-17T11:21:45Z</time>
      </trkpt>
      <trkpt lat="47.03861" lon="-1.83546">
        <ele>32.33</ele>
        <time>2020-05-17T11:21:47Z</time>
      </trkpt>
      <trkpt lat="47.03847" lon="-1.83545">
        <ele>32.7</ele>
        <time>2020-05-17T11:21:49Z</time>
      </trkpt>
      <trkpt lat="47.03835" lon="-1.83543">
        <ele>32.89</ele>
        <time>2020-05-17T11:21:51Z</time>
      </trkpt>
      <trkpt lat="47.03821" lon="-1.83541">
        <ele>33.16</ele>
        <time>2020-05-17T11:21:53Z</time>
      </trkpt>
      <trkpt lat="47.03807" lon="-1.83538">
        <ele>33.74</ele>
        <time>2020-05-17T11:21:55Z</time>
      </trkpt>
      <trkpt lat="47.03796" lon="-1.83538">
        <ele>34.11</ele>
        <time>2020-05-17T11:21:57Z</time>
      </trkpt>
      <trkpt lat="47.03783" lon="-1.83538">
        <ele>34.04</ele>
        <time>2020-05-17T11:21:59Z</time>
      </trkpt>
      <trkpt lat="47.0377" lon="-1.83538">
        <ele>33.85</ele>
        <time>2020-05-17T11:22:01Z</time>
      </trkpt>
      <trkpt lat="47.03756" lon="-1.83538">
        <ele>33.25</ele>
        <time>2020-05-17T11:22:03Z</time>
      </trkpt>
      <trkpt lat="47.03743" lon="-1.83539">
        <ele>32.99</ele>
        <time>2020-05-17T11:22:05Z</time>
      </trkpt>
      <trkpt lat="47.0373" lon="-1.8354">
        <ele>32.48</ele>
        <time>2020-05-17T11:22:07Z</time>
      </trkpt>
      <trkpt lat="47.03717" lon="-1.83539">
        <ele>32.44</ele>
        <time>2020-05-17T11:22:09Z</time>
      </trkpt>
      <trkpt lat="47.03706" lon="-1.83539">
        <ele>32.88</ele>
        <time>2020-05-17T11:22:11Z</time>
      </trkpt>
      <trkpt lat="47.03693" lon="-1.8354">
        <ele>33.33</ele>
        <time>2020-05-17T11:22:13Z</time>
      </trkpt>
      <trkpt lat="47.03679" lon="-1.8354">
        <ele>33.63</ele>
        <time>2020-05-17T11:22:15Z</time>
      </trkpt>
      <trkpt lat="47.03664" lon="-1.8354">
        <ele>33.56</ele>
        <time>2020-05-17T11:22:17Z</time>
      </trkpt>
      <trkpt lat="47.03651" lon="-1.8354">
        <ele>33.84</ele>
        <time>2020-05-17T11:22:19Z</time>
      </trkpt>
      <trkpt lat="47.03639" lon="-1.8354">
        <ele>33.98</ele>
        <time>2020-05-17T11:22:21Z</time>
      </trkpt>
      <trkpt lat="47.03624" lon="-1.8354">
        <ele>33.23</ele>
        <time>2020-05-17T11:22:23Z</time>
      </trkpt>
      <trkpt lat="47.03611" lon="-1.83541">
        <ele>32.32</ele>
        <time>2020-05-17T11:22:25Z</time>
      </trkpt>
      <trkpt lat="47.03598" lon="-1.83542">
        <ele>32.12</ele>
        <time>2020-05-17T11:22:27Z</time>
      </trkpt>
      <trkpt lat="47.03586" lon="-1.83543">
        <ele>32</ele>
        <time>2020-05-17T11:22:29Z</time>
      </trkpt>
      <trkpt lat="47.03573" lon="-1.83543">
        <ele>31.47</ele>
        <time>2020-05-17T11:22:31Z</time>
      </trkpt>
      <trkpt lat="47.03559" lon="-1.83542">
        <ele>30.97</ele>
        <time>2020-05-17T11:22:33Z</time>
      </trkpt>
      <trkpt lat="47.03545" lon="-1.83543">
        <ele>30.97</ele>
        <time>2020-05-17T11:22:35Z</time>
      </trkpt>
      <trkpt lat="47.03531" lon="-1.83543">
        <ele>30.67</ele>
        <time>2020-05-17T11:22:37Z</time>
      </trkpt>
      <trkpt lat="47.03519" lon="-1.83543">
        <ele>30.25</ele>
        <time>2020-05-17T11:22:39Z</time>
      </trkpt>
      <trkpt lat="47.03505" lon="-1.83542">
        <ele>30.1</ele>
        <time>2020-05-17T11:22:41Z</time>
      </trkpt>
      <trkpt lat="47.0349" lon="-1.8354">
        <ele>28.88</ele>
        <time>2020-05-17T11:22:43Z</time>
      </trkpt>
      <trkpt lat="47.03476" lon="-1.83538">
        <ele>28.28</ele>
        <time>2020-05-17T11:22:45Z</time>
      </trkpt>
      <trkpt lat="47.03462" lon="-1.83535">
        <ele>27.44</ele>
        <time>2020-05-17T11:22:47Z</time>
      </trkpt>
      <trkpt lat="47.03448" lon="-1.8353">
        <ele>27.08</ele>
        <time>2020-05-17T11:22:49Z</time>
      </trkpt>
      <trkpt lat="47.03434" lon="-1.83527">
        <ele>26.93</ele>
        <time>2020-05-17T11:22:51Z</time>
      </trkpt>
      <trkpt lat="47.03419" lon="-1.83523">
        <ele>26.62</ele>
        <time>2020-05-17T11:22:53Z</time>
      </trkpt>
      <trkpt lat="47.03406" lon="-1.83518">
        <ele>26.21</ele>
        <time>2020-05-17T11:22:55Z</time>
      </trkpt>
      <trkpt lat="47.03393" lon="-1.83513">
        <ele>27.21</ele>
        <time>2020-05-17T11:22:57Z</time>
      </trkpt>
      <trkpt lat="47.03379" lon="-1.83509">
        <ele>27.25</ele>
        <time>2020-05-17T11:22:59Z</time>
      </trkpt>
      <trkpt lat="47.03365" lon="-1.83506">
        <ele>26.25</ele>
        <time>2020-05-17T11:23:01Z</time>
      </trkpt>
      <trkpt lat="47.03352" lon="-1.83502">
        <ele>25.98</ele>
        <time>2020-05-17T11:23:03Z</time>
      </trkpt>
      <trkpt lat="47.03339" lon="-1.83498">
        <ele>26.57</ele>
        <time>2020-05-17T11:23:05Z</time>
      </trkpt>
      <trkpt lat="47.03325" lon="-1.83494">
        <ele>27.36</ele>
        <time>2020-05-17T11:23:07Z</time>
      </trkpt>
      <trkpt lat="47.03314" lon="-1.8349">
        <ele>27.78</ele>
        <time>2020-05-17T11:23:09Z</time>
      </trkpt>
      <trkpt lat="47.03303" lon="-1.83487">
        <ele>28.91</ele>
        <time>2020-05-17T11:23:11Z</time>
      </trkpt>
      <trkpt lat="47.03289" lon="-1.83483">
        <ele>28.85</ele>
        <time>2020-05-17T11:23:13Z</time>
      </trkpt>
      <trkpt lat="47.03274" lon="-1.83478">
        <ele>28.13</ele>
        <time>2020-05-17T11:23:15Z</time>
      </trkpt>
      <trkpt lat="47.0326" lon="-1.83474">
        <ele>27.89</ele>
        <time>2020-05-17T11:23:17Z</time>
      </trkpt>
      <trkpt lat="47.03249" lon="-1.83471">
        <ele>27.44</ele>
        <time>2020-05-17T11:23:19Z</time>
      </trkpt>
      <trkpt lat="47.03235" lon="-1.83468">
        <ele>26.99</ele>
        <time>2020-05-17T11:23:21Z</time>
      </trkpt>
      <trkpt lat="47.03221" lon="-1.83464">
        <ele>26.89</ele>
        <time>2020-05-17T11:23:23Z</time>
      </trkpt>
      <trkpt lat="47.03209" lon="-1.8346">
        <ele>26.82</ele>
        <time>2020-05-17T11:23:25Z</time>
      </trkpt>
      <trkpt lat="47.03197" lon="-1.83458">
        <ele>26.64</ele>
        <time>2020-05-17T11:23:27Z</time>
      </trkpt>
      <trkpt lat="47.03188" lon="-1.83456">
        <ele>27.19</ele>
        <time>2020-05-17T11:23:29Z</time>
      </trkpt>
      <trkpt lat="47.03177" lon="-1.83454">
        <ele>27.32</ele>
        <time>2020-05-17T11:23:31Z</time>
      </trkpt>
      <trkpt lat="47.03167" lon="-1.83449">
        <ele>25.89</ele>
        <time>2020-05-17T11:23:33Z</time>
      </trkpt>
      <trkpt lat="47.03164" lon="-1.83433">
        <ele>25.49</ele>
        <time>2020-05-17T11:23:35Z</time>
      </trkpt>
      <trkpt lat="47.03164" lon="-1.8341">
        <ele>25.22</ele>
        <time>2020-05-17T11:23:37Z</time>
      </trkpt>
      <trkpt lat="47.03163" lon="-1.83388">
        <ele>25.18</ele>
        <time>2020-05-17T11:23:40Z</time>
      </trkpt>
      <trkpt lat="47.03161" lon="-1.83369">
        <ele>25.18</ele>
        <time>2020-05-17T11:23:41Z</time>
      </trkpt>
      <trkpt lat="47.03157" lon="-1.83349">
        <ele>25.32</ele>
        <time>2020-05-17T11:23:43Z</time>
      </trkpt>
      <trkpt lat="47.03152" lon="-1.83329">
        <ele>25.44</ele>
        <time>2020-05-17T11:23:46Z</time>
      </trkpt>
      <trkpt lat="47.03146" lon="-1.8331">
        <ele>25.92</ele>
        <time>2020-05-17T11:23:48Z</time>
      </trkpt>
      <trkpt lat="47.0314" lon="-1.83291">
        <ele>26.61</ele>
        <time>2020-05-17T11:23:50Z</time>
      </trkpt>
      <trkpt lat="47.03134" lon="-1.83274">
        <ele>27.28</ele>
        <time>2020-05-17T11:23:52Z</time>
      </trkpt>
      <trkpt lat="47.03128" lon="-1.83256">
        <ele>27.96</ele>
        <time>2020-05-17T11:23:54Z</time>
      </trkpt>
      <trkpt lat="47.03121" lon="-1.83237">
        <ele>28.69</ele>
        <time>2020-05-17T11:23:56Z</time>
      </trkpt>
      <trkpt lat="47.03115" lon="-1.83219">
        <ele>28.4</ele>
        <time>2020-05-17T11:23:58Z</time>
      </trkpt>
      <trkpt lat="47.03109" lon="-1.832">
        <ele>28.31</ele>
        <time>2020-05-17T11:24:00Z</time>
      </trkpt>
      <trkpt lat="47.03103" lon="-1.83182">
        <ele>27.68</ele>
        <time>2020-05-17T11:24:02Z</time>
      </trkpt>
      <trkpt lat="47.03096" lon="-1.83162">
        <ele>26.34</ele>
        <time>2020-05-17T11:24:04Z</time>
      </trkpt>
      <trkpt lat="47.0309" lon="-1.83143">
        <ele>25.38</ele>
        <time>2020-05-17T11:24:06Z</time>
      </trkpt>
      <trkpt lat="47.03085" lon="-1.83123">
        <ele>24.55</ele>
        <time>2020-05-17T11:24:08Z</time>
      </trkpt>
      <trkpt lat="47.03078" lon="-1.83106">
        <ele>24.41</ele>
        <time>2020-05-17T11:24:10Z</time>
      </trkpt>
      <trkpt lat="47.03071" lon="-1.83086">
        <ele>24.33</ele>
        <time>2020-05-17T11:24:12Z</time>
      </trkpt>
      <trkpt lat="47.03063" lon="-1.83068">
        <ele>25.02</ele>
        <time>2020-05-17T11:24:14Z</time>
      </trkpt>
      <trkpt lat="47.03056" lon="-1.83052">
        <ele>25.8</ele>
        <time>2020-05-17T11:24:16Z</time>
      </trkpt>
      <trkpt lat="47.03048" lon="-1.83037">
        <ele>25.4</ele>
        <time>2020-05-17T11:24:18Z</time>
      </trkpt>
      <trkpt lat="47.0304" lon="-1.8302">
        <ele>24.3</ele>
        <time>2020-05-17T11:24:20Z</time>
      </trkpt>
      <trkpt lat="47.0303" lon="-1.83003">
        <ele>23.57</ele>
        <time>2020-05-17T11:24:22Z</time>
      </trkpt>
      <trkpt lat="47.03021" lon="-1.82986">
        <ele>22.82</ele>
        <time>2020-05-17T11:24:24Z</time>
      </trkpt>
      <trkpt lat="47.03013" lon="-1.82969">
        <ele>21.74</ele>
        <time>2020-05-17T11:24:26Z</time>
      </trkpt>
      <trkpt lat="47.03003" lon="-1.82951">
        <ele>21</ele>
        <time>2020-05-17T11:24:28Z</time>
      </trkpt>
      <trkpt lat="47.02994" lon="-1.82933">
        <ele>21.5</ele>
        <time>2020-05-17T11:24:30Z</time>
      </trkpt>
      <trkpt lat="47.02985" lon="-1.82916">
        <ele>22.5</ele>
        <time>2020-05-17T11:24:32Z</time>
      </trkpt>
      <trkpt lat="47.02978" lon="-1.82901">
        <ele>22.55</ele>
        <time>2020-05-17T11:24:34Z</time>
      </trkpt>
      <trkpt lat="47.02971" lon="-1.82883">
        <ele>21.71</ele>
        <time>2020-05-17T11:24:36Z</time>
      </trkpt>
      <trkpt lat="47.02964" lon="-1.82865">
        <ele>20.84</ele>
        <time>2020-05-17T11:24:38Z</time>
      </trkpt>
      <trkpt lat="47.02956" lon="-1.82847">
        <ele>19.6</ele>
        <time>2020-05-17T11:24:40Z</time>
      </trkpt>
      <trkpt lat="47.02949" lon="-1.8283">
        <ele>18.6</ele>
        <time>2020-05-17T11:24:42Z</time>
      </trkpt>
      <trkpt lat="47.02942" lon="-1.82811">
        <ele>18.36</ele>
        <time>2020-05-17T11:24:44Z</time>
      </trkpt>
      <trkpt lat="47.02934" lon="-1.82793">
        <ele>18.06</ele>
        <time>2020-05-17T11:24:46Z</time>
      </trkpt>
      <trkpt lat="47.02927" lon="-1.82774">
        <ele>18.37</ele>
        <time>2020-05-17T11:24:48Z</time>
      </trkpt>
      <trkpt lat="47.02919" lon="-1.82754">
        <ele>18.7</ele>
        <time>2020-05-17T11:24:50Z</time>
      </trkpt>
      <trkpt lat="47.02912" lon="-1.82736">
        <ele>19.7</ele>
        <time>2020-05-17T11:24:52Z</time>
      </trkpt>
      <trkpt lat="47.02905" lon="-1.8272">
        <ele>20.31</ele>
        <time>2020-05-17T11:24:54Z</time>
      </trkpt>
      <trkpt lat="47.02898" lon="-1.82702">
        <ele>20.88</ele>
        <time>2020-05-17T11:24:56Z</time>
      </trkpt>
      <trkpt lat="47.0289" lon="-1.82683">
        <ele>21.29</ele>
        <time>2020-05-17T11:24:58Z</time>
      </trkpt>
      <trkpt lat="47.02882" lon="-1.82666">
        <ele>21.51</ele>
        <time>2020-05-17T11:25:00Z</time>
      </trkpt>
      <trkpt lat="47.02875" lon="-1.82652">
        <ele>21.84</ele>
        <time>2020-05-17T11:25:02Z</time>
      </trkpt>
      <trkpt lat="47.02867" lon="-1.82636">
        <ele>21.95</ele>
        <time>2020-05-17T11:25:04Z</time>
      </trkpt>
      <trkpt lat="47.02859" lon="-1.82618">
        <ele>21.76</ele>
        <time>2020-05-17T11:25:06Z</time>
      </trkpt>
      <trkpt lat="47.02851" lon="-1.82601">
        <ele>21.39</ele>
        <time>2020-05-17T11:25:08Z</time>
      </trkpt>
      <trkpt lat="47.02843" lon="-1.82585">
        <ele>20.96</ele>
        <time>2020-05-17T11:25:10Z</time>
      </trkpt>
      <trkpt lat="47.02836" lon="-1.82572">
        <ele>20.09</ele>
        <time>2020-05-17T11:25:12Z</time>
      </trkpt>
      <trkpt lat="47.02829" lon="-1.82559">
        <ele>20.43</ele>
        <time>2020-05-17T11:25:14Z</time>
      </trkpt>
      <trkpt lat="47.02822" lon="-1.82545">
        <ele>20.98</ele>
        <time>2020-05-17T11:25:16Z</time>
      </trkpt>
      <trkpt lat="47.02814" lon="-1.82531">
        <ele>21.5</ele>
        <time>2020-05-17T11:25:18Z</time>
      </trkpt>
      <trkpt lat="47.02806" lon="-1.82517">
        <ele>20.8</ele>
        <time>2020-05-17T11:25:20Z</time>
      </trkpt>
      <trkpt lat="47.02798" lon="-1.82505">
        <ele>20.72</ele>
        <time>2020-05-17T11:25:22Z</time>
      </trkpt>
      <trkpt lat="47.02791" lon="-1.82492">
        <ele>21.22</ele>
        <time>2020-05-17T11:25:25Z</time>
      </trkpt>
      <trkpt lat="47.02782" lon="-1.82479">
        <ele>21.27</ele>
        <time>2020-05-17T11:25:28Z</time>
      </trkpt>
      <trkpt lat="47.02772" lon="-1.82467">
        <ele>19.79</ele>
        <time>2020-05-17T11:25:30Z</time>
      </trkpt>
      <trkpt lat="47.02766" lon="-1.82456">
        <ele>19.34</ele>
        <time>2020-05-17T11:25:32Z</time>
      </trkpt>
      <trkpt lat="47.02759" lon="-1.82444">
        <ele>19.6</ele>
        <time>2020-05-17T11:25:34Z</time>
      </trkpt>
      <trkpt lat="47.02751" lon="-1.8243">
        <ele>19.31</ele>
        <time>2020-05-17T11:25:37Z</time>
      </trkpt>
      <trkpt lat="47.02742" lon="-1.82418">
        <ele>20.91</ele>
        <time>2020-05-17T11:25:39Z</time>
      </trkpt>
      <trkpt lat="47.02734" lon="-1.82407">
        <ele>22.99</ele>
        <time>2020-05-17T11:25:41Z</time>
      </trkpt>
      <trkpt lat="47.02727" lon="-1.82396">
        <ele>24.51</ele>
        <time>2020-05-17T11:25:43Z</time>
      </trkpt>
      <trkpt lat="47.02719" lon="-1.82384">
        <ele>26.07</ele>
        <time>2020-05-17T11:25:45Z</time>
      </trkpt>
      <trkpt lat="47.02712" lon="-1.82374">
        <ele>27.16</ele>
        <time>2020-05-17T11:25:47Z</time>
      </trkpt>
      <trkpt lat="47.02706" lon="-1.82362">
        <ele>27.24</ele>
        <time>2020-05-17T11:25:49Z</time>
      </trkpt>
      <trkpt lat="47.02697" lon="-1.8235">
        <ele>27.5</ele>
        <time>2020-05-17T11:25:51Z</time>
      </trkpt>
      <trkpt lat="47.0269" lon="-1.8234">
        <ele>27.97</ele>
        <time>2020-05-17T11:25:53Z</time>
      </trkpt>
      <trkpt lat="47.02682" lon="-1.82328">
        <ele>27.57</ele>
        <time>2020-05-17T11:25:55Z</time>
      </trkpt>
      <trkpt lat="47.02676" lon="-1.82317">
        <ele>27.81</ele>
        <time>2020-05-17T11:25:57Z</time>
      </trkpt>
      <trkpt lat="47.02668" lon="-1.82305">
        <ele>27.51</ele>
        <time>2020-05-17T11:25:59Z</time>
      </trkpt>
      <trkpt lat="47.02661" lon="-1.82295">
        <ele>27.92</ele>
        <time>2020-05-17T11:26:01Z</time>
      </trkpt>
      <trkpt lat="47.02655" lon="-1.82284">
        <ele>28.22</ele>
        <time>2020-05-17T11:26:03Z</time>
      </trkpt>
      <trkpt lat="47.02648" lon="-1.82273">
        <ele>28.87</ele>
        <time>2020-05-17T11:26:05Z</time>
      </trkpt>
      <trkpt lat="47.02641" lon="-1.8226">
        <ele>29.47</ele>
        <time>2020-05-17T11:26:07Z</time>
      </trkpt>
      <trkpt lat="47.02633" lon="-1.82245">
        <ele>30.25</ele>
        <time>2020-05-17T11:26:10Z</time>
      </trkpt>
      <trkpt lat="47.02627" lon="-1.82231">
        <ele>29.96</ele>
        <time>2020-05-17T11:26:12Z</time>
      </trkpt>
      <trkpt lat="47.02622" lon="-1.82216">
        <ele>29.15</ele>
        <time>2020-05-17T11:26:14Z</time>
      </trkpt>
      <trkpt lat="47.02617" lon="-1.822">
        <ele>28.84</ele>
        <time>2020-05-17T11:26:16Z</time>
      </trkpt>
      <trkpt lat="47.02612" lon="-1.82185">
        <ele>28.68</ele>
        <time>2020-05-17T11:26:18Z</time>
      </trkpt>
      <trkpt lat="47.02608" lon="-1.82172">
        <ele>28.84</ele>
        <time>2020-05-17T11:26:20Z</time>
      </trkpt>
      <trkpt lat="47.02604" lon="-1.82157">
        <ele>28.09</ele>
        <time>2020-05-17T11:26:22Z</time>
      </trkpt>
      <trkpt lat="47.026" lon="-1.82142">
        <ele>27.64</ele>
        <time>2020-05-17T11:26:24Z</time>
      </trkpt>
      <trkpt lat="47.02596" lon="-1.82128">
        <ele>27.16</ele>
        <time>2020-05-17T11:26:26Z</time>
      </trkpt>
      <trkpt lat="47.0259" lon="-1.8211">
        <ele>26.04</ele>
        <time>2020-05-17T11:26:29Z</time>
      </trkpt>
      <trkpt lat="47.02586" lon="-1.82097">
        <ele>26.46</ele>
        <time>2020-05-17T11:26:31Z</time>
      </trkpt>
      <trkpt lat="47.02581" lon="-1.82083">
        <ele>26.23</ele>
        <time>2020-05-17T11:26:33Z</time>
      </trkpt>
      <trkpt lat="47.02575" lon="-1.82067">
        <ele>24.51</ele>
        <time>2020-05-17T11:26:36Z</time>
      </trkpt>
      <trkpt lat="47.0257" lon="-1.8205">
        <ele>24.79</ele>
        <time>2020-05-17T11:26:38Z</time>
      </trkpt>
      <trkpt lat="47.02565" lon="-1.82032">
        <ele>24.57</ele>
        <time>2020-05-17T11:26:40Z</time>
      </trkpt>
      <trkpt lat="47.02559" lon="-1.82016">
        <ele>24.18</ele>
        <time>2020-05-17T11:26:42Z</time>
      </trkpt>
      <trkpt lat="47.02553" lon="-1.82">
        <ele>25.82</ele>
        <time>2020-05-17T11:26:44Z</time>
      </trkpt>
      <trkpt lat="47.02546" lon="-1.81982">
        <ele>26.21</ele>
        <time>2020-05-17T11:26:46Z</time>
      </trkpt>
      <trkpt lat="47.02539" lon="-1.81965">
        <ele>26.24</ele>
        <time>2020-05-17T11:26:48Z</time>
      </trkpt>
      <trkpt lat="47.02533" lon="-1.81947">
        <ele>25.79</ele>
        <time>2020-05-17T11:26:50Z</time>
      </trkpt>
      <trkpt lat="47.02527" lon="-1.81929">
        <ele>25.36</ele>
        <time>2020-05-17T11:26:52Z</time>
      </trkpt>
      <trkpt lat="47.02521" lon="-1.81909">
        <ele>25.18</ele>
        <time>2020-05-17T11:26:54Z</time>
      </trkpt>
      <trkpt lat="47.02514" lon="-1.81889">
        <ele>25.11</ele>
        <time>2020-05-17T11:26:56Z</time>
      </trkpt>
      <trkpt lat="47.02508" lon="-1.81872">
        <ele>25.06</ele>
        <time>2020-05-17T11:26:58Z</time>
      </trkpt>
      <trkpt lat="47.02501" lon="-1.81853">
        <ele>24.67</ele>
        <time>2020-05-17T11:27:00Z</time>
      </trkpt>
      <trkpt lat="47.02495" lon="-1.81833">
        <ele>24.11</ele>
        <time>2020-05-17T11:27:02Z</time>
      </trkpt>
      <trkpt lat="47.02488" lon="-1.81814">
        <ele>23.39</ele>
        <time>2020-05-17T11:27:04Z</time>
      </trkpt>
      <trkpt lat="47.02481" lon="-1.81792">
        <ele>22.83</ele>
        <time>2020-05-17T11:27:06Z</time>
      </trkpt>
      <trkpt lat="47.02475" lon="-1.81775">
        <ele>22.15</ele>
        <time>2020-05-17T11:27:08Z</time>
      </trkpt>
      <trkpt lat="47.02468" lon="-1.81757">
        <ele>22.03</ele>
        <time>2020-05-17T11:27:10Z</time>
      </trkpt>
      <trkpt lat="47.02462" lon="-1.81737">
        <ele>21.42</ele>
        <time>2020-05-17T11:27:12Z</time>
      </trkpt>
      <trkpt lat="47.02457" lon="-1.8172">
        <ele>21.72</ele>
        <time>2020-05-17T11:27:14Z</time>
      </trkpt>
      <trkpt lat="47.02451" lon="-1.817">
        <ele>21.77</ele>
        <time>2020-05-17T11:27:16Z</time>
      </trkpt>
      <trkpt lat="47.02445" lon="-1.81682">
        <ele>21.81</ele>
        <time>2020-05-17T11:27:18Z</time>
      </trkpt>
      <trkpt lat="47.02439" lon="-1.81663">
        <ele>21.89</ele>
        <time>2020-05-17T11:27:20Z</time>
      </trkpt>
      <trkpt lat="47.02433" lon="-1.81644">
        <ele>22.11</ele>
        <time>2020-05-17T11:27:22Z</time>
      </trkpt>
      <trkpt lat="47.02427" lon="-1.81627">
        <ele>22.16</ele>
        <time>2020-05-17T11:27:24Z</time>
      </trkpt>
      <trkpt lat="47.02421" lon="-1.81609">
        <ele>22.39</ele>
        <time>2020-05-17T11:27:26Z</time>
      </trkpt>
      <trkpt lat="47.02416" lon="-1.81594">
        <ele>22.39</ele>
        <time>2020-05-17T11:27:28Z</time>
      </trkpt>
      <trkpt lat="47.0241" lon="-1.81577">
        <ele>22.21</ele>
        <time>2020-05-17T11:27:30Z</time>
      </trkpt>
      <trkpt lat="47.02404" lon="-1.81557">
        <ele>22.47</ele>
        <time>2020-05-17T11:27:32Z</time>
      </trkpt>
      <trkpt lat="47.02397" lon="-1.81538">
        <ele>22.65</ele>
        <time>2020-05-17T11:27:34Z</time>
      </trkpt>
      <trkpt lat="47.0239" lon="-1.8152">
        <ele>22.58</ele>
        <time>2020-05-17T11:27:36Z</time>
      </trkpt>
      <trkpt lat="47.02382" lon="-1.81498">
        <ele>23.13</ele>
        <time>2020-05-17T11:27:38Z</time>
      </trkpt>
      <trkpt lat="47.02374" lon="-1.81475">
        <ele>22.96</ele>
        <time>2020-05-17T11:27:40Z</time>
      </trkpt>
      <trkpt lat="47.0237" lon="-1.81463">
        <ele>22.49</ele>
        <time>2020-05-17T11:27:41Z</time>
      </trkpt>
      <trkpt lat="47.02362" lon="-1.81442">
        <ele>22.12</ele>
        <time>2020-05-17T11:27:43Z</time>
      </trkpt>
      <trkpt lat="47.02355" lon="-1.81422">
        <ele>21.89</ele>
        <time>2020-05-17T11:27:45Z</time>
      </trkpt>
      <trkpt lat="47.02348" lon="-1.81402">
        <ele>20.67</ele>
        <time>2020-05-17T11:27:47Z</time>
      </trkpt>
      <trkpt lat="47.02342" lon="-1.81384">
        <ele>20.31</ele>
        <time>2020-05-17T11:27:49Z</time>
      </trkpt>
      <trkpt lat="47.02334" lon="-1.81361">
        <ele>19.5</ele>
        <time>2020-05-17T11:27:51Z</time>
      </trkpt>
      <trkpt lat="47.02327" lon="-1.81339">
        <ele>19.08</ele>
        <time>2020-05-17T11:27:53Z</time>
      </trkpt>
      <trkpt lat="47.02323" lon="-1.81327">
        <ele>18.6</ele>
        <time>2020-05-17T11:27:54Z</time>
      </trkpt>
      <trkpt lat="47.02315" lon="-1.81304">
        <ele>18.67</ele>
        <time>2020-05-17T11:27:56Z</time>
      </trkpt>
      <trkpt lat="47.02308" lon="-1.81284">
        <ele>18.46</ele>
        <time>2020-05-17T11:27:58Z</time>
      </trkpt>
      <trkpt lat="47.02302" lon="-1.81262">
        <ele>17.78</ele>
        <time>2020-05-17T11:28:00Z</time>
      </trkpt>
      <trkpt lat="47.02298" lon="-1.81249">
        <ele>17.45</ele>
        <time>2020-05-17T11:28:01Z</time>
      </trkpt>
      <trkpt lat="47.02291" lon="-1.81228">
        <ele>16.68</ele>
        <time>2020-05-17T11:28:03Z</time>
      </trkpt>
      <trkpt lat="47.02287" lon="-1.81216">
        <ele>16.35</ele>
        <time>2020-05-17T11:28:04Z</time>
      </trkpt>
      <trkpt lat="47.02279" lon="-1.81194">
        <ele>15.21</ele>
        <time>2020-05-17T11:28:06Z</time>
      </trkpt>
      <trkpt lat="47.02273" lon="-1.81176">
        <ele>13.86</ele>
        <time>2020-05-17T11:28:08Z</time>
      </trkpt>
      <trkpt lat="47.02265" lon="-1.81153">
        <ele>12.89</ele>
        <time>2020-05-17T11:28:10Z</time>
      </trkpt>
      <trkpt lat="47.02258" lon="-1.81133">
        <ele>13.06</ele>
        <time>2020-05-17T11:28:12Z</time>
      </trkpt>
      <trkpt lat="47.02251" lon="-1.81114">
        <ele>12.85</ele>
        <time>2020-05-17T11:28:14Z</time>
      </trkpt>
      <trkpt lat="47.02244" lon="-1.81096">
        <ele>12.75</ele>
        <time>2020-05-17T11:28:16Z</time>
      </trkpt>
      <trkpt lat="47.02238" lon="-1.8108">
        <ele>13.54</ele>
        <time>2020-05-17T11:28:18Z</time>
      </trkpt>
      <trkpt lat="47.02231" lon="-1.81065">
        <ele>14.35</ele>
        <time>2020-05-17T11:28:20Z</time>
      </trkpt>
      <trkpt lat="47.02223" lon="-1.8105">
        <ele>15.56</ele>
        <time>2020-05-17T11:28:22Z</time>
      </trkpt>
      <trkpt lat="47.02215" lon="-1.81035">
        <ele>15.79</ele>
        <time>2020-05-17T11:28:24Z</time>
      </trkpt>
      <trkpt lat="47.02207" lon="-1.81021">
        <ele>15.57</ele>
        <time>2020-05-17T11:28:26Z</time>
      </trkpt>
      <trkpt lat="47.022" lon="-1.81007">
        <ele>15.52</ele>
        <time>2020-05-17T11:28:28Z</time>
      </trkpt>
      <trkpt lat="47.02194" lon="-1.80995">
        <ele>15.7</ele>
        <time>2020-05-17T11:28:30Z</time>
      </trkpt>
      <trkpt lat="47.02188" lon="-1.80983">
        <ele>16.06</ele>
        <time>2020-05-17T11:28:32Z</time>
      </trkpt>
      <trkpt lat="47.02182" lon="-1.80973">
        <ele>17.37</ele>
        <time>2020-05-17T11:28:34Z</time>
      </trkpt>
      <trkpt lat="47.02174" lon="-1.8096">
        <ele>17.85</ele>
        <time>2020-05-17T11:28:36Z</time>
      </trkpt>
      <trkpt lat="47.02165" lon="-1.80945">
        <ele>17.87</ele>
        <time>2020-05-17T11:28:38Z</time>
      </trkpt>
      <trkpt lat="47.02158" lon="-1.80933">
        <ele>17.67</ele>
        <time>2020-05-17T11:28:40Z</time>
      </trkpt>
      <trkpt lat="47.02151" lon="-1.8092">
        <ele>18.2</ele>
        <time>2020-05-17T11:28:42Z</time>
      </trkpt>
      <trkpt lat="47.02145" lon="-1.80908">
        <ele>18.4</ele>
        <time>2020-05-17T11:28:44Z</time>
      </trkpt>
      <trkpt lat="47.02138" lon="-1.80896">
        <ele>18.57</ele>
        <time>2020-05-17T11:28:46Z</time>
      </trkpt>
      <trkpt lat="47.02132" lon="-1.80884">
        <ele>19.47</ele>
        <time>2020-05-17T11:28:48Z</time>
      </trkpt>
      <trkpt lat="47.02126" lon="-1.80871">
        <ele>20.02</ele>
        <time>2020-05-17T11:28:50Z</time>
      </trkpt>
      <trkpt lat="47.0212" lon="-1.80853">
        <ele>20.82</ele>
        <time>2020-05-17T11:28:53Z</time>
      </trkpt>
      <trkpt lat="47.02116" lon="-1.80835">
        <ele>21.02</ele>
        <time>2020-05-17T11:28:55Z</time>
      </trkpt>
      <trkpt lat="47.02113" lon="-1.80819">
        <ele>21.42</ele>
        <time>2020-05-17T11:28:57Z</time>
      </trkpt>
      <trkpt lat="47.02112" lon="-1.80803">
        <ele>21.78</ele>
        <time>2020-05-17T11:28:59Z</time>
      </trkpt>
      <trkpt lat="47.02112" lon="-1.80782">
        <ele>21.15</ele>
        <time>2020-05-17T11:29:02Z</time>
      </trkpt>
      <trkpt lat="47.02112" lon="-1.80765">
        <ele>21.15</ele>
        <time>2020-05-17T11:29:04Z</time>
      </trkpt>
      <trkpt lat="47.02112" lon="-1.80748">
        <ele>21.2</ele>
        <time>2020-05-17T11:29:06Z</time>
      </trkpt>
      <trkpt lat="47.02113" lon="-1.8073">
        <ele>20.61</ele>
        <time>2020-05-17T11:29:08Z</time>
      </trkpt>
      <trkpt lat="47.02113" lon="-1.80713">
        <ele>20.55</ele>
        <time>2020-05-17T11:29:10Z</time>
      </trkpt>
      <trkpt lat="47.02112" lon="-1.80695">
        <ele>21.15</ele>
        <time>2020-05-17T11:29:12Z</time>
      </trkpt>
      <trkpt lat="47.02112" lon="-1.80677">
        <ele>21.16</ele>
        <time>2020-05-17T11:29:14Z</time>
      </trkpt>
      <trkpt lat="47.02113" lon="-1.8066">
        <ele>21.62</ele>
        <time>2020-05-17T11:29:16Z</time>
      </trkpt>
      <trkpt lat="47.02113" lon="-1.8064">
        <ele>20.97</ele>
        <time>2020-05-17T11:29:18Z</time>
      </trkpt>
      <trkpt lat="47.02114" lon="-1.80621">
        <ele>20.74</ele>
        <time>2020-05-17T11:29:20Z</time>
      </trkpt>
      <trkpt lat="47.02114" lon="-1.80602">
        <ele>20.7</ele>
        <time>2020-05-17T11:29:22Z</time>
      </trkpt>
      <trkpt lat="47.02114" lon="-1.80583">
        <ele>20.51</ele>
        <time>2020-05-17T11:29:24Z</time>
      </trkpt>
      <trkpt lat="47.02113" lon="-1.80562">
        <ele>19.89</ele>
        <time>2020-05-17T11:29:26Z</time>
      </trkpt>
      <trkpt lat="47.02113" lon="-1.80539">
        <ele>19.25</ele>
        <time>2020-05-17T11:29:28Z</time>
      </trkpt>
      <trkpt lat="47.02112" lon="-1.80516">
        <ele>17.93</ele>
        <time>2020-05-17T11:29:30Z</time>
      </trkpt>
      <trkpt lat="47.02111" lon="-1.80493">
        <ele>16.66</ele>
        <time>2020-05-17T11:29:32Z</time>
      </trkpt>
      <trkpt lat="47.02111" lon="-1.80479">
        <ele>16</ele>
        <time>2020-05-17T11:29:33Z</time>
      </trkpt>
      <trkpt lat="47.0211" lon="-1.80455">
        <ele>15.25</ele>
        <time>2020-05-17T11:29:35Z</time>
      </trkpt>
      <trkpt lat="47.0211" lon="-1.80434">
        <ele>14.15</ele>
        <time>2020-05-17T11:29:37Z</time>
      </trkpt>
      <trkpt lat="47.02109" lon="-1.80412">
        <ele>12.92</ele>
        <time>2020-05-17T11:29:39Z</time>
      </trkpt>
      <trkpt lat="47.02109" lon="-1.8039">
        <ele>12.21</ele>
        <time>2020-05-17T11:29:41Z</time>
      </trkpt>
      <trkpt lat="47.02109" lon="-1.80367">
        <ele>11.57</ele>
        <time>2020-05-17T11:29:43Z</time>
      </trkpt>
      <trkpt lat="47.02109" lon="-1.80343">
        <ele>11.64</ele>
        <time>2020-05-17T11:29:45Z</time>
      </trkpt>
      <trkpt lat="47.02109" lon="-1.80322">
        <ele>11.53</ele>
        <time>2020-05-17T11:29:47Z</time>
      </trkpt>
      <trkpt lat="47.02108" lon="-1.80299">
        <ele>11.84</ele>
        <time>2020-05-17T11:29:49Z</time>
      </trkpt>
      <trkpt lat="47.02109" lon="-1.80279">
        <ele>11.93</ele>
        <time>2020-05-17T11:29:51Z</time>
      </trkpt>
      <trkpt lat="47.02109" lon="-1.80256">
        <ele>11.82</ele>
        <time>2020-05-17T11:29:53Z</time>
      </trkpt>
      <trkpt lat="47.02109" lon="-1.80233">
        <ele>12.13</ele>
        <time>2020-05-17T11:29:55Z</time>
      </trkpt>
      <trkpt lat="47.02109" lon="-1.80208">
        <ele>11.85</ele>
        <time>2020-05-17T11:29:57Z</time>
      </trkpt>
      <trkpt lat="47.02108" lon="-1.80185">
        <ele>11.91</ele>
        <time>2020-05-17T11:29:59Z</time>
      </trkpt>
      <trkpt lat="47.02108" lon="-1.80162">
        <ele>10.79</ele>
        <time>2020-05-17T11:30:01Z</time>
      </trkpt>
      <trkpt lat="47.02107" lon="-1.80141">
        <ele>9.64</ele>
        <time>2020-05-17T11:30:03Z</time>
      </trkpt>
      <trkpt lat="47.02107" lon="-1.80119">
        <ele>8.86</ele>
        <time>2020-05-17T11:30:05Z</time>
      </trkpt>
      <trkpt lat="47.02106" lon="-1.80096">
        <ele>8.03</ele>
        <time>2020-05-17T11:30:07Z</time>
      </trkpt>
      <trkpt lat="47.02106" lon="-1.80071">
        <ele>6.48</ele>
        <time>2020-05-17T11:30:09Z</time>
      </trkpt>
      <trkpt lat="47.02106" lon="-1.80048">
        <ele>5.16</ele>
        <time>2020-05-17T11:30:11Z</time>
      </trkpt>
      <trkpt lat="47.02106" lon="-1.80027">
        <ele>4.45</ele>
        <time>2020-05-17T11:30:13Z</time>
      </trkpt>
      <trkpt lat="47.02105" lon="-1.80005">
        <ele>3.34</ele>
        <time>2020-05-17T11:30:15Z</time>
      </trkpt>
      <trkpt lat="47.02104" lon="-1.79983">
        <ele>2.12</ele>
        <time>2020-05-17T11:30:17Z</time>
      </trkpt>
      <trkpt lat="47.02102" lon="-1.79959">
        <ele>1.65</ele>
        <time>2020-05-17T11:30:19Z</time>
      </trkpt>
      <trkpt lat="47.021" lon="-1.79938">
        <ele>1.81</ele>
        <time>2020-05-17T11:30:21Z</time>
      </trkpt>
      <trkpt lat="47.02099" lon="-1.79917">
        <ele>1.71</ele>
        <time>2020-05-17T11:30:23Z</time>
      </trkpt>
      <trkpt lat="47.02097" lon="-1.79895">
        <ele>1.79</ele>
        <time>2020-05-17T11:30:25Z</time>
      </trkpt>
      <trkpt lat="47.02096" lon="-1.79877">
        <ele>2.58</ele>
        <time>2020-05-17T11:30:27Z</time>
      </trkpt>
      <trkpt lat="47.02095" lon="-1.79857">
        <ele>3.14</ele>
        <time>2020-05-17T11:30:29Z</time>
      </trkpt>
      <trkpt lat="47.02093" lon="-1.79834">
        <ele>2.98</ele>
        <time>2020-05-17T11:30:31Z</time>
      </trkpt>
      <trkpt lat="47.02091" lon="-1.79814">
        <ele>2.39</ele>
        <time>2020-05-17T11:30:33Z</time>
      </trkpt>
      <trkpt lat="47.0209" lon="-1.79794">
        <ele>2.9</ele>
        <time>2020-05-17T11:30:35Z</time>
      </trkpt>
      <trkpt lat="47.02088" lon="-1.79774">
        <ele>2.84</ele>
        <time>2020-05-17T11:30:37Z</time>
      </trkpt>
      <trkpt lat="47.02088" lon="-1.79755">
        <ele>2.74</ele>
        <time>2020-05-17T11:30:39Z</time>
      </trkpt>
      <trkpt lat="47.02087" lon="-1.79736">
        <ele>2.56</ele>
        <time>2020-05-17T11:30:41Z</time>
      </trkpt>
      <trkpt lat="47.02087" lon="-1.79715">
        <ele>2.09</ele>
        <time>2020-05-17T11:30:43Z</time>
      </trkpt>
      <trkpt lat="47.02087" lon="-1.79692">
        <ele>2.98</ele>
        <time>2020-05-17T11:30:45Z</time>
      </trkpt>
      <trkpt lat="47.02088" lon="-1.79673">
        <ele>3.79</ele>
        <time>2020-05-17T11:30:47Z</time>
      </trkpt>
      <trkpt lat="47.02087" lon="-1.79652">
        <ele>4.76</ele>
        <time>2020-05-17T11:30:49Z</time>
      </trkpt>
      <trkpt lat="47.02087" lon="-1.79632">
        <ele>5.1</ele>
        <time>2020-05-17T11:30:51Z</time>
      </trkpt>
      <trkpt lat="47.02088" lon="-1.79612">
        <ele>6.04</ele>
        <time>2020-05-17T11:30:53Z</time>
      </trkpt>
      <trkpt lat="47.02087" lon="-1.79593">
        <ele>7.08</ele>
        <time>2020-05-17T11:30:55Z</time>
      </trkpt>
      <trkpt lat="47.02087" lon="-1.7957">
        <ele>7.72</ele>
        <time>2020-05-17T11:30:57Z</time>
      </trkpt>
      <trkpt lat="47.02089" lon="-1.79547">
        <ele>7.43</ele>
        <time>2020-05-17T11:30:59Z</time>
      </trkpt>
      <trkpt lat="47.02091" lon="-1.79523">
        <ele>7.1</ele>
        <time>2020-05-17T11:31:01Z</time>
      </trkpt>
      <trkpt lat="47.02092" lon="-1.795">
        <ele>6.64</ele>
        <time>2020-05-17T11:31:03Z</time>
      </trkpt>
      <trkpt lat="47.02092" lon="-1.79478">
        <ele>5.97</ele>
        <time>2020-05-17T11:31:05Z</time>
      </trkpt>
      <trkpt lat="47.02092" lon="-1.79456">
        <ele>4.86</ele>
        <time>2020-05-17T11:31:07Z</time>
      </trkpt>
      <trkpt lat="47.02092" lon="-1.79439">
        <ele>4.63</ele>
        <time>2020-05-17T11:31:09Z</time>
      </trkpt>
      <trkpt lat="47.02092" lon="-1.79421">
        <ele>4.67</ele>
        <time>2020-05-17T11:31:12Z</time>
      </trkpt>
      <trkpt lat="47.02095" lon="-1.79406">
        <ele>3.82</ele>
        <time>2020-05-17T11:31:16Z</time>
      </trkpt>
      <trkpt lat="47.02101" lon="-1.79394">
        <ele>2.58</ele>
        <time>2020-05-17T11:31:18Z</time>
      </trkpt>
      <trkpt lat="47.02106" lon="-1.79379">
        <ele>2.28</ele>
        <time>2020-05-17T11:31:20Z</time>
      </trkpt>
      <trkpt lat="47.02108" lon="-1.79364">
        <ele>2.44</ele>
        <time>2020-05-17T11:31:22Z</time>
      </trkpt>
      <trkpt lat="47.02111" lon="-1.79347">
        <ele>3.16</ele>
        <time>2020-05-17T11:31:24Z</time>
      </trkpt>
      <trkpt lat="47.02116" lon="-1.7933">
        <ele>3.15</ele>
        <time>2020-05-17T11:31:26Z</time>
      </trkpt>
      <trkpt lat="47.0212" lon="-1.79313">
        <ele>2.22</ele>
        <time>2020-05-17T11:31:28Z</time>
      </trkpt>
      <trkpt lat="47.02124" lon="-1.79297">
        <ele>2.06</ele>
        <time>2020-05-17T11:31:30Z</time>
      </trkpt>
      <trkpt lat="47.02128" lon="-1.79281">
        <ele>2.15</ele>
        <time>2020-05-17T11:31:32Z</time>
      </trkpt>
      <trkpt lat="47.02132" lon="-1.79264">
        <ele>2.23</ele>
        <time>2020-05-17T11:31:34Z</time>
      </trkpt>
      <trkpt lat="47.02136" lon="-1.7925">
        <ele>2.76</ele>
        <time>2020-05-17T11:31:36Z</time>
      </trkpt>
      <trkpt lat="47.0214" lon="-1.79234">
        <ele>3.46</ele>
        <time>2020-05-17T11:31:38Z</time>
      </trkpt>
      <trkpt lat="47.02145" lon="-1.79218">
        <ele>4.65</ele>
        <time>2020-05-17T11:31:40Z</time>
      </trkpt>
      <trkpt lat="47.02149" lon="-1.79201">
        <ele>5.23</ele>
        <time>2020-05-17T11:31:42Z</time>
      </trkpt>
      <trkpt lat="47.02155" lon="-1.79182">
        <ele>5.5</ele>
        <time>2020-05-17T11:31:44Z</time>
      </trkpt>
      <trkpt lat="47.02159" lon="-1.79165">
        <ele>4.79</ele>
        <time>2020-05-17T11:31:46Z</time>
      </trkpt>
      <trkpt lat="47.02164" lon="-1.79146">
        <ele>3.83</ele>
        <time>2020-05-17T11:31:48Z</time>
      </trkpt>
      <trkpt lat="47.02169" lon="-1.79129">
        <ele>3.11</ele>
        <time>2020-05-17T11:31:50Z</time>
      </trkpt>
      <trkpt lat="47.02173" lon="-1.79112">
        <ele>4.2</ele>
        <time>2020-05-17T11:31:52Z</time>
      </trkpt>
      <trkpt lat="47.02178" lon="-1.79093">
        <ele>4.95</ele>
        <time>2020-05-17T11:31:54Z</time>
      </trkpt>
      <trkpt lat="47.02183" lon="-1.79075">
        <ele>3.58</ele>
        <time>2020-05-17T11:31:56Z</time>
      </trkpt>
      <trkpt lat="47.02188" lon="-1.79058">
        <ele>3.01</ele>
        <time>2020-05-17T11:31:58Z</time>
      </trkpt>
      <trkpt lat="47.02193" lon="-1.79042">
        <ele>2.43</ele>
        <time>2020-05-17T11:32:00Z</time>
      </trkpt>
      <trkpt lat="47.02199" lon="-1.79027">
        <ele>2.43</ele>
        <time>2020-05-17T11:32:02Z</time>
      </trkpt>
      <trkpt lat="47.02207" lon="-1.7901">
        <ele>1.85</ele>
        <time>2020-05-17T11:32:04Z</time>
      </trkpt>
      <trkpt lat="47.02215" lon="-1.78998">
        <ele>1.93</ele>
        <time>2020-05-17T11:32:06Z</time>
      </trkpt>
      <trkpt lat="47.02223" lon="-1.78985">
        <ele>1.68</ele>
        <time>2020-05-17T11:32:08Z</time>
      </trkpt>
      <trkpt lat="47.0223" lon="-1.78975">
        <ele>1.58</ele>
        <time>2020-05-17T11:32:10Z</time>
      </trkpt>
      <trkpt lat="47.02237" lon="-1.78966">
        <ele>1.37</ele>
        <time>2020-05-17T11:32:12Z</time>
      </trkpt>
      <trkpt lat="47.02247" lon="-1.78955">
        <ele>1.55</ele>
        <time>2020-05-17T11:32:14Z</time>
      </trkpt>
      <trkpt lat="47.02259" lon="-1.78943">
        <ele>1.93</ele>
        <time>2020-05-17T11:32:16Z</time>
      </trkpt>
      <trkpt lat="47.02268" lon="-1.78935">
        <ele>2.29</ele>
        <time>2020-05-17T11:32:18Z</time>
      </trkpt>
      <trkpt lat="47.02278" lon="-1.78926">
        <ele>3.25</ele>
        <time>2020-05-17T11:32:20Z</time>
      </trkpt>
      <trkpt lat="47.02288" lon="-1.78919">
        <ele>3.93</ele>
        <time>2020-05-17T11:32:22Z</time>
      </trkpt>
      <trkpt lat="47.02298" lon="-1.78912">
        <ele>3.45</ele>
        <time>2020-05-17T11:32:24Z</time>
      </trkpt>
      <trkpt lat="47.02306" lon="-1.78906">
        <ele>3.56</ele>
        <time>2020-05-17T11:32:26Z</time>
      </trkpt>
      <trkpt lat="47.02315" lon="-1.78901">
        <ele>3.54</ele>
        <time>2020-05-17T11:32:28Z</time>
      </trkpt>
      <trkpt lat="47.02325" lon="-1.78895">
        <ele>4.46</ele>
        <time>2020-05-17T11:32:30Z</time>
      </trkpt>
      <trkpt lat="47.02337" lon="-1.7889">
        <ele>4.42</ele>
        <time>2020-05-17T11:32:32Z</time>
      </trkpt>
      <trkpt lat="47.02346" lon="-1.78884">
        <ele>5.25</ele>
        <time>2020-05-17T11:32:34Z</time>
      </trkpt>
      <trkpt lat="47.02356" lon="-1.78878">
        <ele>7.42</ele>
        <time>2020-05-17T11:32:36Z</time>
      </trkpt>
      <trkpt lat="47.02368" lon="-1.78871">
        <ele>8.98</ele>
        <time>2020-05-17T11:32:38Z</time>
      </trkpt>
      <trkpt lat="47.02379" lon="-1.78864">
        <ele>9.88</ele>
        <time>2020-05-17T11:32:40Z</time>
      </trkpt>
      <trkpt lat="47.02389" lon="-1.78858">
        <ele>10.25</ele>
        <time>2020-05-17T11:32:42Z</time>
      </trkpt>
      <trkpt lat="47.02401" lon="-1.7885">
        <ele>9.45</ele>
        <time>2020-05-17T11:32:44Z</time>
      </trkpt>
      <trkpt lat="47.0241" lon="-1.78843">
        <ele>7.28</ele>
        <time>2020-05-17T11:32:46Z</time>
      </trkpt>
      <trkpt lat="47.02421" lon="-1.78835">
        <ele>5.13</ele>
        <time>2020-05-17T11:32:48Z</time>
      </trkpt>
      <trkpt lat="47.02433" lon="-1.78828">
        <ele>3.35</ele>
        <time>2020-05-17T11:32:50Z</time>
      </trkpt>
      <trkpt lat="47.02445" lon="-1.78821">
        <ele>2.91</ele>
        <time>2020-05-17T11:32:52Z</time>
      </trkpt>
      <trkpt lat="47.02455" lon="-1.78813">
        <ele>3.29</ele>
        <time>2020-05-17T11:32:54Z</time>
      </trkpt>
      <trkpt lat="47.02467" lon="-1.78805">
        <ele>3.39</ele>
        <time>2020-05-17T11:32:56Z</time>
      </trkpt>
      <trkpt lat="47.02477" lon="-1.78797">
        <ele>2.73</ele>
        <time>2020-05-17T11:32:58Z</time>
      </trkpt>
      <trkpt lat="47.02487" lon="-1.78791">
        <ele>3.11</ele>
        <time>2020-05-17T11:33:00Z</time>
      </trkpt>
      <trkpt lat="47.02498" lon="-1.78783">
        <ele>4.05</ele>
        <time>2020-05-17T11:33:02Z</time>
      </trkpt>
      <trkpt lat="47.02509" lon="-1.78776">
        <ele>4.29</ele>
        <time>2020-05-17T11:33:04Z</time>
      </trkpt>
      <trkpt lat="47.02521" lon="-1.78768">
        <ele>4.16</ele>
        <time>2020-05-17T11:33:06Z</time>
      </trkpt>
      <trkpt lat="47.02531" lon="-1.78763">
        <ele>4.23</ele>
        <time>2020-05-17T11:33:08Z</time>
      </trkpt>
      <trkpt lat="47.02543" lon="-1.78756">
        <ele>3.88</ele>
        <time>2020-05-17T11:33:10Z</time>
      </trkpt>
      <trkpt lat="47.02554" lon="-1.78749">
        <ele>3.32</ele>
        <time>2020-05-17T11:33:12Z</time>
      </trkpt>
      <trkpt lat="47.02565" lon="-1.78741">
        <ele>2.32</ele>
        <time>2020-05-17T11:33:14Z</time>
      </trkpt>
      <trkpt lat="47.02574" lon="-1.78735">
        <ele>0.75</ele>
        <time>2020-05-17T11:33:16Z</time>
      </trkpt>
      <trkpt lat="47.02583" lon="-1.78728">
        <ele>0.41</ele>
        <time>2020-05-17T11:33:18Z</time>
      </trkpt>
      <trkpt lat="47.02593" lon="-1.78721">
        <ele>-0.53</ele>
        <time>2020-05-17T11:33:20Z</time>
      </trkpt>
      <trkpt lat="47.02603" lon="-1.78712">
        <ele>0.5</ele>
        <time>2020-05-17T11:33:22Z</time>
      </trkpt>
      <trkpt lat="47.02615" lon="-1.78705">
        <ele>0.93</ele>
        <time>2020-05-17T11:33:24Z</time>
      </trkpt>
      <trkpt lat="47.02626" lon="-1.78699">
        <ele>1.24</ele>
        <time>2020-05-17T11:33:26Z</time>
      </trkpt>
      <trkpt lat="47.0264" lon="-1.78692">
        <ele>1.25</ele>
        <time>2020-05-17T11:33:28Z</time>
      </trkpt>
      <trkpt lat="47.02652" lon="-1.78685">
        <ele>2.26</ele>
        <time>2020-05-17T11:33:30Z</time>
      </trkpt>
      <trkpt lat="47.02663" lon="-1.78676">
        <ele>3.57</ele>
        <time>2020-05-17T11:33:32Z</time>
      </trkpt>
      <trkpt lat="47.02674" lon="-1.78669">
        <ele>4.51</ele>
        <time>2020-05-17T11:33:34Z</time>
      </trkpt>
      <trkpt lat="47.02686" lon="-1.78661">
        <ele>5.24</ele>
        <time>2020-05-17T11:33:35Z</time>
      </trkpt>
      <trkpt lat="47.02699" lon="-1.78652">
        <ele>4.67</ele>
        <time>2020-05-17T11:33:37Z</time>
      </trkpt>
      <trkpt lat="47.02711" lon="-1.78645">
        <ele>3.31</ele>
        <time>2020-05-17T11:33:39Z</time>
      </trkpt>
      <trkpt lat="47.02723" lon="-1.78639">
        <ele>1.79</ele>
        <time>2020-05-17T11:33:41Z</time>
      </trkpt>
      <trkpt lat="47.02733" lon="-1.78632">
        <ele>1.26</ele>
        <time>2020-05-17T11:33:43Z</time>
      </trkpt>
      <trkpt lat="47.02746" lon="-1.78624">
        <ele>0.43</ele>
        <time>2020-05-17T11:33:45Z</time>
      </trkpt>
      <trkpt lat="47.02758" lon="-1.78617">
        <ele>0.27</ele>
        <time>2020-05-17T11:33:47Z</time>
      </trkpt>
      <trkpt lat="47.02769" lon="-1.7861">
        <ele>0.62</ele>
        <time>2020-05-17T11:33:49Z</time>
      </trkpt>
      <trkpt lat="47.0278" lon="-1.78603">
        <ele>1.97</ele>
        <time>2020-05-17T11:33:51Z</time>
      </trkpt>
      <trkpt lat="47.0279" lon="-1.78596">
        <ele>2.03</ele>
        <time>2020-05-17T11:33:53Z</time>
      </trkpt>
      <trkpt lat="47.028" lon="-1.7859">
        <ele>2.25</ele>
        <time>2020-05-17T11:33:55Z</time>
      </trkpt>
      <trkpt lat="47.02812" lon="-1.78582">
        <ele>2.75</ele>
        <time>2020-05-17T11:33:57Z</time>
      </trkpt>
      <trkpt lat="47.02822" lon="-1.78575">
        <ele>1.9</ele>
        <time>2020-05-17T11:33:59Z</time>
      </trkpt>
      <trkpt lat="47.02833" lon="-1.78565">
        <ele>0.86</ele>
        <time>2020-05-17T11:34:01Z</time>
      </trkpt>
      <trkpt lat="47.02842" lon="-1.78558">
        <ele>0.26</ele>
        <time>2020-05-17T11:34:03Z</time>
      </trkpt>
      <trkpt lat="47.02855" lon="-1.78546">
        <ele>0.25</ele>
        <time>2020-05-17T11:34:06Z</time>
      </trkpt>
      <trkpt lat="47.02864" lon="-1.78538">
        <ele>-0.6</ele>
        <time>2020-05-17T11:34:08Z</time>
      </trkpt>
      <trkpt lat="47.02872" lon="-1.7853">
        <ele>-0.89</ele>
        <time>2020-05-17T11:34:10Z</time>
      </trkpt>
      <trkpt lat="47.02883" lon="-1.78519">
        <ele>1.87</ele>
        <time>2020-05-17T11:34:13Z</time>
      </trkpt>
      <trkpt lat="47.02891" lon="-1.7851">
        <ele>3.48</ele>
        <time>2020-05-17T11:34:15Z</time>
      </trkpt>
      <trkpt lat="47.02899" lon="-1.78502">
        <ele>4.46</ele>
        <time>2020-05-17T11:34:17Z</time>
      </trkpt>
      <trkpt lat="47.02907" lon="-1.78494">
        <ele>4.85</ele>
        <time>2020-05-17T11:34:19Z</time>
      </trkpt>
      <trkpt lat="47.02917" lon="-1.78484">
        <ele>5.36</ele>
        <time>2020-05-17T11:34:22Z</time>
      </trkpt>
      <trkpt lat="47.02927" lon="-1.78476">
        <ele>4.75</ele>
        <time>2020-05-17T11:34:24Z</time>
      </trkpt>
      <trkpt lat="47.02935" lon="-1.78469">
        <ele>5.05</ele>
        <time>2020-05-17T11:34:26Z</time>
      </trkpt>
      <trkpt lat="47.02943" lon="-1.78462">
        <ele>7.43</ele>
        <time>2020-05-17T11:34:28Z</time>
      </trkpt>
      <trkpt lat="47.0295" lon="-1.78453">
        <ele>7.36</ele>
        <time>2020-05-17T11:34:30Z</time>
      </trkpt>
      <trkpt lat="47.02958" lon="-1.78444">
        <ele>7.58</ele>
        <time>2020-05-17T11:34:32Z</time>
      </trkpt>
      <trkpt lat="47.02968" lon="-1.78434">
        <ele>8.29</ele>
        <time>2020-05-17T11:34:34Z</time>
      </trkpt>
      <trkpt lat="47.02976" lon="-1.78427">
        <ele>9.09</ele>
        <time>2020-05-17T11:34:36Z</time>
      </trkpt>
      <trkpt lat="47.02987" lon="-1.78417">
        <ele>10.09</ele>
        <time>2020-05-17T11:34:39Z</time>
      </trkpt>
      <trkpt lat="47.02995" lon="-1.7841">
        <ele>9.89</ele>
        <time>2020-05-17T11:34:41Z</time>
      </trkpt>
      <trkpt lat="47.03003" lon="-1.78402">
        <ele>10.18</ele>
        <time>2020-05-17T11:34:43Z</time>
      </trkpt>
      <trkpt lat="47.03012" lon="-1.78394">
        <ele>10.97</ele>
        <time>2020-05-17T11:34:45Z</time>
      </trkpt>
      <trkpt lat="47.03019" lon="-1.78386">
        <ele>11.53</ele>
        <time>2020-05-17T11:34:47Z</time>
      </trkpt>
      <trkpt lat="47.0303" lon="-1.78378">
        <ele>12.09</ele>
        <time>2020-05-17T11:34:49Z</time>
      </trkpt>
      <trkpt lat="47.03039" lon="-1.78369">
        <ele>12.91</ele>
        <time>2020-05-17T11:34:51Z</time>
      </trkpt>
      <trkpt lat="47.03048" lon="-1.78362">
        <ele>12.93</ele>
        <time>2020-05-17T11:34:53Z</time>
      </trkpt>
      <trkpt lat="47.03056" lon="-1.78353">
        <ele>13.1</ele>
        <time>2020-05-17T11:34:55Z</time>
      </trkpt>
      <trkpt lat="47.03064" lon="-1.78346">
        <ele>13.08</ele>
        <time>2020-05-17T11:34:57Z</time>
      </trkpt>
      <trkpt lat="47.03071" lon="-1.78336">
        <ele>13.69</ele>
        <time>2020-05-17T11:34:59Z</time>
      </trkpt>
      <trkpt lat="47.03079" lon="-1.78328">
        <ele>14.98</ele>
        <time>2020-05-17T11:35:01Z</time>
      </trkpt>
      <trkpt lat="47.03087" lon="-1.7832">
        <ele>15.7</ele>
        <time>2020-05-17T11:35:03Z</time>
      </trkpt>
      <trkpt lat="47.03097" lon="-1.78309">
        <ele>17.62</ele>
        <time>2020-05-17T11:35:05Z</time>
      </trkpt>
      <trkpt lat="47.03107" lon="-1.783">
        <ele>17.53</ele>
        <time>2020-05-17T11:35:07Z</time>
      </trkpt>
      <trkpt lat="47.03116" lon="-1.78293">
        <ele>16.21</ele>
        <time>2020-05-17T11:35:09Z</time>
      </trkpt>
      <trkpt lat="47.03125" lon="-1.78286">
        <ele>15.06</ele>
        <time>2020-05-17T11:35:11Z</time>
      </trkpt>
      <trkpt lat="47.03134" lon="-1.78276">
        <ele>13.8</ele>
        <time>2020-05-17T11:35:13Z</time>
      </trkpt>
      <trkpt lat="47.03144" lon="-1.78266">
        <ele>12.47</ele>
        <time>2020-05-17T11:35:15Z</time>
      </trkpt>
      <trkpt lat="47.03156" lon="-1.78255">
        <ele>11.24</ele>
        <time>2020-05-17T11:35:17Z</time>
      </trkpt>
      <trkpt lat="47.03168" lon="-1.78244">
        <ele>9.81</ele>
        <time>2020-05-17T11:35:19Z</time>
      </trkpt>
      <trkpt lat="47.03179" lon="-1.78235">
        <ele>9.75</ele>
        <time>2020-05-17T11:35:21Z</time>
      </trkpt>
      <trkpt lat="47.03188" lon="-1.78228">
        <ele>9.9</ele>
        <time>2020-05-17T11:35:23Z</time>
      </trkpt>
      <trkpt lat="47.03199" lon="-1.78217">
        <ele>10.75</ele>
        <time>2020-05-17T11:35:25Z</time>
      </trkpt>
      <trkpt lat="47.03209" lon="-1.78208">
        <ele>11.01</ele>
        <time>2020-05-17T11:35:27Z</time>
      </trkpt>
      <trkpt lat="47.03219" lon="-1.78199">
        <ele>10.06</ele>
        <time>2020-05-17T11:35:29Z</time>
      </trkpt>
      <trkpt lat="47.0323" lon="-1.78187">
        <ele>8.9</ele>
        <time>2020-05-17T11:35:31Z</time>
      </trkpt>
      <trkpt lat="47.03241" lon="-1.78177">
        <ele>9.16</ele>
        <time>2020-05-17T11:35:33Z</time>
      </trkpt>
      <trkpt lat="47.03252" lon="-1.78166">
        <ele>10.36</ele>
        <time>2020-05-17T11:35:35Z</time>
      </trkpt>
      <trkpt lat="47.03263" lon="-1.78155">
        <ele>11.27</ele>
        <time>2020-05-17T11:35:37Z</time>
      </trkpt>
      <trkpt lat="47.03273" lon="-1.78146">
        <ele>11.15</ele>
        <time>2020-05-17T11:35:39Z</time>
      </trkpt>
      <trkpt lat="47.03285" lon="-1.78135">
        <ele>11.97</ele>
        <time>2020-05-17T11:35:41Z</time>
      </trkpt>
      <trkpt lat="47.03297" lon="-1.78122">
        <ele>12.32</ele>
        <time>2020-05-17T11:35:43Z</time>
      </trkpt>
      <trkpt lat="47.03308" lon="-1.78112">
        <ele>11.84</ele>
        <time>2020-05-17T11:35:45Z</time>
      </trkpt>
      <trkpt lat="47.0332" lon="-1.78101">
        <ele>11.39</ele>
        <time>2020-05-17T11:35:47Z</time>
      </trkpt>
      <trkpt lat="47.0333" lon="-1.78091">
        <ele>11.45</ele>
        <time>2020-05-17T11:35:49Z</time>
      </trkpt>
      <trkpt lat="47.03341" lon="-1.78081">
        <ele>12.48</ele>
        <time>2020-05-17T11:35:51Z</time>
      </trkpt>
      <trkpt lat="47.03352" lon="-1.7807">
        <ele>12.53</ele>
        <time>2020-05-17T11:35:53Z</time>
      </trkpt>
      <trkpt lat="47.03362" lon="-1.7806">
        <ele>13.25</ele>
        <time>2020-05-17T11:35:55Z</time>
      </trkpt>
      <trkpt lat="47.03373" lon="-1.78049">
        <ele>14.41</ele>
        <time>2020-05-17T11:35:57Z</time>
      </trkpt>
      <trkpt lat="47.03382" lon="-1.7804">
        <ele>14.49</ele>
        <time>2020-05-17T11:35:59Z</time>
      </trkpt>
      <trkpt lat="47.03393" lon="-1.7803">
        <ele>14.1</ele>
        <time>2020-05-17T11:36:01Z</time>
      </trkpt>
      <trkpt lat="47.03403" lon="-1.7802">
        <ele>13.77</ele>
        <time>2020-05-17T11:36:03Z</time>
      </trkpt>
      <trkpt lat="47.03414" lon="-1.7801">
        <ele>13.73</ele>
        <time>2020-05-17T11:36:05Z</time>
      </trkpt>
      <trkpt lat="47.03425" lon="-1.78001">
        <ele>13.94</ele>
        <time>2020-05-17T11:36:07Z</time>
      </trkpt>
      <trkpt lat="47.03435" lon="-1.77992">
        <ele>14.48</ele>
        <time>2020-05-17T11:36:09Z</time>
      </trkpt>
      <trkpt lat="47.03445" lon="-1.77982">
        <ele>15.65</ele>
        <time>2020-05-17T11:36:11Z</time>
      </trkpt>
      <trkpt lat="47.03455" lon="-1.77972">
        <ele>15.93</ele>
        <time>2020-05-17T11:36:13Z</time>
      </trkpt>
      <trkpt lat="47.03465" lon="-1.77962">
        <ele>16.03</ele>
        <time>2020-05-17T11:36:15Z</time>
      </trkpt>
      <trkpt lat="47.03475" lon="-1.77952">
        <ele>16.62</ele>
        <time>2020-05-17T11:36:17Z</time>
      </trkpt>
      <trkpt lat="47.03485" lon="-1.77942">
        <ele>16.92</ele>
        <time>2020-05-17T11:36:19Z</time>
      </trkpt>
      <trkpt lat="47.03496" lon="-1.77931">
        <ele>16.54</ele>
        <time>2020-05-17T11:36:21Z</time>
      </trkpt>
      <trkpt lat="47.03506" lon="-1.77922">
        <ele>16.58</ele>
        <time>2020-05-17T11:36:23Z</time>
      </trkpt>
      <trkpt lat="47.03519" lon="-1.77911">
        <ele>16.96</ele>
        <time>2020-05-17T11:36:25Z</time>
      </trkpt>
      <trkpt lat="47.03529" lon="-1.77901">
        <ele>16.68</ele>
        <time>2020-05-17T11:36:27Z</time>
      </trkpt>
      <trkpt lat="47.03539" lon="-1.77892">
        <ele>15.73</ele>
        <time>2020-05-17T11:36:29Z</time>
      </trkpt>
      <trkpt lat="47.03549" lon="-1.77882">
        <ele>15.61</ele>
        <time>2020-05-17T11:36:31Z</time>
      </trkpt>
      <trkpt lat="47.03561" lon="-1.77874">
        <ele>15.7</ele>
        <time>2020-05-17T11:36:33Z</time>
      </trkpt>
      <trkpt lat="47.03571" lon="-1.77867">
        <ele>16.16</ele>
        <time>2020-05-17T11:36:35Z</time>
      </trkpt>
      <trkpt lat="47.03581" lon="-1.77858">
        <ele>16.01</ele>
        <time>2020-05-17T11:36:37Z</time>
      </trkpt>
      <trkpt lat="47.03591" lon="-1.77851">
        <ele>15.98</ele>
        <time>2020-05-17T11:36:39Z</time>
      </trkpt>
      <trkpt lat="47.03602" lon="-1.77843">
        <ele>15.6</ele>
        <time>2020-05-17T11:36:41Z</time>
      </trkpt>
      <trkpt lat="47.03613" lon="-1.77835">
        <ele>15.4</ele>
        <time>2020-05-17T11:36:43Z</time>
      </trkpt>
      <trkpt lat="47.03625" lon="-1.77827">
        <ele>16.31</ele>
        <time>2020-05-17T11:36:45Z</time>
      </trkpt>
      <trkpt lat="47.03635" lon="-1.7782">
        <ele>16.75</ele>
        <time>2020-05-17T11:36:47Z</time>
      </trkpt>
      <trkpt lat="47.03645" lon="-1.77812">
        <ele>17.07</ele>
        <time>2020-05-17T11:36:49Z</time>
      </trkpt>
      <trkpt lat="47.03656" lon="-1.77804">
        <ele>16.44</ele>
        <time>2020-05-17T11:36:51Z</time>
      </trkpt>
      <trkpt lat="47.03667" lon="-1.77797">
        <ele>16.15</ele>
        <time>2020-05-17T11:36:53Z</time>
      </trkpt>
      <trkpt lat="47.03677" lon="-1.7779">
        <ele>16.81</ele>
        <time>2020-05-17T11:36:55Z</time>
      </trkpt>
      <trkpt lat="47.03689" lon="-1.77783">
        <ele>16.22</ele>
        <time>2020-05-17T11:36:57Z</time>
      </trkpt>
      <trkpt lat="47.03699" lon="-1.77776">
        <ele>16.33</ele>
        <time>2020-05-17T11:36:59Z</time>
      </trkpt>
      <trkpt lat="47.03709" lon="-1.77768">
        <ele>16.1</ele>
        <time>2020-05-17T11:37:01Z</time>
      </trkpt>
      <trkpt lat="47.03721" lon="-1.7776">
        <ele>16.39</ele>
        <time>2020-05-17T11:37:03Z</time>
      </trkpt>
      <trkpt lat="47.0373" lon="-1.77753">
        <ele>17.71</ele>
        <time>2020-05-17T11:37:05Z</time>
      </trkpt>
      <trkpt lat="47.03741" lon="-1.77745">
        <ele>17.82</ele>
        <time>2020-05-17T11:37:07Z</time>
      </trkpt>
      <trkpt lat="47.03752" lon="-1.77738">
        <ele>17.61</ele>
        <time>2020-05-17T11:37:09Z</time>
      </trkpt>
      <trkpt lat="47.03762" lon="-1.77731">
        <ele>17.36</ele>
        <time>2020-05-17T11:37:11Z</time>
      </trkpt>
      <trkpt lat="47.03772" lon="-1.77724">
        <ele>18.02</ele>
        <time>2020-05-17T11:37:13Z</time>
      </trkpt>
      <trkpt lat="47.03783" lon="-1.77716">
        <ele>17.79</ele>
        <time>2020-05-17T11:37:15Z</time>
      </trkpt>
      <trkpt lat="47.03793" lon="-1.7771">
        <ele>17.11</ele>
        <time>2020-05-17T11:37:17Z</time>
      </trkpt>
      <trkpt lat="47.03804" lon="-1.77701">
        <ele>17.95</ele>
        <time>2020-05-17T11:37:19Z</time>
      </trkpt>
      <trkpt lat="47.03817" lon="-1.77692">
        <ele>17.37</ele>
        <time>2020-05-17T11:37:22Z</time>
      </trkpt>
      <trkpt lat="47.03829" lon="-1.77683">
        <ele>17.49</ele>
        <time>2020-05-17T11:37:24Z</time>
      </trkpt>
      <trkpt lat="47.03839" lon="-1.77677">
        <ele>17.76</ele>
        <time>2020-05-17T11:37:26Z</time>
      </trkpt>
      <trkpt lat="47.03849" lon="-1.77669">
        <ele>18.11</ele>
        <time>2020-05-17T11:37:28Z</time>
      </trkpt>
      <trkpt lat="47.03858" lon="-1.77662">
        <ele>18.2</ele>
        <time>2020-05-17T11:37:30Z</time>
      </trkpt>
      <trkpt lat="47.03867" lon="-1.77656">
        <ele>18.29</ele>
        <time>2020-05-17T11:37:32Z</time>
      </trkpt>
      <trkpt lat="47.03876" lon="-1.7765">
        <ele>18.87</ele>
        <time>2020-05-17T11:37:34Z</time>
      </trkpt>
      <trkpt lat="47.03886" lon="-1.77644">
        <ele>19.14</ele>
        <time>2020-05-17T11:37:36Z</time>
      </trkpt>
      <trkpt lat="47.03894" lon="-1.77638">
        <ele>19.22</ele>
        <time>2020-05-17T11:37:38Z</time>
      </trkpt>
      <trkpt lat="47.03903" lon="-1.77632">
        <ele>19.95</ele>
        <time>2020-05-17T11:37:40Z</time>
      </trkpt>
      <trkpt lat="47.03911" lon="-1.77626">
        <ele>20.09</ele>
        <time>2020-05-17T11:37:42Z</time>
      </trkpt>
      <trkpt lat="47.0392" lon="-1.77619">
        <ele>20.06</ele>
        <time>2020-05-17T11:37:44Z</time>
      </trkpt>
      <trkpt lat="47.03931" lon="-1.77612">
        <ele>19.87</ele>
        <time>2020-05-17T11:37:46Z</time>
      </trkpt>
      <trkpt lat="47.03943" lon="-1.77604">
        <ele>18.85</ele>
        <time>2020-05-17T11:37:49Z</time>
      </trkpt>
      <trkpt lat="47.03955" lon="-1.77596">
        <ele>19.09</ele>
        <time>2020-05-17T11:37:52Z</time>
      </trkpt>
      <trkpt lat="47.03965" lon="-1.77588">
        <ele>20.02</ele>
        <time>2020-05-17T11:37:55Z</time>
      </trkpt>
      <trkpt lat="47.03976" lon="-1.77581">
        <ele>20.44</ele>
        <time>2020-05-17T11:37:57Z</time>
      </trkpt>
      <trkpt lat="47.03985" lon="-1.77575">
        <ele>20.04</ele>
        <time>2020-05-17T11:37:59Z</time>
      </trkpt>
      <trkpt lat="47.03993" lon="-1.77569">
        <ele>20.11</ele>
        <time>2020-05-17T11:38:01Z</time>
      </trkpt>
      <trkpt lat="47.04003" lon="-1.77562">
        <ele>20.52</ele>
        <time>2020-05-17T11:38:03Z</time>
      </trkpt>
      <trkpt lat="47.04014" lon="-1.77554">
        <ele>20.38</ele>
        <time>2020-05-17T11:38:06Z</time>
      </trkpt>
      <trkpt lat="47.04024" lon="-1.77548">
        <ele>20.36</ele>
        <time>2020-05-17T11:38:08Z</time>
      </trkpt>
      <trkpt lat="47.04034" lon="-1.77542">
        <ele>21.2</ele>
        <time>2020-05-17T11:38:10Z</time>
      </trkpt>
      <trkpt lat="47.04042" lon="-1.77535">
        <ele>23.26</ele>
        <time>2020-05-17T11:38:12Z</time>
      </trkpt>
      <trkpt lat="47.04052" lon="-1.77529">
        <ele>22.12</ele>
        <time>2020-05-17T11:38:15Z</time>
      </trkpt>
      <trkpt lat="47.0406" lon="-1.77522">
        <ele>22.34</ele>
        <time>2020-05-17T11:38:17Z</time>
      </trkpt>
      <trkpt lat="47.0407" lon="-1.77515">
        <ele>22.75</ele>
        <time>2020-05-17T11:38:19Z</time>
      </trkpt>
      <trkpt lat="47.0408" lon="-1.77507">
        <ele>23.88</ele>
        <time>2020-05-17T11:38:21Z</time>
      </trkpt>
      <trkpt lat="47.04092" lon="-1.775">
        <ele>23.57</ele>
        <time>2020-05-17T11:38:23Z</time>
      </trkpt>
      <trkpt lat="47.04101" lon="-1.77494">
        <ele>22.61</ele>
        <time>2020-05-17T11:38:25Z</time>
      </trkpt>
      <trkpt lat="47.0411" lon="-1.77488">
        <ele>21.62</ele>
        <time>2020-05-17T11:38:27Z</time>
      </trkpt>
      <trkpt lat="47.0412" lon="-1.77481">
        <ele>20.82</ele>
        <time>2020-05-17T11:38:29Z</time>
      </trkpt>
      <trkpt lat="47.04132" lon="-1.77473">
        <ele>22.18</ele>
        <time>2020-05-17T11:38:32Z</time>
      </trkpt>
      <trkpt lat="47.04142" lon="-1.77466">
        <ele>23.98</ele>
        <time>2020-05-17T11:38:34Z</time>
      </trkpt>
      <trkpt lat="47.04152" lon="-1.7746">
        <ele>24.76</ele>
        <time>2020-05-17T11:38:36Z</time>
      </trkpt>
      <trkpt lat="47.0416" lon="-1.77453">
        <ele>24.64</ele>
        <time>2020-05-17T11:38:38Z</time>
      </trkpt>
      <trkpt lat="47.04171" lon="-1.77446">
        <ele>24.42</ele>
        <time>2020-05-17T11:38:40Z</time>
      </trkpt>
      <trkpt lat="47.04183" lon="-1.77437">
        <ele>23.52</ele>
        <time>2020-05-17T11:38:42Z</time>
      </trkpt>
      <trkpt lat="47.04193" lon="-1.7743">
        <ele>22.66</ele>
        <time>2020-05-17T11:38:44Z</time>
      </trkpt>
      <trkpt lat="47.04202" lon="-1.77423">
        <ele>22.35</ele>
        <time>2020-05-17T11:38:46Z</time>
      </trkpt>
      <trkpt lat="47.04213" lon="-1.77415">
        <ele>22.12</ele>
        <time>2020-05-17T11:38:48Z</time>
      </trkpt>
      <trkpt lat="47.04224" lon="-1.77407">
        <ele>22.07</ele>
        <time>2020-05-17T11:38:50Z</time>
      </trkpt>
      <trkpt lat="47.04236" lon="-1.774">
        <ele>21.24</ele>
        <time>2020-05-17T11:38:52Z</time>
      </trkpt>
      <trkpt lat="47.04249" lon="-1.77391">
        <ele>20.03</ele>
        <time>2020-05-17T11:38:54Z</time>
      </trkpt>
      <trkpt lat="47.0426" lon="-1.77383">
        <ele>19.04</ele>
        <time>2020-05-17T11:38:56Z</time>
      </trkpt>
      <trkpt lat="47.0427" lon="-1.77375">
        <ele>17.33</ele>
        <time>2020-05-17T11:38:58Z</time>
      </trkpt>
      <trkpt lat="47.0428" lon="-1.77368">
        <ele>17.21</ele>
        <time>2020-05-17T11:39:00Z</time>
      </trkpt>
      <trkpt lat="47.04291" lon="-1.77358">
        <ele>17.99</ele>
        <time>2020-05-17T11:39:02Z</time>
      </trkpt>
      <trkpt lat="47.04303" lon="-1.7735">
        <ele>17.7</ele>
        <time>2020-05-17T11:39:04Z</time>
      </trkpt>
      <trkpt lat="47.04314" lon="-1.77343">
        <ele>17.8</ele>
        <time>2020-05-17T11:39:06Z</time>
      </trkpt>
      <trkpt lat="47.04324" lon="-1.77335">
        <ele>16.53</ele>
        <time>2020-05-17T11:39:08Z</time>
      </trkpt>
      <trkpt lat="47.04335" lon="-1.77329">
        <ele>16.3</ele>
        <time>2020-05-17T11:39:10Z</time>
      </trkpt>
      <trkpt lat="47.04347" lon="-1.77321">
        <ele>18.18</ele>
        <time>2020-05-17T11:39:12Z</time>
      </trkpt>
      <trkpt lat="47.0436" lon="-1.77312">
        <ele>20.27</ele>
        <time>2020-05-17T11:39:14Z</time>
      </trkpt>
      <trkpt lat="47.04372" lon="-1.77304">
        <ele>21.59</ele>
        <time>2020-05-17T11:39:16Z</time>
      </trkpt>
      <trkpt lat="47.04383" lon="-1.77296">
        <ele>22.23</ele>
        <time>2020-05-17T11:39:18Z</time>
      </trkpt>
      <trkpt lat="47.04395" lon="-1.77288">
        <ele>23.67</ele>
        <time>2020-05-17T11:39:20Z</time>
      </trkpt>
      <trkpt lat="47.04405" lon="-1.77281">
        <ele>25.06</ele>
        <time>2020-05-17T11:39:22Z</time>
      </trkpt>
      <trkpt lat="47.04418" lon="-1.77272">
        <ele>24.78</ele>
        <time>2020-05-17T11:39:24Z</time>
      </trkpt>
      <trkpt lat="47.0443" lon="-1.77264">
        <ele>23.77</ele>
        <time>2020-05-17T11:39:26Z</time>
      </trkpt>
      <trkpt lat="47.0444" lon="-1.77256">
        <ele>23.74</ele>
        <time>2020-05-17T11:39:28Z</time>
      </trkpt>
      <trkpt lat="47.04453" lon="-1.77247">
        <ele>23.69</ele>
        <time>2020-05-17T11:39:30Z</time>
      </trkpt>
      <trkpt lat="47.04465" lon="-1.77239">
        <ele>23.23</ele>
        <time>2020-05-17T11:39:32Z</time>
      </trkpt>
      <trkpt lat="47.04476" lon="-1.77232">
        <ele>22.88</ele>
        <time>2020-05-17T11:39:34Z</time>
      </trkpt>
      <trkpt lat="47.04488" lon="-1.77223">
        <ele>23.2</ele>
        <time>2020-05-17T11:39:36Z</time>
      </trkpt>
      <trkpt lat="47.04501" lon="-1.77215">
        <ele>23.52</ele>
        <time>2020-05-17T11:39:38Z</time>
      </trkpt>
      <trkpt lat="47.04512" lon="-1.77207">
        <ele>23.25</ele>
        <time>2020-05-17T11:39:40Z</time>
      </trkpt>
      <trkpt lat="47.04524" lon="-1.77197">
        <ele>23.39</ele>
        <time>2020-05-17T11:39:42Z</time>
      </trkpt>
      <trkpt lat="47.04537" lon="-1.77188">
        <ele>22.51</ele>
        <time>2020-05-17T11:39:44Z</time>
      </trkpt>
      <trkpt lat="47.0455" lon="-1.7718">
        <ele>21.71</ele>
        <time>2020-05-17T11:39:46Z</time>
      </trkpt>
      <trkpt lat="47.04562" lon="-1.77172">
        <ele>21.81</ele>
        <time>2020-05-17T11:39:48Z</time>
      </trkpt>
      <trkpt lat="47.04574" lon="-1.77165">
        <ele>22.48</ele>
        <time>2020-05-17T11:39:50Z</time>
      </trkpt>
      <trkpt lat="47.04587" lon="-1.77158">
        <ele>23.93</ele>
        <time>2020-05-17T11:39:52Z</time>
      </trkpt>
      <trkpt lat="47.04599" lon="-1.77152">
        <ele>24.08</ele>
        <time>2020-05-17T11:39:54Z</time>
      </trkpt>
      <trkpt lat="47.04612" lon="-1.77146">
        <ele>23.47</ele>
        <time>2020-05-17T11:39:56Z</time>
      </trkpt>
      <trkpt lat="47.04624" lon="-1.77141">
        <ele>22.4</ele>
        <time>2020-05-17T11:39:58Z</time>
      </trkpt>
      <trkpt lat="47.04637" lon="-1.77135">
        <ele>22.14</ele>
        <time>2020-05-17T11:40:00Z</time>
      </trkpt>
      <trkpt lat="47.0465" lon="-1.77131">
        <ele>21.38</ele>
        <time>2020-05-17T11:40:02Z</time>
      </trkpt>
      <trkpt lat="47.04664" lon="-1.77124">
        <ele>20.98</ele>
        <time>2020-05-17T11:40:04Z</time>
      </trkpt>
      <trkpt lat="47.04677" lon="-1.77116">
        <ele>21.54</ele>
        <time>2020-05-17T11:40:06Z</time>
      </trkpt>
      <trkpt lat="47.04692" lon="-1.77109">
        <ele>21.57</ele>
        <time>2020-05-17T11:40:08Z</time>
      </trkpt>
      <trkpt lat="47.04705" lon="-1.77103">
        <ele>21.46</ele>
        <time>2020-05-17T11:40:10Z</time>
      </trkpt>
      <trkpt lat="47.04718" lon="-1.77097">
        <ele>22.12</ele>
        <time>2020-05-17T11:40:12Z</time>
      </trkpt>
      <trkpt lat="47.0473" lon="-1.7709">
        <ele>22.34</ele>
        <time>2020-05-17T11:40:14Z</time>
      </trkpt>
      <trkpt lat="47.04743" lon="-1.77083">
        <ele>22.53</ele>
        <time>2020-05-17T11:40:16Z</time>
      </trkpt>
      <trkpt lat="47.04755" lon="-1.77077">
        <ele>22.67</ele>
        <time>2020-05-17T11:40:18Z</time>
      </trkpt>
      <trkpt lat="47.04768" lon="-1.77071">
        <ele>21.94</ele>
        <time>2020-05-17T11:40:20Z</time>
      </trkpt>
      <trkpt lat="47.04782" lon="-1.77064">
        <ele>21.23</ele>
        <time>2020-05-17T11:40:22Z</time>
      </trkpt>
      <trkpt lat="47.04795" lon="-1.77058">
        <ele>20.52</ele>
        <time>2020-05-17T11:40:24Z</time>
      </trkpt>
      <trkpt lat="47.04808" lon="-1.77052">
        <ele>19.92</ele>
        <time>2020-05-17T11:40:26Z</time>
      </trkpt>
      <trkpt lat="47.04822" lon="-1.77047">
        <ele>19.5</ele>
        <time>2020-05-17T11:40:28Z</time>
      </trkpt>
      <trkpt lat="47.04836" lon="-1.7704">
        <ele>18.37</ele>
        <time>2020-05-17T11:40:30Z</time>
      </trkpt>
      <trkpt lat="47.04847" lon="-1.77035">
        <ele>16.81</ele>
        <time>2020-05-17T11:40:32Z</time>
      </trkpt>
      <trkpt lat="47.04861" lon="-1.77028">
        <ele>16.32</ele>
        <time>2020-05-17T11:40:34Z</time>
      </trkpt>
      <trkpt lat="47.04875" lon="-1.77022">
        <ele>16.49</ele>
        <time>2020-05-17T11:40:36Z</time>
      </trkpt>
      <trkpt lat="47.04888" lon="-1.77015">
        <ele>17.68</ele>
        <time>2020-05-17T11:40:38Z</time>
      </trkpt>
      <trkpt lat="47.04899" lon="-1.7701">
        <ele>18.17</ele>
        <time>2020-05-17T11:40:40Z</time>
      </trkpt>
      <trkpt lat="47.0491" lon="-1.77003">
        <ele>18.27</ele>
        <time>2020-05-17T11:40:42Z</time>
      </trkpt>
      <trkpt lat="47.04922" lon="-1.76997">
        <ele>17.91</ele>
        <time>2020-05-17T11:40:44Z</time>
      </trkpt>
      <trkpt lat="47.04934" lon="-1.76991">
        <ele>17.6</ele>
        <time>2020-05-17T11:40:46Z</time>
      </trkpt>
      <trkpt lat="47.04946" lon="-1.76986">
        <ele>17.44</ele>
        <time>2020-05-17T11:40:48Z</time>
      </trkpt>
      <trkpt lat="47.04959" lon="-1.7698">
        <ele>17.17</ele>
        <time>2020-05-17T11:40:50Z</time>
      </trkpt>
      <trkpt lat="47.04974" lon="-1.76973">
        <ele>17.43</ele>
        <time>2020-05-17T11:40:52Z</time>
      </trkpt>
      <trkpt lat="47.04987" lon="-1.76968">
        <ele>17.42</ele>
        <time>2020-05-17T11:40:54Z</time>
      </trkpt>
      <trkpt lat="47.04999" lon="-1.76961">
        <ele>17.55</ele>
        <time>2020-05-17T11:40:56Z</time>
      </trkpt>
      <trkpt lat="47.05011" lon="-1.76955">
        <ele>18.17</ele>
        <time>2020-05-17T11:40:58Z</time>
      </trkpt>
      <trkpt lat="47.05022" lon="-1.7695">
        <ele>17.66</ele>
        <time>2020-05-17T11:41:00Z</time>
      </trkpt>
      <trkpt lat="47.05034" lon="-1.76944">
        <ele>16.52</ele>
        <time>2020-05-17T11:41:02Z</time>
      </trkpt>
      <trkpt lat="47.05046" lon="-1.76937">
        <ele>15.75</ele>
        <time>2020-05-17T11:41:04Z</time>
      </trkpt>
      <trkpt lat="47.05058" lon="-1.76931">
        <ele>15.41</ele>
        <time>2020-05-17T11:41:06Z</time>
      </trkpt>
      <trkpt lat="47.05073" lon="-1.76924">
        <ele>15.07</ele>
        <time>2020-05-17T11:41:08Z</time>
      </trkpt>
      <trkpt lat="47.05085" lon="-1.76919">
        <ele>15.94</ele>
        <time>2020-05-17T11:41:10Z</time>
      </trkpt>
      <trkpt lat="47.05095" lon="-1.76913">
        <ele>17.7</ele>
        <time>2020-05-17T11:41:12Z</time>
      </trkpt>
      <trkpt lat="47.05107" lon="-1.76907">
        <ele>19.03</ele>
        <time>2020-05-17T11:41:14Z</time>
      </trkpt>
      <trkpt lat="47.0512" lon="-1.769">
        <ele>19.92</ele>
        <time>2020-05-17T11:41:16Z</time>
      </trkpt>
      <trkpt lat="47.05132" lon="-1.76894">
        <ele>19.91</ele>
        <time>2020-05-17T11:41:18Z</time>
      </trkpt>
      <trkpt lat="47.05146" lon="-1.76888">
        <ele>20.04</ele>
        <time>2020-05-17T11:41:20Z</time>
      </trkpt>
      <trkpt lat="47.05156" lon="-1.76883">
        <ele>19.59</ele>
        <time>2020-05-17T11:41:22Z</time>
      </trkpt>
      <trkpt lat="47.05167" lon="-1.76878">
        <ele>19.84</ele>
        <time>2020-05-17T11:41:24Z</time>
      </trkpt>
      <trkpt lat="47.0518" lon="-1.76871">
        <ele>20.53</ele>
        <time>2020-05-17T11:41:26Z</time>
      </trkpt>
      <trkpt lat="47.05193" lon="-1.76864">
        <ele>21.96</ele>
        <time>2020-05-17T11:41:28Z</time>
      </trkpt>
      <trkpt lat="47.05204" lon="-1.76858">
        <ele>22.43</ele>
        <time>2020-05-17T11:41:30Z</time>
      </trkpt>
      <trkpt lat="47.05216" lon="-1.76853">
        <ele>22.61</ele>
        <time>2020-05-17T11:41:32Z</time>
      </trkpt>
      <trkpt lat="47.05229" lon="-1.76847">
        <ele>22.45</ele>
        <time>2020-05-17T11:41:34Z</time>
      </trkpt>
      <trkpt lat="47.05241" lon="-1.76841">
        <ele>23.2</ele>
        <time>2020-05-17T11:41:36Z</time>
      </trkpt>
      <trkpt lat="47.05255" lon="-1.76835">
        <ele>23.54</ele>
        <time>2020-05-17T11:41:38Z</time>
      </trkpt>
      <trkpt lat="47.05267" lon="-1.76829">
        <ele>22.55</ele>
        <time>2020-05-17T11:41:40Z</time>
      </trkpt>
      <trkpt lat="47.05279" lon="-1.76824">
        <ele>21.19</ele>
        <time>2020-05-17T11:41:42Z</time>
      </trkpt>
      <trkpt lat="47.05291" lon="-1.7682">
        <ele>20.78</ele>
        <time>2020-05-17T11:41:44Z</time>
      </trkpt>
      <trkpt lat="47.05304" lon="-1.76814">
        <ele>20.41</ele>
        <time>2020-05-17T11:41:46Z</time>
      </trkpt>
      <trkpt lat="47.05316" lon="-1.76808">
        <ele>20.07</ele>
        <time>2020-05-17T11:41:48Z</time>
      </trkpt>
      <trkpt lat="47.05328" lon="-1.76803">
        <ele>19.66</ele>
        <time>2020-05-17T11:41:50Z</time>
      </trkpt>
      <trkpt lat="47.05339" lon="-1.76797">
        <ele>19.77</ele>
        <time>2020-05-17T11:41:52Z</time>
      </trkpt>
      <trkpt lat="47.05351" lon="-1.76792">
        <ele>18.73</ele>
        <time>2020-05-17T11:41:54Z</time>
      </trkpt>
      <trkpt lat="47.05365" lon="-1.76785">
        <ele>18.25</ele>
        <time>2020-05-17T11:41:56Z</time>
      </trkpt>
      <trkpt lat="47.05376" lon="-1.7678">
        <ele>18.39</ele>
        <time>2020-05-17T11:41:58Z</time>
      </trkpt>
      <trkpt lat="47.05389" lon="-1.76773">
        <ele>18.53</ele>
        <time>2020-05-17T11:42:00Z</time>
      </trkpt>
      <trkpt lat="47.054" lon="-1.76768">
        <ele>18.44</ele>
        <time>2020-05-17T11:42:02Z</time>
      </trkpt>
      <trkpt lat="47.05412" lon="-1.76762">
        <ele>18.21</ele>
        <time>2020-05-17T11:42:04Z</time>
      </trkpt>
      <trkpt lat="47.05424" lon="-1.76756">
        <ele>17.72</ele>
        <time>2020-05-17T11:42:06Z</time>
      </trkpt>
      <trkpt lat="47.05436" lon="-1.7675">
        <ele>17.59</ele>
        <time>2020-05-17T11:42:08Z</time>
      </trkpt>
      <trkpt lat="47.05448" lon="-1.76744">
        <ele>18.31</ele>
        <time>2020-05-17T11:42:10Z</time>
      </trkpt>
      <trkpt lat="47.05462" lon="-1.76737">
        <ele>18.95</ele>
        <time>2020-05-17T11:42:12Z</time>
      </trkpt>
      <trkpt lat="47.05474" lon="-1.76731">
        <ele>19.14</ele>
        <time>2020-05-17T11:42:14Z</time>
      </trkpt>
      <trkpt lat="47.05488" lon="-1.76725">
        <ele>18.65</ele>
        <time>2020-05-17T11:42:16Z</time>
      </trkpt>
      <trkpt lat="47.05502" lon="-1.76718">
        <ele>18.03</ele>
        <time>2020-05-17T11:42:18Z</time>
      </trkpt>
      <trkpt lat="47.05515" lon="-1.76712">
        <ele>16.78</ele>
        <time>2020-05-17T11:42:20Z</time>
      </trkpt>
      <trkpt lat="47.05529" lon="-1.76706">
        <ele>16.44</ele>
        <time>2020-05-17T11:42:22Z</time>
      </trkpt>
      <trkpt lat="47.05542" lon="-1.767">
        <ele>16.3</ele>
        <time>2020-05-17T11:42:24Z</time>
      </trkpt>
      <trkpt lat="47.05554" lon="-1.76694">
        <ele>16.48</ele>
        <time>2020-05-17T11:42:26Z</time>
      </trkpt>
      <trkpt lat="47.05568" lon="-1.76687">
        <ele>16.76</ele>
        <time>2020-05-17T11:42:28Z</time>
      </trkpt>
      <trkpt lat="47.05581" lon="-1.76681">
        <ele>17.14</ele>
        <time>2020-05-17T11:42:30Z</time>
      </trkpt>
      <trkpt lat="47.05593" lon="-1.76675">
        <ele>18.03</ele>
        <time>2020-05-17T11:42:32Z</time>
      </trkpt>
      <trkpt lat="47.05605" lon="-1.76671">
        <ele>17.95</ele>
        <time>2020-05-17T11:42:34Z</time>
      </trkpt>
      <trkpt lat="47.05619" lon="-1.76665">
        <ele>17.93</ele>
        <time>2020-05-17T11:42:37Z</time>
      </trkpt>
      <trkpt lat="47.05632" lon="-1.76659">
        <ele>18.32</ele>
        <time>2020-05-17T11:42:39Z</time>
      </trkpt>
      <trkpt lat="47.05646" lon="-1.76652">
        <ele>18.71</ele>
        <time>2020-05-17T11:42:41Z</time>
      </trkpt>
      <trkpt lat="47.05655" lon="-1.76646">
        <ele>18.76</ele>
        <time>2020-05-17T11:42:43Z</time>
      </trkpt>
      <trkpt lat="47.05665" lon="-1.7664">
        <ele>18.51</ele>
        <time>2020-05-17T11:42:45Z</time>
      </trkpt>
      <trkpt lat="47.05676" lon="-1.76635">
        <ele>16.2</ele>
        <time>2020-05-17T11:42:47Z</time>
      </trkpt>
      <trkpt lat="47.05689" lon="-1.76627">
        <ele>14.17</ele>
        <time>2020-05-17T11:42:49Z</time>
      </trkpt>
      <trkpt lat="47.05704" lon="-1.76619">
        <ele>14.19</ele>
        <time>2020-05-17T11:42:51Z</time>
      </trkpt>
      <trkpt lat="47.05717" lon="-1.76613">
        <ele>13.98</ele>
        <time>2020-05-17T11:42:53Z</time>
      </trkpt>
      <trkpt lat="47.0573" lon="-1.76607">
        <ele>13.88</ele>
        <time>2020-05-17T11:42:55Z</time>
      </trkpt>
      <trkpt lat="47.0574" lon="-1.76603">
        <ele>13.79</ele>
        <time>2020-05-17T11:42:57Z</time>
      </trkpt>
      <trkpt lat="47.05753" lon="-1.76597">
        <ele>14.02</ele>
        <time>2020-05-17T11:42:59Z</time>
      </trkpt>
      <trkpt lat="47.05764" lon="-1.76592">
        <ele>15.61</ele>
        <time>2020-05-17T11:43:01Z</time>
      </trkpt>
      <trkpt lat="47.05775" lon="-1.76587">
        <ele>16.7</ele>
        <time>2020-05-17T11:43:03Z</time>
      </trkpt>
      <trkpt lat="47.05786" lon="-1.76583">
        <ele>16.35</ele>
        <time>2020-05-17T11:43:05Z</time>
      </trkpt>
      <trkpt lat="47.05799" lon="-1.76577">
        <ele>16.21</ele>
        <time>2020-05-17T11:43:07Z</time>
      </trkpt>
      <trkpt lat="47.05809" lon="-1.76572">
        <ele>16.35</ele>
        <time>2020-05-17T11:43:09Z</time>
      </trkpt>
      <trkpt lat="47.0582" lon="-1.76566">
        <ele>16.98</ele>
        <time>2020-05-17T11:43:11Z</time>
      </trkpt>
      <trkpt lat="47.05832" lon="-1.7656">
        <ele>17.81</ele>
        <time>2020-05-17T11:43:13Z</time>
      </trkpt>
      <trkpt lat="47.05842" lon="-1.76554">
        <ele>17.86</ele>
        <time>2020-05-17T11:43:15Z</time>
      </trkpt>
      <trkpt lat="47.05853" lon="-1.76549">
        <ele>18.16</ele>
        <time>2020-05-17T11:43:17Z</time>
      </trkpt>
      <trkpt lat="47.05862" lon="-1.76545">
        <ele>18.6</ele>
        <time>2020-05-17T11:43:19Z</time>
      </trkpt>
      <trkpt lat="47.05873" lon="-1.76541">
        <ele>19.55</ele>
        <time>2020-05-17T11:43:21Z</time>
      </trkpt>
      <trkpt lat="47.05884" lon="-1.76536">
        <ele>20.77</ele>
        <time>2020-05-17T11:43:23Z</time>
      </trkpt>
      <trkpt lat="47.05895" lon="-1.76531">
        <ele>21.23</ele>
        <time>2020-05-17T11:43:25Z</time>
      </trkpt>
      <trkpt lat="47.05905" lon="-1.76525">
        <ele>21.41</ele>
        <time>2020-05-17T11:43:27Z</time>
      </trkpt>
      <trkpt lat="47.05917" lon="-1.7652">
        <ele>21.2</ele>
        <time>2020-05-17T11:43:29Z</time>
      </trkpt>
      <trkpt lat="47.05927" lon="-1.76516">
        <ele>21.05</ele>
        <time>2020-05-17T11:43:31Z</time>
      </trkpt>
      <trkpt lat="47.05937" lon="-1.76511">
        <ele>21.25</ele>
        <time>2020-05-17T11:43:33Z</time>
      </trkpt>
      <trkpt lat="47.05948" lon="-1.76506">
        <ele>21.75</ele>
        <time>2020-05-17T11:43:35Z</time>
      </trkpt>
      <trkpt lat="47.05959" lon="-1.76501">
        <ele>21.58</ele>
        <time>2020-05-17T11:43:37Z</time>
      </trkpt>
      <trkpt lat="47.05969" lon="-1.76497">
        <ele>21.88</ele>
        <time>2020-05-17T11:43:39Z</time>
      </trkpt>
      <trkpt lat="47.0598" lon="-1.76491">
        <ele>22.14</ele>
        <time>2020-05-17T11:43:41Z</time>
      </trkpt>
      <trkpt lat="47.05992" lon="-1.76486">
        <ele>22.34</ele>
        <time>2020-05-17T11:43:43Z</time>
      </trkpt>
      <trkpt lat="47.06002" lon="-1.76481">
        <ele>22.3</ele>
        <time>2020-05-17T11:43:45Z</time>
      </trkpt>
      <trkpt lat="47.06012" lon="-1.76476">
        <ele>22.3</ele>
        <time>2020-05-17T11:43:47Z</time>
      </trkpt>
      <trkpt lat="47.06023" lon="-1.76471">
        <ele>21.78</ele>
        <time>2020-05-17T11:43:49Z</time>
      </trkpt>
      <trkpt lat="47.06033" lon="-1.76465">
        <ele>20.43</ele>
        <time>2020-05-17T11:43:51Z</time>
      </trkpt>
      <trkpt lat="47.06045" lon="-1.76459">
        <ele>19.47</ele>
        <time>2020-05-17T11:43:53Z</time>
      </trkpt>
      <trkpt lat="47.06056" lon="-1.76454">
        <ele>18.89</ele>
        <time>2020-05-17T11:43:55Z</time>
      </trkpt>
      <trkpt lat="47.06067" lon="-1.76449">
        <ele>19.86</ele>
        <time>2020-05-17T11:43:57Z</time>
      </trkpt>
      <trkpt lat="47.06077" lon="-1.76443">
        <ele>20.05</ele>
        <time>2020-05-17T11:43:59Z</time>
      </trkpt>
      <trkpt lat="47.06086" lon="-1.76438">
        <ele>20.93</ele>
        <time>2020-05-17T11:44:01Z</time>
      </trkpt>
      <trkpt lat="47.06097" lon="-1.76433">
        <ele>21.21</ele>
        <time>2020-05-17T11:44:03Z</time>
      </trkpt>
      <trkpt lat="47.06108" lon="-1.76428">
        <ele>20.37</ele>
        <time>2020-05-17T11:44:05Z</time>
      </trkpt>
      <trkpt lat="47.06119" lon="-1.76423">
        <ele>20.37</ele>
        <time>2020-05-17T11:44:07Z</time>
      </trkpt>
      <trkpt lat="47.06129" lon="-1.76419">
        <ele>21.05</ele>
        <time>2020-05-17T11:44:09Z</time>
      </trkpt>
      <trkpt lat="47.06139" lon="-1.76415">
        <ele>21.18</ele>
        <time>2020-05-17T11:44:11Z</time>
      </trkpt>
      <trkpt lat="47.06151" lon="-1.7641">
        <ele>21.07</ele>
        <time>2020-05-17T11:44:13Z</time>
      </trkpt>
      <trkpt lat="47.0616" lon="-1.76406">
        <ele>21.29</ele>
        <time>2020-05-17T11:44:15Z</time>
      </trkpt>
      <trkpt lat="47.0617" lon="-1.76401">
        <ele>21.31</ele>
        <time>2020-05-17T11:44:17Z</time>
      </trkpt>
      <trkpt lat="47.06182" lon="-1.76394">
        <ele>21.47</ele>
        <time>2020-05-17T11:44:19Z</time>
      </trkpt>
      <trkpt lat="47.06195" lon="-1.76387">
        <ele>21.27</ele>
        <time>2020-05-17T11:44:21Z</time>
      </trkpt>
      <trkpt lat="47.06205" lon="-1.76383">
        <ele>21.56</ele>
        <time>2020-05-17T11:44:23Z</time>
      </trkpt>
      <trkpt lat="47.06215" lon="-1.76378">
        <ele>22.98</ele>
        <time>2020-05-17T11:44:25Z</time>
      </trkpt>
      <trkpt lat="47.06225" lon="-1.76373">
        <ele>23.15</ele>
        <time>2020-05-17T11:44:27Z</time>
      </trkpt>
      <trkpt lat="47.06237" lon="-1.76367">
        <ele>23.39</ele>
        <time>2020-05-17T11:44:29Z</time>
      </trkpt>
      <trkpt lat="47.06248" lon="-1.76361">
        <ele>23.18</ele>
        <time>2020-05-17T11:44:31Z</time>
      </trkpt>
      <trkpt lat="47.06258" lon="-1.76356">
        <ele>21.98</ele>
        <time>2020-05-17T11:44:33Z</time>
      </trkpt>
      <trkpt lat="47.06268" lon="-1.7635">
        <ele>20.67</ele>
        <time>2020-05-17T11:44:35Z</time>
      </trkpt>
      <trkpt lat="47.06278" lon="-1.76344">
        <ele>19.82</ele>
        <time>2020-05-17T11:44:37Z</time>
      </trkpt>
      <trkpt lat="47.06289" lon="-1.76339">
        <ele>20.29</ele>
        <time>2020-05-17T11:44:39Z</time>
      </trkpt>
      <trkpt lat="47.063" lon="-1.76334">
        <ele>21.51</ele>
        <time>2020-05-17T11:44:41Z</time>
      </trkpt>
      <trkpt lat="47.06312" lon="-1.7633">
        <ele>22.29</ele>
        <time>2020-05-17T11:44:43Z</time>
      </trkpt>
      <trkpt lat="47.06323" lon="-1.76324">
        <ele>23.08</ele>
        <time>2020-05-17T11:44:45Z</time>
      </trkpt>
      <trkpt lat="47.06334" lon="-1.76318">
        <ele>23.15</ele>
        <time>2020-05-17T11:44:47Z</time>
      </trkpt>
      <trkpt lat="47.06345" lon="-1.76313">
        <ele>23.25</ele>
        <time>2020-05-17T11:44:49Z</time>
      </trkpt>
      <trkpt lat="47.06356" lon="-1.76308">
        <ele>22.75</ele>
        <time>2020-05-17T11:44:51Z</time>
      </trkpt>
      <trkpt lat="47.06368" lon="-1.76304">
        <ele>22.51</ele>
        <time>2020-05-17T11:44:53Z</time>
      </trkpt>
      <trkpt lat="47.06378" lon="-1.76299">
        <ele>21.86</ele>
        <time>2020-05-17T11:44:55Z</time>
      </trkpt>
      <trkpt lat="47.06389" lon="-1.76294">
        <ele>20.86</ele>
        <time>2020-05-17T11:44:57Z</time>
      </trkpt>
      <trkpt lat="47.064" lon="-1.76289">
        <ele>20.08</ele>
        <time>2020-05-17T11:44:59Z</time>
      </trkpt>
      <trkpt lat="47.06409" lon="-1.76285">
        <ele>19.21</ele>
        <time>2020-05-17T11:45:01Z</time>
      </trkpt>
      <trkpt lat="47.06418" lon="-1.76281">
        <ele>19.48</ele>
        <time>2020-05-17T11:45:03Z</time>
      </trkpt>
      <trkpt lat="47.06431" lon="-1.76275">
        <ele>20.34</ele>
        <time>2020-05-17T11:45:06Z</time>
      </trkpt>
      <trkpt lat="47.06441" lon="-1.7627">
        <ele>21.26</ele>
        <time>2020-05-17T11:45:08Z</time>
      </trkpt>
      <trkpt lat="47.06451" lon="-1.76265">
        <ele>23.19</ele>
        <time>2020-05-17T11:45:10Z</time>
      </trkpt>
      <trkpt lat="47.06462" lon="-1.7626">
        <ele>25.79</ele>
        <time>2020-05-17T11:45:12Z</time>
      </trkpt>
      <trkpt lat="47.06472" lon="-1.76256">
        <ele>27.83</ele>
        <time>2020-05-17T11:45:14Z</time>
      </trkpt>
      <trkpt lat="47.06483" lon="-1.7625">
        <ele>28.27</ele>
        <time>2020-05-17T11:45:17Z</time>
      </trkpt>
      <trkpt lat="47.06492" lon="-1.76246">
        <ele>26.54</ele>
        <time>2020-05-17T11:45:19Z</time>
      </trkpt>
      <trkpt lat="47.06501" lon="-1.76242">
        <ele>25.5</ele>
        <time>2020-05-17T11:45:21Z</time>
      </trkpt>
      <trkpt lat="47.06513" lon="-1.76235">
        <ele>24.17</ele>
        <time>2020-05-17T11:45:24Z</time>
      </trkpt>
      <trkpt lat="47.06522" lon="-1.7623">
        <ele>22.99</ele>
        <time>2020-05-17T11:45:26Z</time>
      </trkpt>
      <trkpt lat="47.06531" lon="-1.76226">
        <ele>22.97</ele>
        <time>2020-05-17T11:45:28Z</time>
      </trkpt>
      <trkpt lat="47.0654" lon="-1.76222">
        <ele>23.56</ele>
        <time>2020-05-17T11:45:30Z</time>
      </trkpt>
      <trkpt lat="47.06549" lon="-1.76217">
        <ele>23.09</ele>
        <time>2020-05-17T11:45:32Z</time>
      </trkpt>
      <trkpt lat="47.0656" lon="-1.76213">
        <ele>23.73</ele>
        <time>2020-05-17T11:45:34Z</time>
      </trkpt>
      <trkpt lat="47.06572" lon="-1.76207">
        <ele>24.82</ele>
        <time>2020-05-17T11:45:36Z</time>
      </trkpt>
      <trkpt lat="47.06583" lon="-1.76201">
        <ele>25.17</ele>
        <time>2020-05-17T11:45:39Z</time>
      </trkpt>
      <trkpt lat="47.06595" lon="-1.76195">
        <ele>24.92</ele>
        <time>2020-05-17T11:45:42Z</time>
      </trkpt>
      <trkpt lat="47.06604" lon="-1.76192">
        <ele>24.8</ele>
        <time>2020-05-17T11:45:44Z</time>
      </trkpt>
      <trkpt lat="47.06615" lon="-1.76186">
        <ele>25.18</ele>
        <time>2020-05-17T11:45:46Z</time>
      </trkpt>
      <trkpt lat="47.06626" lon="-1.76181">
        <ele>24.73</ele>
        <time>2020-05-17T11:45:48Z</time>
      </trkpt>
      <trkpt lat="47.06637" lon="-1.76176">
        <ele>23.06</ele>
        <time>2020-05-17T11:45:50Z</time>
      </trkpt>
      <trkpt lat="47.0665" lon="-1.76171">
        <ele>21.21</ele>
        <time>2020-05-17T11:45:52Z</time>
      </trkpt>
      <trkpt lat="47.06662" lon="-1.76166">
        <ele>20.82</ele>
        <time>2020-05-17T11:45:54Z</time>
      </trkpt>
      <trkpt lat="47.06675" lon="-1.76159">
        <ele>21.66</ele>
        <time>2020-05-17T11:45:56Z</time>
      </trkpt>
      <trkpt lat="47.06687" lon="-1.76153">
        <ele>24.09</ele>
        <time>2020-05-17T11:45:58Z</time>
      </trkpt>
      <trkpt lat="47.06699" lon="-1.76149">
        <ele>26.69</ele>
        <time>2020-05-17T11:46:00Z</time>
      </trkpt>
      <trkpt lat="47.06713" lon="-1.76143">
        <ele>28.14</ele>
        <time>2020-05-17T11:46:02Z</time>
      </trkpt>
      <trkpt lat="47.06725" lon="-1.76138">
        <ele>28.76</ele>
        <time>2020-05-17T11:46:04Z</time>
      </trkpt>
      <trkpt lat="47.06739" lon="-1.76131">
        <ele>28.07</ele>
        <time>2020-05-17T11:46:06Z</time>
      </trkpt>
      <trkpt lat="47.06752" lon="-1.76126">
        <ele>27.76</ele>
        <time>2020-05-17T11:46:08Z</time>
      </trkpt>
      <trkpt lat="47.06764" lon="-1.7612">
        <ele>27.21</ele>
        <time>2020-05-17T11:46:10Z</time>
      </trkpt>
      <trkpt lat="47.06777" lon="-1.76115">
        <ele>26.83</ele>
        <time>2020-05-17T11:46:12Z</time>
      </trkpt>
      <trkpt lat="47.0679" lon="-1.76109">
        <ele>26.77</ele>
        <time>2020-05-17T11:46:14Z</time>
      </trkpt>
      <trkpt lat="47.06803" lon="-1.76103">
        <ele>26.54</ele>
        <time>2020-05-17T11:46:16Z</time>
      </trkpt>
      <trkpt lat="47.06817" lon="-1.76097">
        <ele>25.85</ele>
        <time>2020-05-17T11:46:18Z</time>
      </trkpt>
      <trkpt lat="47.06831" lon="-1.76091">
        <ele>25.53</ele>
        <time>2020-05-17T11:46:20Z</time>
      </trkpt>
      <trkpt lat="47.06847" lon="-1.76084">
        <ele>24.55</ele>
        <time>2020-05-17T11:46:22Z</time>
      </trkpt>
      <trkpt lat="47.06859" lon="-1.76078">
        <ele>24.32</ele>
        <time>2020-05-17T11:46:24Z</time>
      </trkpt>
      <trkpt lat="47.06873" lon="-1.76072">
        <ele>24.06</ele>
        <time>2020-05-17T11:46:26Z</time>
      </trkpt>
      <trkpt lat="47.06885" lon="-1.76066">
        <ele>23.91</ele>
        <time>2020-05-17T11:46:28Z</time>
      </trkpt>
      <trkpt lat="47.06899" lon="-1.76058">
        <ele>24.23</ele>
        <time>2020-05-17T11:46:30Z</time>
      </trkpt>
      <trkpt lat="47.06913" lon="-1.76049">
        <ele>23.79</ele>
        <time>2020-05-17T11:46:32Z</time>
      </trkpt>
      <trkpt lat="47.06928" lon="-1.76039">
        <ele>22.05</ele>
        <time>2020-05-17T11:46:34Z</time>
      </trkpt>
      <trkpt lat="47.06939" lon="-1.76028">
        <ele>20.38</ele>
        <time>2020-05-17T11:46:36Z</time>
      </trkpt>
      <trkpt lat="47.06951" lon="-1.76018">
        <ele>19.74</ele>
        <time>2020-05-17T11:46:38Z</time>
      </trkpt>
      <trkpt lat="47.06963" lon="-1.76006">
        <ele>19.55</ele>
        <time>2020-05-17T11:46:40Z</time>
      </trkpt>
      <trkpt lat="47.06974" lon="-1.75994">
        <ele>20.27</ele>
        <time>2020-05-17T11:46:42Z</time>
      </trkpt>
      <trkpt lat="47.06984" lon="-1.7598">
        <ele>20.11</ele>
        <time>2020-05-17T11:46:44Z</time>
      </trkpt>
      <trkpt lat="47.06995" lon="-1.75966">
        <ele>19.14</ele>
        <time>2020-05-17T11:46:46Z</time>
      </trkpt>
      <trkpt lat="47.07007" lon="-1.75952">
        <ele>18.63</ele>
        <time>2020-05-17T11:46:48Z</time>
      </trkpt>
      <trkpt lat="47.07018" lon="-1.75939">
        <ele>18.94</ele>
        <time>2020-05-17T11:46:50Z</time>
      </trkpt>
      <trkpt lat="47.07029" lon="-1.75926">
        <ele>18.92</ele>
        <time>2020-05-17T11:46:52Z</time>
      </trkpt>
      <trkpt lat="47.07039" lon="-1.75913">
        <ele>19.09</ele>
        <time>2020-05-17T11:46:54Z</time>
      </trkpt>
      <trkpt lat="47.07051" lon="-1.759">
        <ele>19.9</ele>
        <time>2020-05-17T11:46:56Z</time>
      </trkpt>
      <trkpt lat="47.07062" lon="-1.75888">
        <ele>19.8</ele>
        <time>2020-05-17T11:46:58Z</time>
      </trkpt>
      <trkpt lat="47.07074" lon="-1.75874">
        <ele>19.52</ele>
        <time>2020-05-17T11:47:00Z</time>
      </trkpt>
      <trkpt lat="47.07085" lon="-1.75861">
        <ele>19.34</ele>
        <time>2020-05-17T11:47:02Z</time>
      </trkpt>
      <trkpt lat="47.07096" lon="-1.75848">
        <ele>19.36</ele>
        <time>2020-05-17T11:47:04Z</time>
      </trkpt>
      <trkpt lat="47.07107" lon="-1.75836">
        <ele>19.05</ele>
        <time>2020-05-17T11:47:06Z</time>
      </trkpt>
      <trkpt lat="47.07117" lon="-1.75822">
        <ele>18.84</ele>
        <time>2020-05-17T11:47:08Z</time>
      </trkpt>
      <trkpt lat="47.07127" lon="-1.7581">
        <ele>18.25</ele>
        <time>2020-05-17T11:47:10Z</time>
      </trkpt>
      <trkpt lat="47.07138" lon="-1.75797">
        <ele>17.37</ele>
        <time>2020-05-17T11:47:12Z</time>
      </trkpt>
      <trkpt lat="47.07148" lon="-1.75786">
        <ele>16.2</ele>
        <time>2020-05-17T11:47:14Z</time>
      </trkpt>
      <trkpt lat="47.07158" lon="-1.75773">
        <ele>15.86</ele>
        <time>2020-05-17T11:47:16Z</time>
      </trkpt>
      <trkpt lat="47.07172" lon="-1.75758">
        <ele>15.78</ele>
        <time>2020-05-17T11:47:18Z</time>
      </trkpt>
      <trkpt lat="47.07184" lon="-1.75745">
        <ele>16.18</ele>
        <time>2020-05-17T11:47:20Z</time>
      </trkpt>
      <trkpt lat="47.07195" lon="-1.75732">
        <ele>16.78</ele>
        <time>2020-05-17T11:47:22Z</time>
      </trkpt>
      <trkpt lat="47.07207" lon="-1.75718">
        <ele>17.48</ele>
        <time>2020-05-17T11:47:24Z</time>
      </trkpt>
      <trkpt lat="47.07217" lon="-1.75705">
        <ele>17.68</ele>
        <time>2020-05-17T11:47:26Z</time>
      </trkpt>
      <trkpt lat="47.07229" lon="-1.75691">
        <ele>17.27</ele>
        <time>2020-05-17T11:47:28Z</time>
      </trkpt>
      <trkpt lat="47.07239" lon="-1.7568">
        <ele>17.19</ele>
        <time>2020-05-17T11:47:30Z</time>
      </trkpt>
      <trkpt lat="47.0725" lon="-1.75668">
        <ele>16.63</ele>
        <time>2020-05-17T11:47:32Z</time>
      </trkpt>
      <trkpt lat="47.07262" lon="-1.75655">
        <ele>16.15</ele>
        <time>2020-05-17T11:47:34Z</time>
      </trkpt>
      <trkpt lat="47.07273" lon="-1.75643">
        <ele>15.46</ele>
        <time>2020-05-17T11:47:36Z</time>
      </trkpt>
      <trkpt lat="47.07285" lon="-1.75633">
        <ele>14.17</ele>
        <time>2020-05-17T11:47:38Z</time>
      </trkpt>
      <trkpt lat="47.07297" lon="-1.75625">
        <ele>13.84</ele>
        <time>2020-05-17T11:47:40Z</time>
      </trkpt>
      <trkpt lat="47.07311" lon="-1.75616">
        <ele>13.29</ele>
        <time>2020-05-17T11:47:42Z</time>
      </trkpt>
      <trkpt lat="47.07322" lon="-1.75611">
        <ele>12.73</ele>
        <time>2020-05-17T11:47:44Z</time>
      </trkpt>
      <trkpt lat="47.07335" lon="-1.75605">
        <ele>11.62</ele>
        <time>2020-05-17T11:47:46Z</time>
      </trkpt>
      <trkpt lat="47.07348" lon="-1.756">
        <ele>12.23</ele>
        <time>2020-05-17T11:47:48Z</time>
      </trkpt>
      <trkpt lat="47.07361" lon="-1.75596">
        <ele>12.62</ele>
        <time>2020-05-17T11:47:50Z</time>
      </trkpt>
      <trkpt lat="47.07374" lon="-1.75591">
        <ele>12.21</ele>
        <time>2020-05-17T11:47:52Z</time>
      </trkpt>
      <trkpt lat="47.07387" lon="-1.75586">
        <ele>11.5</ele>
        <time>2020-05-17T11:47:54Z</time>
      </trkpt>
      <trkpt lat="47.07399" lon="-1.75581">
        <ele>11.61</ele>
        <time>2020-05-17T11:47:56Z</time>
      </trkpt>
      <trkpt lat="47.07413" lon="-1.75576">
        <ele>11.82</ele>
        <time>2020-05-17T11:47:58Z</time>
      </trkpt>
      <trkpt lat="47.07427" lon="-1.7557">
        <ele>11.93</ele>
        <time>2020-05-17T11:48:00Z</time>
      </trkpt>
      <trkpt lat="47.07441" lon="-1.75565">
        <ele>12.28</ele>
        <time>2020-05-17T11:48:02Z</time>
      </trkpt>
      <trkpt lat="47.07455" lon="-1.7556">
        <ele>12.42</ele>
        <time>2020-05-17T11:48:04Z</time>
      </trkpt>
      <trkpt lat="47.0747" lon="-1.75555">
        <ele>11.65</ele>
        <time>2020-05-17T11:48:06Z</time>
      </trkpt>
      <trkpt lat="47.07485" lon="-1.7555">
        <ele>10.88</ele>
        <time>2020-05-17T11:48:08Z</time>
      </trkpt>
      <trkpt lat="47.07499" lon="-1.75545">
        <ele>10.07</ele>
        <time>2020-05-17T11:48:10Z</time>
      </trkpt>
      <trkpt lat="47.07514" lon="-1.75539">
        <ele>9.13</ele>
        <time>2020-05-17T11:48:12Z</time>
      </trkpt>
      <trkpt lat="47.07527" lon="-1.75534">
        <ele>8.17</ele>
        <time>2020-05-17T11:48:14Z</time>
      </trkpt>
      <trkpt lat="47.07541" lon="-1.75528">
        <ele>7.47</ele>
        <time>2020-05-17T11:48:16Z</time>
      </trkpt>
      <trkpt lat="47.07556" lon="-1.75522">
        <ele>6.02</ele>
        <time>2020-05-17T11:48:18Z</time>
      </trkpt>
      <trkpt lat="47.07572" lon="-1.75516">
        <ele>4.89</ele>
        <time>2020-05-17T11:48:20Z</time>
      </trkpt>
      <trkpt lat="47.0758" lon="-1.75513">
        <ele>4.73</ele>
        <time>2020-05-17T11:48:21Z</time>
      </trkpt>
      <trkpt lat="47.07596" lon="-1.75508">
        <ele>4.92</ele>
        <time>2020-05-17T11:48:23Z</time>
      </trkpt>
      <trkpt lat="47.0761" lon="-1.75502">
        <ele>4.06</ele>
        <time>2020-05-17T11:48:25Z</time>
      </trkpt>
      <trkpt lat="47.07625" lon="-1.75496">
        <ele>3.85</ele>
        <time>2020-05-17T11:48:27Z</time>
      </trkpt>
      <trkpt lat="47.07639" lon="-1.7549">
        <ele>3.37</ele>
        <time>2020-05-17T11:48:29Z</time>
      </trkpt>
      <trkpt lat="47.07654" lon="-1.75484">
        <ele>2.5</ele>
        <time>2020-05-17T11:48:31Z</time>
      </trkpt>
      <trkpt lat="47.07668" lon="-1.75478">
        <ele>0.74</ele>
        <time>2020-05-17T11:48:33Z</time>
      </trkpt>
      <trkpt lat="47.07684" lon="-1.75472">
        <ele>-2.02</ele>
        <time>2020-05-17T11:48:35Z</time>
      </trkpt>
      <trkpt lat="47.07698" lon="-1.75466">
        <ele>-3.34</ele>
        <time>2020-05-17T11:48:37Z</time>
      </trkpt>
      <trkpt lat="47.07712" lon="-1.75459">
        <ele>-4.44</ele>
        <time>2020-05-17T11:48:39Z</time>
      </trkpt>
      <trkpt lat="47.07727" lon="-1.75452">
        <ele>-5.59</ele>
        <time>2020-05-17T11:48:41Z</time>
      </trkpt>
      <trkpt lat="47.07743" lon="-1.75446">
        <ele>-5.51</ele>
        <time>2020-05-17T11:48:43Z</time>
      </trkpt>
      <trkpt lat="47.07758" lon="-1.75441">
        <ele>-5.08</ele>
        <time>2020-05-17T11:48:45Z</time>
      </trkpt>
      <trkpt lat="47.07772" lon="-1.75435">
        <ele>-3.58</ele>
        <time>2020-05-17T11:48:47Z</time>
      </trkpt>
      <trkpt lat="47.07787" lon="-1.7543">
        <ele>-1.59</ele>
        <time>2020-05-17T11:48:49Z</time>
      </trkpt>
      <trkpt lat="47.07802" lon="-1.75425">
        <ele>0.59</ele>
        <time>2020-05-17T11:48:51Z</time>
      </trkpt>
      <trkpt lat="47.07811" lon="-1.75415">
        <ele>1.26</ele>
        <time>2020-05-17T11:48:53Z</time>
      </trkpt>
      <trkpt lat="47.07806" lon="-1.75397">
        <ele>1.64</ele>
        <time>2020-05-17T11:48:55Z</time>
      </trkpt>
      <trkpt lat="47.07798" lon="-1.75379">
        <ele>1.37</ele>
        <time>2020-05-17T11:48:57Z</time>
      </trkpt>
      <trkpt lat="47.07791" lon="-1.75361">
        <ele>1.83</ele>
        <time>2020-05-17T11:48:59Z</time>
      </trkpt>
      <trkpt lat="47.07784" lon="-1.75344">
        <ele>2.19</ele>
        <time>2020-05-17T11:49:01Z</time>
      </trkpt>
      <trkpt lat="47.07776" lon="-1.75325">
        <ele>2.49</ele>
        <time>2020-05-17T11:49:03Z</time>
      </trkpt>
      <trkpt lat="47.07768" lon="-1.75309">
        <ele>1.9</ele>
        <time>2020-05-17T11:49:05Z</time>
      </trkpt>
      <trkpt lat="47.07761" lon="-1.75293">
        <ele>1.31</ele>
        <time>2020-05-17T11:49:07Z</time>
      </trkpt>
      <trkpt lat="47.07753" lon="-1.75275">
        <ele>0.18</ele>
        <time>2020-05-17T11:49:09Z</time>
      </trkpt>
      <trkpt lat="47.07746" lon="-1.75257">
        <ele>-1.4</ele>
        <time>2020-05-17T11:49:11Z</time>
      </trkpt>
      <trkpt lat="47.0774" lon="-1.7524">
        <ele>-0.07</ele>
        <time>2020-05-17T11:49:13Z</time>
      </trkpt>
      <trkpt lat="47.07735" lon="-1.75223">
        <ele>0.48</ele>
        <time>2020-05-17T11:49:15Z</time>
      </trkpt>
      <trkpt lat="47.07731" lon="-1.75208">
        <ele>0.12</ele>
        <time>2020-05-17T11:49:17Z</time>
      </trkpt>
      <trkpt lat="47.07725" lon="-1.75188">
        <ele>0.22</ele>
        <time>2020-05-17T11:49:19Z</time>
      </trkpt>
      <trkpt lat="47.07719" lon="-1.7517">
        <ele>1.03</ele>
        <time>2020-05-17T11:49:21Z</time>
      </trkpt>
      <trkpt lat="47.07715" lon="-1.75152">
        <ele>1.28</ele>
        <time>2020-05-17T11:49:23Z</time>
      </trkpt>
      <trkpt lat="47.07712" lon="-1.75136">
        <ele>1.06</ele>
        <time>2020-05-17T11:49:25Z</time>
      </trkpt>
      <trkpt lat="47.07709" lon="-1.75117">
        <ele>0.94</ele>
        <time>2020-05-17T11:49:27Z</time>
      </trkpt>
      <trkpt lat="47.07708" lon="-1.75097">
        <ele>0.36</ele>
        <time>2020-05-17T11:49:29Z</time>
      </trkpt>
      <trkpt lat="47.07709" lon="-1.75079">
        <ele>1.43</ele>
        <time>2020-05-17T11:49:31Z</time>
      </trkpt>
      <trkpt lat="47.07717" lon="-1.75064">
        <ele>0.55</ele>
        <time>2020-05-17T11:49:33Z</time>
      </trkpt>
      <trkpt lat="47.07729" lon="-1.75059">
        <ele>-0.67</ele>
        <time>2020-05-17T11:49:35Z</time>
      </trkpt>
      <trkpt lat="47.07743" lon="-1.75058">
        <ele>-0.91</ele>
        <time>2020-05-17T11:49:37Z</time>
      </trkpt>
      <trkpt lat="47.07757" lon="-1.75057">
        <ele>-0.88</ele>
        <time>2020-05-17T11:49:39Z</time>
      </trkpt>
      <trkpt lat="47.07772" lon="-1.75056">
        <ele>-1.21</ele>
        <time>2020-05-17T11:49:41Z</time>
      </trkpt>
      <trkpt lat="47.07784" lon="-1.75056">
        <ele>-1.62</ele>
        <time>2020-05-17T11:49:43Z</time>
      </trkpt>
      <trkpt lat="47.07797" lon="-1.75054">
        <ele>-1.59</ele>
        <time>2020-05-17T11:49:45Z</time>
      </trkpt>
      <trkpt lat="47.0781" lon="-1.75053">
        <ele>-1.27</ele>
        <time>2020-05-17T11:49:47Z</time>
      </trkpt>
      <trkpt lat="47.07824" lon="-1.75053">
        <ele>-1.02</ele>
        <time>2020-05-17T11:49:49Z</time>
      </trkpt>
      <trkpt lat="47.07838" lon="-1.75052">
        <ele>-0.91</ele>
        <time>2020-05-17T11:49:51Z</time>
      </trkpt>
      <trkpt lat="47.07851" lon="-1.7505">
        <ele>-1.12</ele>
        <time>2020-05-17T11:49:53Z</time>
      </trkpt>
      <trkpt lat="47.07863" lon="-1.75045">
        <ele>-0.79</ele>
        <time>2020-05-17T11:49:55Z</time>
      </trkpt>
      <trkpt lat="47.07876" lon="-1.75038">
        <ele>-1</ele>
        <time>2020-05-17T11:49:57Z</time>
      </trkpt>
      <trkpt lat="47.07888" lon="-1.7503">
        <ele>-1.06</ele>
        <time>2020-05-17T11:49:59Z</time>
      </trkpt>
      <trkpt lat="47.07902" lon="-1.75021">
        <ele>-0.83</ele>
        <time>2020-05-17T11:50:01Z</time>
      </trkpt>
      <trkpt lat="47.07915" lon="-1.75011">
        <ele>-1.13</ele>
        <time>2020-05-17T11:50:03Z</time>
      </trkpt>
      <trkpt lat="47.07928" lon="-1.75002">
        <ele>-1.44</ele>
        <time>2020-05-17T11:50:05Z</time>
      </trkpt>
      <trkpt lat="47.0794" lon="-1.74995">
        <ele>-1.35</ele>
        <time>2020-05-17T11:50:07Z</time>
      </trkpt>
      <trkpt lat="47.0795" lon="-1.74988">
        <ele>-1.14</ele>
        <time>2020-05-17T11:50:09Z</time>
      </trkpt>
      <trkpt lat="47.07963" lon="-1.74981">
        <ele>-1.73</ele>
        <time>2020-05-17T11:50:11Z</time>
      </trkpt>
      <trkpt lat="47.07976" lon="-1.74973">
        <ele>-1.4</ele>
        <time>2020-05-17T11:50:13Z</time>
      </trkpt>
      <trkpt lat="47.07989" lon="-1.74965">
        <ele>-1.45</ele>
        <time>2020-05-17T11:50:15Z</time>
      </trkpt>
      <trkpt lat="47.08" lon="-1.74959">
        <ele>-1.66</ele>
        <time>2020-05-17T11:50:17Z</time>
      </trkpt>
      <trkpt lat="47.08012" lon="-1.74954">
        <ele>-0.83</ele>
        <time>2020-05-17T11:50:19Z</time>
      </trkpt>
      <trkpt lat="47.08025" lon="-1.74946">
        <ele>-0.96</ele>
        <time>2020-05-17T11:50:21Z</time>
      </trkpt>
      <trkpt lat="47.08036" lon="-1.74939">
        <ele>-0.54</ele>
        <time>2020-05-17T11:50:23Z</time>
      </trkpt>
      <trkpt lat="47.08048" lon="-1.74931">
        <ele>-0.31</ele>
        <time>2020-05-17T11:50:25Z</time>
      </trkpt>
      <trkpt lat="47.08061" lon="-1.74919">
        <ele>-1.23</ele>
        <time>2020-05-17T11:50:27Z</time>
      </trkpt>
      <trkpt lat="47.0807" lon="-1.74908">
        <ele>-1.99</ele>
        <time>2020-05-17T11:50:29Z</time>
      </trkpt>
      <trkpt lat="47.0808" lon="-1.74898">
        <ele>-2.58</ele>
        <time>2020-05-17T11:50:31Z</time>
      </trkpt>
      <trkpt lat="47.08091" lon="-1.74888">
        <ele>-3.07</ele>
        <time>2020-05-17T11:50:33Z</time>
      </trkpt>
      <trkpt lat="47.08105" lon="-1.7488">
        <ele>-4.74</ele>
        <time>2020-05-17T11:50:35Z</time>
      </trkpt>
      <trkpt lat="47.08116" lon="-1.74878">
        <ele>-6.63</ele>
        <time>2020-05-17T11:50:37Z</time>
      </trkpt>
      <trkpt lat="47.08127" lon="-1.74876">
        <ele>-6.95</ele>
        <time>2020-05-17T11:50:39Z</time>
      </trkpt>
      <trkpt lat="47.08139" lon="-1.74872">
        <ele>-6.72</ele>
        <time>2020-05-17T11:50:41Z</time>
      </trkpt>
      <trkpt lat="47.08152" lon="-1.74865">
        <ele>-6.33</ele>
        <time>2020-05-17T11:50:43Z</time>
      </trkpt>
      <trkpt lat="47.08164" lon="-1.74857">
        <ele>-6.89</ele>
        <time>2020-05-17T11:50:45Z</time>
      </trkpt>
      <trkpt lat="47.08176" lon="-1.74848">
        <ele>-6.51</ele>
        <time>2020-05-17T11:50:47Z</time>
      </trkpt>
      <trkpt lat="47.08186" lon="-1.74837">
        <ele>-6.14</ele>
        <time>2020-05-17T11:50:49Z</time>
      </trkpt>
      <trkpt lat="47.08195" lon="-1.74824">
        <ele>-4.95</ele>
        <time>2020-05-17T11:50:51Z</time>
      </trkpt>
      <trkpt lat="47.082" lon="-1.74809">
        <ele>-5.1</ele>
        <time>2020-05-17T11:50:53Z</time>
      </trkpt>
      <trkpt lat="47.08201" lon="-1.74793">
        <ele>-4.38</ele>
        <time>2020-05-17T11:50:55Z</time>
      </trkpt>
      <trkpt lat="47.08206" lon="-1.74773">
        <ele>-3.1</ele>
        <time>2020-05-17T11:50:57Z</time>
      </trkpt>
      <trkpt lat="47.08211" lon="-1.74753">
        <ele>-1.38</ele>
        <time>2020-05-17T11:50:59Z</time>
      </trkpt>
      <trkpt lat="47.08216" lon="-1.74737">
        <ele>-0.35</ele>
        <time>2020-05-17T11:51:01Z</time>
      </trkpt>
      <trkpt lat="47.08223" lon="-1.74721">
        <ele>-0.89</ele>
        <time>2020-05-17T11:51:03Z</time>
      </trkpt>
      <trkpt lat="47.0823" lon="-1.74706">
        <ele>-1.61</ele>
        <time>2020-05-17T11:51:05Z</time>
      </trkpt>
      <trkpt lat="47.0824" lon="-1.74689">
        <ele>-2.34</ele>
        <time>2020-05-17T11:51:07Z</time>
      </trkpt>
      <trkpt lat="47.08248" lon="-1.74675">
        <ele>-2.79</ele>
        <time>2020-05-17T11:51:09Z</time>
      </trkpt>
      <trkpt lat="47.08257" lon="-1.74661">
        <ele>-2.06</ele>
        <time>2020-05-17T11:51:11Z</time>
      </trkpt>
      <trkpt lat="47.08266" lon="-1.74649">
        <ele>-1.31</ele>
        <time>2020-05-17T11:51:13Z</time>
      </trkpt>
      <trkpt lat="47.08275" lon="-1.74637">
        <ele>-1.7</ele>
        <time>2020-05-17T11:51:15Z</time>
      </trkpt>
      <trkpt lat="47.08284" lon="-1.74625">
        <ele>-1.64</ele>
        <time>2020-05-17T11:51:17Z</time>
      </trkpt>
      <trkpt lat="47.08293" lon="-1.74612">
        <ele>-1.87</ele>
        <time>2020-05-17T11:51:19Z</time>
      </trkpt>
      <trkpt lat="47.08303" lon="-1.74599">
        <ele>-2.52</ele>
        <time>2020-05-17T11:51:21Z</time>
      </trkpt>
      <trkpt lat="47.08313" lon="-1.74588">
        <ele>-1.63</ele>
        <time>2020-05-17T11:51:23Z</time>
      </trkpt>
      <trkpt lat="47.08323" lon="-1.74579">
        <ele>-1.77</ele>
        <time>2020-05-17T11:51:25Z</time>
      </trkpt>
      <trkpt lat="47.08334" lon="-1.74573">
        <ele>-1.94</ele>
        <time>2020-05-17T11:51:27Z</time>
      </trkpt>
      <trkpt lat="47.08345" lon="-1.74568">
        <ele>-1.04</ele>
        <time>2020-05-17T11:51:29Z</time>
      </trkpt>
      <trkpt lat="47.08356" lon="-1.74562">
        <ele>-1.11</ele>
        <time>2020-05-17T11:51:30Z</time>
      </trkpt>
      <trkpt lat="47.08368" lon="-1.74555">
        <ele>-2.31</ele>
        <time>2020-05-17T11:51:32Z</time>
      </trkpt>
      <trkpt lat="47.08382" lon="-1.74544">
        <ele>-3.67</ele>
        <time>2020-05-17T11:51:34Z</time>
      </trkpt>
      <trkpt lat="47.08393" lon="-1.74535">
        <ele>-4.54</ele>
        <time>2020-05-17T11:51:36Z</time>
      </trkpt>
      <trkpt lat="47.08403" lon="-1.74524">
        <ele>-4.54</ele>
        <time>2020-05-17T11:51:38Z</time>
      </trkpt>
      <trkpt lat="47.08413" lon="-1.74512">
        <ele>-3.33</ele>
        <time>2020-05-17T11:51:40Z</time>
      </trkpt>
      <trkpt lat="47.08423" lon="-1.745">
        <ele>-2.24</ele>
        <time>2020-05-17T11:51:42Z</time>
      </trkpt>
      <trkpt lat="47.08431" lon="-1.74489">
        <ele>-1.78</ele>
        <time>2020-05-17T11:51:44Z</time>
      </trkpt>
      <trkpt lat="47.08442" lon="-1.74477">
        <ele>-2.66</ele>
        <time>2020-05-17T11:51:46Z</time>
      </trkpt>
      <trkpt lat="47.08452" lon="-1.74466">
        <ele>-3.44</ele>
        <time>2020-05-17T11:51:48Z</time>
      </trkpt>
      <trkpt lat="47.08463" lon="-1.74453">
        <ele>-3.22</ele>
        <time>2020-05-17T11:51:50Z</time>
      </trkpt>
      <trkpt lat="47.0847" lon="-1.74442">
        <ele>-3.08</ele>
        <time>2020-05-17T11:51:52Z</time>
      </trkpt>
      <trkpt lat="47.08481" lon="-1.7443">
        <ele>-2.09</ele>
        <time>2020-05-17T11:51:54Z</time>
      </trkpt>
      <trkpt lat="47.08491" lon="-1.74419">
        <ele>-1.34</ele>
        <time>2020-05-17T11:51:56Z</time>
      </trkpt>
      <trkpt lat="47.085" lon="-1.74408">
        <ele>0.11</ele>
        <time>2020-05-17T11:51:58Z</time>
      </trkpt>
      <trkpt lat="47.08509" lon="-1.74397">
        <ele>-0.25</ele>
        <time>2020-05-17T11:52:00Z</time>
      </trkpt>
      <trkpt lat="47.0852" lon="-1.74385">
        <ele>-0.75</ele>
        <time>2020-05-17T11:52:02Z</time>
      </trkpt>
      <trkpt lat="47.08529" lon="-1.74374">
        <ele>-0.57</ele>
        <time>2020-05-17T11:52:04Z</time>
      </trkpt>
      <trkpt lat="47.08537" lon="-1.74361">
        <ele>-1.14</ele>
        <time>2020-05-17T11:52:06Z</time>
      </trkpt>
      <trkpt lat="47.0854" lon="-1.74346">
        <ele>-1.49</ele>
        <time>2020-05-17T11:52:08Z</time>
      </trkpt>
      <trkpt lat="47.0854" lon="-1.74329">
        <ele>-2.83</ele>
        <time>2020-05-17T11:52:10Z</time>
      </trkpt>
      <trkpt lat="47.08542" lon="-1.74311">
        <ele>-3.27</ele>
        <time>2020-05-17T11:52:12Z</time>
      </trkpt>
      <trkpt lat="47.08545" lon="-1.74293">
        <ele>-2.17</ele>
        <time>2020-05-17T11:52:14Z</time>
      </trkpt>
      <trkpt lat="47.08553" lon="-1.74276">
        <ele>-2.11</ele>
        <time>2020-05-17T11:52:16Z</time>
      </trkpt>
      <trkpt lat="47.08563" lon="-1.74261">
        <ele>-1.92</ele>
        <time>2020-05-17T11:52:18Z</time>
      </trkpt>
      <trkpt lat="47.08573" lon="-1.7425">
        <ele>-1.05</ele>
        <time>2020-05-17T11:52:20Z</time>
      </trkpt>
      <trkpt lat="47.08583" lon="-1.7424">
        <ele>-0.56</ele>
        <time>2020-05-17T11:52:22Z</time>
      </trkpt>
      <trkpt lat="47.08593" lon="-1.74228">
        <ele>-0.04</ele>
        <time>2020-05-17T11:52:24Z</time>
      </trkpt>
      <trkpt lat="47.08601" lon="-1.74219">
        <ele>0.17</ele>
        <time>2020-05-17T11:52:26Z</time>
      </trkpt>
      <trkpt lat="47.08609" lon="-1.7421">
        <ele>0.64</ele>
        <time>2020-05-17T11:52:28Z</time>
      </trkpt>
      <trkpt lat="47.08619" lon="-1.74199">
        <ele>0.72</ele>
        <time>2020-05-17T11:52:30Z</time>
      </trkpt>
      <trkpt lat="47.08629" lon="-1.74186">
        <ele>0.34</ele>
        <time>2020-05-17T11:52:32Z</time>
      </trkpt>
      <trkpt lat="47.08639" lon="-1.74175">
        <ele>-0.59</ele>
        <time>2020-05-17T11:52:34Z</time>
      </trkpt>
      <trkpt lat="47.0865" lon="-1.74163">
        <ele>-1.44</ele>
        <time>2020-05-17T11:52:36Z</time>
      </trkpt>
      <trkpt lat="47.08658" lon="-1.74151">
        <ele>-1.96</ele>
        <time>2020-05-17T11:52:38Z</time>
      </trkpt>
      <trkpt lat="47.08666" lon="-1.74138">
        <ele>-2.21</ele>
        <time>2020-05-17T11:52:40Z</time>
      </trkpt>
      <trkpt lat="47.08672" lon="-1.74125">
        <ele>-2.02</ele>
        <time>2020-05-17T11:52:42Z</time>
      </trkpt>
      <trkpt lat="47.08678" lon="-1.7411">
        <ele>-1.61</ele>
        <time>2020-05-17T11:52:44Z</time>
      </trkpt>
      <trkpt lat="47.08684" lon="-1.74095">
        <ele>-1.17</ele>
        <time>2020-05-17T11:52:46Z</time>
      </trkpt>
      <trkpt lat="47.08691" lon="-1.74078">
        <ele>-0.87</ele>
        <time>2020-05-17T11:52:48Z</time>
      </trkpt>
      <trkpt lat="47.08697" lon="-1.74062">
        <ele>-0.94</ele>
        <time>2020-05-17T11:52:50Z</time>
      </trkpt>
      <trkpt lat="47.08702" lon="-1.74047">
        <ele>-1.63</ele>
        <time>2020-05-17T11:52:52Z</time>
      </trkpt>
      <trkpt lat="47.08709" lon="-1.7403">
        <ele>-2.12</ele>
        <time>2020-05-17T11:52:54Z</time>
      </trkpt>
      <trkpt lat="47.08717" lon="-1.74014">
        <ele>-2.61</ele>
        <time>2020-05-17T11:52:56Z</time>
      </trkpt>
      <trkpt lat="47.08723" lon="-1.73998">
        <ele>-2.59</ele>
        <time>2020-05-17T11:52:58Z</time>
      </trkpt>
      <trkpt lat="47.0873" lon="-1.73984">
        <ele>-2.19</ele>
        <time>2020-05-17T11:53:00Z</time>
      </trkpt>
      <trkpt lat="47.08737" lon="-1.73969">
        <ele>-1.95</ele>
        <time>2020-05-17T11:53:02Z</time>
      </trkpt>
      <trkpt lat="47.08743" lon="-1.73956">
        <ele>-0.9</ele>
        <time>2020-05-17T11:53:04Z</time>
      </trkpt>
      <trkpt lat="47.08749" lon="-1.73942">
        <ele>-0.86</ele>
        <time>2020-05-17T11:53:06Z</time>
      </trkpt>
      <trkpt lat="47.08756" lon="-1.73927">
        <ele>-1.52</ele>
        <time>2020-05-17T11:53:08Z</time>
      </trkpt>
      <trkpt lat="47.08765" lon="-1.73911">
        <ele>-1.98</ele>
        <time>2020-05-17T11:53:10Z</time>
      </trkpt>
      <trkpt lat="47.08773" lon="-1.73896">
        <ele>-1.44</ele>
        <time>2020-05-17T11:53:12Z</time>
      </trkpt>
      <trkpt lat="47.08781" lon="-1.73881">
        <ele>-1.52</ele>
        <time>2020-05-17T11:53:14Z</time>
      </trkpt>
      <trkpt lat="47.0879" lon="-1.73863">
        <ele>-1.95</ele>
        <time>2020-05-17T11:53:16Z</time>
      </trkpt>
      <trkpt lat="47.08797" lon="-1.73851">
        <ele>-1.76</ele>
        <time>2020-05-17T11:53:18Z</time>
      </trkpt>
      <trkpt lat="47.08805" lon="-1.73841">
        <ele>-0.84</ele>
        <time>2020-05-17T11:53:20Z</time>
      </trkpt>
      <trkpt lat="47.08815" lon="-1.7383">
        <ele>-0.32</ele>
        <time>2020-05-17T11:53:22Z</time>
      </trkpt>
      <trkpt lat="47.08824" lon="-1.7382">
        <ele>-0.73</ele>
        <time>2020-05-17T11:53:24Z</time>
      </trkpt>
      <trkpt lat="47.08834" lon="-1.73809">
        <ele>-1.19</ele>
        <time>2020-05-17T11:53:26Z</time>
      </trkpt>
      <trkpt lat="47.08844" lon="-1.73797">
        <ele>-1.14</ele>
        <time>2020-05-17T11:53:28Z</time>
      </trkpt>
      <trkpt lat="47.08853" lon="-1.73784">
        <ele>-1.01</ele>
        <time>2020-05-17T11:53:30Z</time>
      </trkpt>
      <trkpt lat="47.08863" lon="-1.73769">
        <ele>-0.92</ele>
        <time>2020-05-17T11:53:32Z</time>
      </trkpt>
      <trkpt lat="47.0887" lon="-1.73755">
        <ele>-1.48</ele>
        <time>2020-05-17T11:53:34Z</time>
      </trkpt>
      <trkpt lat="47.08876" lon="-1.73743">
        <ele>-1.56</ele>
        <time>2020-05-17T11:53:36Z</time>
      </trkpt>
      <trkpt lat="47.08883" lon="-1.73728">
        <ele>-0.97</ele>
        <time>2020-05-17T11:53:38Z</time>
      </trkpt>
      <trkpt lat="47.08889" lon="-1.73715">
        <ele>-0.27</ele>
        <time>2020-05-17T11:53:40Z</time>
      </trkpt>
      <trkpt lat="47.08896" lon="-1.737">
        <ele>0.7</ele>
        <time>2020-05-17T11:53:42Z</time>
      </trkpt>
      <trkpt lat="47.08903" lon="-1.73685">
        <ele>0.6</ele>
        <time>2020-05-17T11:53:44Z</time>
      </trkpt>
      <trkpt lat="47.08911" lon="-1.73669">
        <ele>-1</ele>
        <time>2020-05-17T11:53:46Z</time>
      </trkpt>
      <trkpt lat="47.08916" lon="-1.73653">
        <ele>-1.08</ele>
        <time>2020-05-17T11:53:48Z</time>
      </trkpt>
      <trkpt lat="47.0892" lon="-1.73635">
        <ele>-0.86</ele>
        <time>2020-05-17T11:53:50Z</time>
      </trkpt>
      <trkpt lat="47.08922" lon="-1.73618">
        <ele>-0.31</ele>
        <time>2020-05-17T11:53:52Z</time>
      </trkpt>
      <trkpt lat="47.08925" lon="-1.736">
        <ele>-0.94</ele>
        <time>2020-05-17T11:53:54Z</time>
      </trkpt>
      <trkpt lat="47.08927" lon="-1.73583">
        <ele>-1.18</ele>
        <time>2020-05-17T11:53:56Z</time>
      </trkpt>
      <trkpt lat="47.08932" lon="-1.73564">
        <ele>-1.45</ele>
        <time>2020-05-17T11:53:58Z</time>
      </trkpt>
      <trkpt lat="47.08936" lon="-1.73546">
        <ele>-1.2</ele>
        <time>2020-05-17T11:54:00Z</time>
      </trkpt>
      <trkpt lat="47.0894" lon="-1.73528">
        <ele>-0.47</ele>
        <time>2020-05-17T11:54:02Z</time>
      </trkpt>
      <trkpt lat="47.08944" lon="-1.73512">
        <ele>-0.11</ele>
        <time>2020-05-17T11:54:04Z</time>
      </trkpt>
      <trkpt lat="47.08948" lon="-1.73494">
        <ele>-0.54</ele>
        <time>2020-05-17T11:54:06Z</time>
      </trkpt>
      <trkpt lat="47.08953" lon="-1.73478">
        <ele>-0.61</ele>
        <time>2020-05-17T11:54:08Z</time>
      </trkpt>
      <trkpt lat="47.0896" lon="-1.73463">
        <ele>-0.21</ele>
        <time>2020-05-17T11:54:10Z</time>
      </trkpt>
      <trkpt lat="47.08968" lon="-1.73449">
        <ele>1.11</ele>
        <time>2020-05-17T11:54:12Z</time>
      </trkpt>
      <trkpt lat="47.08978" lon="-1.73436">
        <ele>1.61</ele>
        <time>2020-05-17T11:54:14Z</time>
      </trkpt>
      <trkpt lat="47.08989" lon="-1.73421">
        <ele>1.61</ele>
        <time>2020-05-17T11:54:16Z</time>
      </trkpt>
      <trkpt lat="47.08998" lon="-1.73409">
        <ele>2.91</ele>
        <time>2020-05-17T11:54:18Z</time>
      </trkpt>
      <trkpt lat="47.09011" lon="-1.73398">
        <ele>3.04</ele>
        <time>2020-05-17T11:54:20Z</time>
      </trkpt>
      <trkpt lat="47.0902" lon="-1.73389">
        <ele>4</ele>
        <time>2020-05-17T11:54:22Z</time>
      </trkpt>
      <trkpt lat="47.0903" lon="-1.7338">
        <ele>3.27</ele>
        <time>2020-05-17T11:54:24Z</time>
      </trkpt>
      <trkpt lat="47.09041" lon="-1.73371">
        <ele>1.27</ele>
        <time>2020-05-17T11:54:26Z</time>
      </trkpt>
      <trkpt lat="47.09052" lon="-1.73359">
        <ele>-0.33</ele>
        <time>2020-05-17T11:54:28Z</time>
      </trkpt>
      <trkpt lat="47.09062" lon="-1.7335">
        <ele>-0.21</ele>
        <time>2020-05-17T11:54:30Z</time>
      </trkpt>
      <trkpt lat="47.09071" lon="-1.73342">
        <ele>-0.18</ele>
        <time>2020-05-17T11:54:32Z</time>
      </trkpt>
      <trkpt lat="47.09081" lon="-1.73335">
        <ele>-0.5</ele>
        <time>2020-05-17T11:54:34Z</time>
      </trkpt>
      <trkpt lat="47.09094" lon="-1.73324">
        <ele>0.37</ele>
        <time>2020-05-17T11:54:36Z</time>
      </trkpt>
      <trkpt lat="47.09106" lon="-1.73313">
        <ele>0.59</ele>
        <time>2020-05-17T11:54:38Z</time>
      </trkpt>
      <trkpt lat="47.09119" lon="-1.73302">
        <ele>0.72</ele>
        <time>2020-05-17T11:54:40Z</time>
      </trkpt>
      <trkpt lat="47.09129" lon="-1.73293">
        <ele>1.27</ele>
        <time>2020-05-17T11:54:42Z</time>
      </trkpt>
      <trkpt lat="47.09138" lon="-1.73286">
        <ele>1.48</ele>
        <time>2020-05-17T11:54:44Z</time>
      </trkpt>
      <trkpt lat="47.09149" lon="-1.73278">
        <ele>1.41</ele>
        <time>2020-05-17T11:54:46Z</time>
      </trkpt>
      <trkpt lat="47.09161" lon="-1.7327">
        <ele>1.01</ele>
        <time>2020-05-17T11:54:48Z</time>
      </trkpt>
      <trkpt lat="47.09172" lon="-1.73261">
        <ele>0.59</ele>
        <time>2020-05-17T11:54:50Z</time>
      </trkpt>
      <trkpt lat="47.09182" lon="-1.73253">
        <ele>-0.07</ele>
        <time>2020-05-17T11:54:52Z</time>
      </trkpt>
      <trkpt lat="47.09192" lon="-1.73245">
        <ele>-0.68</ele>
        <time>2020-05-17T11:54:54Z</time>
      </trkpt>
      <trkpt lat="47.09204" lon="-1.73235">
        <ele>-0.71</ele>
        <time>2020-05-17T11:54:56Z</time>
      </trkpt>
      <trkpt lat="47.09214" lon="-1.73226">
        <ele>-1.26</ele>
        <time>2020-05-17T11:54:58Z</time>
      </trkpt>
      <trkpt lat="47.09225" lon="-1.73216">
        <ele>-3.15</ele>
        <time>2020-05-17T11:55:00Z</time>
      </trkpt>
      <trkpt lat="47.09236" lon="-1.73206">
        <ele>-4.34</ele>
        <time>2020-05-17T11:55:02Z</time>
      </trkpt>
      <trkpt lat="47.09246" lon="-1.73197">
        <ele>-4.89</ele>
        <time>2020-05-17T11:55:04Z</time>
      </trkpt>
      <trkpt lat="47.09256" lon="-1.73188">
        <ele>-5.21</ele>
        <time>2020-05-17T11:55:06Z</time>
      </trkpt>
      <trkpt lat="47.09267" lon="-1.73179">
        <ele>-5.37</ele>
        <time>2020-05-17T11:55:08Z</time>
      </trkpt>
      <trkpt lat="47.09278" lon="-1.7317">
        <ele>-5.94</ele>
        <time>2020-05-17T11:55:10Z</time>
      </trkpt>
      <trkpt lat="47.0929" lon="-1.7316">
        <ele>-6.11</ele>
        <time>2020-05-17T11:55:12Z</time>
      </trkpt>
      <trkpt lat="47.09302" lon="-1.73151">
        <ele>-5.36</ele>
        <time>2020-05-17T11:55:14Z</time>
      </trkpt>
      <trkpt lat="47.09313" lon="-1.73143">
        <ele>-5.87</ele>
        <time>2020-05-17T11:55:16Z</time>
      </trkpt>
      <trkpt lat="47.09325" lon="-1.73134">
        <ele>-5.95</ele>
        <time>2020-05-17T11:55:18Z</time>
      </trkpt>
      <trkpt lat="47.09336" lon="-1.73125">
        <ele>-6.22</ele>
        <time>2020-05-17T11:55:20Z</time>
      </trkpt>
      <trkpt lat="47.09347" lon="-1.73116">
        <ele>-5.5</ele>
        <time>2020-05-17T11:55:22Z</time>
      </trkpt>
      <trkpt lat="47.09357" lon="-1.73108">
        <ele>-4.58</ele>
        <time>2020-05-17T11:55:24Z</time>
      </trkpt>
      <trkpt lat="47.09366" lon="-1.731">
        <ele>-3.01</ele>
        <time>2020-05-17T11:55:26Z</time>
      </trkpt>
      <trkpt lat="47.09375" lon="-1.73087">
        <ele>-2.17</ele>
        <time>2020-05-17T11:55:28Z</time>
      </trkpt>
      <trkpt lat="47.09381" lon="-1.73075">
        <ele>-1.69</ele>
        <time>2020-05-17T11:55:30Z</time>
      </trkpt>
      <trkpt lat="47.09385" lon="-1.73058">
        <ele>-1.46</ele>
        <time>2020-05-17T11:55:32Z</time>
      </trkpt>
      <trkpt lat="47.09387" lon="-1.73042">
        <ele>-0.43</ele>
        <time>2020-05-17T11:55:34Z</time>
      </trkpt>
      <trkpt lat="47.09389" lon="-1.73023">
        <ele>-0.1</ele>
        <time>2020-05-17T11:55:36Z</time>
      </trkpt>
      <trkpt lat="47.09391" lon="-1.73003">
        <ele>0.12</ele>
        <time>2020-05-17T11:55:38Z</time>
      </trkpt>
      <trkpt lat="47.09393" lon="-1.72988">
        <ele>-0.7</ele>
        <time>2020-05-17T11:55:40Z</time>
      </trkpt>
      <trkpt lat="47.09397" lon="-1.72972">
        <ele>-1.99</ele>
        <time>2020-05-17T11:55:42Z</time>
      </trkpt>
      <trkpt lat="47.09402" lon="-1.72955">
        <ele>-2.66</ele>
        <time>2020-05-17T11:55:44Z</time>
      </trkpt>
      <trkpt lat="47.09408" lon="-1.72939">
        <ele>-3.5</ele>
        <time>2020-05-17T11:55:46Z</time>
      </trkpt>
      <trkpt lat="47.09415" lon="-1.72923">
        <ele>-4.14</ele>
        <time>2020-05-17T11:55:48Z</time>
      </trkpt>
      <trkpt lat="47.09422" lon="-1.72908">
        <ele>-4.99</ele>
        <time>2020-05-17T11:55:50Z</time>
      </trkpt>
      <trkpt lat="47.0943" lon="-1.72896">
        <ele>-4.28</ele>
        <time>2020-05-17T11:55:52Z</time>
      </trkpt>
      <trkpt lat="47.09437" lon="-1.72881">
        <ele>-3.63</ele>
        <time>2020-05-17T11:55:54Z</time>
      </trkpt>
      <trkpt lat="47.09445" lon="-1.72867">
        <ele>-4</ele>
        <time>2020-05-17T11:55:56Z</time>
      </trkpt>
      <trkpt lat="47.09452" lon="-1.72853">
        <ele>-2.72</ele>
        <time>2020-05-17T11:55:58Z</time>
      </trkpt>
      <trkpt lat="47.09459" lon="-1.72839">
        <ele>-2.67</ele>
        <time>2020-05-17T11:56:00Z</time>
      </trkpt>
      <trkpt lat="47.09467" lon="-1.72823">
        <ele>-1.82</ele>
        <time>2020-05-17T11:56:02Z</time>
      </trkpt>
      <trkpt lat="47.09474" lon="-1.72807">
        <ele>-2.03</ele>
        <time>2020-05-17T11:56:04Z</time>
      </trkpt>
      <trkpt lat="47.09481" lon="-1.72793">
        <ele>-2.88</ele>
        <time>2020-05-17T11:56:06Z</time>
      </trkpt>
      <trkpt lat="47.09488" lon="-1.72777">
        <ele>-3.05</ele>
        <time>2020-05-17T11:56:08Z</time>
      </trkpt>
      <trkpt lat="47.09494" lon="-1.72763">
        <ele>-3.17</ele>
        <time>2020-05-17T11:56:10Z</time>
      </trkpt>
      <trkpt lat="47.09501" lon="-1.72748">
        <ele>-3.19</ele>
        <time>2020-05-17T11:56:12Z</time>
      </trkpt>
      <trkpt lat="47.09509" lon="-1.72732">
        <ele>-3.08</ele>
        <time>2020-05-17T11:56:14Z</time>
      </trkpt>
      <trkpt lat="47.09516" lon="-1.72718">
        <ele>-2.82</ele>
        <time>2020-05-17T11:56:16Z</time>
      </trkpt>
      <trkpt lat="47.09522" lon="-1.72705">
        <ele>-2.57</ele>
        <time>2020-05-17T11:56:18Z</time>
      </trkpt>
      <trkpt lat="47.09531" lon="-1.72689">
        <ele>-2.51</ele>
        <time>2020-05-17T11:56:20Z</time>
      </trkpt>
      <trkpt lat="47.09544" lon="-1.7268">
        <ele>-1.35</ele>
        <time>2020-05-17T11:56:22Z</time>
      </trkpt>
      <trkpt lat="47.09556" lon="-1.72681">
        <ele>-0.53</ele>
        <time>2020-05-17T11:56:24Z</time>
      </trkpt>
      <trkpt lat="47.09568" lon="-1.72684">
        <ele>-0.35</ele>
        <time>2020-05-17T11:56:26Z</time>
      </trkpt>
      <trkpt lat="47.09579" lon="-1.72689">
        <ele>-1.12</ele>
        <time>2020-05-17T11:56:28Z</time>
      </trkpt>
      <trkpt lat="47.09591" lon="-1.72697">
        <ele>-2.37</ele>
        <time>2020-05-17T11:56:30Z</time>
      </trkpt>
      <trkpt lat="47.09601" lon="-1.72704">
        <ele>-3.99</ele>
        <time>2020-05-17T11:56:32Z</time>
      </trkpt>
      <trkpt lat="47.0961" lon="-1.72709">
        <ele>-6.17</ele>
        <time>2020-05-17T11:56:34Z</time>
      </trkpt>
      <trkpt lat="47.09621" lon="-1.72715">
        <ele>-6.72</ele>
        <time>2020-05-17T11:56:36Z</time>
      </trkpt>
      <trkpt lat="47.09631" lon="-1.7272">
        <ele>-7.83</ele>
        <time>2020-05-17T11:56:38Z</time>
      </trkpt>
      <trkpt lat="47.0964" lon="-1.72724">
        <ele>-9.1</ele>
        <time>2020-05-17T11:56:40Z</time>
      </trkpt>
      <trkpt lat="47.0965" lon="-1.72728">
        <ele>-8.2</ele>
        <time>2020-05-17T11:56:42Z</time>
      </trkpt>
      <trkpt lat="47.09662" lon="-1.72733">
        <ele>-7.49</ele>
        <time>2020-05-17T11:56:44Z</time>
      </trkpt>
      <trkpt lat="47.09671" lon="-1.72736">
        <ele>-6.39</ele>
        <time>2020-05-17T11:56:46Z</time>
      </trkpt>
      <trkpt lat="47.0968" lon="-1.72737">
        <ele>-5.39</ele>
        <time>2020-05-17T11:56:48Z</time>
      </trkpt>
      <trkpt lat="47.09691" lon="-1.7274">
        <ele>-6.03</ele>
        <time>2020-05-17T11:56:50Z</time>
      </trkpt>
      <trkpt lat="47.09701" lon="-1.72747">
        <ele>-7.18</ele>
        <time>2020-05-17T11:56:52Z</time>
      </trkpt>
      <trkpt lat="47.09711" lon="-1.72755">
        <ele>-7.15</ele>
        <time>2020-05-17T11:56:54Z</time>
      </trkpt>
      <trkpt lat="47.09718" lon="-1.72765">
        <ele>-6.65</ele>
        <time>2020-05-17T11:56:56Z</time>
      </trkpt>
      <trkpt lat="47.09724" lon="-1.72778">
        <ele>-6.34</ele>
        <time>2020-05-17T11:56:58Z</time>
      </trkpt>
      <trkpt lat="47.0973" lon="-1.72792">
        <ele>-6.75</ele>
        <time>2020-05-17T11:57:00Z</time>
      </trkpt>
      <trkpt lat="47.09735" lon="-1.72805">
        <ele>-6.22</ele>
        <time>2020-05-17T11:57:02Z</time>
      </trkpt>
      <trkpt lat="47.0974" lon="-1.72817">
        <ele>-4.25</ele>
        <time>2020-05-17T11:57:04Z</time>
      </trkpt>
      <trkpt lat="47.09745" lon="-1.72829">
        <ele>-2.71</ele>
        <time>2020-05-17T11:57:06Z</time>
      </trkpt>
      <trkpt lat="47.09751" lon="-1.72845">
        <ele>-2.13</ele>
        <time>2020-05-17T11:57:08Z</time>
      </trkpt>
      <trkpt lat="47.09757" lon="-1.7286">
        <ele>-3.36</ele>
        <time>2020-05-17T11:57:10Z</time>
      </trkpt>
      <trkpt lat="47.09762" lon="-1.72872">
        <ele>-4.45</ele>
        <time>2020-05-17T11:57:12Z</time>
      </trkpt>
      <trkpt lat="47.09772" lon="-1.72882">
        <ele>-3.39</ele>
        <time>2020-05-17T11:57:15Z</time>
      </trkpt>
      <trkpt lat="47.09782" lon="-1.72872">
        <ele>-1.75</ele>
        <time>2020-05-17T11:57:17Z</time>
      </trkpt>
      <trkpt lat="47.0979" lon="-1.7286">
        <ele>-0.12</ele>
        <time>2020-05-17T11:57:19Z</time>
      </trkpt>
      <trkpt lat="47.09798" lon="-1.72849">
        <ele>1.31</ele>
        <time>2020-05-17T11:57:21Z</time>
      </trkpt>
      <trkpt lat="47.09807" lon="-1.72839">
        <ele>2.42</ele>
        <time>2020-05-17T11:57:23Z</time>
      </trkpt>
      <trkpt lat="47.09816" lon="-1.72833">
        <ele>2.97</ele>
        <time>2020-05-17T11:57:25Z</time>
      </trkpt>
      <trkpt lat="47.09825" lon="-1.72828">
        <ele>3.33</ele>
        <time>2020-05-17T11:57:27Z</time>
      </trkpt>
      <trkpt lat="47.09836" lon="-1.72823">
        <ele>3.37</ele>
        <time>2020-05-17T11:57:29Z</time>
      </trkpt>
      <trkpt lat="47.09846" lon="-1.72819">
        <ele>3.26</ele>
        <time>2020-05-17T11:57:31Z</time>
      </trkpt>
      <trkpt lat="47.09858" lon="-1.72813">
        <ele>3.13</ele>
        <time>2020-05-17T11:57:34Z</time>
      </trkpt>
      <trkpt lat="47.09868" lon="-1.72808">
        <ele>3.75</ele>
        <time>2020-05-17T11:57:36Z</time>
      </trkpt>
      <trkpt lat="47.09879" lon="-1.72802">
        <ele>3.83</ele>
        <time>2020-05-17T11:57:38Z</time>
      </trkpt>
      <trkpt lat="47.09888" lon="-1.72796">
        <ele>3.8</ele>
        <time>2020-05-17T11:57:40Z</time>
      </trkpt>
      <trkpt lat="47.09902" lon="-1.7279">
        <ele>3.55</ele>
        <time>2020-05-17T11:57:43Z</time>
      </trkpt>
      <trkpt lat="47.09913" lon="-1.72785">
        <ele>2.78</ele>
        <time>2020-05-17T11:57:45Z</time>
      </trkpt>
      <trkpt lat="47.09923" lon="-1.7278">
        <ele>3.22</ele>
        <time>2020-05-17T11:57:47Z</time>
      </trkpt>
      <trkpt lat="47.09932" lon="-1.72776">
        <ele>4.92</ele>
        <time>2020-05-17T11:57:49Z</time>
      </trkpt>
      <trkpt lat="47.09943" lon="-1.7277">
        <ele>5.42</ele>
        <time>2020-05-17T11:57:51Z</time>
      </trkpt>
      <trkpt lat="47.09953" lon="-1.72765">
        <ele>4.17</ele>
        <time>2020-05-17T11:57:53Z</time>
      </trkpt>
      <trkpt lat="47.09962" lon="-1.72759">
        <ele>3.73</ele>
        <time>2020-05-17T11:57:55Z</time>
      </trkpt>
      <trkpt lat="47.09972" lon="-1.72753">
        <ele>2.77</ele>
        <time>2020-05-17T11:57:57Z</time>
      </trkpt>
      <trkpt lat="47.09981" lon="-1.72747">
        <ele>1.76</ele>
        <time>2020-05-17T11:57:59Z</time>
      </trkpt>
      <trkpt lat="47.09992" lon="-1.72741">
        <ele>0.89</ele>
        <time>2020-05-17T11:58:01Z</time>
      </trkpt>
      <trkpt lat="47.10002" lon="-1.72734">
        <ele>1.3</ele>
        <time>2020-05-17T11:58:03Z</time>
      </trkpt>
      <trkpt lat="47.10011" lon="-1.72727">
        <ele>1.34</ele>
        <time>2020-05-17T11:58:05Z</time>
      </trkpt>
      <trkpt lat="47.10023" lon="-1.72717">
        <ele>0.78</ele>
        <time>2020-05-17T11:58:08Z</time>
      </trkpt>
      <trkpt lat="47.10033" lon="-1.72708">
        <ele>0.38</ele>
        <time>2020-05-17T11:58:10Z</time>
      </trkpt>
      <trkpt lat="47.10043" lon="-1.72699">
        <ele>1.17</ele>
        <time>2020-05-17T11:58:12Z</time>
      </trkpt>
      <trkpt lat="47.10051" lon="-1.72693">
        <ele>2.22</ele>
        <time>2020-05-17T11:58:14Z</time>
      </trkpt>
      <trkpt lat="47.10061" lon="-1.72685">
        <ele>3.22</ele>
        <time>2020-05-17T11:58:16Z</time>
      </trkpt>
      <trkpt lat="47.10069" lon="-1.72677">
        <ele>4.37</ele>
        <time>2020-05-17T11:58:18Z</time>
      </trkpt>
      <trkpt lat="47.10078" lon="-1.72666">
        <ele>5.1</ele>
        <time>2020-05-17T11:58:20Z</time>
      </trkpt>
      <trkpt lat="47.10089" lon="-1.72656">
        <ele>4.1</ele>
        <time>2020-05-17T11:58:22Z</time>
      </trkpt>
      <trkpt lat="47.10097" lon="-1.72647">
        <ele>2.97</ele>
        <time>2020-05-17T11:58:24Z</time>
      </trkpt>
      <trkpt lat="47.10106" lon="-1.72638">
        <ele>2.01</ele>
        <time>2020-05-17T11:58:26Z</time>
      </trkpt>
      <trkpt lat="47.10115" lon="-1.72628">
        <ele>1.94</ele>
        <time>2020-05-17T11:58:28Z</time>
      </trkpt>
      <trkpt lat="47.10124" lon="-1.72621">
        <ele>1.68</ele>
        <time>2020-05-17T11:58:30Z</time>
      </trkpt>
      <trkpt lat="47.10135" lon="-1.7261">
        <ele>2.57</ele>
        <time>2020-05-17T11:58:32Z</time>
      </trkpt>
      <trkpt lat="47.10144" lon="-1.726">
        <ele>2.73</ele>
        <time>2020-05-17T11:58:34Z</time>
      </trkpt>
      <trkpt lat="47.10154" lon="-1.7259">
        <ele>2.85</ele>
        <time>2020-05-17T11:58:36Z</time>
      </trkpt>
      <trkpt lat="47.10161" lon="-1.7258">
        <ele>2.5</ele>
        <time>2020-05-17T11:58:38Z</time>
      </trkpt>
      <trkpt lat="47.10171" lon="-1.72566">
        <ele>1.56</ele>
        <time>2020-05-17T11:58:40Z</time>
      </trkpt>
      <trkpt lat="47.10179" lon="-1.72554">
        <ele>0.32</ele>
        <time>2020-05-17T11:58:42Z</time>
      </trkpt>
      <trkpt lat="47.10188" lon="-1.72541">
        <ele>0.52</ele>
        <time>2020-05-17T11:58:44Z</time>
      </trkpt>
      <trkpt lat="47.10199" lon="-1.72528">
        <ele>1.88</ele>
        <time>2020-05-17T11:58:46Z</time>
      </trkpt>
      <trkpt lat="47.10207" lon="-1.72514">
        <ele>3.03</ele>
        <time>2020-05-17T11:58:48Z</time>
      </trkpt>
      <trkpt lat="47.10215" lon="-1.725">
        <ele>3.55</ele>
        <time>2020-05-17T11:58:50Z</time>
      </trkpt>
      <trkpt lat="47.10223" lon="-1.72486">
        <ele>4.17</ele>
        <time>2020-05-17T11:58:52Z</time>
      </trkpt>
      <trkpt lat="47.10231" lon="-1.72472">
        <ele>4.96</ele>
        <time>2020-05-17T11:58:54Z</time>
      </trkpt>
      <trkpt lat="47.10239" lon="-1.72458">
        <ele>5.07</ele>
        <time>2020-05-17T11:58:56Z</time>
      </trkpt>
      <trkpt lat="47.10248" lon="-1.72443">
        <ele>5.02</ele>
        <time>2020-05-17T11:58:58Z</time>
      </trkpt>
      <trkpt lat="47.10258" lon="-1.72428">
        <ele>5.04</ele>
        <time>2020-05-17T11:59:00Z</time>
      </trkpt>
      <trkpt lat="47.10268" lon="-1.72416">
        <ele>4.15</ele>
        <time>2020-05-17T11:59:02Z</time>
      </trkpt>
      <trkpt lat="47.1028" lon="-1.72407">
        <ele>3.25</ele>
        <time>2020-05-17T11:59:04Z</time>
      </trkpt>
      <trkpt lat="47.10292" lon="-1.724">
        <ele>2.34</ele>
        <time>2020-05-17T11:59:06Z</time>
      </trkpt>
      <trkpt lat="47.10304" lon="-1.72392">
        <ele>1.05</ele>
        <time>2020-05-17T11:59:08Z</time>
      </trkpt>
      <trkpt lat="47.10315" lon="-1.72386">
        <ele>-0.5</ele>
        <time>2020-05-17T11:59:10Z</time>
      </trkpt>
      <trkpt lat="47.10327" lon="-1.72379">
        <ele>-3.59</ele>
        <time>2020-05-17T11:59:12Z</time>
      </trkpt>
      <trkpt lat="47.10339" lon="-1.72372">
        <ele>-6.55</ele>
        <time>2020-05-17T11:59:14Z</time>
      </trkpt>
      <trkpt lat="47.10351" lon="-1.72365">
        <ele>-8.29</ele>
        <time>2020-05-17T11:59:16Z</time>
      </trkpt>
      <trkpt lat="47.10363" lon="-1.7236">
        <ele>-9.44</ele>
        <time>2020-05-17T11:59:18Z</time>
      </trkpt>
      <trkpt lat="47.10375" lon="-1.72355">
        <ele>-9.54</ele>
        <time>2020-05-17T11:59:20Z</time>
      </trkpt>
      <trkpt lat="47.10387" lon="-1.7235">
        <ele>-9.33</ele>
        <time>2020-05-17T11:59:22Z</time>
      </trkpt>
      <trkpt lat="47.10401" lon="-1.72343">
        <ele>-8.68</ele>
        <time>2020-05-17T11:59:24Z</time>
      </trkpt>
      <trkpt lat="47.10413" lon="-1.72338">
        <ele>-7.76</ele>
        <time>2020-05-17T11:59:26Z</time>
      </trkpt>
      <trkpt lat="47.10425" lon="-1.72332">
        <ele>-8.15</ele>
        <time>2020-05-17T11:59:28Z</time>
      </trkpt>
      <trkpt lat="47.10439" lon="-1.72324">
        <ele>-9.32</ele>
        <time>2020-05-17T11:59:30Z</time>
      </trkpt>
      <trkpt lat="47.10451" lon="-1.72318">
        <ele>-11.14</ele>
        <time>2020-05-17T11:59:32Z</time>
      </trkpt>
      <trkpt lat="47.10463" lon="-1.72312">
        <ele>-12.27</ele>
        <time>2020-05-17T11:59:34Z</time>
      </trkpt>
      <trkpt lat="47.10475" lon="-1.72305">
        <ele>-12.84</ele>
        <time>2020-05-17T11:59:36Z</time>
      </trkpt>
      <trkpt lat="47.10488" lon="-1.72297">
        <ele>-14.09</ele>
        <time>2020-05-17T11:59:38Z</time>
      </trkpt>
      <trkpt lat="47.10501" lon="-1.72288">
        <ele>-14.92</ele>
        <time>2020-05-17T11:59:40Z</time>
      </trkpt>
      <trkpt lat="47.10514" lon="-1.72278">
        <ele>-15.74</ele>
        <time>2020-05-17T11:59:42Z</time>
      </trkpt>
      <trkpt lat="47.10527" lon="-1.72265">
        <ele>-15.18</ele>
        <time>2020-05-17T11:59:44Z</time>
      </trkpt>
      <trkpt lat="47.10537" lon="-1.72254">
        <ele>-14.67</ele>
        <time>2020-05-17T11:59:46Z</time>
      </trkpt>
      <trkpt lat="47.10547" lon="-1.72239">
        <ele>-13.51</ele>
        <time>2020-05-17T11:59:48Z</time>
      </trkpt>
      <trkpt lat="47.10557" lon="-1.72226">
        <ele>-12.58</ele>
        <time>2020-05-17T11:59:50Z</time>
      </trkpt>
      <trkpt lat="47.10565" lon="-1.72214">
        <ele>-11.85</ele>
        <time>2020-05-17T11:59:52Z</time>
      </trkpt>
      <trkpt lat="47.10575" lon="-1.72198">
        <ele>-10.9</ele>
        <time>2020-05-17T11:59:54Z</time>
      </trkpt>
      <trkpt lat="47.10584" lon="-1.72185">
        <ele>-11.01</ele>
        <time>2020-05-17T11:59:56Z</time>
      </trkpt>
      <trkpt lat="47.10593" lon="-1.72172">
        <ele>-10.72</ele>
        <time>2020-05-17T11:59:58Z</time>
      </trkpt>
      <trkpt lat="47.10601" lon="-1.72161">
        <ele>-10.04</ele>
        <time>2020-05-17T12:00:00Z</time>
      </trkpt>
      <trkpt lat="47.1061" lon="-1.72149">
        <ele>-8.99</ele>
        <time>2020-05-17T12:00:02Z</time>
      </trkpt>
      <trkpt lat="47.10621" lon="-1.7214">
        <ele>-7.59</ele>
        <time>2020-05-17T12:00:04Z</time>
      </trkpt>
      <trkpt lat="47.10631" lon="-1.72135">
        <ele>-6.76</ele>
        <time>2020-05-17T12:00:06Z</time>
      </trkpt>
      <trkpt lat="47.10642" lon="-1.7213">
        <ele>-6.1</ele>
        <time>2020-05-17T12:00:08Z</time>
      </trkpt>
      <trkpt lat="47.10654" lon="-1.72126">
        <ele>-5.51</ele>
        <time>2020-05-17T12:00:10Z</time>
      </trkpt>
      <trkpt lat="47.10668" lon="-1.72121">
        <ele>-5.06</ele>
        <time>2020-05-17T12:00:12Z</time>
      </trkpt>
      <trkpt lat="47.10681" lon="-1.72118">
        <ele>-5.51</ele>
        <time>2020-05-17T12:00:14Z</time>
      </trkpt>
      <trkpt lat="47.10692" lon="-1.72116">
        <ele>-5.75</ele>
        <time>2020-05-17T12:00:16Z</time>
      </trkpt>
      <trkpt lat="47.10704" lon="-1.72113">
        <ele>-5.51</ele>
        <time>2020-05-17T12:00:18Z</time>
      </trkpt>
      <trkpt lat="47.10718" lon="-1.72109">
        <ele>-4.92</ele>
        <time>2020-05-17T12:00:20Z</time>
      </trkpt>
      <trkpt lat="47.1073" lon="-1.72105">
        <ele>-2.9</ele>
        <time>2020-05-17T12:00:22Z</time>
      </trkpt>
      <trkpt lat="47.10741" lon="-1.72102">
        <ele>-1.7</ele>
        <time>2020-05-17T12:00:24Z</time>
      </trkpt>
      <trkpt lat="47.10753" lon="-1.72101">
        <ele>-0.21</ele>
        <time>2020-05-17T12:00:27Z</time>
      </trkpt>
      <trkpt lat="47.10766" lon="-1.72102">
        <ele>-0.77</ele>
        <time>2020-05-17T12:00:29Z</time>
      </trkpt>
      <trkpt lat="47.10778" lon="-1.72106">
        <ele>-1.11</ele>
        <time>2020-05-17T12:00:31Z</time>
      </trkpt>
      <trkpt lat="47.1079" lon="-1.7211">
        <ele>-3.1</ele>
        <time>2020-05-17T12:00:33Z</time>
      </trkpt>
      <trkpt lat="47.108" lon="-1.72116">
        <ele>-4.32</ele>
        <time>2020-05-17T12:00:35Z</time>
      </trkpt>
      <trkpt lat="47.10812" lon="-1.72125">
        <ele>-4.31</ele>
        <time>2020-05-17T12:00:37Z</time>
      </trkpt>
      <trkpt lat="47.1082" lon="-1.72136">
        <ele>-4.06</ele>
        <time>2020-05-17T12:00:39Z</time>
      </trkpt>
      <trkpt lat="47.10829" lon="-1.72146">
        <ele>-4.15</ele>
        <time>2020-05-17T12:00:41Z</time>
      </trkpt>
      <trkpt lat="47.10841" lon="-1.72149">
        <ele>-4.29</ele>
        <time>2020-05-17T12:00:43Z</time>
      </trkpt>
      <trkpt lat="47.10849" lon="-1.72143">
        <ele>-5.06</ele>
        <time>2020-05-17T12:00:45Z</time>
      </trkpt>
      <trkpt lat="47.1086" lon="-1.72134">
        <ele>-4.66</ele>
        <time>2020-05-17T12:00:47Z</time>
      </trkpt>
      <trkpt lat="47.1087" lon="-1.72123">
        <ele>-2.76</ele>
        <time>2020-05-17T12:00:49Z</time>
      </trkpt>
      <trkpt lat="47.1088" lon="-1.7211">
        <ele>-1.05</ele>
        <time>2020-05-17T12:00:51Z</time>
      </trkpt>
      <trkpt lat="47.10889" lon="-1.72097">
        <ele>0.96</ele>
        <time>2020-05-17T12:00:53Z</time>
      </trkpt>
      <trkpt lat="47.10897" lon="-1.72084">
        <ele>1.43</ele>
        <time>2020-05-17T12:00:55Z</time>
      </trkpt>
      <trkpt lat="47.10907" lon="-1.72071">
        <ele>1.83</ele>
        <time>2020-05-17T12:00:57Z</time>
      </trkpt>
      <trkpt lat="47.10914" lon="-1.72061">
        <ele>2.23</ele>
        <time>2020-05-17T12:00:59Z</time>
      </trkpt>
      <trkpt lat="47.10922" lon="-1.72048">
        <ele>2.55</ele>
        <time>2020-05-17T12:01:01Z</time>
      </trkpt>
      <trkpt lat="47.10929" lon="-1.72037">
        <ele>3.82</ele>
        <time>2020-05-17T12:01:03Z</time>
      </trkpt>
      <trkpt lat="47.1094" lon="-1.7202">
        <ele>3.38</ele>
        <time>2020-05-17T12:01:05Z</time>
      </trkpt>
      <trkpt lat="47.10948" lon="-1.72009">
        <ele>3.24</ele>
        <time>2020-05-17T12:01:07Z</time>
      </trkpt>
      <trkpt lat="47.10955" lon="-1.71998">
        <ele>3.78</ele>
        <time>2020-05-17T12:01:09Z</time>
      </trkpt>
      <trkpt lat="47.10963" lon="-1.71987">
        <ele>3.98</ele>
        <time>2020-05-17T12:01:11Z</time>
      </trkpt>
      <trkpt lat="47.10971" lon="-1.71976">
        <ele>5.05</ele>
        <time>2020-05-17T12:01:13Z</time>
      </trkpt>
      <trkpt lat="47.10979" lon="-1.71965">
        <ele>4.64</ele>
        <time>2020-05-17T12:01:15Z</time>
      </trkpt>
      <trkpt lat="47.10987" lon="-1.71953">
        <ele>3.42</ele>
        <time>2020-05-17T12:01:17Z</time>
      </trkpt>
      <trkpt lat="47.10994" lon="-1.71942">
        <ele>3.25</ele>
        <time>2020-05-17T12:01:19Z</time>
      </trkpt>
      <trkpt lat="47.11002" lon="-1.71931">
        <ele>4.28</ele>
        <time>2020-05-17T12:01:21Z</time>
      </trkpt>
      <trkpt lat="47.11009" lon="-1.71921">
        <ele>4.98</ele>
        <time>2020-05-17T12:01:23Z</time>
      </trkpt>
      <trkpt lat="47.11017" lon="-1.71908">
        <ele>4.43</ele>
        <time>2020-05-17T12:01:25Z</time>
      </trkpt>
      <trkpt lat="47.11023" lon="-1.71898">
        <ele>3.95</ele>
        <time>2020-05-17T12:01:27Z</time>
      </trkpt>
      <trkpt lat="47.11032" lon="-1.71887">
        <ele>4.39</ele>
        <time>2020-05-17T12:01:29Z</time>
      </trkpt>
      <trkpt lat="47.11041" lon="-1.71874">
        <ele>3.25</ele>
        <time>2020-05-17T12:01:31Z</time>
      </trkpt>
      <trkpt lat="47.11051" lon="-1.71861">
        <ele>3.77</ele>
        <time>2020-05-17T12:01:34Z</time>
      </trkpt>
      <trkpt lat="47.11061" lon="-1.71848">
        <ele>3.72</ele>
        <time>2020-05-17T12:01:36Z</time>
      </trkpt>
      <trkpt lat="47.11069" lon="-1.71838">
        <ele>2.76</ele>
        <time>2020-05-17T12:01:38Z</time>
      </trkpt>
      <trkpt lat="47.11077" lon="-1.71828">
        <ele>1.83</ele>
        <time>2020-05-17T12:01:40Z</time>
      </trkpt>
      <trkpt lat="47.11087" lon="-1.71817">
        <ele>2.09</ele>
        <time>2020-05-17T12:01:42Z</time>
      </trkpt>
      <trkpt lat="47.11097" lon="-1.71807">
        <ele>3.09</ele>
        <time>2020-05-17T12:01:44Z</time>
      </trkpt>
      <trkpt lat="47.11107" lon="-1.71799">
        <ele>3.12</ele>
        <time>2020-05-17T12:01:46Z</time>
      </trkpt>
      <trkpt lat="47.11119" lon="-1.71789">
        <ele>2.34</ele>
        <time>2020-05-17T12:01:48Z</time>
      </trkpt>
      <trkpt lat="47.1113" lon="-1.71781">
        <ele>2.18</ele>
        <time>2020-05-17T12:01:50Z</time>
      </trkpt>
      <trkpt lat="47.1114" lon="-1.71772">
        <ele>3.55</ele>
        <time>2020-05-17T12:01:52Z</time>
      </trkpt>
      <trkpt lat="47.11151" lon="-1.71762">
        <ele>3.83</ele>
        <time>2020-05-17T12:01:54Z</time>
      </trkpt>
      <trkpt lat="47.11162" lon="-1.71751">
        <ele>3.02</ele>
        <time>2020-05-17T12:01:56Z</time>
      </trkpt>
      <trkpt lat="47.11171" lon="-1.71743">
        <ele>2.35</ele>
        <time>2020-05-17T12:01:58Z</time>
      </trkpt>
      <trkpt lat="47.11181" lon="-1.71734">
        <ele>1.97</ele>
        <time>2020-05-17T12:02:00Z</time>
      </trkpt>
      <trkpt lat="47.11192" lon="-1.71724">
        <ele>1.56</ele>
        <time>2020-05-17T12:02:02Z</time>
      </trkpt>
      <trkpt lat="47.11203" lon="-1.71715">
        <ele>0.67</ele>
        <time>2020-05-17T12:02:04Z</time>
      </trkpt>
      <trkpt lat="47.11212" lon="-1.71707">
        <ele>0.72</ele>
        <time>2020-05-17T12:02:06Z</time>
      </trkpt>
      <trkpt lat="47.11223" lon="-1.71697">
        <ele>1.94</ele>
        <time>2020-05-17T12:02:08Z</time>
      </trkpt>
      <trkpt lat="47.11234" lon="-1.71686">
        <ele>2.28</ele>
        <time>2020-05-17T12:02:10Z</time>
      </trkpt>
      <trkpt lat="47.11246" lon="-1.71678">
        <ele>2.57</ele>
        <time>2020-05-17T12:02:12Z</time>
      </trkpt>
      <trkpt lat="47.11259" lon="-1.71676">
        <ele>3.32</ele>
        <time>2020-05-17T12:02:14Z</time>
      </trkpt>
      <trkpt lat="47.11273" lon="-1.71678">
        <ele>2.69</ele>
        <time>2020-05-17T12:02:16Z</time>
      </trkpt>
      <trkpt lat="47.11284" lon="-1.7168">
        <ele>1.48</ele>
        <time>2020-05-17T12:02:18Z</time>
      </trkpt>
      <trkpt lat="47.11293" lon="-1.71678">
        <ele>0.12</ele>
        <time>2020-05-17T12:02:20Z</time>
      </trkpt>
      <trkpt lat="47.11305" lon="-1.71669">
        <ele>-2</ele>
        <time>2020-05-17T12:02:22Z</time>
      </trkpt>
      <trkpt lat="47.11314" lon="-1.71663">
        <ele>-3.1</ele>
        <time>2020-05-17T12:02:24Z</time>
      </trkpt>
      <trkpt lat="47.11325" lon="-1.71656">
        <ele>-3.26</ele>
        <time>2020-05-17T12:02:26Z</time>
      </trkpt>
      <trkpt lat="47.11334" lon="-1.71652">
        <ele>-2.96</ele>
        <time>2020-05-17T12:02:28Z</time>
      </trkpt>
      <trkpt lat="47.11343" lon="-1.71642">
        <ele>-3.26</ele>
        <time>2020-05-17T12:02:31Z</time>
      </trkpt>
      <trkpt lat="47.1135" lon="-1.71628">
        <ele>-2.65</ele>
        <time>2020-05-17T12:02:33Z</time>
      </trkpt>
      <trkpt lat="47.11357" lon="-1.71614">
        <ele>-2.14</ele>
        <time>2020-05-17T12:02:35Z</time>
      </trkpt>
      <trkpt lat="47.11364" lon="-1.71599">
        <ele>-3.03</ele>
        <time>2020-05-17T12:02:37Z</time>
      </trkpt>
      <trkpt lat="47.11372" lon="-1.71585">
        <ele>-4.16</ele>
        <time>2020-05-17T12:02:39Z</time>
      </trkpt>
      <trkpt lat="47.11379" lon="-1.71571">
        <ele>-4.51</ele>
        <time>2020-05-17T12:02:41Z</time>
      </trkpt>
      <trkpt lat="47.11389" lon="-1.71552">
        <ele>-4.55</ele>
        <time>2020-05-17T12:02:43Z</time>
      </trkpt>
      <trkpt lat="47.11397" lon="-1.71538">
        <ele>-3.96</ele>
        <time>2020-05-17T12:02:45Z</time>
      </trkpt>
      <trkpt lat="47.11405" lon="-1.71524">
        <ele>-3.1</ele>
        <time>2020-05-17T12:02:47Z</time>
      </trkpt>
      <trkpt lat="47.11412" lon="-1.7151">
        <ele>-2.42</ele>
        <time>2020-05-17T12:02:49Z</time>
      </trkpt>
      <trkpt lat="47.11419" lon="-1.71495">
        <ele>-1.86</ele>
        <time>2020-05-17T12:02:51Z</time>
      </trkpt>
      <trkpt lat="47.11427" lon="-1.71481">
        <ele>-2.29</ele>
        <time>2020-05-17T12:02:53Z</time>
      </trkpt>
      <trkpt lat="47.11435" lon="-1.71465">
        <ele>-2.56</ele>
        <time>2020-05-17T12:02:55Z</time>
      </trkpt>
      <trkpt lat="47.11443" lon="-1.71449">
        <ele>-2.41</ele>
        <time>2020-05-17T12:02:57Z</time>
      </trkpt>
      <trkpt lat="47.1145" lon="-1.71435">
        <ele>-2.47</ele>
        <time>2020-05-17T12:02:59Z</time>
      </trkpt>
      <trkpt lat="47.11457" lon="-1.7142">
        <ele>-1.91</ele>
        <time>2020-05-17T12:03:01Z</time>
      </trkpt>
      <trkpt lat="47.11465" lon="-1.71404">
        <ele>-0.74</ele>
        <time>2020-05-17T12:03:03Z</time>
      </trkpt>
      <trkpt lat="47.11472" lon="-1.7139">
        <ele>-0.95</ele>
        <time>2020-05-17T12:03:05Z</time>
      </trkpt>
      <trkpt lat="47.1148" lon="-1.71374">
        <ele>-1.65</ele>
        <time>2020-05-17T12:03:07Z</time>
      </trkpt>
      <trkpt lat="47.11487" lon="-1.7136">
        <ele>-1.17</ele>
        <time>2020-05-17T12:03:09Z</time>
      </trkpt>
      <trkpt lat="47.11494" lon="-1.71345">
        <ele>-1.5</ele>
        <time>2020-05-17T12:03:11Z</time>
      </trkpt>
      <trkpt lat="47.11502" lon="-1.71329">
        <ele>-1.63</ele>
        <time>2020-05-17T12:03:13Z</time>
      </trkpt>
      <trkpt lat="47.11509" lon="-1.71315">
        <ele>-0.59</ele>
        <time>2020-05-17T12:03:15Z</time>
      </trkpt>
      <trkpt lat="47.11516" lon="-1.71302">
        <ele>0.41</ele>
        <time>2020-05-17T12:03:17Z</time>
      </trkpt>
      <trkpt lat="47.11524" lon="-1.71286">
        <ele>0.62</ele>
        <time>2020-05-17T12:03:19Z</time>
      </trkpt>
      <trkpt lat="47.11532" lon="-1.71272">
        <ele>0.34</ele>
        <time>2020-05-17T12:03:21Z</time>
      </trkpt>
      <trkpt lat="47.1154" lon="-1.71257">
        <ele>0.74</ele>
        <time>2020-05-17T12:03:23Z</time>
      </trkpt>
      <trkpt lat="47.11549" lon="-1.71242">
        <ele>1.33</ele>
        <time>2020-05-17T12:03:25Z</time>
      </trkpt>
      <trkpt lat="47.11559" lon="-1.7123">
        <ele>1.34</ele>
        <time>2020-05-17T12:03:27Z</time>
      </trkpt>
      <trkpt lat="47.11568" lon="-1.71217">
        <ele>0.46</ele>
        <time>2020-05-17T12:03:29Z</time>
      </trkpt>
      <trkpt lat="47.11578" lon="-1.71203">
        <ele>-0.7</ele>
        <time>2020-05-17T12:03:31Z</time>
      </trkpt>
      <trkpt lat="47.11588" lon="-1.71189">
        <ele>-1.48</ele>
        <time>2020-05-17T12:03:33Z</time>
      </trkpt>
      <trkpt lat="47.11597" lon="-1.71177">
        <ele>-1.14</ele>
        <time>2020-05-17T12:03:35Z</time>
      </trkpt>
      <trkpt lat="47.11609" lon="-1.71161">
        <ele>-1.19</ele>
        <time>2020-05-17T12:03:37Z</time>
      </trkpt>
      <trkpt lat="47.1162" lon="-1.71148">
        <ele>-1.26</ele>
        <time>2020-05-17T12:03:39Z</time>
      </trkpt>
      <trkpt lat="47.1163" lon="-1.71139">
        <ele>-0.45</ele>
        <time>2020-05-17T12:03:41Z</time>
      </trkpt>
      <trkpt lat="47.1164" lon="-1.71129">
        <ele>0.89</ele>
        <time>2020-05-17T12:03:43Z</time>
      </trkpt>
      <trkpt lat="47.11654" lon="-1.71119">
        <ele>1.69</ele>
        <time>2020-05-17T12:03:45Z</time>
      </trkpt>
      <trkpt lat="47.11667" lon="-1.7111">
        <ele>2.11</ele>
        <time>2020-05-17T12:03:47Z</time>
      </trkpt>
      <trkpt lat="47.11679" lon="-1.71102">
        <ele>2.18</ele>
        <time>2020-05-17T12:03:49Z</time>
      </trkpt>
      <trkpt lat="47.11692" lon="-1.71094">
        <ele>1.91</ele>
        <time>2020-05-17T12:03:51Z</time>
      </trkpt>
      <trkpt lat="47.11704" lon="-1.71087">
        <ele>1.6</ele>
        <time>2020-05-17T12:03:53Z</time>
      </trkpt>
      <trkpt lat="47.11716" lon="-1.7108">
        <ele>1.2</ele>
        <time>2020-05-17T12:03:55Z</time>
      </trkpt>
      <trkpt lat="47.11728" lon="-1.71072">
        <ele>0.74</ele>
        <time>2020-05-17T12:03:57Z</time>
      </trkpt>
      <trkpt lat="47.1174" lon="-1.71064">
        <ele>0.37</ele>
        <time>2020-05-17T12:03:59Z</time>
      </trkpt>
      <trkpt lat="47.11752" lon="-1.71057">
        <ele>-1.07</ele>
        <time>2020-05-17T12:04:01Z</time>
      </trkpt>
      <trkpt lat="47.11766" lon="-1.71048">
        <ele>-2.04</ele>
        <time>2020-05-17T12:04:03Z</time>
      </trkpt>
      <trkpt lat="47.11777" lon="-1.71041">
        <ele>-1.62</ele>
        <time>2020-05-17T12:04:05Z</time>
      </trkpt>
      <trkpt lat="47.11788" lon="-1.71033">
        <ele>0.09</ele>
        <time>2020-05-17T12:04:07Z</time>
      </trkpt>
      <trkpt lat="47.118" lon="-1.71025">
        <ele>2.82</ele>
        <time>2020-05-17T12:04:09Z</time>
      </trkpt>
      <trkpt lat="47.11813" lon="-1.71016">
        <ele>4.07</ele>
        <time>2020-05-17T12:04:11Z</time>
      </trkpt>
      <trkpt lat="47.11825" lon="-1.71008">
        <ele>4.52</ele>
        <time>2020-05-17T12:04:13Z</time>
      </trkpt>
      <trkpt lat="47.11838" lon="-1.71">
        <ele>4.36</ele>
        <time>2020-05-17T12:04:15Z</time>
      </trkpt>
      <trkpt lat="47.1185" lon="-1.70991">
        <ele>4.59</ele>
        <time>2020-05-17T12:04:17Z</time>
      </trkpt>
      <trkpt lat="47.11864" lon="-1.70983">
        <ele>5.36</ele>
        <time>2020-05-17T12:04:19Z</time>
      </trkpt>
      <trkpt lat="47.11876" lon="-1.70975">
        <ele>6.47</ele>
        <time>2020-05-17T12:04:21Z</time>
      </trkpt>
      <trkpt lat="47.1189" lon="-1.70967">
        <ele>5.86</ele>
        <time>2020-05-17T12:04:23Z</time>
      </trkpt>
      <trkpt lat="47.11902" lon="-1.70959">
        <ele>5.16</ele>
        <time>2020-05-17T12:04:25Z</time>
      </trkpt>
      <trkpt lat="47.11913" lon="-1.70951">
        <ele>4.3</ele>
        <time>2020-05-17T12:04:27Z</time>
      </trkpt>
      <trkpt lat="47.11924" lon="-1.70944">
        <ele>2.53</ele>
        <time>2020-05-17T12:04:29Z</time>
      </trkpt>
      <trkpt lat="47.11935" lon="-1.70936">
        <ele>1.25</ele>
        <time>2020-05-17T12:04:31Z</time>
      </trkpt>
      <trkpt lat="47.11946" lon="-1.70929">
        <ele>0.62</ele>
        <time>2020-05-17T12:04:33Z</time>
      </trkpt>
      <trkpt lat="47.11957" lon="-1.70923">
        <ele>0.02</ele>
        <time>2020-05-17T12:04:35Z</time>
      </trkpt>
      <trkpt lat="47.1197" lon="-1.70915">
        <ele>0.29</ele>
        <time>2020-05-17T12:04:37Z</time>
      </trkpt>
      <trkpt lat="47.11982" lon="-1.70908">
        <ele>1.17</ele>
        <time>2020-05-17T12:04:39Z</time>
      </trkpt>
      <trkpt lat="47.11992" lon="-1.70901">
        <ele>2.03</ele>
        <time>2020-05-17T12:04:41Z</time>
      </trkpt>
      <trkpt lat="47.12004" lon="-1.70894">
        <ele>2.23</ele>
        <time>2020-05-17T12:04:43Z</time>
      </trkpt>
      <trkpt lat="47.12014" lon="-1.70887">
        <ele>2.79</ele>
        <time>2020-05-17T12:04:45Z</time>
      </trkpt>
      <trkpt lat="47.12024" lon="-1.70879">
        <ele>2.61</ele>
        <time>2020-05-17T12:04:47Z</time>
      </trkpt>
      <trkpt lat="47.12036" lon="-1.70871">
        <ele>2.9</ele>
        <time>2020-05-17T12:04:49Z</time>
      </trkpt>
      <trkpt lat="47.12046" lon="-1.70865">
        <ele>3.01</ele>
        <time>2020-05-17T12:04:51Z</time>
      </trkpt>
      <trkpt lat="47.12057" lon="-1.70858">
        <ele>3.95</ele>
        <time>2020-05-17T12:04:53Z</time>
      </trkpt>
      <trkpt lat="47.12067" lon="-1.70852">
        <ele>5.13</ele>
        <time>2020-05-17T12:04:55Z</time>
      </trkpt>
      <trkpt lat="47.12079" lon="-1.70843">
        <ele>5.76</ele>
        <time>2020-05-17T12:04:57Z</time>
      </trkpt>
      <trkpt lat="47.12089" lon="-1.70836">
        <ele>4.65</ele>
        <time>2020-05-17T12:04:59Z</time>
      </trkpt>
      <trkpt lat="47.121" lon="-1.70829">
        <ele>3.8</ele>
        <time>2020-05-17T12:05:01Z</time>
      </trkpt>
      <trkpt lat="47.12111" lon="-1.70822">
        <ele>3.78</ele>
        <time>2020-05-17T12:05:03Z</time>
      </trkpt>
      <trkpt lat="47.12123" lon="-1.70815">
        <ele>4.61</ele>
        <time>2020-05-17T12:05:05Z</time>
      </trkpt>
      <trkpt lat="47.12134" lon="-1.70808">
        <ele>4.57</ele>
        <time>2020-05-17T12:05:07Z</time>
      </trkpt>
      <trkpt lat="47.12147" lon="-1.70799">
        <ele>3.62</ele>
        <time>2020-05-17T12:05:09Z</time>
      </trkpt>
      <trkpt lat="47.12158" lon="-1.70791">
        <ele>3.8</ele>
        <time>2020-05-17T12:05:11Z</time>
      </trkpt>
      <trkpt lat="47.12168" lon="-1.70785">
        <ele>3.87</ele>
        <time>2020-05-17T12:05:13Z</time>
      </trkpt>
      <trkpt lat="47.1218" lon="-1.70778">
        <ele>3.7</ele>
        <time>2020-05-17T12:05:15Z</time>
      </trkpt>
      <trkpt lat="47.1219" lon="-1.7077">
        <ele>3.32</ele>
        <time>2020-05-17T12:05:17Z</time>
      </trkpt>
      <trkpt lat="47.12203" lon="-1.7076">
        <ele>3.41</ele>
        <time>2020-05-17T12:05:19Z</time>
      </trkpt>
      <trkpt lat="47.12215" lon="-1.7075">
        <ele>3.77</ele>
        <time>2020-05-17T12:05:21Z</time>
      </trkpt>
      <trkpt lat="47.12226" lon="-1.7074">
        <ele>4.82</ele>
        <time>2020-05-17T12:05:23Z</time>
      </trkpt>
      <trkpt lat="47.12236" lon="-1.70729">
        <ele>5.22</ele>
        <time>2020-05-17T12:05:25Z</time>
      </trkpt>
      <trkpt lat="47.12247" lon="-1.70717">
        <ele>4.47</ele>
        <time>2020-05-17T12:05:27Z</time>
      </trkpt>
      <trkpt lat="47.12257" lon="-1.70704">
        <ele>4.75</ele>
        <time>2020-05-17T12:05:29Z</time>
      </trkpt>
      <trkpt lat="47.12268" lon="-1.70691">
        <ele>4.66</ele>
        <time>2020-05-17T12:05:31Z</time>
      </trkpt>
      <trkpt lat="47.12278" lon="-1.70676">
        <ele>4.31</ele>
        <time>2020-05-17T12:05:33Z</time>
      </trkpt>
      <trkpt lat="47.12287" lon="-1.70661">
        <ele>3.06</ele>
        <time>2020-05-17T12:05:35Z</time>
      </trkpt>
      <trkpt lat="47.12296" lon="-1.70646">
        <ele>2.5</ele>
        <time>2020-05-17T12:05:37Z</time>
      </trkpt>
      <trkpt lat="47.12305" lon="-1.70633">
        <ele>2.21</ele>
        <time>2020-05-17T12:05:39Z</time>
      </trkpt>
      <trkpt lat="47.12315" lon="-1.70618">
        <ele>1.46</ele>
        <time>2020-05-17T12:05:41Z</time>
      </trkpt>
      <trkpt lat="47.12324" lon="-1.70604">
        <ele>0.93</ele>
        <time>2020-05-17T12:05:43Z</time>
      </trkpt>
      <trkpt lat="47.12332" lon="-1.70591">
        <ele>0.61</ele>
        <time>2020-05-17T12:05:45Z</time>
      </trkpt>
      <trkpt lat="47.1234" lon="-1.70579">
        <ele>0.62</ele>
        <time>2020-05-17T12:05:47Z</time>
      </trkpt>
      <trkpt lat="47.1235" lon="-1.70564">
        <ele>1.09</ele>
        <time>2020-05-17T12:05:49Z</time>
      </trkpt>
      <trkpt lat="47.12359" lon="-1.7055">
        <ele>1.16</ele>
        <time>2020-05-17T12:05:51Z</time>
      </trkpt>
      <trkpt lat="47.12367" lon="-1.70536">
        <ele>0.54</ele>
        <time>2020-05-17T12:05:53Z</time>
      </trkpt>
      <trkpt lat="47.12374" lon="-1.70518">
        <ele>0.15</ele>
        <time>2020-05-17T12:05:55Z</time>
      </trkpt>
      <trkpt lat="47.1238" lon="-1.70501">
        <ele>0.35</ele>
        <time>2020-05-17T12:05:57Z</time>
      </trkpt>
      <trkpt lat="47.12385" lon="-1.70483">
        <ele>0.37</ele>
        <time>2020-05-17T12:05:59Z</time>
      </trkpt>
      <trkpt lat="47.1239" lon="-1.70464">
        <ele>0.07</ele>
        <time>2020-05-17T12:06:01Z</time>
      </trkpt>
      <trkpt lat="47.12394" lon="-1.70448">
        <ele>-1.22</ele>
        <time>2020-05-17T12:06:03Z</time>
      </trkpt>
      <trkpt lat="47.12398" lon="-1.70432">
        <ele>-1.5</ele>
        <time>2020-05-17T12:06:05Z</time>
      </trkpt>
      <trkpt lat="47.12403" lon="-1.70412">
        <ele>-0.64</ele>
        <time>2020-05-17T12:06:07Z</time>
      </trkpt>
      <trkpt lat="47.12407" lon="-1.70395">
        <ele>-0.14</ele>
        <time>2020-05-17T12:06:09Z</time>
      </trkpt>
      <trkpt lat="47.12412" lon="-1.70376">
        <ele>0.53</ele>
        <time>2020-05-17T12:06:11Z</time>
      </trkpt>
      <trkpt lat="47.12416" lon="-1.70359">
        <ele>-0.5</ele>
        <time>2020-05-17T12:06:13Z</time>
      </trkpt>
      <trkpt lat="47.1242" lon="-1.70341">
        <ele>-2.93</ele>
        <time>2020-05-17T12:06:15Z</time>
      </trkpt>
      <trkpt lat="47.12424" lon="-1.70325">
        <ele>-2</ele>
        <time>2020-05-17T12:06:17Z</time>
      </trkpt>
      <trkpt lat="47.12429" lon="-1.70308">
        <ele>-0.98</ele>
        <time>2020-05-17T12:06:19Z</time>
      </trkpt>
      <trkpt lat="47.12439" lon="-1.70293">
        <ele>-2.16</ele>
        <time>2020-05-17T12:06:21Z</time>
      </trkpt>
      <trkpt lat="47.12448" lon="-1.70282">
        <ele>-2.17</ele>
        <time>2020-05-17T12:06:23Z</time>
      </trkpt>
      <trkpt lat="47.1246" lon="-1.70273">
        <ele>-0.98</ele>
        <time>2020-05-17T12:06:25Z</time>
      </trkpt>
      <trkpt lat="47.12472" lon="-1.70264">
        <ele>0.24</ele>
        <time>2020-05-17T12:06:27Z</time>
      </trkpt>
      <trkpt lat="47.12484" lon="-1.70256">
        <ele>0.77</ele>
        <time>2020-05-17T12:06:29Z</time>
      </trkpt>
      <trkpt lat="47.12496" lon="-1.70248">
        <ele>1.35</ele>
        <time>2020-05-17T12:06:31Z</time>
      </trkpt>
      <trkpt lat="47.12508" lon="-1.70242">
        <ele>0.87</ele>
        <time>2020-05-17T12:06:33Z</time>
      </trkpt>
      <trkpt lat="47.12519" lon="-1.70237">
        <ele>-0.29</ele>
        <time>2020-05-17T12:06:35Z</time>
      </trkpt>
      <trkpt lat="47.1253" lon="-1.70232">
        <ele>-0.99</ele>
        <time>2020-05-17T12:06:37Z</time>
      </trkpt>
      <trkpt lat="47.12543" lon="-1.70225">
        <ele>-1.04</ele>
        <time>2020-05-17T12:06:39Z</time>
      </trkpt>
      <trkpt lat="47.12556" lon="-1.70219">
        <ele>0.1</ele>
        <time>2020-05-17T12:06:41Z</time>
      </trkpt>
      <trkpt lat="47.12569" lon="-1.70212">
        <ele>0.59</ele>
        <time>2020-05-17T12:06:43Z</time>
      </trkpt>
      <trkpt lat="47.12582" lon="-1.70205">
        <ele>2.35</ele>
        <time>2020-05-17T12:06:45Z</time>
      </trkpt>
      <trkpt lat="47.12595" lon="-1.70199">
        <ele>2.85</ele>
        <time>2020-05-17T12:06:47Z</time>
      </trkpt>
      <trkpt lat="47.1261" lon="-1.70192">
        <ele>3.06</ele>
        <time>2020-05-17T12:06:49Z</time>
      </trkpt>
      <trkpt lat="47.12621" lon="-1.70187">
        <ele>2.43</ele>
        <time>2020-05-17T12:06:51Z</time>
      </trkpt>
      <trkpt lat="47.1263" lon="-1.70182">
        <ele>2.2</ele>
        <time>2020-05-17T12:06:53Z</time>
      </trkpt>
      <trkpt lat="47.12644" lon="-1.70174">
        <ele>1.64</ele>
        <time>2020-05-17T12:06:55Z</time>
      </trkpt>
      <trkpt lat="47.12657" lon="-1.70167">
        <ele>1.5</ele>
        <time>2020-05-17T12:06:57Z</time>
      </trkpt>
      <trkpt lat="47.12668" lon="-1.7016">
        <ele>0.88</ele>
        <time>2020-05-17T12:06:59Z</time>
      </trkpt>
      <trkpt lat="47.12679" lon="-1.70155">
        <ele>0.41</ele>
        <time>2020-05-17T12:07:01Z</time>
      </trkpt>
      <trkpt lat="47.1269" lon="-1.70149">
        <ele>0.57</ele>
        <time>2020-05-17T12:07:03Z</time>
      </trkpt>
      <trkpt lat="47.12703" lon="-1.70142">
        <ele>-0.01</ele>
        <time>2020-05-17T12:07:05Z</time>
      </trkpt>
      <trkpt lat="47.12714" lon="-1.70137">
        <ele>1</ele>
        <time>2020-05-17T12:07:07Z</time>
      </trkpt>
      <trkpt lat="47.12725" lon="-1.70131">
        <ele>2.18</ele>
        <time>2020-05-17T12:07:09Z</time>
      </trkpt>
      <trkpt lat="47.12739" lon="-1.70124">
        <ele>2.43</ele>
        <time>2020-05-17T12:07:11Z</time>
      </trkpt>
      <trkpt lat="47.1275" lon="-1.70118">
        <ele>1.73</ele>
        <time>2020-05-17T12:07:13Z</time>
      </trkpt>
      <trkpt lat="47.1276" lon="-1.70113">
        <ele>1.48</ele>
        <time>2020-05-17T12:07:15Z</time>
      </trkpt>
      <trkpt lat="47.12773" lon="-1.70104">
        <ele>1.85</ele>
        <time>2020-05-17T12:07:17Z</time>
      </trkpt>
      <trkpt lat="47.12787" lon="-1.70097">
        <ele>2.36</ele>
        <time>2020-05-17T12:07:19Z</time>
      </trkpt>
      <trkpt lat="47.128" lon="-1.7009">
        <ele>2.69</ele>
        <time>2020-05-17T12:07:21Z</time>
      </trkpt>
      <trkpt lat="47.12814" lon="-1.70083">
        <ele>3.03</ele>
        <time>2020-05-17T12:07:23Z</time>
      </trkpt>
      <trkpt lat="47.12825" lon="-1.70077">
        <ele>3.94</ele>
        <time>2020-05-17T12:07:25Z</time>
      </trkpt>
      <trkpt lat="47.12838" lon="-1.70071">
        <ele>4.48</ele>
        <time>2020-05-17T12:07:27Z</time>
      </trkpt>
      <trkpt lat="47.12848" lon="-1.70067">
        <ele>5.12</ele>
        <time>2020-05-17T12:07:29Z</time>
      </trkpt>
      <trkpt lat="47.1286" lon="-1.7006">
        <ele>4.62</ele>
        <time>2020-05-17T12:07:31Z</time>
      </trkpt>
      <trkpt lat="47.12872" lon="-1.70054">
        <ele>4.51</ele>
        <time>2020-05-17T12:07:33Z</time>
      </trkpt>
      <trkpt lat="47.12884" lon="-1.70047">
        <ele>4.59</ele>
        <time>2020-05-17T12:07:35Z</time>
      </trkpt>
      <trkpt lat="47.12897" lon="-1.7004">
        <ele>4.3</ele>
        <time>2020-05-17T12:07:37Z</time>
      </trkpt>
      <trkpt lat="47.12909" lon="-1.70034">
        <ele>3.89</ele>
        <time>2020-05-17T12:07:39Z</time>
      </trkpt>
      <trkpt lat="47.12918" lon="-1.70028">
        <ele>4.83</ele>
        <time>2020-05-17T12:07:41Z</time>
      </trkpt>
      <trkpt lat="47.12934" lon="-1.7002">
        <ele>4.03</ele>
        <time>2020-05-17T12:07:43Z</time>
      </trkpt>
      <trkpt lat="47.12947" lon="-1.70013">
        <ele>2.09</ele>
        <time>2020-05-17T12:07:45Z</time>
      </trkpt>
      <trkpt lat="47.12963" lon="-1.70007">
        <ele>-0.25</ele>
        <time>2020-05-17T12:07:47Z</time>
      </trkpt>
      <trkpt lat="47.12976" lon="-1.70001">
        <ele>-1.29</ele>
        <time>2020-05-17T12:07:49Z</time>
      </trkpt>
      <trkpt lat="47.12988" lon="-1.69995">
        <ele>-0.9</ele>
        <time>2020-05-17T12:07:51Z</time>
      </trkpt>
      <trkpt lat="47.13001" lon="-1.69988">
        <ele>-0.28</ele>
        <time>2020-05-17T12:07:53Z</time>
      </trkpt>
      <trkpt lat="47.13012" lon="-1.69982">
        <ele>1.73</ele>
        <time>2020-05-17T12:07:55Z</time>
      </trkpt>
      <trkpt lat="47.13024" lon="-1.69975">
        <ele>2.7</ele>
        <time>2020-05-17T12:07:57Z</time>
      </trkpt>
      <trkpt lat="47.13035" lon="-1.69969">
        <ele>1.74</ele>
        <time>2020-05-17T12:07:59Z</time>
      </trkpt>
      <trkpt lat="47.13048" lon="-1.69963">
        <ele>0.66</ele>
        <time>2020-05-17T12:08:01Z</time>
      </trkpt>
      <trkpt lat="47.1306" lon="-1.69955">
        <ele>-0.09</ele>
        <time>2020-05-17T12:08:03Z</time>
      </trkpt>
      <trkpt lat="47.1307" lon="-1.69951">
        <ele>-1.18</ele>
        <time>2020-05-17T12:08:05Z</time>
      </trkpt>
      <trkpt lat="47.13082" lon="-1.69945">
        <ele>-1.84</ele>
        <time>2020-05-17T12:08:07Z</time>
      </trkpt>
      <trkpt lat="47.13095" lon="-1.69938">
        <ele>-1.88</ele>
        <time>2020-05-17T12:08:09Z</time>
      </trkpt>
      <trkpt lat="47.13108" lon="-1.69932">
        <ele>-2.69</ele>
        <time>2020-05-17T12:08:11Z</time>
      </trkpt>
      <trkpt lat="47.13119" lon="-1.69926">
        <ele>-3.91</ele>
        <time>2020-05-17T12:08:13Z</time>
      </trkpt>
      <trkpt lat="47.13133" lon="-1.69919">
        <ele>-4.4</ele>
        <time>2020-05-17T12:08:15Z</time>
      </trkpt>
      <trkpt lat="47.13143" lon="-1.69914">
        <ele>-3.07</ele>
        <time>2020-05-17T12:08:17Z</time>
      </trkpt>
      <trkpt lat="47.13155" lon="-1.69908">
        <ele>-2.15</ele>
        <time>2020-05-17T12:08:19Z</time>
      </trkpt>
      <trkpt lat="47.13167" lon="-1.69902">
        <ele>-2.86</ele>
        <time>2020-05-17T12:08:21Z</time>
      </trkpt>
      <trkpt lat="47.13177" lon="-1.69897">
        <ele>-3.35</ele>
        <time>2020-05-17T12:08:23Z</time>
      </trkpt>
      <trkpt lat="47.13189" lon="-1.69891">
        <ele>-3.48</ele>
        <time>2020-05-17T12:08:25Z</time>
      </trkpt>
      <trkpt lat="47.13202" lon="-1.69884">
        <ele>-3.46</ele>
        <time>2020-05-17T12:08:27Z</time>
      </trkpt>
      <trkpt lat="47.13215" lon="-1.69877">
        <ele>-3.22</ele>
        <time>2020-05-17T12:08:29Z</time>
      </trkpt>
      <trkpt lat="47.13227" lon="-1.6987">
        <ele>-3.16</ele>
        <time>2020-05-17T12:08:31Z</time>
      </trkpt>
      <trkpt lat="47.1324" lon="-1.69863">
        <ele>-2.91</ele>
        <time>2020-05-17T12:08:33Z</time>
      </trkpt>
      <trkpt lat="47.13252" lon="-1.69858">
        <ele>-2.45</ele>
        <time>2020-05-17T12:08:35Z</time>
      </trkpt>
      <trkpt lat="47.13263" lon="-1.69853">
        <ele>-1.37</ele>
        <time>2020-05-17T12:08:37Z</time>
      </trkpt>
      <trkpt lat="47.13275" lon="-1.69846">
        <ele>-0.67</ele>
        <time>2020-05-17T12:08:39Z</time>
      </trkpt>
      <trkpt lat="47.13287" lon="-1.69839">
        <ele>-1.1</ele>
        <time>2020-05-17T12:08:41Z</time>
      </trkpt>
      <trkpt lat="47.13297" lon="-1.69833">
        <ele>-1.25</ele>
        <time>2020-05-17T12:08:43Z</time>
      </trkpt>
      <trkpt lat="47.1331" lon="-1.69824">
        <ele>0.36</ele>
        <time>2020-05-17T12:08:45Z</time>
      </trkpt>
      <trkpt lat="47.13323" lon="-1.69816">
        <ele>1.89</ele>
        <time>2020-05-17T12:08:47Z</time>
      </trkpt>
      <trkpt lat="47.13336" lon="-1.6981">
        <ele>2.48</ele>
        <time>2020-05-17T12:08:49Z</time>
      </trkpt>
      <trkpt lat="47.13349" lon="-1.69805">
        <ele>2.13</ele>
        <time>2020-05-17T12:08:51Z</time>
      </trkpt>
      <trkpt lat="47.13366" lon="-1.69797">
        <ele>2.17</ele>
        <time>2020-05-17T12:08:53Z</time>
      </trkpt>
      <trkpt lat="47.13378" lon="-1.69791">
        <ele>1.88</ele>
        <time>2020-05-17T12:08:55Z</time>
      </trkpt>
      <trkpt lat="47.13389" lon="-1.69785">
        <ele>1.66</ele>
        <time>2020-05-17T12:08:57Z</time>
      </trkpt>
      <trkpt lat="47.13401" lon="-1.69779">
        <ele>1.14</ele>
        <time>2020-05-17T12:08:59Z</time>
      </trkpt>
      <trkpt lat="47.13414" lon="-1.69772">
        <ele>0.14</ele>
        <time>2020-05-17T12:09:01Z</time>
      </trkpt>
      <trkpt lat="47.13423" lon="-1.69767">
        <ele>-0.65</ele>
        <time>2020-05-17T12:09:03Z</time>
      </trkpt>
      <trkpt lat="47.13431" lon="-1.69762">
        <ele>-1.48</ele>
        <time>2020-05-17T12:09:05Z</time>
      </trkpt>
      <trkpt lat="47.1344" lon="-1.69758">
        <ele>-0.67</ele>
        <time>2020-05-17T12:09:07Z</time>
      </trkpt>
      <trkpt lat="47.1345" lon="-1.69753">
        <ele>-0.01</ele>
        <time>2020-05-17T12:09:09Z</time>
      </trkpt>
      <trkpt lat="47.13463" lon="-1.69748">
        <ele>0.79</ele>
        <time>2020-05-17T12:09:11Z</time>
      </trkpt>
      <trkpt lat="47.13477" lon="-1.69744">
        <ele>0.41</ele>
        <time>2020-05-17T12:09:13Z</time>
      </trkpt>
      <trkpt lat="47.13495" lon="-1.69741">
        <ele>-1.35</ele>
        <time>2020-05-17T12:09:15Z</time>
      </trkpt>
      <trkpt lat="47.13504" lon="-1.6974">
        <ele>-2.06</ele>
        <time>2020-05-17T12:09:16Z</time>
      </trkpt>
      <trkpt lat="47.13518" lon="-1.69739">
        <ele>-2.42</ele>
        <time>2020-05-17T12:09:18Z</time>
      </trkpt>
      <trkpt lat="47.13532" lon="-1.69739">
        <ele>-3.27</ele>
        <time>2020-05-17T12:09:20Z</time>
      </trkpt>
      <trkpt lat="47.13542" lon="-1.6974">
        <ele>-3.55</ele>
        <time>2020-05-17T12:09:21Z</time>
      </trkpt>
      <trkpt lat="47.13555" lon="-1.6974">
        <ele>-3.95</ele>
        <time>2020-05-17T12:09:23Z</time>
      </trkpt>
      <trkpt lat="47.13569" lon="-1.6974">
        <ele>-4.23</ele>
        <time>2020-05-17T12:09:25Z</time>
      </trkpt>
      <trkpt lat="47.1358" lon="-1.6974">
        <ele>-3.77</ele>
        <time>2020-05-17T12:09:27Z</time>
      </trkpt>
      <trkpt lat="47.1359" lon="-1.69739">
        <ele>-3.05</ele>
        <time>2020-05-17T12:09:29Z</time>
      </trkpt>
      <trkpt lat="47.13602" lon="-1.6974">
        <ele>-1.83</ele>
        <time>2020-05-17T12:09:31Z</time>
      </trkpt>
      <trkpt lat="47.13614" lon="-1.6974">
        <ele>-1.77</ele>
        <time>2020-05-17T12:09:33Z</time>
      </trkpt>
      <trkpt lat="47.13624" lon="-1.69741">
        <ele>-1.33</ele>
        <time>2020-05-17T12:09:35Z</time>
      </trkpt>
      <trkpt lat="47.13635" lon="-1.69741">
        <ele>-0.66</ele>
        <time>2020-05-17T12:09:37Z</time>
      </trkpt>
      <trkpt lat="47.13648" lon="-1.6974">
        <ele>-0.22</ele>
        <time>2020-05-17T12:09:39Z</time>
      </trkpt>
      <trkpt lat="47.1366" lon="-1.69739">
        <ele>-0.38</ele>
        <time>2020-05-17T12:09:41Z</time>
      </trkpt>
      <trkpt lat="47.13671" lon="-1.6974">
        <ele>-0.3</ele>
        <time>2020-05-17T12:09:43Z</time>
      </trkpt>
      <trkpt lat="47.13683" lon="-1.6974">
        <ele>-0.53</ele>
        <time>2020-05-17T12:09:45Z</time>
      </trkpt>
      <trkpt lat="47.13693" lon="-1.69741">
        <ele>-1.88</ele>
        <time>2020-05-17T12:09:47Z</time>
      </trkpt>
      <trkpt lat="47.13705" lon="-1.69741">
        <ele>-1.74</ele>
        <time>2020-05-17T12:09:49Z</time>
      </trkpt>
      <trkpt lat="47.13715" lon="-1.6974">
        <ele>-1.42</ele>
        <time>2020-05-17T12:09:51Z</time>
      </trkpt>
      <trkpt lat="47.13725" lon="-1.69739">
        <ele>-2.36</ele>
        <time>2020-05-17T12:09:53Z</time>
      </trkpt>
      <trkpt lat="47.13739" lon="-1.69736">
        <ele>-3.06</ele>
        <time>2020-05-17T12:09:55Z</time>
      </trkpt>
      <trkpt lat="47.13749" lon="-1.69734">
        <ele>-3.84</ele>
        <time>2020-05-17T12:09:57Z</time>
      </trkpt>
      <trkpt lat="47.13763" lon="-1.69732">
        <ele>-3.44</ele>
        <time>2020-05-17T12:09:59Z</time>
      </trkpt>
      <trkpt lat="47.13772" lon="-1.69731">
        <ele>-3.23</ele>
        <time>2020-05-17T12:10:01Z</time>
      </trkpt>
      <trkpt lat="47.13784" lon="-1.69731">
        <ele>-3.75</ele>
        <time>2020-05-17T12:10:03Z</time>
      </trkpt>
      <trkpt lat="47.13795" lon="-1.69732">
        <ele>-4.6</ele>
        <time>2020-05-17T12:10:05Z</time>
      </trkpt>
      <trkpt lat="47.13809" lon="-1.69733">
        <ele>-4.52</ele>
        <time>2020-05-17T12:10:07Z</time>
      </trkpt>
      <trkpt lat="47.13821" lon="-1.69733">
        <ele>-3.33</ele>
        <time>2020-05-17T12:10:09Z</time>
      </trkpt>
      <trkpt lat="47.13832" lon="-1.69733">
        <ele>-3.81</ele>
        <time>2020-05-17T12:10:11Z</time>
      </trkpt>
      <trkpt lat="47.13843" lon="-1.69733">
        <ele>-4.59</ele>
        <time>2020-05-17T12:10:13Z</time>
      </trkpt>
      <trkpt lat="47.13853" lon="-1.69732">
        <ele>-5.64</ele>
        <time>2020-05-17T12:10:15Z</time>
      </trkpt>
      <trkpt lat="47.13863" lon="-1.6973">
        <ele>-7.06</ele>
        <time>2020-05-17T12:10:17Z</time>
      </trkpt>
      <trkpt lat="47.13873" lon="-1.69727">
        <ele>-10.03</ele>
        <time>2020-05-17T12:10:19Z</time>
      </trkpt>
      <trkpt lat="47.13885" lon="-1.69724">
        <ele>-9.9</ele>
        <time>2020-05-17T12:10:21Z</time>
      </trkpt>
      <trkpt lat="47.13899" lon="-1.69723">
        <ele>-8.31</ele>
        <time>2020-05-17T12:10:23Z</time>
      </trkpt>
      <trkpt lat="47.13911" lon="-1.69723">
        <ele>-7.23</ele>
        <time>2020-05-17T12:10:25Z</time>
      </trkpt>
      <trkpt lat="47.13922" lon="-1.69723">
        <ele>-6.93</ele>
        <time>2020-05-17T12:10:27Z</time>
      </trkpt>
      <trkpt lat="47.13932" lon="-1.69724">
        <ele>-6.37</ele>
        <time>2020-05-17T12:10:29Z</time>
      </trkpt>
      <trkpt lat="47.13942" lon="-1.69725">
        <ele>-6.27</ele>
        <time>2020-05-17T12:10:31Z</time>
      </trkpt>
      <trkpt lat="47.13955" lon="-1.69725">
        <ele>-4.36</ele>
        <time>2020-05-17T12:10:33Z</time>
      </trkpt>
      <trkpt lat="47.13966" lon="-1.69726">
        <ele>-2.03</ele>
        <time>2020-05-17T12:10:35Z</time>
      </trkpt>
      <trkpt lat="47.13978" lon="-1.69727">
        <ele>0.87</ele>
        <time>2020-05-17T12:10:37Z</time>
      </trkpt>
      <trkpt lat="47.1399" lon="-1.69729">
        <ele>1.46</ele>
        <time>2020-05-17T12:10:39Z</time>
      </trkpt>
      <trkpt lat="47.14002" lon="-1.6973">
        <ele>1.53</ele>
        <time>2020-05-17T12:10:41Z</time>
      </trkpt>
      <trkpt lat="47.14014" lon="-1.6973">
        <ele>2.33</ele>
        <time>2020-05-17T12:10:43Z</time>
      </trkpt>
      <trkpt lat="47.14028" lon="-1.6973">
        <ele>2.47</ele>
        <time>2020-05-17T12:10:45Z</time>
      </trkpt>
      <trkpt lat="47.14041" lon="-1.69731">
        <ele>2.41</ele>
        <time>2020-05-17T12:10:47Z</time>
      </trkpt>
      <trkpt lat="47.14051" lon="-1.69732">
        <ele>3.06</ele>
        <time>2020-05-17T12:10:49Z</time>
      </trkpt>
      <trkpt lat="47.14063" lon="-1.69733">
        <ele>3.55</ele>
        <time>2020-05-17T12:10:51Z</time>
      </trkpt>
      <trkpt lat="47.14074" lon="-1.69735">
        <ele>2.7</ele>
        <time>2020-05-17T12:10:53Z</time>
      </trkpt>
      <trkpt lat="47.14085" lon="-1.69735">
        <ele>1.7</ele>
        <time>2020-05-17T12:10:55Z</time>
      </trkpt>
      <trkpt lat="47.14095" lon="-1.69734">
        <ele>1.59</ele>
        <time>2020-05-17T12:10:57Z</time>
      </trkpt>
      <trkpt lat="47.14107" lon="-1.69732">
        <ele>0.87</ele>
        <time>2020-05-17T12:10:59Z</time>
      </trkpt>
      <trkpt lat="47.1412" lon="-1.6973">
        <ele>0.84</ele>
        <time>2020-05-17T12:11:01Z</time>
      </trkpt>
      <trkpt lat="47.14135" lon="-1.69728">
        <ele>-0.59</ele>
        <time>2020-05-17T12:11:03Z</time>
      </trkpt>
      <trkpt lat="47.14147" lon="-1.69726">
        <ele>-0.63</ele>
        <time>2020-05-17T12:11:05Z</time>
      </trkpt>
      <trkpt lat="47.14161" lon="-1.69723">
        <ele>0.58</ele>
        <time>2020-05-17T12:11:07Z</time>
      </trkpt>
      <trkpt lat="47.14172" lon="-1.69721">
        <ele>0.93</ele>
        <time>2020-05-17T12:11:09Z</time>
      </trkpt>
      <trkpt lat="47.14184" lon="-1.69719">
        <ele>0.55</ele>
        <time>2020-05-17T12:11:11Z</time>
      </trkpt>
      <trkpt lat="47.14199" lon="-1.69718">
        <ele>-1.59</ele>
        <time>2020-05-17T12:11:14Z</time>
      </trkpt>
      <trkpt lat="47.14209" lon="-1.69716">
        <ele>-1.22</ele>
        <time>2020-05-17T12:11:16Z</time>
      </trkpt>
      <trkpt lat="47.14221" lon="-1.69713">
        <ele>-0.65</ele>
        <time>2020-05-17T12:11:18Z</time>
      </trkpt>
      <trkpt lat="47.14232" lon="-1.69711">
        <ele>0.17</ele>
        <time>2020-05-17T12:11:20Z</time>
      </trkpt>
      <trkpt lat="47.14244" lon="-1.6971">
        <ele>1.35</ele>
        <time>2020-05-17T12:11:22Z</time>
      </trkpt>
      <trkpt lat="47.14254" lon="-1.69708">
        <ele>3.04</ele>
        <time>2020-05-17T12:11:24Z</time>
      </trkpt>
      <trkpt lat="47.14266" lon="-1.69708">
        <ele>5.45</ele>
        <time>2020-05-17T12:11:26Z</time>
      </trkpt>
      <trkpt lat="47.14278" lon="-1.69708">
        <ele>6.73</ele>
        <time>2020-05-17T12:11:28Z</time>
      </trkpt>
      <trkpt lat="47.14289" lon="-1.69708">
        <ele>5.98</ele>
        <time>2020-05-17T12:11:30Z</time>
      </trkpt>
      <trkpt lat="47.14299" lon="-1.6971">
        <ele>4.87</ele>
        <time>2020-05-17T12:11:32Z</time>
      </trkpt>
      <trkpt lat="47.14309" lon="-1.69711">
        <ele>5.4</ele>
        <time>2020-05-17T12:11:34Z</time>
      </trkpt>
      <trkpt lat="47.1432" lon="-1.69712">
        <ele>3.73</ele>
        <time>2020-05-17T12:11:37Z</time>
      </trkpt>
      <trkpt lat="47.14328" lon="-1.69702">
        <ele>4.82</ele>
        <time>2020-05-17T12:11:40Z</time>
      </trkpt>
      <trkpt lat="47.14332" lon="-1.69689">
        <ele>5.46</ele>
        <time>2020-05-17T12:11:42Z</time>
      </trkpt>
      <trkpt lat="47.14336" lon="-1.69675">
        <ele>6.11</ele>
        <time>2020-05-17T12:11:44Z</time>
      </trkpt>
      <trkpt lat="47.14339" lon="-1.69659">
        <ele>6.94</ele>
        <time>2020-05-17T12:11:46Z</time>
      </trkpt>
      <trkpt lat="47.14344" lon="-1.6964">
        <ele>6.87</ele>
        <time>2020-05-17T12:11:49Z</time>
      </trkpt>
      <trkpt lat="47.14349" lon="-1.69625">
        <ele>6.12</ele>
        <time>2020-05-17T12:11:51Z</time>
      </trkpt>
      <trkpt lat="47.14354" lon="-1.69612">
        <ele>6.19</ele>
        <time>2020-05-17T12:11:53Z</time>
      </trkpt>
      <trkpt lat="47.14358" lon="-1.696">
        <ele>6.2</ele>
        <time>2020-05-17T12:11:55Z</time>
      </trkpt>
      <trkpt lat="47.14363" lon="-1.69583">
        <ele>7.2</ele>
        <time>2020-05-17T12:11:58Z</time>
      </trkpt>
      <trkpt lat="47.14368" lon="-1.69567">
        <ele>8.81</ele>
        <time>2020-05-17T12:12:01Z</time>
      </trkpt>
      <trkpt lat="47.14373" lon="-1.6955">
        <ele>8.21</ele>
        <time>2020-05-17T12:12:04Z</time>
      </trkpt>
      <trkpt lat="47.14378" lon="-1.69536">
        <ele>8.75</ele>
        <time>2020-05-17T12:12:06Z</time>
      </trkpt>
      <trkpt lat="47.14381" lon="-1.69517">
        <ele>12.14</ele>
        <time>2020-05-17T12:12:09Z</time>
      </trkpt>
      <trkpt lat="47.14381" lon="-1.69503">
        <ele>13.09</ele>
        <time>2020-05-17T12:12:11Z</time>
      </trkpt>
      <trkpt lat="47.14383" lon="-1.69489">
        <ele>12.99</ele>
        <time>2020-05-17T12:12:13Z</time>
      </trkpt>
      <trkpt lat="47.14383" lon="-1.69475">
        <ele>13.35</ele>
        <time>2020-05-17T12:12:15Z</time>
      </trkpt>
      <trkpt lat="47.14384" lon="-1.69459">
        <ele>13.85</ele>
        <time>2020-05-17T12:12:17Z</time>
      </trkpt>
      <trkpt lat="47.14383" lon="-1.69445">
        <ele>13.61</ele>
        <time>2020-05-17T12:12:19Z</time>
      </trkpt>
      <trkpt lat="47.14383" lon="-1.69431">
        <ele>13.1</ele>
        <time>2020-05-17T12:12:21Z</time>
      </trkpt>
      <trkpt lat="47.14383" lon="-1.69416">
        <ele>12.3</ele>
        <time>2020-05-17T12:12:23Z</time>
      </trkpt>
      <trkpt lat="47.14385" lon="-1.69402">
        <ele>12.16</ele>
        <time>2020-05-17T12:12:25Z</time>
      </trkpt>
      <trkpt lat="47.14386" lon="-1.69389">
        <ele>12.69</ele>
        <time>2020-05-17T12:12:27Z</time>
      </trkpt>
      <trkpt lat="47.14389" lon="-1.6937">
        <ele>12.76</ele>
        <time>2020-05-17T12:12:30Z</time>
      </trkpt>
      <trkpt lat="47.14391" lon="-1.69356">
        <ele>12.65</ele>
        <time>2020-05-17T12:12:32Z</time>
      </trkpt>
      <trkpt lat="47.14393" lon="-1.69341">
        <ele>11.4</ele>
        <time>2020-05-17T12:12:34Z</time>
      </trkpt>
      <trkpt lat="47.14394" lon="-1.69326">
        <ele>11.96</ele>
        <time>2020-05-17T12:12:36Z</time>
      </trkpt>
      <trkpt lat="47.14395" lon="-1.69308">
        <ele>11.95</ele>
        <time>2020-05-17T12:12:38Z</time>
      </trkpt>
      <trkpt lat="47.14394" lon="-1.69289">
        <ele>14.99</ele>
        <time>2020-05-17T12:12:41Z</time>
      </trkpt>
      <trkpt lat="47.14395" lon="-1.69271">
        <ele>16.21</ele>
        <time>2020-05-17T12:12:43Z</time>
      </trkpt>
      <trkpt lat="47.14394" lon="-1.69257">
        <ele>16.16</ele>
        <time>2020-05-17T12:12:45Z</time>
      </trkpt>
      <trkpt lat="47.14394" lon="-1.69243">
        <ele>17.1</ele>
        <time>2020-05-17T12:12:47Z</time>
      </trkpt>
      <trkpt lat="47.14394" lon="-1.69229">
        <ele>17.32</ele>
        <time>2020-05-17T12:12:49Z</time>
      </trkpt>
      <trkpt lat="47.14394" lon="-1.69209">
        <ele>16.21</ele>
        <time>2020-05-17T12:12:51Z</time>
      </trkpt>
      <trkpt lat="47.14394" lon="-1.69193">
        <ele>14.56</ele>
        <time>2020-05-17T12:12:53Z</time>
      </trkpt>
      <trkpt lat="47.14394" lon="-1.69177">
        <ele>12.15</ele>
        <time>2020-05-17T12:12:55Z</time>
      </trkpt>
      <trkpt lat="47.14394" lon="-1.69163">
        <ele>10.82</ele>
        <time>2020-05-17T12:12:57Z</time>
      </trkpt>
      <trkpt lat="47.14394" lon="-1.69146">
        <ele>9.32</ele>
        <time>2020-05-17T12:12:59Z</time>
      </trkpt>
      <trkpt lat="47.14394" lon="-1.69133">
        <ele>8.55</ele>
        <time>2020-05-17T12:13:01Z</time>
      </trkpt>
      <trkpt lat="47.14395" lon="-1.69119">
        <ele>8.81</ele>
        <time>2020-05-17T12:13:03Z</time>
      </trkpt>
      <trkpt lat="47.14395" lon="-1.69104">
        <ele>9.93</ele>
        <time>2020-05-17T12:13:05Z</time>
      </trkpt>
      <trkpt lat="47.14395" lon="-1.6909">
        <ele>10.64</ele>
        <time>2020-05-17T12:13:07Z</time>
      </trkpt>
      <trkpt lat="47.14395" lon="-1.69075">
        <ele>11.12</ele>
        <time>2020-05-17T12:13:09Z</time>
      </trkpt>
      <trkpt lat="47.14396" lon="-1.69059">
        <ele>11.19</ele>
        <time>2020-05-17T12:13:11Z</time>
      </trkpt>
      <trkpt lat="47.14396" lon="-1.69046">
        <ele>10.99</ele>
        <time>2020-05-17T12:13:13Z</time>
      </trkpt>
      <trkpt lat="47.14396" lon="-1.69029">
        <ele>9.9</ele>
        <time>2020-05-17T12:13:15Z</time>
      </trkpt>
      <trkpt lat="47.14398" lon="-1.69013">
        <ele>10.01</ele>
        <time>2020-05-17T12:13:17Z</time>
      </trkpt>
      <trkpt lat="47.14398" lon="-1.68999">
        <ele>10.81</ele>
        <time>2020-05-17T12:13:19Z</time>
      </trkpt>
      <trkpt lat="47.14398" lon="-1.68982">
        <ele>10.88</ele>
        <time>2020-05-17T12:13:21Z</time>
      </trkpt>
      <trkpt lat="47.14399" lon="-1.68966">
        <ele>12.53</ele>
        <time>2020-05-17T12:13:23Z</time>
      </trkpt>
      <trkpt lat="47.14399" lon="-1.68948">
        <ele>13.86</ele>
        <time>2020-05-17T12:13:25Z</time>
      </trkpt>
      <trkpt lat="47.144" lon="-1.6893">
        <ele>14.53</ele>
        <time>2020-05-17T12:13:27Z</time>
      </trkpt>
      <trkpt lat="47.14401" lon="-1.68912">
        <ele>15.4</ele>
        <time>2020-05-17T12:13:29Z</time>
      </trkpt>
      <trkpt lat="47.14401" lon="-1.68894">
        <ele>15.02</ele>
        <time>2020-05-17T12:13:31Z</time>
      </trkpt>
      <trkpt lat="47.14402" lon="-1.68878">
        <ele>14.88</ele>
        <time>2020-05-17T12:13:33Z</time>
      </trkpt>
      <trkpt lat="47.14403" lon="-1.68862">
        <ele>15.39</ele>
        <time>2020-05-17T12:13:35Z</time>
      </trkpt>
      <trkpt lat="47.14405" lon="-1.68846">
        <ele>16.06</ele>
        <time>2020-05-17T12:13:37Z</time>
      </trkpt>
      <trkpt lat="47.14407" lon="-1.68828">
        <ele>15.88</ele>
        <time>2020-05-17T12:13:39Z</time>
      </trkpt>
      <trkpt lat="47.14409" lon="-1.68804">
        <ele>15.47</ele>
        <time>2020-05-17T12:13:41Z</time>
      </trkpt>
      <trkpt lat="47.14411" lon="-1.68784">
        <ele>12.14</ele>
        <time>2020-05-17T12:13:43Z</time>
      </trkpt>
      <trkpt lat="47.14413" lon="-1.68771">
        <ele>10.37</ele>
        <time>2020-05-17T12:13:45Z</time>
      </trkpt>
      <trkpt lat="47.14413" lon="-1.68752">
        <ele>9.84</ele>
        <time>2020-05-17T12:13:47Z</time>
      </trkpt>
      <trkpt lat="47.14414" lon="-1.68738">
        <ele>9.32</ele>
        <time>2020-05-17T12:13:48Z</time>
      </trkpt>
      <trkpt lat="47.14414" lon="-1.68721">
        <ele>8.69</ele>
        <time>2020-05-17T12:13:50Z</time>
      </trkpt>
      <trkpt lat="47.14415" lon="-1.68703">
        <ele>9.14</ele>
        <time>2020-05-17T12:13:52Z</time>
      </trkpt>
      <trkpt lat="47.14409" lon="-1.68685">
        <ele>10.2</ele>
        <time>2020-05-17T12:13:54Z</time>
      </trkpt>
      <trkpt lat="47.14405" lon="-1.68667">
        <ele>10.42</ele>
        <time>2020-05-17T12:13:56Z</time>
      </trkpt>
      <trkpt lat="47.144" lon="-1.6865">
        <ele>12.09</ele>
        <time>2020-05-17T12:13:58Z</time>
      </trkpt>
      <trkpt lat="47.14395" lon="-1.68634">
        <ele>12.62</ele>
        <time>2020-05-17T12:14:00Z</time>
      </trkpt>
      <trkpt lat="47.14391" lon="-1.68619">
        <ele>11.53</ele>
        <time>2020-05-17T12:14:02Z</time>
      </trkpt>
      <trkpt lat="47.14388" lon="-1.686">
        <ele>10.52</ele>
        <time>2020-05-17T12:14:04Z</time>
      </trkpt>
      <trkpt lat="47.14386" lon="-1.68581">
        <ele>9.46</ele>
        <time>2020-05-17T12:14:06Z</time>
      </trkpt>
      <trkpt lat="47.14385" lon="-1.68567">
        <ele>10.07</ele>
        <time>2020-05-17T12:14:08Z</time>
      </trkpt>
      <trkpt lat="47.14385" lon="-1.6855">
        <ele>10.39</ele>
        <time>2020-05-17T12:14:10Z</time>
      </trkpt>
      <trkpt lat="47.14385" lon="-1.68533">
        <ele>10.86</ele>
        <time>2020-05-17T12:14:12Z</time>
      </trkpt>
      <trkpt lat="47.14387" lon="-1.68518">
        <ele>11.05</ele>
        <time>2020-05-17T12:14:14Z</time>
      </trkpt>
      <trkpt lat="47.1439" lon="-1.68497">
        <ele>10.35</ele>
        <time>2020-05-17T12:14:16Z</time>
      </trkpt>
      <trkpt lat="47.14392" lon="-1.68482">
        <ele>9.57</ele>
        <time>2020-05-17T12:14:18Z</time>
      </trkpt>
      <trkpt lat="47.14393" lon="-1.68458">
        <ele>9.22</ele>
        <time>2020-05-17T12:14:20Z</time>
      </trkpt>
      <trkpt lat="47.14394" lon="-1.6844">
        <ele>8.28</ele>
        <time>2020-05-17T12:14:22Z</time>
      </trkpt>
      <trkpt lat="47.14396" lon="-1.68421">
        <ele>7.65</ele>
        <time>2020-05-17T12:14:24Z</time>
      </trkpt>
      <trkpt lat="47.14397" lon="-1.68403">
        <ele>7.74</ele>
        <time>2020-05-17T12:14:26Z</time>
      </trkpt>
      <trkpt lat="47.14397" lon="-1.68383">
        <ele>8.21</ele>
        <time>2020-05-17T12:14:28Z</time>
      </trkpt>
      <trkpt lat="47.14395" lon="-1.68364">
        <ele>7.45</ele>
        <time>2020-05-17T12:14:30Z</time>
      </trkpt>
      <trkpt lat="47.14393" lon="-1.68346">
        <ele>7.99</ele>
        <time>2020-05-17T12:14:32Z</time>
      </trkpt>
      <trkpt lat="47.1439" lon="-1.68328">
        <ele>7.93</ele>
        <time>2020-05-17T12:14:34Z</time>
      </trkpt>
      <trkpt lat="47.14387" lon="-1.6831">
        <ele>9.65</ele>
        <time>2020-05-17T12:14:36Z</time>
      </trkpt>
      <trkpt lat="47.14382" lon="-1.6829">
        <ele>9.42</ele>
        <time>2020-05-17T12:14:38Z</time>
      </trkpt>
      <trkpt lat="47.14376" lon="-1.68275">
        <ele>10.39</ele>
        <time>2020-05-17T12:14:40Z</time>
      </trkpt>
      <trkpt lat="47.14373" lon="-1.68262">
        <ele>9.66</ele>
        <time>2020-05-17T12:14:43Z</time>
      </trkpt>
      <trkpt lat="47.1437" lon="-1.68248">
        <ele>9.14</ele>
        <time>2020-05-17T12:14:45Z</time>
      </trkpt>
      <trkpt lat="47.1437" lon="-1.68232">
        <ele>8.73</ele>
        <time>2020-05-17T12:14:47Z</time>
      </trkpt>
      <trkpt lat="47.14371" lon="-1.68216">
        <ele>8.7</ele>
        <time>2020-05-17T12:14:49Z</time>
      </trkpt>
      <trkpt lat="47.14371" lon="-1.68196">
        <ele>10.19</ele>
        <time>2020-05-17T12:14:52Z</time>
      </trkpt>
      <trkpt lat="47.1437" lon="-1.68182">
        <ele>11.83</ele>
        <time>2020-05-17T12:14:54Z</time>
      </trkpt>
      <trkpt lat="47.14368" lon="-1.68164">
        <ele>13.45</ele>
        <time>2020-05-17T12:14:56Z</time>
      </trkpt>
      <trkpt lat="47.14368" lon="-1.6815">
        <ele>14.5</ele>
        <time>2020-05-17T12:14:58Z</time>
      </trkpt>
      <trkpt lat="47.1437" lon="-1.68137">
        <ele>15.39</ele>
        <time>2020-05-17T12:15:00Z</time>
      </trkpt>
      <trkpt lat="47.1437" lon="-1.6812">
        <ele>16.11</ele>
        <time>2020-05-17T12:15:02Z</time>
      </trkpt>
      <trkpt lat="47.1437" lon="-1.68104">
        <ele>16.96</ele>
        <time>2020-05-17T12:15:04Z</time>
      </trkpt>
      <trkpt lat="47.14369" lon="-1.68087">
        <ele>17.02</ele>
        <time>2020-05-17T12:15:06Z</time>
      </trkpt>
      <trkpt lat="47.14368" lon="-1.68067">
        <ele>16.15</ele>
        <time>2020-05-17T12:15:08Z</time>
      </trkpt>
      <trkpt lat="47.14368" lon="-1.68052">
        <ele>15.37</ele>
        <time>2020-05-17T12:15:10Z</time>
      </trkpt>
      <trkpt lat="47.14367" lon="-1.68035">
        <ele>14.15</ele>
        <time>2020-05-17T12:15:12Z</time>
      </trkpt>
      <trkpt lat="47.14367" lon="-1.68021">
        <ele>12.82</ele>
        <time>2020-05-17T12:15:14Z</time>
      </trkpt>
      <trkpt lat="47.14366" lon="-1.68003">
        <ele>11.76</ele>
        <time>2020-05-17T12:15:16Z</time>
      </trkpt>
      <trkpt lat="47.14364" lon="-1.67986">
        <ele>10.04</ele>
        <time>2020-05-17T12:15:18Z</time>
      </trkpt>
      <trkpt lat="47.14362" lon="-1.67966">
        <ele>9.73</ele>
        <time>2020-05-17T12:15:20Z</time>
      </trkpt>
      <trkpt lat="47.14361" lon="-1.67952">
        <ele>9.27</ele>
        <time>2020-05-17T12:15:22Z</time>
      </trkpt>
      <trkpt lat="47.14359" lon="-1.67937">
        <ele>11.31</ele>
        <time>2020-05-17T12:15:24Z</time>
      </trkpt>
      <trkpt lat="47.14357" lon="-1.67922">
        <ele>13.57</ele>
        <time>2020-05-17T12:15:26Z</time>
      </trkpt>
      <trkpt lat="47.14351" lon="-1.67906">
        <ele>13.95</ele>
        <time>2020-05-17T12:15:28Z</time>
      </trkpt>
      <trkpt lat="47.14343" lon="-1.67892">
        <ele>13.67</ele>
        <time>2020-05-17T12:15:30Z</time>
      </trkpt>
      <trkpt lat="47.14338" lon="-1.67877">
        <ele>13.84</ele>
        <time>2020-05-17T12:15:32Z</time>
      </trkpt>
      <trkpt lat="47.14341" lon="-1.67859">
        <ele>14.16</ele>
        <time>2020-05-17T12:15:34Z</time>
      </trkpt>
      <trkpt lat="47.14344" lon="-1.67845">
        <ele>14.29</ele>
        <time>2020-05-17T12:15:36Z</time>
      </trkpt>
      <trkpt lat="47.14345" lon="-1.67828">
        <ele>14.63</ele>
        <time>2020-05-17T12:15:38Z</time>
      </trkpt>
      <trkpt lat="47.14343" lon="-1.67811">
        <ele>13.16</ele>
        <time>2020-05-17T12:15:40Z</time>
      </trkpt>
      <trkpt lat="47.14341" lon="-1.67794">
        <ele>12.66</ele>
        <time>2020-05-17T12:15:42Z</time>
      </trkpt>
      <trkpt lat="47.14337" lon="-1.67775">
        <ele>11.86</ele>
        <time>2020-05-17T12:15:44Z</time>
      </trkpt>
      <trkpt lat="47.14334" lon="-1.6776">
        <ele>12.39</ele>
        <time>2020-05-17T12:15:46Z</time>
      </trkpt>
      <trkpt lat="47.1433" lon="-1.67743">
        <ele>12.93</ele>
        <time>2020-05-17T12:15:48Z</time>
      </trkpt>
      <trkpt lat="47.14325" lon="-1.67725">
        <ele>12.03</ele>
        <time>2020-05-17T12:15:50Z</time>
      </trkpt>
      <trkpt lat="47.1432" lon="-1.6771">
        <ele>11.26</ele>
        <time>2020-05-17T12:15:52Z</time>
      </trkpt>
      <trkpt lat="47.14316" lon="-1.67696">
        <ele>11.29</ele>
        <time>2020-05-17T12:15:54Z</time>
      </trkpt>
      <trkpt lat="47.14312" lon="-1.67678">
        <ele>12.44</ele>
        <time>2020-05-17T12:15:56Z</time>
      </trkpt>
      <trkpt lat="47.1431" lon="-1.67663">
        <ele>14.8</ele>
        <time>2020-05-17T12:15:58Z</time>
      </trkpt>
      <trkpt lat="47.14307" lon="-1.67647">
        <ele>16.19</ele>
        <time>2020-05-17T12:16:00Z</time>
      </trkpt>
      <trkpt lat="47.14305" lon="-1.67632">
        <ele>15.95</ele>
        <time>2020-05-17T12:16:02Z</time>
      </trkpt>
      <trkpt lat="47.14303" lon="-1.67611">
        <ele>15.6</ele>
        <time>2020-05-17T12:16:04Z</time>
      </trkpt>
      <trkpt lat="47.14302" lon="-1.67591">
        <ele>14.54</ele>
        <time>2020-05-17T12:16:06Z</time>
      </trkpt>
      <trkpt lat="47.14301" lon="-1.67571">
        <ele>14.36</ele>
        <time>2020-05-17T12:16:08Z</time>
      </trkpt>
      <trkpt lat="47.143" lon="-1.67557">
        <ele>13.36</ele>
        <time>2020-05-17T12:16:10Z</time>
      </trkpt>
      <trkpt lat="47.14298" lon="-1.67541">
        <ele>11.93</ele>
        <time>2020-05-17T12:16:12Z</time>
      </trkpt>
      <trkpt lat="47.14296" lon="-1.67522">
        <ele>11.61</ele>
        <time>2020-05-17T12:16:14Z</time>
      </trkpt>
      <trkpt lat="47.14293" lon="-1.67509">
        <ele>11.99</ele>
        <time>2020-05-17T12:16:16Z</time>
      </trkpt>
      <trkpt lat="47.1429" lon="-1.67494">
        <ele>10.4</ele>
        <time>2020-05-17T12:16:18Z</time>
      </trkpt>
      <trkpt lat="47.14286" lon="-1.67476">
        <ele>8.97</ele>
        <time>2020-05-17T12:16:20Z</time>
      </trkpt>
      <trkpt lat="47.14283" lon="-1.67459">
        <ele>7.28</ele>
        <time>2020-05-17T12:16:22Z</time>
      </trkpt>
      <trkpt lat="47.14277" lon="-1.67441">
        <ele>6.16</ele>
        <time>2020-05-17T12:16:24Z</time>
      </trkpt>
      <trkpt lat="47.14271" lon="-1.67425">
        <ele>6.65</ele>
        <time>2020-05-17T12:16:26Z</time>
      </trkpt>
      <trkpt lat="47.14266" lon="-1.67413">
        <ele>8.26</ele>
        <time>2020-05-17T12:16:28Z</time>
      </trkpt>
      <trkpt lat="47.14261" lon="-1.67399">
        <ele>11.27</ele>
        <time>2020-05-17T12:16:30Z</time>
      </trkpt>
      <trkpt lat="47.14256" lon="-1.67387">
        <ele>13.83</ele>
        <time>2020-05-17T12:16:32Z</time>
      </trkpt>
      <trkpt lat="47.14249" lon="-1.67369">
        <ele>15.17</ele>
        <time>2020-05-17T12:16:35Z</time>
      </trkpt>
      <trkpt lat="47.14242" lon="-1.67354">
        <ele>15.39</ele>
        <time>2020-05-17T12:16:38Z</time>
      </trkpt>
      <trkpt lat="47.14238" lon="-1.67342">
        <ele>16.23</ele>
        <time>2020-05-17T12:16:40Z</time>
      </trkpt>
      <trkpt lat="47.1423" lon="-1.67325">
        <ele>14.88</ele>
        <time>2020-05-17T12:16:43Z</time>
      </trkpt>
      <trkpt lat="47.14223" lon="-1.67309">
        <ele>13.65</ele>
        <time>2020-05-17T12:16:46Z</time>
      </trkpt>
      <trkpt lat="47.14218" lon="-1.67296">
        <ele>13.05</ele>
        <time>2020-05-17T12:16:49Z</time>
      </trkpt>
      <trkpt lat="47.14212" lon="-1.67285">
        <ele>12.74</ele>
        <time>2020-05-17T12:16:54Z</time>
      </trkpt>
      <trkpt lat="47.14205" lon="-1.67272">
        <ele>12.11</ele>
        <time>2020-05-17T12:16:57Z</time>
      </trkpt>
      <trkpt lat="47.142" lon="-1.67257">
        <ele>11.49</ele>
        <time>2020-05-17T12:16:59Z</time>
      </trkpt>
      <trkpt lat="47.14196" lon="-1.67242">
        <ele>11.73</ele>
        <time>2020-05-17T12:17:01Z</time>
      </trkpt>
      <trkpt lat="47.14193" lon="-1.67226">
        <ele>12.71</ele>
        <time>2020-05-17T12:17:03Z</time>
      </trkpt>
      <trkpt lat="47.1419" lon="-1.6721">
        <ele>14</ele>
        <time>2020-05-17T12:17:05Z</time>
      </trkpt>
      <trkpt lat="47.14187" lon="-1.67194">
        <ele>15.11</ele>
        <time>2020-05-17T12:17:07Z</time>
      </trkpt>
      <trkpt lat="47.14183" lon="-1.67176">
        <ele>15.81</ele>
        <time>2020-05-17T12:17:09Z</time>
      </trkpt>
      <trkpt lat="47.1418" lon="-1.6716">
        <ele>16.47</ele>
        <time>2020-05-17T12:17:11Z</time>
      </trkpt>
      <trkpt lat="47.14176" lon="-1.67142">
        <ele>16.24</ele>
        <time>2020-05-17T12:17:13Z</time>
      </trkpt>
      <trkpt lat="47.14172" lon="-1.67121">
        <ele>15.4</ele>
        <time>2020-05-17T12:17:15Z</time>
      </trkpt>
      <trkpt lat="47.14169" lon="-1.67103">
        <ele>14.6</ele>
        <time>2020-05-17T12:17:17Z</time>
      </trkpt>
      <trkpt lat="47.14167" lon="-1.67085">
        <ele>13.76</ele>
        <time>2020-05-17T12:17:19Z</time>
      </trkpt>
      <trkpt lat="47.14165" lon="-1.67067">
        <ele>13.23</ele>
        <time>2020-05-17T12:17:21Z</time>
      </trkpt>
      <trkpt lat="47.14163" lon="-1.67045">
        <ele>12.53</ele>
        <time>2020-05-17T12:17:23Z</time>
      </trkpt>
      <trkpt lat="47.14161" lon="-1.67029">
        <ele>12.18</ele>
        <time>2020-05-17T12:17:25Z</time>
      </trkpt>
      <trkpt lat="47.1416" lon="-1.67009">
        <ele>11.84</ele>
        <time>2020-05-17T12:17:27Z</time>
      </trkpt>
      <trkpt lat="47.14159" lon="-1.6699">
        <ele>12.49</ele>
        <time>2020-05-17T12:17:29Z</time>
      </trkpt>
      <trkpt lat="47.14158" lon="-1.66969">
        <ele>12.24</ele>
        <time>2020-05-17T12:17:31Z</time>
      </trkpt>
      <trkpt lat="47.14159" lon="-1.6695">
        <ele>11.85</ele>
        <time>2020-05-17T12:17:33Z</time>
      </trkpt>
      <trkpt lat="47.14161" lon="-1.66931">
        <ele>11.32</ele>
        <time>2020-05-17T12:17:35Z</time>
      </trkpt>
      <trkpt lat="47.14165" lon="-1.66911">
        <ele>11.79</ele>
        <time>2020-05-17T12:17:37Z</time>
      </trkpt>
      <trkpt lat="47.14171" lon="-1.66889">
        <ele>10.92</ele>
        <time>2020-05-17T12:17:39Z</time>
      </trkpt>
      <trkpt lat="47.14177" lon="-1.66871">
        <ele>10.7</ele>
        <time>2020-05-17T12:17:41Z</time>
      </trkpt>
      <trkpt lat="47.14181" lon="-1.66856">
        <ele>10.6</ele>
        <time>2020-05-17T12:17:43Z</time>
      </trkpt>
      <trkpt lat="47.14187" lon="-1.66841">
        <ele>10.54</ele>
        <time>2020-05-17T12:17:45Z</time>
      </trkpt>
      <trkpt lat="47.14193" lon="-1.66823">
        <ele>10.48</ele>
        <time>2020-05-17T12:17:47Z</time>
      </trkpt>
      <trkpt lat="47.14199" lon="-1.66804">
        <ele>10.36</ele>
        <time>2020-05-17T12:17:49Z</time>
      </trkpt>
      <trkpt lat="47.14206" lon="-1.66786">
        <ele>10.03</ele>
        <time>2020-05-17T12:17:51Z</time>
      </trkpt>
      <trkpt lat="47.14213" lon="-1.66769">
        <ele>9.85</ele>
        <time>2020-05-17T12:17:53Z</time>
      </trkpt>
      <trkpt lat="47.14219" lon="-1.66753">
        <ele>9.1</ele>
        <time>2020-05-17T12:17:55Z</time>
      </trkpt>
      <trkpt lat="47.14225" lon="-1.66737">
        <ele>9.61</ele>
        <time>2020-05-17T12:17:57Z</time>
      </trkpt>
      <trkpt lat="47.14231" lon="-1.66717">
        <ele>9.37</ele>
        <time>2020-05-17T12:17:59Z</time>
      </trkpt>
      <trkpt lat="47.14236" lon="-1.66701">
        <ele>9.16</ele>
        <time>2020-05-17T12:18:01Z</time>
      </trkpt>
      <trkpt lat="47.14241" lon="-1.66687">
        <ele>9.61</ele>
        <time>2020-05-17T12:18:03Z</time>
      </trkpt>
      <trkpt lat="47.14246" lon="-1.66671">
        <ele>9.58</ele>
        <time>2020-05-17T12:18:05Z</time>
      </trkpt>
      <trkpt lat="47.14251" lon="-1.66654">
        <ele>9.66</ele>
        <time>2020-05-17T12:18:07Z</time>
      </trkpt>
      <trkpt lat="47.14255" lon="-1.6664">
        <ele>10.39</ele>
        <time>2020-05-17T12:18:09Z</time>
      </trkpt>
      <trkpt lat="47.14261" lon="-1.66623">
        <ele>10.31</ele>
        <time>2020-05-17T12:18:11Z</time>
      </trkpt>
      <trkpt lat="47.14266" lon="-1.66604">
        <ele>11.37</ele>
        <time>2020-05-17T12:18:13Z</time>
      </trkpt>
      <trkpt lat="47.14271" lon="-1.66589">
        <ele>11.95</ele>
        <time>2020-05-17T12:18:15Z</time>
      </trkpt>
      <trkpt lat="47.14275" lon="-1.66574">
        <ele>12.7</ele>
        <time>2020-05-17T12:18:17Z</time>
      </trkpt>
      <trkpt lat="47.14278" lon="-1.66561">
        <ele>13.15</ele>
        <time>2020-05-17T12:18:19Z</time>
      </trkpt>
      <trkpt lat="47.14282" lon="-1.66544">
        <ele>13.08</ele>
        <time>2020-05-17T12:18:22Z</time>
      </trkpt>
      <trkpt lat="47.14286" lon="-1.66528">
        <ele>13.19</ele>
        <time>2020-05-17T12:18:24Z</time>
      </trkpt>
      <trkpt lat="47.14291" lon="-1.66512">
        <ele>13.5</ele>
        <time>2020-05-17T12:18:26Z</time>
      </trkpt>
      <trkpt lat="47.14295" lon="-1.66494">
        <ele>13.06</ele>
        <time>2020-05-17T12:18:28Z</time>
      </trkpt>
      <trkpt lat="47.143" lon="-1.66477">
        <ele>13.18</ele>
        <time>2020-05-17T12:18:30Z</time>
      </trkpt>
      <trkpt lat="47.14304" lon="-1.66462">
        <ele>13.93</ele>
        <time>2020-05-17T12:18:32Z</time>
      </trkpt>
      <trkpt lat="47.14308" lon="-1.66445">
        <ele>13.2</ele>
        <time>2020-05-17T12:18:34Z</time>
      </trkpt>
      <trkpt lat="47.14312" lon="-1.66428">
        <ele>11.94</ele>
        <time>2020-05-17T12:18:36Z</time>
      </trkpt>
      <trkpt lat="47.14316" lon="-1.66411">
        <ele>12.54</ele>
        <time>2020-05-17T12:18:38Z</time>
      </trkpt>
      <trkpt lat="47.14319" lon="-1.66396">
        <ele>12.6</ele>
        <time>2020-05-17T12:18:40Z</time>
      </trkpt>
      <trkpt lat="47.14323" lon="-1.66381">
        <ele>14.53</ele>
        <time>2020-05-17T12:18:42Z</time>
      </trkpt>
      <trkpt lat="47.14327" lon="-1.66366">
        <ele>16.33</ele>
        <time>2020-05-17T12:18:44Z</time>
      </trkpt>
      <trkpt lat="47.14331" lon="-1.6635">
        <ele>16.45</ele>
        <time>2020-05-17T12:18:46Z</time>
      </trkpt>
      <trkpt lat="47.14335" lon="-1.66333">
        <ele>16.33</ele>
        <time>2020-05-17T12:18:48Z</time>
      </trkpt>
      <trkpt lat="47.1434" lon="-1.66312">
        <ele>15.73</ele>
        <time>2020-05-17T12:18:50Z</time>
      </trkpt>
      <trkpt lat="47.14343" lon="-1.66298">
        <ele>14.58</ele>
        <time>2020-05-17T12:18:52Z</time>
      </trkpt>
      <trkpt lat="47.14348" lon="-1.66278">
        <ele>14.5</ele>
        <time>2020-05-17T12:18:54Z</time>
      </trkpt>
      <trkpt lat="47.14351" lon="-1.66264">
        <ele>13.87</ele>
        <time>2020-05-17T12:18:56Z</time>
      </trkpt>
      <trkpt lat="47.14355" lon="-1.66246">
        <ele>12.6</ele>
        <time>2020-05-17T12:18:58Z</time>
      </trkpt>
      <trkpt lat="47.14358" lon="-1.66232">
        <ele>11.61</ele>
        <time>2020-05-17T12:19:00Z</time>
      </trkpt>
      <trkpt lat="47.14362" lon="-1.66215">
        <ele>12.71</ele>
        <time>2020-05-17T12:19:02Z</time>
      </trkpt>
      <trkpt lat="47.14367" lon="-1.662">
        <ele>13.55</ele>
        <time>2020-05-17T12:19:04Z</time>
      </trkpt>
      <trkpt lat="47.1437" lon="-1.66183">
        <ele>13.65</ele>
        <time>2020-05-17T12:19:06Z</time>
      </trkpt>
      <trkpt lat="47.14373" lon="-1.66167">
        <ele>14.98</ele>
        <time>2020-05-17T12:19:08Z</time>
      </trkpt>
      <trkpt lat="47.14376" lon="-1.66149">
        <ele>16.15</ele>
        <time>2020-05-17T12:19:10Z</time>
      </trkpt>
      <trkpt lat="47.14379" lon="-1.6613">
        <ele>16.38</ele>
        <time>2020-05-17T12:19:12Z</time>
      </trkpt>
      <trkpt lat="47.1438" lon="-1.66111">
        <ele>15.27</ele>
        <time>2020-05-17T12:19:14Z</time>
      </trkpt>
      <trkpt lat="47.14382" lon="-1.66091">
        <ele>13.89</ele>
        <time>2020-05-17T12:19:16Z</time>
      </trkpt>
      <trkpt lat="47.14383" lon="-1.66074">
        <ele>13.65</ele>
        <time>2020-05-17T12:19:18Z</time>
      </trkpt>
      <trkpt lat="47.14385" lon="-1.66056">
        <ele>13.78</ele>
        <time>2020-05-17T12:19:20Z</time>
      </trkpt>
      <trkpt lat="47.14387" lon="-1.66039">
        <ele>13.79</ele>
        <time>2020-05-17T12:19:22Z</time>
      </trkpt>
      <trkpt lat="47.14388" lon="-1.66019">
        <ele>14.34</ele>
        <time>2020-05-17T12:19:24Z</time>
      </trkpt>
      <trkpt lat="47.14389" lon="-1.66002">
        <ele>14.88</ele>
        <time>2020-05-17T12:19:26Z</time>
      </trkpt>
      <trkpt lat="47.1439" lon="-1.65983">
        <ele>15.06</ele>
        <time>2020-05-17T12:19:28Z</time>
      </trkpt>
      <trkpt lat="47.14391" lon="-1.65963">
        <ele>15.23</ele>
        <time>2020-05-17T12:19:30Z</time>
      </trkpt>
      <trkpt lat="47.14391" lon="-1.65944">
        <ele>14.51</ele>
        <time>2020-05-17T12:19:32Z</time>
      </trkpt>
      <trkpt lat="47.14392" lon="-1.65924">
        <ele>14.07</ele>
        <time>2020-05-17T12:19:34Z</time>
      </trkpt>
      <trkpt lat="47.14393" lon="-1.65902">
        <ele>13.66</ele>
        <time>2020-05-17T12:19:36Z</time>
      </trkpt>
      <trkpt lat="47.14394" lon="-1.65885">
        <ele>14.53</ele>
        <time>2020-05-17T12:19:38Z</time>
      </trkpt>
      <trkpt lat="47.14395" lon="-1.65864">
        <ele>14.2</ele>
        <time>2020-05-17T12:19:40Z</time>
      </trkpt>
      <trkpt lat="47.14397" lon="-1.65842">
        <ele>13.77</ele>
        <time>2020-05-17T12:19:42Z</time>
      </trkpt>
      <trkpt lat="47.14399" lon="-1.65825">
        <ele>14.18</ele>
        <time>2020-05-17T12:19:44Z</time>
      </trkpt>
      <trkpt lat="47.14402" lon="-1.65805">
        <ele>14.7</ele>
        <time>2020-05-17T12:19:46Z</time>
      </trkpt>
      <trkpt lat="47.14405" lon="-1.65787">
        <ele>14.59</ele>
        <time>2020-05-17T12:19:48Z</time>
      </trkpt>
      <trkpt lat="47.14409" lon="-1.65765">
        <ele>13.7</ele>
        <time>2020-05-17T12:19:50Z</time>
      </trkpt>
      <trkpt lat="47.14412" lon="-1.65744">
        <ele>12</ele>
        <time>2020-05-17T12:19:52Z</time>
      </trkpt>
      <trkpt lat="47.14415" lon="-1.65722">
        <ele>11.47</ele>
        <time>2020-05-17T12:19:54Z</time>
      </trkpt>
      <trkpt lat="47.14418" lon="-1.65703">
        <ele>10.34</ele>
        <time>2020-05-17T12:19:56Z</time>
      </trkpt>
      <trkpt lat="47.14424" lon="-1.65686">
        <ele>9.67</ele>
        <time>2020-05-17T12:19:58Z</time>
      </trkpt>
      <trkpt lat="47.14429" lon="-1.65667">
        <ele>10.25</ele>
        <time>2020-05-17T12:20:00Z</time>
      </trkpt>
      <trkpt lat="47.14435" lon="-1.65648">
        <ele>11.89</ele>
        <time>2020-05-17T12:20:02Z</time>
      </trkpt>
      <trkpt lat="47.1444" lon="-1.65633">
        <ele>13.14</ele>
        <time>2020-05-17T12:20:04Z</time>
      </trkpt>
      <trkpt lat="47.14446" lon="-1.65617">
        <ele>14.57</ele>
        <time>2020-05-17T12:20:06Z</time>
      </trkpt>
      <trkpt lat="47.14453" lon="-1.65599">
        <ele>15.18</ele>
        <time>2020-05-17T12:20:08Z</time>
      </trkpt>
      <trkpt lat="47.1446" lon="-1.65582">
        <ele>14.89</ele>
        <time>2020-05-17T12:20:10Z</time>
      </trkpt>
      <trkpt lat="47.14466" lon="-1.65566">
        <ele>15.04</ele>
        <time>2020-05-17T12:20:12Z</time>
      </trkpt>
      <trkpt lat="47.14474" lon="-1.65548">
        <ele>15.02</ele>
        <time>2020-05-17T12:20:14Z</time>
      </trkpt>
      <trkpt lat="47.1448" lon="-1.65534">
        <ele>14.62</ele>
        <time>2020-05-17T12:20:16Z</time>
      </trkpt>
      <trkpt lat="47.14487" lon="-1.65516">
        <ele>13.04</ele>
        <time>2020-05-17T12:20:18Z</time>
      </trkpt>
      <trkpt lat="47.14492" lon="-1.65504">
        <ele>11.81</ele>
        <time>2020-05-17T12:20:20Z</time>
      </trkpt>
      <trkpt lat="47.14498" lon="-1.65489">
        <ele>10.89</ele>
        <time>2020-05-17T12:20:22Z</time>
      </trkpt>
      <trkpt lat="47.14505" lon="-1.65472">
        <ele>10.52</ele>
        <time>2020-05-17T12:20:24Z</time>
      </trkpt>
      <trkpt lat="47.14511" lon="-1.65456">
        <ele>9.86</ele>
        <time>2020-05-17T12:20:26Z</time>
      </trkpt>
      <trkpt lat="47.14517" lon="-1.65441">
        <ele>10.13</ele>
        <time>2020-05-17T12:20:28Z</time>
      </trkpt>
      <trkpt lat="47.14522" lon="-1.65425">
        <ele>11.89</ele>
        <time>2020-05-17T12:20:30Z</time>
      </trkpt>
      <trkpt lat="47.14527" lon="-1.65408">
        <ele>14.22</ele>
        <time>2020-05-17T12:20:32Z</time>
      </trkpt>
      <trkpt lat="47.14525" lon="-1.6539">
        <ele>15.86</ele>
        <time>2020-05-17T12:20:34Z</time>
      </trkpt>
      <trkpt lat="47.14529" lon="-1.65372">
        <ele>16.03</ele>
        <time>2020-05-17T12:20:36Z</time>
      </trkpt>
      <trkpt lat="47.14534" lon="-1.65355">
        <ele>15.21</ele>
        <time>2020-05-17T12:20:38Z</time>
      </trkpt>
      <trkpt lat="47.14537" lon="-1.6534">
        <ele>14.57</ele>
        <time>2020-05-17T12:20:40Z</time>
      </trkpt>
      <trkpt lat="47.14542" lon="-1.65324">
        <ele>13.82</ele>
        <time>2020-05-17T12:20:42Z</time>
      </trkpt>
      <trkpt lat="47.14549" lon="-1.65311">
        <ele>13.64</ele>
        <time>2020-05-17T12:20:44Z</time>
      </trkpt>
      <trkpt lat="47.14555" lon="-1.65295">
        <ele>14.27</ele>
        <time>2020-05-17T12:20:46Z</time>
      </trkpt>
      <trkpt lat="47.14558" lon="-1.65277">
        <ele>13.35</ele>
        <time>2020-05-17T12:20:48Z</time>
      </trkpt>
      <trkpt lat="47.14561" lon="-1.65259">
        <ele>11.98</ele>
        <time>2020-05-17T12:20:50Z</time>
      </trkpt>
      <trkpt lat="47.14566" lon="-1.65241">
        <ele>11.07</ele>
        <time>2020-05-17T12:20:52Z</time>
      </trkpt>
      <trkpt lat="47.14569" lon="-1.65227">
        <ele>11.94</ele>
        <time>2020-05-17T12:20:54Z</time>
      </trkpt>
      <trkpt lat="47.14573" lon="-1.6521">
        <ele>11.63</ele>
        <time>2020-05-17T12:20:56Z</time>
      </trkpt>
      <trkpt lat="47.14576" lon="-1.65195">
        <ele>12.03</ele>
        <time>2020-05-17T12:20:58Z</time>
      </trkpt>
      <trkpt lat="47.1458" lon="-1.65178">
        <ele>11.44</ele>
        <time>2020-05-17T12:21:00Z</time>
      </trkpt>
      <trkpt lat="47.14585" lon="-1.65159">
        <ele>11.19</ele>
        <time>2020-05-17T12:21:02Z</time>
      </trkpt>
      <trkpt lat="47.1459" lon="-1.65146">
        <ele>12.11</ele>
        <time>2020-05-17T12:21:04Z</time>
      </trkpt>
      <trkpt lat="47.14595" lon="-1.65132">
        <ele>12.77</ele>
        <time>2020-05-17T12:21:06Z</time>
      </trkpt>
      <trkpt lat="47.14602" lon="-1.65114">
        <ele>13.46</ele>
        <time>2020-05-17T12:21:08Z</time>
      </trkpt>
      <trkpt lat="47.14608" lon="-1.65097">
        <ele>14.48</ele>
        <time>2020-05-17T12:21:10Z</time>
      </trkpt>
      <trkpt lat="47.14615" lon="-1.65082">
        <ele>14.9</ele>
        <time>2020-05-17T12:21:12Z</time>
      </trkpt>
      <trkpt lat="47.14621" lon="-1.65065">
        <ele>15.52</ele>
        <time>2020-05-17T12:21:14Z</time>
      </trkpt>
      <trkpt lat="47.14626" lon="-1.65051">
        <ele>16.19</ele>
        <time>2020-05-17T12:21:16Z</time>
      </trkpt>
      <trkpt lat="47.14633" lon="-1.65036">
        <ele>16.39</ele>
        <time>2020-05-17T12:21:18Z</time>
      </trkpt>
      <trkpt lat="47.1464" lon="-1.65021">
        <ele>15.89</ele>
        <time>2020-05-17T12:21:20Z</time>
      </trkpt>
      <trkpt lat="47.14645" lon="-1.65008">
        <ele>15.47</ele>
        <time>2020-05-17T12:21:22Z</time>
      </trkpt>
      <trkpt lat="47.14651" lon="-1.64991">
        <ele>14.78</ele>
        <time>2020-05-17T12:21:24Z</time>
      </trkpt>
      <trkpt lat="47.14656" lon="-1.64977">
        <ele>14.08</ele>
        <time>2020-05-17T12:21:26Z</time>
      </trkpt>
      <trkpt lat="47.14662" lon="-1.64959">
        <ele>12.38</ele>
        <time>2020-05-17T12:21:28Z</time>
      </trkpt>
      <trkpt lat="47.14669" lon="-1.64942">
        <ele>12.68</ele>
        <time>2020-05-17T12:21:30Z</time>
      </trkpt>
      <trkpt lat="47.14675" lon="-1.64925">
        <ele>14.31</ele>
        <time>2020-05-17T12:21:32Z</time>
      </trkpt>
      <trkpt lat="47.1468" lon="-1.64909">
        <ele>16.58</ele>
        <time>2020-05-17T12:21:35Z</time>
      </trkpt>
      <trkpt lat="47.14684" lon="-1.64895">
        <ele>18.26</ele>
        <time>2020-05-17T12:21:37Z</time>
      </trkpt>
      <trkpt lat="47.14688" lon="-1.64881">
        <ele>20.12</ele>
        <time>2020-05-17T12:21:39Z</time>
      </trkpt>
      <trkpt lat="47.14692" lon="-1.64868">
        <ele>21.09</ele>
        <time>2020-05-17T12:21:41Z</time>
      </trkpt>
      <trkpt lat="47.14696" lon="-1.64851">
        <ele>21.91</ele>
        <time>2020-05-17T12:21:43Z</time>
      </trkpt>
      <trkpt lat="47.147" lon="-1.64835">
        <ele>22.66</ele>
        <time>2020-05-17T12:21:45Z</time>
      </trkpt>
      <trkpt lat="47.14704" lon="-1.64819">
        <ele>22.83</ele>
        <time>2020-05-17T12:21:47Z</time>
      </trkpt>
      <trkpt lat="47.1471" lon="-1.64802">
        <ele>21.85</ele>
        <time>2020-05-17T12:21:49Z</time>
      </trkpt>
      <trkpt lat="47.14713" lon="-1.64786">
        <ele>20.2</ele>
        <time>2020-05-17T12:21:51Z</time>
      </trkpt>
      <trkpt lat="47.14717" lon="-1.6477">
        <ele>18.47</ele>
        <time>2020-05-17T12:21:53Z</time>
      </trkpt>
      <trkpt lat="47.14721" lon="-1.64757">
        <ele>17.28</ele>
        <time>2020-05-17T12:21:55Z</time>
      </trkpt>
      <trkpt lat="47.14725" lon="-1.64739">
        <ele>17.69</ele>
        <time>2020-05-17T12:21:57Z</time>
      </trkpt>
      <trkpt lat="47.14728" lon="-1.64724">
        <ele>18.72</ele>
        <time>2020-05-17T12:21:59Z</time>
      </trkpt>
      <trkpt lat="47.14732" lon="-1.64707">
        <ele>17.62</ele>
        <time>2020-05-17T12:22:01Z</time>
      </trkpt>
      <trkpt lat="47.14735" lon="-1.6469">
        <ele>16.18</ele>
        <time>2020-05-17T12:22:03Z</time>
      </trkpt>
      <trkpt lat="47.14738" lon="-1.64674">
        <ele>15.24</ele>
        <time>2020-05-17T12:22:05Z</time>
      </trkpt>
      <trkpt lat="47.1474" lon="-1.64658">
        <ele>14.17</ele>
        <time>2020-05-17T12:22:07Z</time>
      </trkpt>
      <trkpt lat="47.14743" lon="-1.64641">
        <ele>14.39</ele>
        <time>2020-05-17T12:22:09Z</time>
      </trkpt>
      <trkpt lat="47.14745" lon="-1.64625">
        <ele>13.8</ele>
        <time>2020-05-17T12:22:11Z</time>
      </trkpt>
      <trkpt lat="47.14747" lon="-1.6461">
        <ele>14.9</ele>
        <time>2020-05-17T12:22:13Z</time>
      </trkpt>
      <trkpt lat="47.14749" lon="-1.64593">
        <ele>16.06</ele>
        <time>2020-05-17T12:22:15Z</time>
      </trkpt>
      <trkpt lat="47.14751" lon="-1.64577">
        <ele>16.45</ele>
        <time>2020-05-17T12:22:17Z</time>
      </trkpt>
      <trkpt lat="47.14755" lon="-1.64555">
        <ele>17.31</ele>
        <time>2020-05-17T12:22:20Z</time>
      </trkpt>
      <trkpt lat="47.14758" lon="-1.64539">
        <ele>17.86</ele>
        <time>2020-05-17T12:22:22Z</time>
      </trkpt>
      <trkpt lat="47.1476" lon="-1.64524">
        <ele>16.63</ele>
        <time>2020-05-17T12:22:24Z</time>
      </trkpt>
      <trkpt lat="47.14763" lon="-1.64508">
        <ele>15.97</ele>
        <time>2020-05-17T12:22:26Z</time>
      </trkpt>
      <trkpt lat="47.14766" lon="-1.64491">
        <ele>15.85</ele>
        <time>2020-05-17T12:22:28Z</time>
      </trkpt>
      <trkpt lat="47.14769" lon="-1.64473">
        <ele>17.5</ele>
        <time>2020-05-17T12:22:30Z</time>
      </trkpt>
      <trkpt lat="47.14772" lon="-1.64457">
        <ele>19.18</ele>
        <time>2020-05-17T12:22:32Z</time>
      </trkpt>
      <trkpt lat="47.14775" lon="-1.64443">
        <ele>19.17</ele>
        <time>2020-05-17T12:22:34Z</time>
      </trkpt>
      <trkpt lat="47.14777" lon="-1.64423">
        <ele>18.56</ele>
        <time>2020-05-17T12:22:36Z</time>
      </trkpt>
      <trkpt lat="47.14781" lon="-1.64405">
        <ele>17.77</ele>
        <time>2020-05-17T12:22:38Z</time>
      </trkpt>
      <trkpt lat="47.14785" lon="-1.6439">
        <ele>16.91</ele>
        <time>2020-05-17T12:22:40Z</time>
      </trkpt>
      <trkpt lat="47.14788" lon="-1.64375">
        <ele>16.67</ele>
        <time>2020-05-17T12:22:42Z</time>
      </trkpt>
      <trkpt lat="47.14792" lon="-1.64358">
        <ele>16.95</ele>
        <time>2020-05-17T12:22:44Z</time>
      </trkpt>
      <trkpt lat="47.14796" lon="-1.64343">
        <ele>16.87</ele>
        <time>2020-05-17T12:22:46Z</time>
      </trkpt>
      <trkpt lat="47.148" lon="-1.64326">
        <ele>16.88</ele>
        <time>2020-05-17T12:22:48Z</time>
      </trkpt>
      <trkpt lat="47.14804" lon="-1.64313">
        <ele>17.61</ele>
        <time>2020-05-17T12:22:50Z</time>
      </trkpt>
      <trkpt lat="47.1481" lon="-1.64294">
        <ele>19.04</ele>
        <time>2020-05-17T12:22:52Z</time>
      </trkpt>
      <trkpt lat="47.14813" lon="-1.6428">
        <ele>20.2</ele>
        <time>2020-05-17T12:22:54Z</time>
      </trkpt>
      <trkpt lat="47.14817" lon="-1.64266">
        <ele>22.69</ele>
        <time>2020-05-17T12:22:56Z</time>
      </trkpt>
      <trkpt lat="47.14823" lon="-1.64249">
        <ele>24.57</ele>
        <time>2020-05-17T12:22:58Z</time>
      </trkpt>
      <trkpt lat="47.14828" lon="-1.64233">
        <ele>24.04</ele>
        <time>2020-05-17T12:23:00Z</time>
      </trkpt>
      <trkpt lat="47.14834" lon="-1.64214">
        <ele>22.36</ele>
        <time>2020-05-17T12:23:03Z</time>
      </trkpt>
      <trkpt lat="47.1484" lon="-1.64199">
        <ele>20.27</ele>
        <time>2020-05-17T12:23:05Z</time>
      </trkpt>
      <trkpt lat="47.14844" lon="-1.64182">
        <ele>18.43</ele>
        <time>2020-05-17T12:23:07Z</time>
      </trkpt>
      <trkpt lat="47.14849" lon="-1.64166">
        <ele>17.19</ele>
        <time>2020-05-17T12:23:09Z</time>
      </trkpt>
      <trkpt lat="47.14854" lon="-1.6415">
        <ele>17.18</ele>
        <time>2020-05-17T12:23:11Z</time>
      </trkpt>
      <trkpt lat="47.14859" lon="-1.64135">
        <ele>17.76</ele>
        <time>2020-05-17T12:23:13Z</time>
      </trkpt>
      <trkpt lat="47.14865" lon="-1.6412">
        <ele>18.49</ele>
        <time>2020-05-17T12:23:15Z</time>
      </trkpt>
      <trkpt lat="47.14871" lon="-1.64103">
        <ele>18.94</ele>
        <time>2020-05-17T12:23:17Z</time>
      </trkpt>
      <trkpt lat="47.14877" lon="-1.64088">
        <ele>19.68</ele>
        <time>2020-05-17T12:23:19Z</time>
      </trkpt>
      <trkpt lat="47.14881" lon="-1.64075">
        <ele>19.47</ele>
        <time>2020-05-17T12:23:21Z</time>
      </trkpt>
      <trkpt lat="47.14883" lon="-1.64061">
        <ele>18.85</ele>
        <time>2020-05-17T12:23:23Z</time>
      </trkpt>
      <trkpt lat="47.14886" lon="-1.64045">
        <ele>18.12</ele>
        <time>2020-05-17T12:23:25Z</time>
      </trkpt>
      <trkpt lat="47.14893" lon="-1.6403">
        <ele>18.26</ele>
        <time>2020-05-17T12:23:27Z</time>
      </trkpt>
      <trkpt lat="47.14902" lon="-1.64024">
        <ele>18.78</ele>
        <time>2020-05-17T12:23:29Z</time>
      </trkpt>
      <trkpt lat="47.14913" lon="-1.64012">
        <ele>20.96</ele>
        <time>2020-05-17T12:23:32Z</time>
      </trkpt>
      <trkpt lat="47.14921" lon="-1.63997">
        <ele>21.14</ele>
        <time>2020-05-17T12:23:34Z</time>
      </trkpt>
      <trkpt lat="47.14928" lon="-1.63984">
        <ele>21.09</ele>
        <time>2020-05-17T12:23:36Z</time>
      </trkpt>
      <trkpt lat="47.14936" lon="-1.6397">
        <ele>21.98</ele>
        <time>2020-05-17T12:23:38Z</time>
      </trkpt>
      <trkpt lat="47.14945" lon="-1.63955">
        <ele>23.64</ele>
        <time>2020-05-17T12:23:40Z</time>
      </trkpt>
      <trkpt lat="47.14953" lon="-1.63942">
        <ele>24.54</ele>
        <time>2020-05-17T12:23:42Z</time>
      </trkpt>
      <trkpt lat="47.1496" lon="-1.6393">
        <ele>24.23</ele>
        <time>2020-05-17T12:23:44Z</time>
      </trkpt>
      <trkpt lat="47.14969" lon="-1.63915">
        <ele>24.7</ele>
        <time>2020-05-17T12:23:46Z</time>
      </trkpt>
      <trkpt lat="47.14977" lon="-1.63905">
        <ele>25.94</ele>
        <time>2020-05-17T12:23:48Z</time>
      </trkpt>
      <trkpt lat="47.14986" lon="-1.63894">
        <ele>26.11</ele>
        <time>2020-05-17T12:23:50Z</time>
      </trkpt>
      <trkpt lat="47.14994" lon="-1.63883">
        <ele>26.31</ele>
        <time>2020-05-17T12:23:52Z</time>
      </trkpt>
      <trkpt lat="47.15002" lon="-1.63872">
        <ele>26.58</ele>
        <time>2020-05-17T12:23:54Z</time>
      </trkpt>
      <trkpt lat="47.15012" lon="-1.6386">
        <ele>26.91</ele>
        <time>2020-05-17T12:23:56Z</time>
      </trkpt>
      <trkpt lat="47.1502" lon="-1.63849">
        <ele>27.3</ele>
        <time>2020-05-17T12:23:58Z</time>
      </trkpt>
      <trkpt lat="47.15027" lon="-1.6384">
        <ele>27.76</ele>
        <time>2020-05-17T12:24:00Z</time>
      </trkpt>
      <trkpt lat="47.15034" lon="-1.6383">
        <ele>27.39</ele>
        <time>2020-05-17T12:24:02Z</time>
      </trkpt>
      <trkpt lat="47.15043" lon="-1.6382">
        <ele>26.93</ele>
        <time>2020-05-17T12:24:04Z</time>
      </trkpt>
      <trkpt lat="47.1505" lon="-1.63809">
        <ele>27.05</ele>
        <time>2020-05-17T12:24:06Z</time>
      </trkpt>
      <trkpt lat="47.15059" lon="-1.63797">
        <ele>26.56</ele>
        <time>2020-05-17T12:24:08Z</time>
      </trkpt>
      <trkpt lat="47.15067" lon="-1.63787">
        <ele>25.86</ele>
        <time>2020-05-17T12:24:10Z</time>
      </trkpt>
      <trkpt lat="47.15077" lon="-1.63774">
        <ele>24.82</ele>
        <time>2020-05-17T12:24:12Z</time>
      </trkpt>
      <trkpt lat="47.15086" lon="-1.63764">
        <ele>24.5</ele>
        <time>2020-05-17T12:24:14Z</time>
      </trkpt>
      <trkpt lat="47.15096" lon="-1.63753">
        <ele>25.22</ele>
        <time>2020-05-17T12:24:16Z</time>
      </trkpt>
      <trkpt lat="47.15104" lon="-1.63743">
        <ele>25.05</ele>
        <time>2020-05-17T12:24:18Z</time>
      </trkpt>
      <trkpt lat="47.15113" lon="-1.63735">
        <ele>25.82</ele>
        <time>2020-05-17T12:24:20Z</time>
      </trkpt>
      <trkpt lat="47.15124" lon="-1.63724">
        <ele>27.95</ele>
        <time>2020-05-17T12:24:22Z</time>
      </trkpt>
      <trkpt lat="47.15133" lon="-1.63714">
        <ele>29.33</ele>
        <time>2020-05-17T12:24:24Z</time>
      </trkpt>
      <trkpt lat="47.15142" lon="-1.63704">
        <ele>31.35</ele>
        <time>2020-05-17T12:24:26Z</time>
      </trkpt>
      <trkpt lat="47.1515" lon="-1.63695">
        <ele>32.38</ele>
        <time>2020-05-17T12:24:28Z</time>
      </trkpt>
      <trkpt lat="47.15161" lon="-1.63685">
        <ele>32.52</ele>
        <time>2020-05-17T12:24:30Z</time>
      </trkpt>
      <trkpt lat="47.15169" lon="-1.63677">
        <ele>32.31</ele>
        <time>2020-05-17T12:24:32Z</time>
      </trkpt>
      <trkpt lat="47.1518" lon="-1.63668">
        <ele>32.54</ele>
        <time>2020-05-17T12:24:34Z</time>
      </trkpt>
      <trkpt lat="47.1519" lon="-1.63659">
        <ele>32.31</ele>
        <time>2020-05-17T12:24:36Z</time>
      </trkpt>
      <trkpt lat="47.152" lon="-1.6365">
        <ele>31.09</ele>
        <time>2020-05-17T12:24:38Z</time>
      </trkpt>
      <trkpt lat="47.15209" lon="-1.63642">
        <ele>29.59</ele>
        <time>2020-05-17T12:24:40Z</time>
      </trkpt>
      <trkpt lat="47.15219" lon="-1.63633">
        <ele>27.24</ele>
        <time>2020-05-17T12:24:42Z</time>
      </trkpt>
      <trkpt lat="47.15229" lon="-1.63626">
        <ele>25.83</ele>
        <time>2020-05-17T12:24:44Z</time>
      </trkpt>
      <trkpt lat="47.1524" lon="-1.63617">
        <ele>24.5</ele>
        <time>2020-05-17T12:24:46Z</time>
      </trkpt>
      <trkpt lat="47.15248" lon="-1.63609">
        <ele>22.72</ele>
        <time>2020-05-17T12:24:48Z</time>
      </trkpt>
      <trkpt lat="47.15261" lon="-1.63596">
        <ele>22.59</ele>
        <time>2020-05-17T12:24:51Z</time>
      </trkpt>
      <trkpt lat="47.15271" lon="-1.63586">
        <ele>23.81</ele>
        <time>2020-05-17T12:24:53Z</time>
      </trkpt>
      <trkpt lat="47.1528" lon="-1.63579">
        <ele>24.58</ele>
        <time>2020-05-17T12:24:55Z</time>
      </trkpt>
      <trkpt lat="47.1529" lon="-1.63569">
        <ele>25.2</ele>
        <time>2020-05-17T12:24:57Z</time>
      </trkpt>
      <trkpt lat="47.153" lon="-1.6356">
        <ele>25.05</ele>
        <time>2020-05-17T12:24:59Z</time>
      </trkpt>
      <trkpt lat="47.15309" lon="-1.63552">
        <ele>23.87</ele>
        <time>2020-05-17T12:25:01Z</time>
      </trkpt>
      <trkpt lat="47.15317" lon="-1.63544">
        <ele>23.47</ele>
        <time>2020-05-17T12:25:03Z</time>
      </trkpt>
      <trkpt lat="47.15328" lon="-1.63536">
        <ele>22.25</ele>
        <time>2020-05-17T12:25:05Z</time>
      </trkpt>
      <trkpt lat="47.15338" lon="-1.63529">
        <ele>21.21</ele>
        <time>2020-05-17T12:25:07Z</time>
      </trkpt>
      <trkpt lat="47.15349" lon="-1.63519">
        <ele>21.35</ele>
        <time>2020-05-17T12:25:09Z</time>
      </trkpt>
      <trkpt lat="47.15357" lon="-1.63512">
        <ele>21.33</ele>
        <time>2020-05-17T12:25:11Z</time>
      </trkpt>
      <trkpt lat="47.15368" lon="-1.63501">
        <ele>21.47</ele>
        <time>2020-05-17T12:25:13Z</time>
      </trkpt>
      <trkpt lat="47.15376" lon="-1.63494">
        <ele>20.91</ele>
        <time>2020-05-17T12:25:15Z</time>
      </trkpt>
      <trkpt lat="47.15387" lon="-1.63484">
        <ele>21.04</ele>
        <time>2020-05-17T12:25:17Z</time>
      </trkpt>
      <trkpt lat="47.15397" lon="-1.63477">
        <ele>20.64</ele>
        <time>2020-05-17T12:25:19Z</time>
      </trkpt>
      <trkpt lat="47.15407" lon="-1.63468">
        <ele>21.36</ele>
        <time>2020-05-17T12:25:21Z</time>
      </trkpt>
      <trkpt lat="47.15416" lon="-1.6346">
        <ele>20.91</ele>
        <time>2020-05-17T12:25:23Z</time>
      </trkpt>
      <trkpt lat="47.15428" lon="-1.6345">
        <ele>20.26</ele>
        <time>2020-05-17T12:25:25Z</time>
      </trkpt>
      <trkpt lat="47.15438" lon="-1.63441">
        <ele>20.26</ele>
        <time>2020-05-17T12:25:27Z</time>
      </trkpt>
      <trkpt lat="47.15448" lon="-1.63431">
        <ele>20.77</ele>
        <time>2020-05-17T12:25:29Z</time>
      </trkpt>
      <trkpt lat="47.15456" lon="-1.63422">
        <ele>20.62</ele>
        <time>2020-05-17T12:25:31Z</time>
      </trkpt>
      <trkpt lat="47.15465" lon="-1.63413">
        <ele>20.32</ele>
        <time>2020-05-17T12:25:33Z</time>
      </trkpt>
      <trkpt lat="47.15474" lon="-1.63405">
        <ele>20.16</ele>
        <time>2020-05-17T12:25:35Z</time>
      </trkpt>
      <trkpt lat="47.15487" lon="-1.63394">
        <ele>19.42</ele>
        <time>2020-05-17T12:25:38Z</time>
      </trkpt>
      <trkpt lat="47.15499" lon="-1.63383">
        <ele>18.79</ele>
        <time>2020-05-17T12:25:40Z</time>
      </trkpt>
      <trkpt lat="47.15511" lon="-1.63374">
        <ele>18.37</ele>
        <time>2020-05-17T12:25:42Z</time>
      </trkpt>
      <trkpt lat="47.15522" lon="-1.63366">
        <ele>17.2</ele>
        <time>2020-05-17T12:25:44Z</time>
      </trkpt>
      <trkpt lat="47.15533" lon="-1.63356">
        <ele>17.29</ele>
        <time>2020-05-17T12:25:46Z</time>
      </trkpt>
      <trkpt lat="47.15543" lon="-1.63345">
        <ele>17.96</ele>
        <time>2020-05-17T12:25:48Z</time>
      </trkpt>
      <trkpt lat="47.15553" lon="-1.63336">
        <ele>18.84</ele>
        <time>2020-05-17T12:25:50Z</time>
      </trkpt>
      <trkpt lat="47.15564" lon="-1.63325">
        <ele>18.32</ele>
        <time>2020-05-17T12:25:52Z</time>
      </trkpt>
      <trkpt lat="47.15576" lon="-1.63315">
        <ele>17.01</ele>
        <time>2020-05-17T12:25:54Z</time>
      </trkpt>
      <trkpt lat="47.15587" lon="-1.63304">
        <ele>16.69</ele>
        <time>2020-05-17T12:25:56Z</time>
      </trkpt>
      <trkpt lat="47.15598" lon="-1.63295">
        <ele>16.72</ele>
        <time>2020-05-17T12:25:58Z</time>
      </trkpt>
      <trkpt lat="47.15609" lon="-1.63285">
        <ele>17</ele>
        <time>2020-05-17T12:26:00Z</time>
      </trkpt>
      <trkpt lat="47.15621" lon="-1.63274">
        <ele>18.53</ele>
        <time>2020-05-17T12:26:02Z</time>
      </trkpt>
      <trkpt lat="47.15634" lon="-1.63263">
        <ele>19.17</ele>
        <time>2020-05-17T12:26:04Z</time>
      </trkpt>
      <trkpt lat="47.15645" lon="-1.63255">
        <ele>18.91</ele>
        <time>2020-05-17T12:26:06Z</time>
      </trkpt>
      <trkpt lat="47.15656" lon="-1.63247">
        <ele>17.56</ele>
        <time>2020-05-17T12:26:08Z</time>
      </trkpt>
      <trkpt lat="47.15665" lon="-1.63239">
        <ele>16.61</ele>
        <time>2020-05-17T12:26:10Z</time>
      </trkpt>
      <trkpt lat="47.15676" lon="-1.6323">
        <ele>16.59</ele>
        <time>2020-05-17T12:26:12Z</time>
      </trkpt>
      <trkpt lat="47.15683" lon="-1.63223">
        <ele>16.06</ele>
        <time>2020-05-17T12:26:14Z</time>
      </trkpt>
      <trkpt lat="47.15696" lon="-1.63213">
        <ele>16.58</ele>
        <time>2020-05-17T12:26:16Z</time>
      </trkpt>
      <trkpt lat="47.15706" lon="-1.63203">
        <ele>17.68</ele>
        <time>2020-05-17T12:26:18Z</time>
      </trkpt>
      <trkpt lat="47.15716" lon="-1.63194">
        <ele>19.23</ele>
        <time>2020-05-17T12:26:20Z</time>
      </trkpt>
      <trkpt lat="47.15726" lon="-1.63186">
        <ele>20.06</ele>
        <time>2020-05-17T12:26:22Z</time>
      </trkpt>
      <trkpt lat="47.15737" lon="-1.63175">
        <ele>19.91</ele>
        <time>2020-05-17T12:26:24Z</time>
      </trkpt>
      <trkpt lat="47.15745" lon="-1.63166">
        <ele>20.75</ele>
        <time>2020-05-17T12:26:26Z</time>
      </trkpt>
      <trkpt lat="47.15751" lon="-1.63155">
        <ele>20.96</ele>
        <time>2020-05-17T12:26:28Z</time>
      </trkpt>
      <trkpt lat="47.15762" lon="-1.63153">
        <ele>19.61</ele>
        <time>2020-05-17T12:26:30Z</time>
      </trkpt>
      <trkpt lat="47.15774" lon="-1.63143">
        <ele>17.42</ele>
        <time>2020-05-17T12:26:32Z</time>
      </trkpt>
      <trkpt lat="47.15782" lon="-1.63135">
        <ele>16.64</ele>
        <time>2020-05-17T12:26:34Z</time>
      </trkpt>
      <trkpt lat="47.15792" lon="-1.63126">
        <ele>16.73</ele>
        <time>2020-05-17T12:26:36Z</time>
      </trkpt>
      <trkpt lat="47.15803" lon="-1.63117">
        <ele>16.14</ele>
        <time>2020-05-17T12:26:38Z</time>
      </trkpt>
      <trkpt lat="47.15814" lon="-1.63107">
        <ele>14.91</ele>
        <time>2020-05-17T12:26:40Z</time>
      </trkpt>
      <trkpt lat="47.15825" lon="-1.63097">
        <ele>13.71</ele>
        <time>2020-05-17T12:26:42Z</time>
      </trkpt>
      <trkpt lat="47.15836" lon="-1.63087">
        <ele>13.28</ele>
        <time>2020-05-17T12:26:44Z</time>
      </trkpt>
      <trkpt lat="47.15848" lon="-1.63076">
        <ele>12.41</ele>
        <time>2020-05-17T12:26:46Z</time>
      </trkpt>
      <trkpt lat="47.1586" lon="-1.63065">
        <ele>11.53</ele>
        <time>2020-05-17T12:26:48Z</time>
      </trkpt>
      <trkpt lat="47.15873" lon="-1.63054">
        <ele>11.19</ele>
        <time>2020-05-17T12:26:50Z</time>
      </trkpt>
      <trkpt lat="47.15886" lon="-1.63044">
        <ele>10.73</ele>
        <time>2020-05-17T12:26:52Z</time>
      </trkpt>
      <trkpt lat="47.159" lon="-1.63031">
        <ele>10.63</ele>
        <time>2020-05-17T12:26:54Z</time>
      </trkpt>
      <trkpt lat="47.15912" lon="-1.6302">
        <ele>10.89</ele>
        <time>2020-05-17T12:26:56Z</time>
      </trkpt>
      <trkpt lat="47.15924" lon="-1.63009">
        <ele>9.88</ele>
        <time>2020-05-17T12:26:58Z</time>
      </trkpt>
      <trkpt lat="47.15934" lon="-1.63">
        <ele>8.97</ele>
        <time>2020-05-17T12:27:00Z</time>
      </trkpt>
      <trkpt lat="47.15945" lon="-1.6299">
        <ele>8.97</ele>
        <time>2020-05-17T12:27:02Z</time>
      </trkpt>
      <trkpt lat="47.15956" lon="-1.62981">
        <ele>8.5</ele>
        <time>2020-05-17T12:27:04Z</time>
      </trkpt>
      <trkpt lat="47.15966" lon="-1.62972">
        <ele>7.84</ele>
        <time>2020-05-17T12:27:06Z</time>
      </trkpt>
      <trkpt lat="47.15977" lon="-1.62962">
        <ele>8.19</ele>
        <time>2020-05-17T12:27:09Z</time>
      </trkpt>
      <trkpt lat="47.15985" lon="-1.62954">
        <ele>9.33</ele>
        <time>2020-05-17T12:27:11Z</time>
      </trkpt>
      <trkpt lat="47.15994" lon="-1.62945">
        <ele>9.6</ele>
        <time>2020-05-17T12:27:13Z</time>
      </trkpt>
      <trkpt lat="47.16001" lon="-1.62938">
        <ele>10.75</ele>
        <time>2020-05-17T12:27:15Z</time>
      </trkpt>
      <trkpt lat="47.16009" lon="-1.62931">
        <ele>11.26</ele>
        <time>2020-05-17T12:27:17Z</time>
      </trkpt>
      <trkpt lat="47.16019" lon="-1.62924">
        <ele>11.11</ele>
        <time>2020-05-17T12:27:19Z</time>
      </trkpt>
      <trkpt lat="47.16029" lon="-1.62914">
        <ele>11.82</ele>
        <time>2020-05-17T12:27:21Z</time>
      </trkpt>
      <trkpt lat="47.16037" lon="-1.62908">
        <ele>12.6</ele>
        <time>2020-05-17T12:27:23Z</time>
      </trkpt>
      <trkpt lat="47.16047" lon="-1.629">
        <ele>12.75</ele>
        <time>2020-05-17T12:27:25Z</time>
      </trkpt>
      <trkpt lat="47.16058" lon="-1.6289">
        <ele>14.01</ele>
        <time>2020-05-17T12:27:27Z</time>
      </trkpt>
      <trkpt lat="47.16067" lon="-1.62881">
        <ele>15.41</ele>
        <time>2020-05-17T12:27:28Z</time>
      </trkpt>
      <trkpt lat="47.16077" lon="-1.62871">
        <ele>17.56</ele>
        <time>2020-05-17T12:27:31Z</time>
      </trkpt>
      <trkpt lat="47.16086" lon="-1.62864">
        <ele>18.02</ele>
        <time>2020-05-17T12:27:33Z</time>
      </trkpt>
      <trkpt lat="47.16096" lon="-1.62855">
        <ele>18.35</ele>
        <time>2020-05-17T12:27:35Z</time>
      </trkpt>
      <trkpt lat="47.16106" lon="-1.62848">
        <ele>18.11</ele>
        <time>2020-05-17T12:27:37Z</time>
      </trkpt>
      <trkpt lat="47.16115" lon="-1.6284">
        <ele>18.43</ele>
        <time>2020-05-17T12:27:40Z</time>
      </trkpt>
      <trkpt lat="47.16125" lon="-1.62832">
        <ele>18.19</ele>
        <time>2020-05-17T12:27:42Z</time>
      </trkpt>
      <trkpt lat="47.16134" lon="-1.62824">
        <ele>18.2</ele>
        <time>2020-05-17T12:27:44Z</time>
      </trkpt>
      <trkpt lat="47.16143" lon="-1.62817">
        <ele>18.4</ele>
        <time>2020-05-17T12:27:46Z</time>
      </trkpt>
      <trkpt lat="47.16151" lon="-1.6281">
        <ele>19.13</ele>
        <time>2020-05-17T12:27:48Z</time>
      </trkpt>
      <trkpt lat="47.16163" lon="-1.62798">
        <ele>19.36</ele>
        <time>2020-05-17T12:27:51Z</time>
      </trkpt>
      <trkpt lat="47.16172" lon="-1.6279">
        <ele>19.07</ele>
        <time>2020-05-17T12:27:53Z</time>
      </trkpt>
      <trkpt lat="47.1618" lon="-1.62783">
        <ele>19.15</ele>
        <time>2020-05-17T12:27:55Z</time>
      </trkpt>
      <trkpt lat="47.16189" lon="-1.62773">
        <ele>19.95</ele>
        <time>2020-05-17T12:27:57Z</time>
      </trkpt>
      <trkpt lat="47.16196" lon="-1.62765">
        <ele>20.82</ele>
        <time>2020-05-17T12:27:59Z</time>
      </trkpt>
      <trkpt lat="47.16204" lon="-1.62758">
        <ele>21.76</ele>
        <time>2020-05-17T12:28:01Z</time>
      </trkpt>
      <trkpt lat="47.16212" lon="-1.62752">
        <ele>22.49</ele>
        <time>2020-05-17T12:28:03Z</time>
      </trkpt>
      <trkpt lat="47.16224" lon="-1.62741">
        <ele>23.3</ele>
        <time>2020-05-17T12:28:06Z</time>
      </trkpt>
      <trkpt lat="47.16232" lon="-1.62733">
        <ele>23.77</ele>
        <time>2020-05-17T12:28:08Z</time>
      </trkpt>
      <trkpt lat="47.16244" lon="-1.62726">
        <ele>24.52</ele>
        <time>2020-05-17T12:28:11Z</time>
      </trkpt>
      <trkpt lat="47.16252" lon="-1.62719">
        <ele>25.59</ele>
        <time>2020-05-17T12:28:13Z</time>
      </trkpt>
      <trkpt lat="47.1626" lon="-1.62713">
        <ele>27.05</ele>
        <time>2020-05-17T12:28:15Z</time>
      </trkpt>
      <trkpt lat="47.16269" lon="-1.62706">
        <ele>28.35</ele>
        <time>2020-05-17T12:28:17Z</time>
      </trkpt>
      <trkpt lat="47.1628" lon="-1.62698">
        <ele>28.42</ele>
        <time>2020-05-17T12:28:20Z</time>
      </trkpt>
      <trkpt lat="47.1628" lon="-1.62681">
        <ele>28.11</ele>
        <time>2020-05-17T12:28:23Z</time>
      </trkpt>
      <trkpt lat="47.1628" lon="-1.62667">
        <ele>27.41</ele>
        <time>2020-05-17T12:28:25Z</time>
      </trkpt>
      <trkpt lat="47.16281" lon="-1.62652">
        <ele>26.5</ele>
        <time>2020-05-17T12:28:27Z</time>
      </trkpt>
      <trkpt lat="47.16283" lon="-1.62633">
        <ele>24.87</ele>
        <time>2020-05-17T12:28:30Z</time>
      </trkpt>
      <trkpt lat="47.16286" lon="-1.62618">
        <ele>24.87</ele>
        <time>2020-05-17T12:28:32Z</time>
      </trkpt>
      <trkpt lat="47.1629" lon="-1.62604">
        <ele>24.73</ele>
        <time>2020-05-17T12:28:34Z</time>
      </trkpt>
      <trkpt lat="47.16295" lon="-1.6259">
        <ele>24.23</ele>
        <time>2020-05-17T12:28:36Z</time>
      </trkpt>
      <trkpt lat="47.16305" lon="-1.62579">
        <ele>23.8</ele>
        <time>2020-05-17T12:28:39Z</time>
      </trkpt>
      <trkpt lat="47.16314" lon="-1.62576">
        <ele>23.9</ele>
        <time>2020-05-17T12:28:41Z</time>
      </trkpt>
      <trkpt lat="47.16324" lon="-1.62575">
        <ele>23.96</ele>
        <time>2020-05-17T12:28:43Z</time>
      </trkpt>
      <trkpt lat="47.16335" lon="-1.62578">
        <ele>23.19</ele>
        <time>2020-05-17T12:28:45Z</time>
      </trkpt>
      <trkpt lat="47.16344" lon="-1.62583">
        <ele>22.14</ele>
        <time>2020-05-17T12:28:47Z</time>
      </trkpt>
      <trkpt lat="47.16353" lon="-1.62586">
        <ele>21.2</ele>
        <time>2020-05-17T12:28:49Z</time>
      </trkpt>
      <trkpt lat="47.16363" lon="-1.62589">
        <ele>21.99</ele>
        <time>2020-05-17T12:28:51Z</time>
      </trkpt>
      <trkpt lat="47.16373" lon="-1.6259">
        <ele>22.39</ele>
        <time>2020-05-17T12:28:53Z</time>
      </trkpt>
      <trkpt lat="47.16383" lon="-1.6259">
        <ele>21.7</ele>
        <time>2020-05-17T12:28:55Z</time>
      </trkpt>
      <trkpt lat="47.16394" lon="-1.62587">
        <ele>20.69</ele>
        <time>2020-05-17T12:28:58Z</time>
      </trkpt>
      <trkpt lat="47.16402" lon="-1.6258">
        <ele>21.07</ele>
        <time>2020-05-17T12:29:00Z</time>
      </trkpt>
      <trkpt lat="47.16412" lon="-1.62571">
        <ele>22.31</ele>
        <time>2020-05-17T12:29:02Z</time>
      </trkpt>
      <trkpt lat="47.16421" lon="-1.62561">
        <ele>23.93</ele>
        <time>2020-05-17T12:29:04Z</time>
      </trkpt>
      <trkpt lat="47.16431" lon="-1.6255">
        <ele>24.94</ele>
        <time>2020-05-17T12:29:07Z</time>
      </trkpt>
      <trkpt lat="47.16441" lon="-1.62546">
        <ele>25.71</ele>
        <time>2020-05-17T12:29:10Z</time>
      </trkpt>
      <trkpt lat="47.16451" lon="-1.62549">
        <ele>26.26</ele>
        <time>2020-05-17T12:29:12Z</time>
      </trkpt>
      <trkpt lat="47.16461" lon="-1.62553">
        <ele>26.7</ele>
        <time>2020-05-17T12:29:14Z</time>
      </trkpt>
      <trkpt lat="47.1647" lon="-1.62556">
        <ele>27.29</ele>
        <time>2020-05-17T12:29:16Z</time>
      </trkpt>
      <trkpt lat="47.1648" lon="-1.6256">
        <ele>28.78</ele>
        <time>2020-05-17T12:29:18Z</time>
      </trkpt>
      <trkpt lat="47.1649" lon="-1.62564">
        <ele>29.76</ele>
        <time>2020-05-17T12:29:20Z</time>
      </trkpt>
      <trkpt lat="47.16502" lon="-1.62566">
        <ele>28.86</ele>
        <time>2020-05-17T12:29:22Z</time>
      </trkpt>
      <trkpt lat="47.16514" lon="-1.62569">
        <ele>28.16</ele>
        <time>2020-05-17T12:29:24Z</time>
      </trkpt>
      <trkpt lat="47.16524" lon="-1.62572">
        <ele>27.17</ele>
        <time>2020-05-17T12:29:26Z</time>
      </trkpt>
      <trkpt lat="47.16537" lon="-1.62573">
        <ele>26.1</ele>
        <time>2020-05-17T12:29:28Z</time>
      </trkpt>
      <trkpt lat="47.16546" lon="-1.62562">
        <ele>25.34</ele>
        <time>2020-05-17T12:29:30Z</time>
      </trkpt>
      <trkpt lat="47.16554" lon="-1.62552">
        <ele>24.08</ele>
        <time>2020-05-17T12:29:32Z</time>
      </trkpt>
      <trkpt lat="47.16564" lon="-1.62538">
        <ele>23.1</ele>
        <time>2020-05-17T12:29:34Z</time>
      </trkpt>
      <trkpt lat="47.16572" lon="-1.62523">
        <ele>22.47</ele>
        <time>2020-05-17T12:29:36Z</time>
      </trkpt>
      <trkpt lat="47.16579" lon="-1.62504">
        <ele>22.66</ele>
        <time>2020-05-17T12:29:38Z</time>
      </trkpt>
      <trkpt lat="47.16584" lon="-1.62486">
        <ele>22.82</ele>
        <time>2020-05-17T12:29:40Z</time>
      </trkpt>
      <trkpt lat="47.1659" lon="-1.6247">
        <ele>21.96</ele>
        <time>2020-05-17T12:29:42Z</time>
      </trkpt>
      <trkpt lat="47.16598" lon="-1.62451">
        <ele>21.12</ele>
        <time>2020-05-17T12:29:44Z</time>
      </trkpt>
      <trkpt lat="47.16605" lon="-1.62433">
        <ele>21.4</ele>
        <time>2020-05-17T12:29:46Z</time>
      </trkpt>
      <trkpt lat="47.16614" lon="-1.62415">
        <ele>21.79</ele>
        <time>2020-05-17T12:29:48Z</time>
      </trkpt>
      <trkpt lat="47.16625" lon="-1.62399">
        <ele>21.49</ele>
        <time>2020-05-17T12:29:50Z</time>
      </trkpt>
      <trkpt lat="47.16637" lon="-1.62383">
        <ele>20.26</ele>
        <time>2020-05-17T12:29:52Z</time>
      </trkpt>
      <trkpt lat="47.16648" lon="-1.62373">
        <ele>19.76</ele>
        <time>2020-05-17T12:29:54Z</time>
      </trkpt>
      <trkpt lat="47.16662" lon="-1.62365">
        <ele>18.58</ele>
        <time>2020-05-17T12:29:56Z</time>
      </trkpt>
      <trkpt lat="47.16677" lon="-1.62365">
        <ele>18.05</ele>
        <time>2020-05-17T12:29:58Z</time>
      </trkpt>
      <trkpt lat="47.16692" lon="-1.6237">
        <ele>17.39</ele>
        <time>2020-05-17T12:30:00Z</time>
      </trkpt>
      <trkpt lat="47.16704" lon="-1.62381">
        <ele>16.86</ele>
        <time>2020-05-17T12:30:02Z</time>
      </trkpt>
      <trkpt lat="47.16715" lon="-1.62394">
        <ele>16.61</ele>
        <time>2020-05-17T12:30:04Z</time>
      </trkpt>
      <trkpt lat="47.16722" lon="-1.62408">
        <ele>17.24</ele>
        <time>2020-05-17T12:30:06Z</time>
      </trkpt>
      <trkpt lat="47.16731" lon="-1.6242">
        <ele>17.84</ele>
        <time>2020-05-17T12:30:08Z</time>
      </trkpt>
      <trkpt lat="47.16732" lon="-1.62435">
        <ele>17.17</ele>
        <time>2020-05-17T12:30:11Z</time>
      </trkpt>
      <trkpt lat="47.16728" lon="-1.6245">
        <ele>16.28</ele>
        <time>2020-05-17T12:30:13Z</time>
      </trkpt>
      <trkpt lat="47.16723" lon="-1.62471">
        <ele>16.75</ele>
        <time>2020-05-17T12:30:15Z</time>
      </trkpt>
      <trkpt lat="47.16718" lon="-1.62486">
        <ele>15.69</ele>
        <time>2020-05-17T12:30:17Z</time>
      </trkpt>
      <trkpt lat="47.16717" lon="-1.62501">
        <ele>14.98</ele>
        <time>2020-05-17T12:30:19Z</time>
      </trkpt>
      <trkpt lat="47.16725" lon="-1.62511">
        <ele>15.6</ele>
        <time>2020-05-17T12:30:21Z</time>
      </trkpt>
      <trkpt lat="47.16736" lon="-1.62513">
        <ele>15.93</ele>
        <time>2020-05-17T12:30:23Z</time>
      </trkpt>
      <trkpt lat="47.16749" lon="-1.62519">
        <ele>15.91</ele>
        <time>2020-05-17T12:30:25Z</time>
      </trkpt>
      <trkpt lat="47.16761" lon="-1.62524">
        <ele>16.42</ele>
        <time>2020-05-17T12:30:27Z</time>
      </trkpt>
      <trkpt lat="47.16771" lon="-1.62528">
        <ele>17.51</ele>
        <time>2020-05-17T12:30:29Z</time>
      </trkpt>
      <trkpt lat="47.16783" lon="-1.62536">
        <ele>19.1</ele>
        <time>2020-05-17T12:30:31Z</time>
      </trkpt>
      <trkpt lat="47.16793" lon="-1.62544">
        <ele>19.87</ele>
        <time>2020-05-17T12:30:33Z</time>
      </trkpt>
      <trkpt lat="47.16802" lon="-1.62551">
        <ele>20.02</ele>
        <time>2020-05-17T12:30:35Z</time>
      </trkpt>
      <trkpt lat="47.16812" lon="-1.62557">
        <ele>19.45</ele>
        <time>2020-05-17T12:30:37Z</time>
      </trkpt>
      <trkpt lat="47.16822" lon="-1.62565">
        <ele>17.82</ele>
        <time>2020-05-17T12:30:39Z</time>
      </trkpt>
      <trkpt lat="47.16831" lon="-1.62576">
        <ele>16.3</ele>
        <time>2020-05-17T12:30:41Z</time>
      </trkpt>
      <trkpt lat="47.16836" lon="-1.62588">
        <ele>15.57</ele>
        <time>2020-05-17T12:30:43Z</time>
      </trkpt>
      <trkpt lat="47.1683" lon="-1.62601">
        <ele>17.36</ele>
        <time>2020-05-17T12:30:45Z</time>
      </trkpt>
      <trkpt lat="47.16822" lon="-1.62613">
        <ele>18.86</ele>
        <time>2020-05-17T12:30:47Z</time>
      </trkpt>
      <trkpt lat="47.16815" lon="-1.62624">
        <ele>20.06</ele>
        <time>2020-05-17T12:30:49Z</time>
      </trkpt>
      <trkpt lat="47.16809" lon="-1.62634">
        <ele>19.92</ele>
        <time>2020-05-17T12:30:51Z</time>
      </trkpt>
      <trkpt lat="47.16802" lon="-1.62645">
        <ele>19.39</ele>
        <time>2020-05-17T12:30:53Z</time>
      </trkpt>
      <trkpt lat="47.16795" lon="-1.62656">
        <ele>19.38</ele>
        <time>2020-05-17T12:30:55Z</time>
      </trkpt>
      <trkpt lat="47.16789" lon="-1.62666">
        <ele>19.49</ele>
        <time>2020-05-17T12:30:57Z</time>
      </trkpt>
      <trkpt lat="47.16779" lon="-1.62668">
        <ele>19.7</ele>
        <time>2020-05-17T12:31:00Z</time>
      </trkpt>
      <trkpt lat="47.16778" lon="-1.62654">
        <ele>21.08</ele>
        <time>2020-05-17T12:31:50Z</time>
      </trkpt>
    </trkseg>
  </trk>
</gpx>